<?xml version="1.0" encoding="UTF-8" standalone="no" ?>
<gpx xmlns="http://www.topografix.com/GPX/1/1" xmlns:xsi="http://www.w3.org/2001/XMLSchema-instance" xsi:schemaLocation="http://www.topografix.com/GPX/1/1 http://www.topografix.com/GPX/1/1/gpx.xsd" version="1.1" creator="VisuGPX - https://www.visugpx.com">
  <metadata>
    <name>ski st martin de Belleville - J5</name>
    <desc><![CDATA[Ski saint martin de belleville  3 vallees.
5eme jour (30 janvier 2014)]]></desc>
  </metadata>
  <trk>
    <name><![CDATA[2014-01-30 08:52]]></name>
    <desc><![CDATA[<h1>OruxMaps</h1><br /><hr align="center" width="480" style="height: 2px; width: 517px"/><h2>Nom: 2014-01-30 08:52</h2><br /><p>Temps de départ: 01/30/2014 09:03</p><p>Temps d'arrivée: 01/30/2014 16:53</p><p>Distance: 105,2 km (07:49)</p><p>Temps déplacement: 05:55</p><p>Vitesse moyenne: 13,4 km/h</p><p>Vitesse moyenne: 17,7 km/h</p><p>Vitess Max.: 57 km/h</p><p>Altitude minimale: 1259 m</p><p>Altitude maximale: 2706 m</p><p>Vitesse d'élévation: 3035,9 m/h</p><p>Vitesse de descente: -3483,1 m/h</p><p>Gain Altitude: 12383 m</p><p>Perte Altitude: -12387 m</p><p>Temps d'élévation: 04:04</p><p>Temps de descente: 03:33</p><hr align="center" width="480" style="height: 2px; width: 517px"/>]]></desc>
    <trkseg>
      <trkpt lat="45.37738" lon="6.50459">
        <ele>1425.02</ele>
        <time>2014-01-30T08:03:53Z</time>
      </trkpt>
      <trkpt lat="45.37724" lon="6.50439">
        <ele>1425.22</ele>
        <time>2014-01-30T08:04:38Z</time>
      </trkpt>
      <trkpt lat="45.37687" lon="6.50449">
        <ele>1426.25</ele>
        <time>2014-01-30T08:05:18Z</time>
      </trkpt>
      <trkpt lat="45.3767" lon="6.50492">
        <ele>1431.71</ele>
        <time>2014-01-30T08:06:16Z</time>
      </trkpt>
      <trkpt lat="45.3767" lon="6.50547">
        <ele>1440.76</ele>
        <time>2014-01-30T08:06:25Z</time>
      </trkpt>
      <trkpt lat="45.37665" lon="6.50605">
        <ele>1451.29</ele>
        <time>2014-01-30T08:06:35Z</time>
      </trkpt>
      <trkpt lat="45.37657" lon="6.50661">
        <ele>1462.35</ele>
        <time>2014-01-30T08:06:46Z</time>
      </trkpt>
      <trkpt lat="45.37646" lon="6.5072">
        <ele>1478.17</ele>
        <time>2014-01-30T08:06:54Z</time>
      </trkpt>
      <trkpt lat="45.37641" lon="6.50779">
        <ele>1486.69</ele>
        <time>2014-01-30T08:07:05Z</time>
      </trkpt>
      <trkpt lat="45.37632" lon="6.50834">
        <ele>1493.21</ele>
        <time>2014-01-30T08:07:14Z</time>
      </trkpt>
      <trkpt lat="45.37624" lon="6.50888">
        <ele>1504.24</ele>
        <time>2014-01-30T08:07:23Z</time>
      </trkpt>
      <trkpt lat="45.37616" lon="6.50944">
        <ele>1514.51</ele>
        <time>2014-01-30T08:07:33Z</time>
      </trkpt>
      <trkpt lat="45.37607" lon="6.51004">
        <ele>1528.45</ele>
        <time>2014-01-30T08:07:43Z</time>
      </trkpt>
      <trkpt lat="45.37595" lon="6.51057">
        <ele>1542.79</ele>
        <time>2014-01-30T08:07:53Z</time>
      </trkpt>
      <trkpt lat="45.37587" lon="6.51109">
        <ele>1551.14</ele>
        <time>2014-01-30T08:08:04Z</time>
      </trkpt>
      <trkpt lat="45.37575" lon="6.51162">
        <ele>1571.08</ele>
        <time>2014-01-30T08:08:14Z</time>
      </trkpt>
      <trkpt lat="45.37567" lon="6.51218">
        <ele>1580.96</ele>
        <time>2014-01-30T08:08:23Z</time>
      </trkpt>
      <trkpt lat="45.3756" lon="6.51274">
        <ele>1585.8</ele>
        <time>2014-01-30T08:08:32Z</time>
      </trkpt>
      <trkpt lat="45.37548" lon="6.51332">
        <ele>1591.62</ele>
        <time>2014-01-30T08:08:42Z</time>
      </trkpt>
      <trkpt lat="45.3754" lon="6.51389">
        <ele>1596.31</ele>
        <time>2014-01-30T08:08:52Z</time>
      </trkpt>
      <trkpt lat="45.37532" lon="6.51446">
        <ele>1600.25</ele>
        <time>2014-01-30T08:09:02Z</time>
      </trkpt>
      <trkpt lat="45.37521" lon="6.51505">
        <ele>1610.2</ele>
        <time>2014-01-30T08:09:12Z</time>
      </trkpt>
      <trkpt lat="45.37513" lon="6.51561">
        <ele>1617.69</ele>
        <time>2014-01-30T08:09:22Z</time>
      </trkpt>
      <trkpt lat="45.37507" lon="6.51621">
        <ele>1619.43</ele>
        <time>2014-01-30T08:09:32Z</time>
      </trkpt>
      <trkpt lat="45.37496" lon="6.5168">
        <ele>1619.54</ele>
        <time>2014-01-30T08:09:42Z</time>
      </trkpt>
      <trkpt lat="45.37485" lon="6.51738">
        <ele>1619.12</ele>
        <time>2014-01-30T08:09:52Z</time>
      </trkpt>
      <trkpt lat="45.37477" lon="6.51797">
        <ele>1619.11</ele>
        <time>2014-01-30T08:10:02Z</time>
      </trkpt>
      <trkpt lat="45.37471" lon="6.51857">
        <ele>1622.29</ele>
        <time>2014-01-30T08:10:13Z</time>
      </trkpt>
      <trkpt lat="45.37464" lon="6.51912">
        <ele>1631.26</ele>
        <time>2014-01-30T08:10:23Z</time>
      </trkpt>
      <trkpt lat="45.37455" lon="6.51969">
        <ele>1650.56</ele>
        <time>2014-01-30T08:10:33Z</time>
      </trkpt>
      <trkpt lat="45.37447" lon="6.52026">
        <ele>1662.36</ele>
        <time>2014-01-30T08:10:43Z</time>
      </trkpt>
      <trkpt lat="45.37439" lon="6.52083">
        <ele>1681.46</ele>
        <time>2014-01-30T08:10:53Z</time>
      </trkpt>
      <trkpt lat="45.37431" lon="6.52139">
        <ele>1700.1</ele>
        <time>2014-01-30T08:11:03Z</time>
      </trkpt>
      <trkpt lat="45.37422" lon="6.52196">
        <ele>1712.49</ele>
        <time>2014-01-30T08:11:13Z</time>
      </trkpt>
      <trkpt lat="45.37414" lon="6.52255">
        <ele>1724.77</ele>
        <time>2014-01-30T08:11:23Z</time>
      </trkpt>
      <trkpt lat="45.37407" lon="6.52311">
        <ele>1741.73</ele>
        <time>2014-01-30T08:11:33Z</time>
      </trkpt>
      <trkpt lat="45.374" lon="6.52369">
        <ele>1756.44</ele>
        <time>2014-01-30T08:11:44Z</time>
      </trkpt>
      <trkpt lat="45.37398" lon="6.52427">
        <ele>1767</ele>
        <time>2014-01-30T08:11:55Z</time>
      </trkpt>
      <trkpt lat="45.37384" lon="6.52483">
        <ele>1782.78</ele>
        <time>2014-01-30T08:12:05Z</time>
      </trkpt>
      <trkpt lat="45.37377" lon="6.52536">
        <ele>1786.95</ele>
        <time>2014-01-30T08:12:14Z</time>
      </trkpt>
      <trkpt lat="45.37365" lon="6.52586">
        <ele>1781.05</ele>
        <time>2014-01-30T08:12:22Z</time>
      </trkpt>
      <trkpt lat="45.37355" lon="6.52647">
        <ele>1779.63</ele>
        <time>2014-01-30T08:12:32Z</time>
      </trkpt>
      <trkpt lat="45.37346" lon="6.52705">
        <ele>1785.74</ele>
        <time>2014-01-30T08:12:43Z</time>
      </trkpt>
      <trkpt lat="45.37337" lon="6.52765">
        <ele>1789.4</ele>
        <time>2014-01-30T08:12:53Z</time>
      </trkpt>
      <trkpt lat="45.37328" lon="6.52822">
        <ele>1792.78</ele>
        <time>2014-01-30T08:13:03Z</time>
      </trkpt>
      <trkpt lat="45.37321" lon="6.52876">
        <ele>1798.28</ele>
        <time>2014-01-30T08:13:18Z</time>
      </trkpt>
      <trkpt lat="45.37283" lon="6.52869">
        <ele>1793.13</ele>
        <time>2014-01-30T08:14:57Z</time>
      </trkpt>
      <trkpt lat="45.37261" lon="6.52877">
        <ele>1789.17</ele>
        <time>2014-01-30T08:15:40Z</time>
      </trkpt>
      <trkpt lat="45.37244" lon="6.52935">
        <ele>1797.18</ele>
        <time>2014-01-30T08:16:09Z</time>
      </trkpt>
      <trkpt lat="45.37229" lon="6.52991">
        <ele>1806.17</ele>
        <time>2014-01-30T08:16:19Z</time>
      </trkpt>
      <trkpt lat="45.37215" lon="6.53045">
        <ele>1813.1</ele>
        <time>2014-01-30T08:16:29Z</time>
      </trkpt>
      <trkpt lat="45.37203" lon="6.53103">
        <ele>1822.16</ele>
        <time>2014-01-30T08:16:39Z</time>
      </trkpt>
      <trkpt lat="45.37185" lon="6.53156">
        <ele>1838.01</ele>
        <time>2014-01-30T08:16:49Z</time>
      </trkpt>
      <trkpt lat="45.37171" lon="6.53215">
        <ele>1859.6</ele>
        <time>2014-01-30T08:16:59Z</time>
      </trkpt>
      <trkpt lat="45.37159" lon="6.53267">
        <ele>1873.17</ele>
        <time>2014-01-30T08:17:08Z</time>
      </trkpt>
      <trkpt lat="45.37142" lon="6.53319">
        <ele>1880.37</ele>
        <time>2014-01-30T08:17:18Z</time>
      </trkpt>
      <trkpt lat="45.37125" lon="6.53375">
        <ele>1887.2</ele>
        <time>2014-01-30T08:17:28Z</time>
      </trkpt>
      <trkpt lat="45.37112" lon="6.53428">
        <ele>1895.85</ele>
        <time>2014-01-30T08:17:37Z</time>
      </trkpt>
      <trkpt lat="45.37098" lon="6.53482">
        <ele>1904.65</ele>
        <time>2014-01-30T08:17:47Z</time>
      </trkpt>
      <trkpt lat="45.3708" lon="6.53535">
        <ele>1912.58</ele>
        <time>2014-01-30T08:17:57Z</time>
      </trkpt>
      <trkpt lat="45.37065" lon="6.53593">
        <ele>1925.36</ele>
        <time>2014-01-30T08:18:07Z</time>
      </trkpt>
      <trkpt lat="45.3705" lon="6.53646">
        <ele>1940.23</ele>
        <time>2014-01-30T08:18:17Z</time>
      </trkpt>
      <trkpt lat="45.37036" lon="6.53701">
        <ele>1949.74</ele>
        <time>2014-01-30T08:18:27Z</time>
      </trkpt>
      <trkpt lat="45.37017" lon="6.53745">
        <ele>1963.23</ele>
        <time>2014-01-30T08:19:23Z</time>
      </trkpt>
      <trkpt lat="45.37002" lon="6.53801">
        <ele>1974.29</ele>
        <time>2014-01-30T08:19:59Z</time>
      </trkpt>
      <trkpt lat="45.36989" lon="6.5385">
        <ele>1986.49</ele>
        <time>2014-01-30T08:20:28Z</time>
      </trkpt>
      <trkpt lat="45.36979" lon="6.53904">
        <ele>1996.4</ele>
        <time>2014-01-30T08:20:40Z</time>
      </trkpt>
      <trkpt lat="45.36962" lon="6.5396">
        <ele>2002.12</ele>
        <time>2014-01-30T08:20:50Z</time>
      </trkpt>
      <trkpt lat="45.36945" lon="6.54016">
        <ele>2009.91</ele>
        <time>2014-01-30T08:21:00Z</time>
      </trkpt>
      <trkpt lat="45.36932" lon="6.5407">
        <ele>2018.93</ele>
        <time>2014-01-30T08:21:10Z</time>
      </trkpt>
      <trkpt lat="45.36922" lon="6.54127">
        <ele>2044.54</ele>
        <time>2014-01-30T08:21:20Z</time>
      </trkpt>
      <trkpt lat="45.36909" lon="6.54177">
        <ele>2066.56</ele>
        <time>2014-01-30T08:21:30Z</time>
      </trkpt>
      <trkpt lat="45.36894" lon="6.54232">
        <ele>2082.85</ele>
        <time>2014-01-30T08:21:40Z</time>
      </trkpt>
      <trkpt lat="45.36875" lon="6.54286">
        <ele>2094.87</ele>
        <time>2014-01-30T08:21:50Z</time>
      </trkpt>
      <trkpt lat="45.3686" lon="6.5434">
        <ele>2101.06</ele>
        <time>2014-01-30T08:22:00Z</time>
      </trkpt>
      <trkpt lat="45.36841" lon="6.54394">
        <ele>2101.6</ele>
        <time>2014-01-30T08:22:10Z</time>
      </trkpt>
      <trkpt lat="45.36824" lon="6.5445">
        <ele>2106.84</ele>
        <time>2014-01-30T08:22:20Z</time>
      </trkpt>
      <trkpt lat="45.36809" lon="6.54506">
        <ele>2123.06</ele>
        <time>2014-01-30T08:22:30Z</time>
      </trkpt>
      <trkpt lat="45.36794" lon="6.54562">
        <ele>2130.02</ele>
        <time>2014-01-30T08:22:40Z</time>
      </trkpt>
      <trkpt lat="45.36777" lon="6.54619">
        <ele>2132.66</ele>
        <time>2014-01-30T08:22:50Z</time>
      </trkpt>
      <trkpt lat="45.36761" lon="6.54675">
        <ele>2143.58</ele>
        <time>2014-01-30T08:23:00Z</time>
      </trkpt>
      <trkpt lat="45.36751" lon="6.54733">
        <ele>2170.24</ele>
        <time>2014-01-30T08:23:10Z</time>
      </trkpt>
      <trkpt lat="45.36744" lon="6.54789">
        <ele>2196.95</ele>
        <time>2014-01-30T08:23:21Z</time>
      </trkpt>
      <trkpt lat="45.36724" lon="6.54833">
        <ele>2192.97</ele>
        <time>2014-01-30T08:23:29Z</time>
      </trkpt>
      <trkpt lat="45.36701" lon="6.54885">
        <ele>2197.08</ele>
        <time>2014-01-30T08:23:39Z</time>
      </trkpt>
      <trkpt lat="45.36684" lon="6.54939">
        <ele>2194.88</ele>
        <time>2014-01-30T08:23:49Z</time>
      </trkpt>
      <trkpt lat="45.36667" lon="6.54996">
        <ele>2199.01</ele>
        <time>2014-01-30T08:23:59Z</time>
      </trkpt>
      <trkpt lat="45.36653" lon="6.55051">
        <ele>2209.33</ele>
        <time>2014-01-30T08:24:09Z</time>
      </trkpt>
      <trkpt lat="45.36639" lon="6.5511">
        <ele>2226.59</ele>
        <time>2014-01-30T08:24:19Z</time>
      </trkpt>
      <trkpt lat="45.36628" lon="6.55165">
        <ele>2242.3</ele>
        <time>2014-01-30T08:24:29Z</time>
      </trkpt>
      <trkpt lat="45.36611" lon="6.55222">
        <ele>2252</ele>
        <time>2014-01-30T08:24:39Z</time>
      </trkpt>
      <trkpt lat="45.36594" lon="6.55276">
        <ele>2261.41</ele>
        <time>2014-01-30T08:24:49Z</time>
      </trkpt>
      <trkpt lat="45.36583" lon="6.55333">
        <ele>2267.67</ele>
        <time>2014-01-30T08:24:59Z</time>
      </trkpt>
      <trkpt lat="45.36564" lon="6.55389">
        <ele>2281.02</ele>
        <time>2014-01-30T08:25:09Z</time>
      </trkpt>
      <trkpt lat="45.36547" lon="6.55444">
        <ele>2292.05</ele>
        <time>2014-01-30T08:25:19Z</time>
      </trkpt>
      <trkpt lat="45.36532" lon="6.55498">
        <ele>2299.3</ele>
        <time>2014-01-30T08:25:29Z</time>
      </trkpt>
      <trkpt lat="45.36524" lon="6.55553">
        <ele>2316.26</ele>
        <time>2014-01-30T08:25:39Z</time>
      </trkpt>
      <trkpt lat="45.36516" lon="6.55609">
        <ele>2337.48</ele>
        <time>2014-01-30T08:25:49Z</time>
      </trkpt>
      <trkpt lat="45.36506" lon="6.55662">
        <ele>2372.02</ele>
        <time>2014-01-30T08:25:59Z</time>
      </trkpt>
      <trkpt lat="45.36501" lon="6.55717">
        <ele>2398.96</ele>
        <time>2014-01-30T08:26:10Z</time>
      </trkpt>
      <trkpt lat="45.3651" lon="6.55724">
        <ele>2402.92</ele>
        <time>2014-01-30T08:26:31Z</time>
      </trkpt>
      <trkpt lat="45.3655" lon="6.55705">
        <ele>2405.14</ele>
        <time>2014-01-30T08:26:43Z</time>
      </trkpt>
      <trkpt lat="45.36589" lon="6.55681">
        <ele>2396.94</ele>
        <time>2014-01-30T08:26:53Z</time>
      </trkpt>
      <trkpt lat="45.36627" lon="6.55657">
        <ele>2383.22</ele>
        <time>2014-01-30T08:26:58Z</time>
      </trkpt>
      <trkpt lat="45.3667" lon="6.5563">
        <ele>2366.62</ele>
        <time>2014-01-30T08:27:03Z</time>
      </trkpt>
      <trkpt lat="45.3669" lon="6.55578">
        <ele>2352.12</ele>
        <time>2014-01-30T08:27:08Z</time>
      </trkpt>
      <trkpt lat="45.36723" lon="6.55536">
        <ele>2345.72</ele>
        <time>2014-01-30T08:27:14Z</time>
      </trkpt>
      <trkpt lat="45.36742" lon="6.55478">
        <ele>2339.28</ele>
        <time>2014-01-30T08:27:20Z</time>
      </trkpt>
      <trkpt lat="45.36759" lon="6.55416">
        <ele>2336.11</ele>
        <time>2014-01-30T08:27:26Z</time>
      </trkpt>
      <trkpt lat="45.36782" lon="6.5537">
        <ele>2330.57</ele>
        <time>2014-01-30T08:27:32Z</time>
      </trkpt>
      <trkpt lat="45.36817" lon="6.55335">
        <ele>2316.83</ele>
        <time>2014-01-30T08:27:36Z</time>
      </trkpt>
      <trkpt lat="45.36844" lon="6.55284">
        <ele>2305.78</ele>
        <time>2014-01-30T08:27:41Z</time>
      </trkpt>
      <trkpt lat="45.36855" lon="6.55225">
        <ele>2304.97</ele>
        <time>2014-01-30T08:27:47Z</time>
      </trkpt>
      <trkpt lat="45.36888" lon="6.55189">
        <ele>2308.2</ele>
        <time>2014-01-30T08:27:53Z</time>
      </trkpt>
      <trkpt lat="45.36925" lon="6.55157">
        <ele>2301.38</ele>
        <time>2014-01-30T08:27:59Z</time>
      </trkpt>
      <trkpt lat="45.36957" lon="6.55119">
        <ele>2297.97</ele>
        <time>2014-01-30T08:28:05Z</time>
      </trkpt>
      <trkpt lat="45.36984" lon="6.5508">
        <ele>2294.89</ele>
        <time>2014-01-30T08:28:11Z</time>
      </trkpt>
      <trkpt lat="45.37015" lon="6.55039">
        <ele>2293.34</ele>
        <time>2014-01-30T08:28:18Z</time>
      </trkpt>
      <trkpt lat="45.3705" lon="6.55016">
        <ele>2292.46</ele>
        <time>2014-01-30T08:28:24Z</time>
      </trkpt>
      <trkpt lat="45.3709" lon="6.55007">
        <ele>2289.61</ele>
        <time>2014-01-30T08:28:30Z</time>
      </trkpt>
      <trkpt lat="45.3713" lon="6.55">
        <ele>2286.59</ele>
        <time>2014-01-30T08:28:36Z</time>
      </trkpt>
      <trkpt lat="45.37172" lon="6.54988">
        <ele>2282.97</ele>
        <time>2014-01-30T08:28:42Z</time>
      </trkpt>
      <trkpt lat="45.37187" lon="6.54937">
        <ele>2273.95</ele>
        <time>2014-01-30T08:28:53Z</time>
      </trkpt>
      <trkpt lat="45.37217" lon="6.54924">
        <ele>2267.61</ele>
        <time>2014-01-30T08:29:05Z</time>
      </trkpt>
      <trkpt lat="45.37208" lon="6.54871">
        <ele>2257.42</ele>
        <time>2014-01-30T08:29:19Z</time>
      </trkpt>
      <trkpt lat="45.37224" lon="6.54844">
        <ele>2246.75</ele>
        <time>2014-01-30T08:29:29Z</time>
      </trkpt>
      <trkpt lat="45.37262" lon="6.54819">
        <ele>2230.18</ele>
        <time>2014-01-30T08:29:40Z</time>
      </trkpt>
      <trkpt lat="45.37245" lon="6.5477">
        <ele>2221.56</ele>
        <time>2014-01-30T08:29:59Z</time>
      </trkpt>
      <trkpt lat="45.3725" lon="6.54741">
        <ele>2209.02</ele>
        <time>2014-01-30T08:30:10Z</time>
      </trkpt>
      <trkpt lat="45.37275" lon="6.54711">
        <ele>2199.52</ele>
        <time>2014-01-30T08:30:32Z</time>
      </trkpt>
      <trkpt lat="45.37307" lon="6.54683">
        <ele>2182.72</ele>
        <time>2014-01-30T08:30:43Z</time>
      </trkpt>
      <trkpt lat="45.37298" lon="6.54625">
        <ele>2175.36</ele>
        <time>2014-01-30T08:30:57Z</time>
      </trkpt>
      <trkpt lat="45.37292" lon="6.54571">
        <ele>2168.87</ele>
        <time>2014-01-30T08:31:09Z</time>
      </trkpt>
      <trkpt lat="45.37304" lon="6.54533">
        <ele>2159.12</ele>
        <time>2014-01-30T08:31:32Z</time>
      </trkpt>
      <trkpt lat="45.37341" lon="6.54552">
        <ele>2159.08</ele>
        <time>2014-01-30T08:31:44Z</time>
      </trkpt>
      <trkpt lat="45.37379" lon="6.54539">
        <ele>2145.87</ele>
        <time>2014-01-30T08:31:55Z</time>
      </trkpt>
      <trkpt lat="45.37393" lon="6.54518">
        <ele>2137.96</ele>
        <time>2014-01-30T08:32:08Z</time>
      </trkpt>
      <trkpt lat="45.37428" lon="6.54516">
        <ele>2129.62</ele>
        <time>2014-01-30T08:32:24Z</time>
      </trkpt>
      <trkpt lat="45.37417" lon="6.54472">
        <ele>2119.91</ele>
        <time>2014-01-30T08:32:38Z</time>
      </trkpt>
      <trkpt lat="45.37427" lon="6.54424">
        <ele>2102.54</ele>
        <time>2014-01-30T08:32:48Z</time>
      </trkpt>
      <trkpt lat="45.37429" lon="6.54366">
        <ele>2090.84</ele>
        <time>2014-01-30T08:33:01Z</time>
      </trkpt>
      <trkpt lat="45.37429" lon="6.54312">
        <ele>2080.99</ele>
        <time>2014-01-30T08:33:11Z</time>
      </trkpt>
      <trkpt lat="45.37413" lon="6.54265">
        <ele>2071.43</ele>
        <time>2014-01-30T08:33:22Z</time>
      </trkpt>
      <trkpt lat="45.3738" lon="6.54236">
        <ele>2063.27</ele>
        <time>2014-01-30T08:33:31Z</time>
      </trkpt>
      <trkpt lat="45.37385" lon="6.54196">
        <ele>2051.12</ele>
        <time>2014-01-30T08:33:59Z</time>
      </trkpt>
      <trkpt lat="45.37419" lon="6.54179">
        <ele>2039.05</ele>
        <time>2014-01-30T08:34:12Z</time>
      </trkpt>
      <trkpt lat="45.3745" lon="6.5416">
        <ele>2029.96</ele>
        <time>2014-01-30T08:34:24Z</time>
      </trkpt>
      <trkpt lat="45.37452" lon="6.54122">
        <ele>2017.85</ele>
        <time>2014-01-30T08:34:35Z</time>
      </trkpt>
      <trkpt lat="45.37449" lon="6.54076">
        <ele>2007.25</ele>
        <time>2014-01-30T08:34:43Z</time>
      </trkpt>
      <trkpt lat="45.37448" lon="6.54021">
        <ele>2000.67</ele>
        <time>2014-01-30T08:34:50Z</time>
      </trkpt>
      <trkpt lat="45.3742" lon="6.53969">
        <ele>1992.96</ele>
        <time>2014-01-30T08:34:57Z</time>
      </trkpt>
      <trkpt lat="45.37389" lon="6.53934">
        <ele>1989.52</ele>
        <time>2014-01-30T08:35:11Z</time>
      </trkpt>
      <trkpt lat="45.37402" lon="6.53887">
        <ele>1979.87</ele>
        <time>2014-01-30T08:35:27Z</time>
      </trkpt>
      <trkpt lat="45.37408" lon="6.53848">
        <ele>1970.51</ele>
        <time>2014-01-30T08:35:39Z</time>
      </trkpt>
      <trkpt lat="45.37422" lon="6.53806">
        <ele>1964.08</ele>
        <time>2014-01-30T08:35:54Z</time>
      </trkpt>
      <trkpt lat="45.37443" lon="6.53757">
        <ele>1954.2</ele>
        <time>2014-01-30T08:36:02Z</time>
      </trkpt>
      <trkpt lat="45.3743" lon="6.53698">
        <ele>1940.83</ele>
        <time>2014-01-30T08:36:11Z</time>
      </trkpt>
      <trkpt lat="45.3742" lon="6.53647">
        <ele>1933.49</ele>
        <time>2014-01-30T08:36:19Z</time>
      </trkpt>
      <trkpt lat="45.3741" lon="6.5359">
        <ele>1927.12</ele>
        <time>2014-01-30T08:36:28Z</time>
      </trkpt>
      <trkpt lat="45.37398" lon="6.53531">
        <ele>1921.77</ele>
        <time>2014-01-30T08:36:35Z</time>
      </trkpt>
      <trkpt lat="45.37383" lon="6.53475">
        <ele>1920.78</ele>
        <time>2014-01-30T08:36:42Z</time>
      </trkpt>
      <trkpt lat="45.37367" lon="6.53427">
        <ele>1912.97</ele>
        <time>2014-01-30T08:36:49Z</time>
      </trkpt>
      <trkpt lat="45.37336" lon="6.53401">
        <ele>1898.34</ele>
        <time>2014-01-30T08:37:04Z</time>
      </trkpt>
      <trkpt lat="45.37296" lon="6.5341">
        <ele>1901.67</ele>
        <time>2014-01-30T08:37:14Z</time>
      </trkpt>
      <trkpt lat="45.37264" lon="6.53383">
        <ele>1894.09</ele>
        <time>2014-01-30T08:37:25Z</time>
      </trkpt>
      <trkpt lat="45.37288" lon="6.53336">
        <ele>1880.07</ele>
        <time>2014-01-30T08:37:39Z</time>
      </trkpt>
      <trkpt lat="45.37275" lon="6.53296">
        <ele>1869.47</ele>
        <time>2014-01-30T08:37:48Z</time>
      </trkpt>
      <trkpt lat="45.37238" lon="6.53286">
        <ele>1860.34</ele>
        <time>2014-01-30T08:38:01Z</time>
      </trkpt>
      <trkpt lat="45.37239" lon="6.5324">
        <ele>1850.75</ele>
        <time>2014-01-30T08:38:29Z</time>
      </trkpt>
      <trkpt lat="45.3722" lon="6.53186">
        <ele>1838.02</ele>
        <time>2014-01-30T08:38:40Z</time>
      </trkpt>
      <trkpt lat="45.37185" lon="6.53163">
        <ele>1840.21</ele>
        <time>2014-01-30T08:38:49Z</time>
      </trkpt>
      <trkpt lat="45.37206" lon="6.5311">
        <ele>1823.36</ele>
        <time>2014-01-30T08:38:56Z</time>
      </trkpt>
      <trkpt lat="45.37231" lon="6.5305">
        <ele>1814.32</ele>
        <time>2014-01-30T08:39:00Z</time>
      </trkpt>
      <trkpt lat="45.37257" lon="6.52988">
        <ele>1806.53</ele>
        <time>2014-01-30T08:39:04Z</time>
      </trkpt>
      <trkpt lat="45.37285" lon="6.52934">
        <ele>1799.78</ele>
        <time>2014-01-30T08:39:08Z</time>
      </trkpt>
      <trkpt lat="45.3728" lon="6.52869">
        <ele>1792.8</ele>
        <time>2014-01-30T08:39:16Z</time>
      </trkpt>
      <trkpt lat="45.3726" lon="6.52872">
        <ele>1788.56</ele>
        <time>2014-01-30T08:39:33Z</time>
      </trkpt>
      <trkpt lat="45.37246" lon="6.52924">
        <ele>1794.82</ele>
        <time>2014-01-30T08:39:58Z</time>
      </trkpt>
      <trkpt lat="45.37236" lon="6.52981">
        <ele>1804.88</ele>
        <time>2014-01-30T08:40:07Z</time>
      </trkpt>
      <trkpt lat="45.3722" lon="6.53034">
        <ele>1811.77</ele>
        <time>2014-01-30T08:40:17Z</time>
      </trkpt>
      <trkpt lat="45.37206" lon="6.5309">
        <ele>1819.74</ele>
        <time>2014-01-30T08:40:27Z</time>
      </trkpt>
      <trkpt lat="45.37193" lon="6.53138">
        <ele>1830.2</ele>
        <time>2014-01-30T08:40:36Z</time>
      </trkpt>
      <trkpt lat="45.37179" lon="6.53192">
        <ele>1851.38</ele>
        <time>2014-01-30T08:40:45Z</time>
      </trkpt>
      <trkpt lat="45.37164" lon="6.53245">
        <ele>1869.1</ele>
        <time>2014-01-30T08:40:55Z</time>
      </trkpt>
      <trkpt lat="45.37149" lon="6.53294">
        <ele>1877.22</ele>
        <time>2014-01-30T08:41:04Z</time>
      </trkpt>
      <trkpt lat="45.37134" lon="6.53346">
        <ele>1883.54</ele>
        <time>2014-01-30T08:41:14Z</time>
      </trkpt>
      <trkpt lat="45.37119" lon="6.53401">
        <ele>1890.8</ele>
        <time>2014-01-30T08:41:23Z</time>
      </trkpt>
      <trkpt lat="45.37107" lon="6.53456">
        <ele>1900.97</ele>
        <time>2014-01-30T08:41:32Z</time>
      </trkpt>
      <trkpt lat="45.3709" lon="6.53512">
        <ele>1908.88</ele>
        <time>2014-01-30T08:41:43Z</time>
      </trkpt>
      <trkpt lat="45.37075" lon="6.53565">
        <ele>1919.07</ele>
        <time>2014-01-30T08:41:53Z</time>
      </trkpt>
      <trkpt lat="45.37057" lon="6.53614">
        <ele>1931</ele>
        <time>2014-01-30T08:42:03Z</time>
      </trkpt>
      <trkpt lat="45.3704" lon="6.53667">
        <ele>1941.3</ele>
        <time>2014-01-30T08:42:15Z</time>
      </trkpt>
      <trkpt lat="45.37029" lon="6.53726">
        <ele>1958.53</ele>
        <time>2014-01-30T08:42:24Z</time>
      </trkpt>
      <trkpt lat="45.3702" lon="6.5378">
        <ele>1971.8</ele>
        <time>2014-01-30T08:42:32Z</time>
      </trkpt>
      <trkpt lat="45.37005" lon="6.53834">
        <ele>1980.8</ele>
        <time>2014-01-30T08:42:42Z</time>
      </trkpt>
      <trkpt lat="45.36987" lon="6.53882">
        <ele>1994.33</ele>
        <time>2014-01-30T08:42:51Z</time>
      </trkpt>
      <trkpt lat="45.36973" lon="6.53937">
        <ele>2001.1</ele>
        <time>2014-01-30T08:43:01Z</time>
      </trkpt>
      <trkpt lat="45.36959" lon="6.53989">
        <ele>2006.33</ele>
        <time>2014-01-30T08:43:10Z</time>
      </trkpt>
      <trkpt lat="45.36947" lon="6.54047">
        <ele>2015.27</ele>
        <time>2014-01-30T08:43:20Z</time>
      </trkpt>
      <trkpt lat="45.36936" lon="6.54102">
        <ele>2034.1</ele>
        <time>2014-01-30T08:43:30Z</time>
      </trkpt>
      <trkpt lat="45.36926" lon="6.54152">
        <ele>2059.32</ele>
        <time>2014-01-30T08:43:39Z</time>
      </trkpt>
      <trkpt lat="45.36915" lon="6.54207">
        <ele>2078.8</ele>
        <time>2014-01-30T08:43:49Z</time>
      </trkpt>
      <trkpt lat="45.36899" lon="6.54262">
        <ele>2092.32</ele>
        <time>2014-01-30T08:43:59Z</time>
      </trkpt>
      <trkpt lat="45.36883" lon="6.54316">
        <ele>2105.67</ele>
        <time>2014-01-30T08:44:09Z</time>
      </trkpt>
      <trkpt lat="45.36865" lon="6.5437">
        <ele>2105.07</ele>
        <time>2014-01-30T08:44:19Z</time>
      </trkpt>
      <trkpt lat="45.36844" lon="6.54424">
        <ele>2110.92</ele>
        <time>2014-01-30T08:44:29Z</time>
      </trkpt>
      <trkpt lat="45.3683" lon="6.5448">
        <ele>2120.17</ele>
        <time>2014-01-30T08:44:39Z</time>
      </trkpt>
      <trkpt lat="45.36815" lon="6.54531">
        <ele>2133.47</ele>
        <time>2014-01-30T08:44:49Z</time>
      </trkpt>
      <trkpt lat="45.368" lon="6.54582">
        <ele>2136.8</ele>
        <time>2014-01-30T08:44:58Z</time>
      </trkpt>
      <trkpt lat="45.36777" lon="6.54633">
        <ele>2136.12</ele>
        <time>2014-01-30T08:45:08Z</time>
      </trkpt>
      <trkpt lat="45.36765" lon="6.5469">
        <ele>2150.21</ele>
        <time>2014-01-30T08:45:18Z</time>
      </trkpt>
      <trkpt lat="45.36759" lon="6.54746">
        <ele>2183.54</ele>
        <time>2014-01-30T08:45:28Z</time>
      </trkpt>
      <trkpt lat="45.36751" lon="6.54802">
        <ele>2201.97</ele>
        <time>2014-01-30T08:45:38Z</time>
      </trkpt>
      <trkpt lat="45.36728" lon="6.5485">
        <ele>2197.72</ele>
        <time>2014-01-30T08:45:47Z</time>
      </trkpt>
      <trkpt lat="45.36706" lon="6.54895">
        <ele>2198.98</ele>
        <time>2014-01-30T08:45:56Z</time>
      </trkpt>
      <trkpt lat="45.36685" lon="6.54949">
        <ele>2194.77</ele>
        <time>2014-01-30T08:46:06Z</time>
      </trkpt>
      <trkpt lat="45.36667" lon="6.55004">
        <ele>2200.93</ele>
        <time>2014-01-30T08:46:16Z</time>
      </trkpt>
      <trkpt lat="45.36656" lon="6.55057">
        <ele>2212.71</ele>
        <time>2014-01-30T08:46:25Z</time>
      </trkpt>
      <trkpt lat="45.36645" lon="6.55115">
        <ele>2229.02</ele>
        <time>2014-01-30T08:46:35Z</time>
      </trkpt>
      <trkpt lat="45.3663" lon="6.5517">
        <ele>2243.69</ele>
        <time>2014-01-30T08:46:45Z</time>
      </trkpt>
      <trkpt lat="45.36613" lon="6.55225">
        <ele>2252.78</ele>
        <time>2014-01-30T08:46:55Z</time>
      </trkpt>
      <trkpt lat="45.36595" lon="6.55278">
        <ele>2261.68</ele>
        <time>2014-01-30T08:47:05Z</time>
      </trkpt>
      <trkpt lat="45.36581" lon="6.55334">
        <ele>2267.4</ele>
        <time>2014-01-30T08:47:15Z</time>
      </trkpt>
      <trkpt lat="45.36563" lon="6.55389">
        <ele>2281.1</ele>
        <time>2014-01-30T08:47:25Z</time>
      </trkpt>
      <trkpt lat="45.36546" lon="6.55447">
        <ele>2292.28</ele>
        <time>2014-01-30T08:47:35Z</time>
      </trkpt>
      <trkpt lat="45.36535" lon="6.55503">
        <ele>2301.25</ele>
        <time>2014-01-30T08:47:45Z</time>
      </trkpt>
      <trkpt lat="45.36527" lon="6.55561">
        <ele>2318.69</ele>
        <time>2014-01-30T08:47:55Z</time>
      </trkpt>
      <trkpt lat="45.36516" lon="6.55613">
        <ele>2339.77</ele>
        <time>2014-01-30T08:48:05Z</time>
      </trkpt>
      <trkpt lat="45.36504" lon="6.55662">
        <ele>2372.29</ele>
        <time>2014-01-30T08:48:15Z</time>
      </trkpt>
      <trkpt lat="45.36492" lon="6.55717">
        <ele>2395.92</ele>
        <time>2014-01-30T08:48:26Z</time>
      </trkpt>
      <trkpt lat="45.3646" lon="6.55755">
        <ele>2399.52</ele>
        <time>2014-01-30T08:48:42Z</time>
      </trkpt>
      <trkpt lat="45.36421" lon="6.55746">
        <ele>2390.83</ele>
        <time>2014-01-30T08:48:59Z</time>
      </trkpt>
      <trkpt lat="45.36382" lon="6.55732">
        <ele>2386.76</ele>
        <time>2014-01-30T08:49:08Z</time>
      </trkpt>
      <trkpt lat="45.36344" lon="6.55715">
        <ele>2380.68</ele>
        <time>2014-01-30T08:49:12Z</time>
      </trkpt>
      <trkpt lat="45.3634" lon="6.55686">
        <ele>2370.93</ele>
        <time>2014-01-30T08:49:19Z</time>
      </trkpt>
      <trkpt lat="45.36356" lon="6.55638">
        <ele>2363.28</ele>
        <time>2014-01-30T08:49:24Z</time>
      </trkpt>
      <trkpt lat="45.36379" lon="6.55593">
        <ele>2353.82</ele>
        <time>2014-01-30T08:49:31Z</time>
      </trkpt>
      <trkpt lat="45.36413" lon="6.5556">
        <ele>2344.95</ele>
        <time>2014-01-30T08:49:40Z</time>
      </trkpt>
      <trkpt lat="45.3642" lon="6.55518">
        <ele>2331.07</ele>
        <time>2014-01-30T08:49:45Z</time>
      </trkpt>
      <trkpt lat="45.36445" lon="6.55464">
        <ele>2304.7</ele>
        <time>2014-01-30T08:49:51Z</time>
      </trkpt>
      <trkpt lat="45.36439" lon="6.55401">
        <ele>2289.31</ele>
        <time>2014-01-30T08:49:56Z</time>
      </trkpt>
      <trkpt lat="45.36461" lon="6.55358">
        <ele>2281.05</ele>
        <time>2014-01-30T08:50:01Z</time>
      </trkpt>
      <trkpt lat="45.36466" lon="6.55302">
        <ele>2270.57</ele>
        <time>2014-01-30T08:50:08Z</time>
      </trkpt>
      <trkpt lat="45.36446" lon="6.55253">
        <ele>2258.48</ele>
        <time>2014-01-30T08:50:14Z</time>
      </trkpt>
      <trkpt lat="45.36457" lon="6.55202">
        <ele>2246.82</ele>
        <time>2014-01-30T08:50:18Z</time>
      </trkpt>
      <trkpt lat="45.36466" lon="6.55143">
        <ele>2235.45</ele>
        <time>2014-01-30T08:50:23Z</time>
      </trkpt>
      <trkpt lat="45.36487" lon="6.5509">
        <ele>2222.89</ele>
        <time>2014-01-30T08:50:29Z</time>
      </trkpt>
      <trkpt lat="45.36485" lon="6.55032">
        <ele>2205.65</ele>
        <time>2014-01-30T08:50:35Z</time>
      </trkpt>
      <trkpt lat="45.36488" lon="6.54973">
        <ele>2187.92</ele>
        <time>2014-01-30T08:50:41Z</time>
      </trkpt>
      <trkpt lat="45.36496" lon="6.54912">
        <ele>2179.45</ele>
        <time>2014-01-30T08:50:45Z</time>
      </trkpt>
      <trkpt lat="45.36513" lon="6.54847">
        <ele>2166.5</ele>
        <time>2014-01-30T08:50:49Z</time>
      </trkpt>
      <trkpt lat="45.36521" lon="6.54787">
        <ele>2160.34</ele>
        <time>2014-01-30T08:50:53Z</time>
      </trkpt>
      <trkpt lat="45.36513" lon="6.54729">
        <ele>2141.98</ele>
        <time>2014-01-30T08:50:59Z</time>
      </trkpt>
      <trkpt lat="45.36487" lon="6.54676">
        <ele>2135.3</ele>
        <time>2014-01-30T08:51:04Z</time>
      </trkpt>
      <trkpt lat="45.36483" lon="6.5462">
        <ele>2129.69</ele>
        <time>2014-01-30T08:51:08Z</time>
      </trkpt>
      <trkpt lat="45.36485" lon="6.54564">
        <ele>2120.67</ele>
        <time>2014-01-30T08:51:12Z</time>
      </trkpt>
      <trkpt lat="45.36498" lon="6.54505">
        <ele>2108.6</ele>
        <time>2014-01-30T08:51:16Z</time>
      </trkpt>
      <trkpt lat="45.36531" lon="6.5445">
        <ele>2098.76</ele>
        <time>2014-01-30T08:51:22Z</time>
      </trkpt>
      <trkpt lat="45.36555" lon="6.54398">
        <ele>2093.67</ele>
        <time>2014-01-30T08:51:28Z</time>
      </trkpt>
      <trkpt lat="45.36574" lon="6.5433">
        <ele>2084.02</ele>
        <time>2014-01-30T08:51:34Z</time>
      </trkpt>
      <trkpt lat="45.3659" lon="6.54269">
        <ele>2074.3</ele>
        <time>2014-01-30T08:51:39Z</time>
      </trkpt>
      <trkpt lat="45.36613" lon="6.54213">
        <ele>2064.89</ele>
        <time>2014-01-30T08:51:45Z</time>
      </trkpt>
      <trkpt lat="45.36642" lon="6.54175">
        <ele>2058.7</ele>
        <time>2014-01-30T08:51:51Z</time>
      </trkpt>
      <trkpt lat="45.36674" lon="6.54117">
        <ele>2039.32</ele>
        <time>2014-01-30T08:51:58Z</time>
      </trkpt>
      <trkpt lat="45.36687" lon="6.54045">
        <ele>2023.39</ele>
        <time>2014-01-30T08:52:02Z</time>
      </trkpt>
      <trkpt lat="45.36712" lon="6.53984">
        <ele>2012.5</ele>
        <time>2014-01-30T08:52:06Z</time>
      </trkpt>
      <trkpt lat="45.3672" lon="6.53919">
        <ele>2005.51</ele>
        <time>2014-01-30T08:52:10Z</time>
      </trkpt>
      <trkpt lat="45.36737" lon="6.53866">
        <ele>1998.54</ele>
        <time>2014-01-30T08:52:15Z</time>
      </trkpt>
      <trkpt lat="45.36785" lon="6.53862">
        <ele>1992.53</ele>
        <time>2014-01-30T08:52:22Z</time>
      </trkpt>
      <trkpt lat="45.36831" lon="6.53864">
        <ele>1988.45</ele>
        <time>2014-01-30T08:52:27Z</time>
      </trkpt>
      <trkpt lat="45.36881" lon="6.53851">
        <ele>1980.75</ele>
        <time>2014-01-30T08:52:33Z</time>
      </trkpt>
      <trkpt lat="45.36913" lon="6.53817">
        <ele>1973.68</ele>
        <time>2014-01-30T08:52:38Z</time>
      </trkpt>
      <trkpt lat="45.3694" lon="6.53763">
        <ele>1965.75</ele>
        <time>2014-01-30T08:52:45Z</time>
      </trkpt>
      <trkpt lat="45.36947" lon="6.53697">
        <ele>1951.8</ele>
        <time>2014-01-30T08:52:51Z</time>
      </trkpt>
      <trkpt lat="45.36961" lon="6.53628">
        <ele>1937.45</ele>
        <time>2014-01-30T08:52:57Z</time>
      </trkpt>
      <trkpt lat="45.36976" lon="6.53578">
        <ele>1928.47</ele>
        <time>2014-01-30T08:53:01Z</time>
      </trkpt>
      <trkpt lat="45.3699" lon="6.53511">
        <ele>1914.28</ele>
        <time>2014-01-30T08:53:07Z</time>
      </trkpt>
      <trkpt lat="45.37006" lon="6.53452">
        <ele>1908.25</ele>
        <time>2014-01-30T08:53:11Z</time>
      </trkpt>
      <trkpt lat="45.37029" lon="6.53395">
        <ele>1903.11</ele>
        <time>2014-01-30T08:53:16Z</time>
      </trkpt>
      <trkpt lat="45.37061" lon="6.53354">
        <ele>1895.73</ele>
        <time>2014-01-30T08:53:22Z</time>
      </trkpt>
      <trkpt lat="45.37092" lon="6.53301">
        <ele>1887.49</ele>
        <time>2014-01-30T08:53:28Z</time>
      </trkpt>
      <trkpt lat="45.37104" lon="6.5324">
        <ele>1878.01</ele>
        <time>2014-01-30T08:53:34Z</time>
      </trkpt>
      <trkpt lat="45.37076" lon="6.53179">
        <ele>1867.73</ele>
        <time>2014-01-30T08:53:40Z</time>
      </trkpt>
      <trkpt lat="45.37043" lon="6.53131">
        <ele>1869.79</ele>
        <time>2014-01-30T08:53:46Z</time>
      </trkpt>
      <trkpt lat="45.37075" lon="6.53094">
        <ele>1849.52</ele>
        <time>2014-01-30T08:53:52Z</time>
      </trkpt>
      <trkpt lat="45.37127" lon="6.53101">
        <ele>1834.53</ele>
        <time>2014-01-30T08:53:56Z</time>
      </trkpt>
      <trkpt lat="45.37173" lon="6.53101">
        <ele>1825.14</ele>
        <time>2014-01-30T08:54:00Z</time>
      </trkpt>
      <trkpt lat="45.37209" lon="6.53067">
        <ele>1816.1</ele>
        <time>2014-01-30T08:54:04Z</time>
      </trkpt>
      <trkpt lat="45.37232" lon="6.53007">
        <ele>1808.56</ele>
        <time>2014-01-30T08:54:09Z</time>
      </trkpt>
      <trkpt lat="45.37259" lon="6.52957">
        <ele>1801.51</ele>
        <time>2014-01-30T08:54:13Z</time>
      </trkpt>
      <trkpt lat="45.37287" lon="6.52911">
        <ele>1797.69</ele>
        <time>2014-01-30T08:54:18Z</time>
      </trkpt>
      <trkpt lat="45.37278" lon="6.52867">
        <ele>1792.43</ele>
        <time>2014-01-30T08:54:29Z</time>
      </trkpt>
      <trkpt lat="45.37253" lon="6.52904">
        <ele>1791.36</ele>
        <time>2014-01-30T08:55:37Z</time>
      </trkpt>
      <trkpt lat="45.37238" lon="6.52961">
        <ele>1801.85</ele>
        <time>2014-01-30T08:55:47Z</time>
      </trkpt>
      <trkpt lat="45.37225" lon="6.53011">
        <ele>1808.7</ele>
        <time>2014-01-30T08:55:55Z</time>
      </trkpt>
      <trkpt lat="45.37211" lon="6.53067">
        <ele>1816.12</ele>
        <time>2014-01-30T08:56:05Z</time>
      </trkpt>
      <trkpt lat="45.37198" lon="6.5312">
        <ele>1825.76</ele>
        <time>2014-01-30T08:56:15Z</time>
      </trkpt>
      <trkpt lat="45.37181" lon="6.53175">
        <ele>1845.67</ele>
        <time>2014-01-30T08:56:25Z</time>
      </trkpt>
      <trkpt lat="45.37167" lon="6.5323">
        <ele>1864.78</ele>
        <time>2014-01-30T08:56:35Z</time>
      </trkpt>
      <trkpt lat="45.37153" lon="6.53282">
        <ele>1875.51</ele>
        <time>2014-01-30T08:56:44Z</time>
      </trkpt>
      <trkpt lat="45.37138" lon="6.53338">
        <ele>1882.52</ele>
        <time>2014-01-30T08:56:54Z</time>
      </trkpt>
      <trkpt lat="45.37121" lon="6.53394">
        <ele>1889.61</ele>
        <time>2014-01-30T08:57:04Z</time>
      </trkpt>
      <trkpt lat="45.37106" lon="6.5345">
        <ele>1900.05</ele>
        <time>2014-01-30T08:57:14Z</time>
      </trkpt>
      <trkpt lat="45.37089" lon="6.53506">
        <ele>1907.95</ele>
        <time>2014-01-30T08:57:24Z</time>
      </trkpt>
      <trkpt lat="45.37073" lon="6.53561">
        <ele>1918.19</ele>
        <time>2014-01-30T08:57:34Z</time>
      </trkpt>
      <trkpt lat="45.3706" lon="6.53617">
        <ele>1931.96</ele>
        <time>2014-01-30T08:57:44Z</time>
      </trkpt>
      <trkpt lat="45.37045" lon="6.53671">
        <ele>1943.43</ele>
        <time>2014-01-30T08:57:54Z</time>
      </trkpt>
      <trkpt lat="45.3703" lon="6.53726">
        <ele>1958.7</ele>
        <time>2014-01-30T08:58:04Z</time>
      </trkpt>
      <trkpt lat="45.37017" lon="6.5378">
        <ele>1971.6</ele>
        <time>2014-01-30T08:58:13Z</time>
      </trkpt>
      <trkpt lat="45.37001" lon="6.53835">
        <ele>1981.38</ele>
        <time>2014-01-30T08:58:23Z</time>
      </trkpt>
      <trkpt lat="45.36986" lon="6.53889">
        <ele>1995.39</ele>
        <time>2014-01-30T08:58:33Z</time>
      </trkpt>
      <trkpt lat="45.36972" lon="6.53938">
        <ele>2001.02</ele>
        <time>2014-01-30T08:58:42Z</time>
      </trkpt>
      <trkpt lat="45.36955" lon="6.53995">
        <ele>2006.98</ele>
        <time>2014-01-30T08:58:52Z</time>
      </trkpt>
      <trkpt lat="45.36943" lon="6.54053">
        <ele>2015.44</ele>
        <time>2014-01-30T08:59:02Z</time>
      </trkpt>
      <trkpt lat="45.36934" lon="6.54108">
        <ele>2036.56</ele>
        <time>2014-01-30T08:59:12Z</time>
      </trkpt>
      <trkpt lat="45.36927" lon="6.54165">
        <ele>2065.07</ele>
        <time>2014-01-30T08:59:21Z</time>
      </trkpt>
      <trkpt lat="45.36912" lon="6.5422">
        <ele>2082.01</ele>
        <time>2014-01-30T08:59:31Z</time>
      </trkpt>
      <trkpt lat="45.36895" lon="6.54274">
        <ele>2096.74</ele>
        <time>2014-01-30T08:59:41Z</time>
      </trkpt>
      <trkpt lat="45.3688" lon="6.54329">
        <ele>2107.47</ele>
        <time>2014-01-30T08:59:51Z</time>
      </trkpt>
      <trkpt lat="45.36862" lon="6.5438">
        <ele>2107.21</ele>
        <time>2014-01-30T09:00:00Z</time>
      </trkpt>
      <trkpt lat="45.36845" lon="6.54434">
        <ele>2112.94</ele>
        <time>2014-01-30T09:00:10Z</time>
      </trkpt>
      <trkpt lat="45.36829" lon="6.5449">
        <ele>2124.5</ele>
        <time>2014-01-30T09:00:20Z</time>
      </trkpt>
      <trkpt lat="45.36812" lon="6.54543">
        <ele>2134.6</ele>
        <time>2014-01-30T09:00:30Z</time>
      </trkpt>
      <trkpt lat="45.3679" lon="6.54585">
        <ele>2132.44</ele>
        <time>2014-01-30T09:00:38Z</time>
      </trkpt>
      <trkpt lat="45.36774" lon="6.54636">
        <ele>2135.63</ele>
        <time>2014-01-30T09:00:47Z</time>
      </trkpt>
      <trkpt lat="45.36757" lon="6.54684">
        <ele>2144.34</ele>
        <time>2014-01-30T09:00:59Z</time>
      </trkpt>
      <trkpt lat="45.36744" lon="6.54735">
        <ele>2170.65</ele>
        <time>2014-01-30T09:01:09Z</time>
      </trkpt>
      <trkpt lat="45.36734" lon="6.54792">
        <ele>2191.53</ele>
        <time>2014-01-30T09:01:18Z</time>
      </trkpt>
      <trkpt lat="45.36722" lon="6.54847">
        <ele>2194.92</ele>
        <time>2014-01-30T09:01:26Z</time>
      </trkpt>
      <trkpt lat="45.36709" lon="6.54901">
        <ele>2200.21</ele>
        <time>2014-01-30T09:01:35Z</time>
      </trkpt>
      <trkpt lat="45.36697" lon="6.54953">
        <ele>2198.44</ele>
        <time>2014-01-30T09:01:44Z</time>
      </trkpt>
      <trkpt lat="45.36682" lon="6.5501">
        <ele>2203.11</ele>
        <time>2014-01-30T09:01:54Z</time>
      </trkpt>
      <trkpt lat="45.36671" lon="6.5507">
        <ele>2220.56</ele>
        <time>2014-01-30T09:02:04Z</time>
      </trkpt>
      <trkpt lat="45.36662" lon="6.55126">
        <ele>2235.77</ele>
        <time>2014-01-30T09:02:14Z</time>
      </trkpt>
      <trkpt lat="45.36648" lon="6.55178">
        <ele>2247.94</ele>
        <time>2014-01-30T09:02:23Z</time>
      </trkpt>
      <trkpt lat="45.36629" lon="6.55234">
        <ele>2255.96</ele>
        <time>2014-01-30T09:02:33Z</time>
      </trkpt>
      <trkpt lat="45.36615" lon="6.55287">
        <ele>2264.31</ele>
        <time>2014-01-30T09:02:43Z</time>
      </trkpt>
      <trkpt lat="45.366" lon="6.55343">
        <ele>2275.13</ele>
        <time>2014-01-30T09:02:53Z</time>
      </trkpt>
      <trkpt lat="45.36581" lon="6.55396">
        <ele>2282.42</ele>
        <time>2014-01-30T09:03:03Z</time>
      </trkpt>
      <trkpt lat="45.36562" lon="6.55453">
        <ele>2294.3</ele>
        <time>2014-01-30T09:03:13Z</time>
      </trkpt>
      <trkpt lat="45.36548" lon="6.55506">
        <ele>2304.03</ele>
        <time>2014-01-30T09:03:21Z</time>
      </trkpt>
      <trkpt lat="45.36533" lon="6.55552">
        <ele>2317.29</ele>
        <time>2014-01-30T09:03:31Z</time>
      </trkpt>
      <trkpt lat="45.36527" lon="6.55608">
        <ele>2338.55</ele>
        <time>2014-01-30T09:03:41Z</time>
      </trkpt>
      <trkpt lat="45.36522" lon="6.55663">
        <ele>2370.73</ele>
        <time>2014-01-30T09:03:53Z</time>
      </trkpt>
      <trkpt lat="45.36491" lon="6.55698">
        <ele>2386.93</ele>
        <time>2014-01-30T09:04:02Z</time>
      </trkpt>
      <trkpt lat="45.36468" lon="6.55738">
        <ele>2395.22</ele>
        <time>2014-01-30T09:04:37Z</time>
      </trkpt>
      <trkpt lat="45.36451" lon="6.55785">
        <ele>2407.19</ele>
        <time>2014-01-30T09:05:16Z</time>
      </trkpt>
      <trkpt lat="45.3649" lon="6.55801">
        <ele>2395.03</ele>
        <time>2014-01-30T09:05:26Z</time>
      </trkpt>
      <trkpt lat="45.36528" lon="6.55823">
        <ele>2370.86</ele>
        <time>2014-01-30T09:05:36Z</time>
      </trkpt>
      <trkpt lat="45.36559" lon="6.55835">
        <ele>2355.48</ele>
        <time>2014-01-30T09:05:43Z</time>
      </trkpt>
      <trkpt lat="45.3659" lon="6.55849">
        <ele>2344.62</ele>
        <time>2014-01-30T09:05:52Z</time>
      </trkpt>
      <trkpt lat="45.36635" lon="6.55863">
        <ele>2326.09</ele>
        <time>2014-01-30T09:06:03Z</time>
      </trkpt>
      <trkpt lat="45.36665" lon="6.55863">
        <ele>2312.39</ele>
        <time>2014-01-30T09:06:09Z</time>
      </trkpt>
      <trkpt lat="45.36705" lon="6.55876">
        <ele>2296.54</ele>
        <time>2014-01-30T09:06:20Z</time>
      </trkpt>
      <trkpt lat="45.36742" lon="6.55902">
        <ele>2274.74</ele>
        <time>2014-01-30T09:06:28Z</time>
      </trkpt>
      <trkpt lat="45.36772" lon="6.55927">
        <ele>2259.78</ele>
        <time>2014-01-30T09:06:35Z</time>
      </trkpt>
      <trkpt lat="45.36813" lon="6.55944">
        <ele>2241.72</ele>
        <time>2014-01-30T09:06:42Z</time>
      </trkpt>
      <trkpt lat="45.36837" lon="6.55995">
        <ele>2224.52</ele>
        <time>2014-01-30T09:06:50Z</time>
      </trkpt>
      <trkpt lat="45.36868" lon="6.5604">
        <ele>2211.1</ele>
        <time>2014-01-30T09:06:58Z</time>
      </trkpt>
      <trkpt lat="45.36895" lon="6.5608">
        <ele>2196.02</ele>
        <time>2014-01-30T09:07:06Z</time>
      </trkpt>
      <trkpt lat="45.36889" lon="6.56128">
        <ele>2182.23</ele>
        <time>2014-01-30T09:07:12Z</time>
      </trkpt>
      <trkpt lat="45.36903" lon="6.56183">
        <ele>2169.73</ele>
        <time>2014-01-30T09:07:22Z</time>
      </trkpt>
      <trkpt lat="45.36921" lon="6.5623">
        <ele>2151.15</ele>
        <time>2014-01-30T09:07:29Z</time>
      </trkpt>
      <trkpt lat="45.36957" lon="6.56245">
        <ele>2135.3</ele>
        <time>2014-01-30T09:07:43Z</time>
      </trkpt>
      <trkpt lat="45.36993" lon="6.56235">
        <ele>2126.98</ele>
        <time>2014-01-30T09:07:50Z</time>
      </trkpt>
      <trkpt lat="45.37027" lon="6.56232">
        <ele>2113.92</ele>
        <time>2014-01-30T09:07:58Z</time>
      </trkpt>
      <trkpt lat="45.37065" lon="6.56222">
        <ele>2104.42</ele>
        <time>2014-01-30T09:08:06Z</time>
      </trkpt>
      <trkpt lat="45.37108" lon="6.56206">
        <ele>2093.8</ele>
        <time>2014-01-30T09:08:14Z</time>
      </trkpt>
      <trkpt lat="45.37147" lon="6.56218">
        <ele>2069.05</ele>
        <time>2014-01-30T09:08:21Z</time>
      </trkpt>
      <trkpt lat="45.3718" lon="6.56216">
        <ele>2059.19</ele>
        <time>2014-01-30T09:08:27Z</time>
      </trkpt>
      <trkpt lat="45.37224" lon="6.56203">
        <ele>2051.17</ele>
        <time>2014-01-30T09:08:35Z</time>
      </trkpt>
      <trkpt lat="45.37259" lon="6.56218">
        <ele>2039.6</ele>
        <time>2014-01-30T09:08:41Z</time>
      </trkpt>
      <trkpt lat="45.37307" lon="6.56208">
        <ele>2023.06</ele>
        <time>2014-01-30T09:08:47Z</time>
      </trkpt>
      <trkpt lat="45.3734" lon="6.56229">
        <ele>2007.42</ele>
        <time>2014-01-30T09:08:51Z</time>
      </trkpt>
      <trkpt lat="45.37385" lon="6.56231">
        <ele>1999.88</ele>
        <time>2014-01-30T09:08:56Z</time>
      </trkpt>
      <trkpt lat="45.37433" lon="6.56222">
        <ele>1987.99</ele>
        <time>2014-01-30T09:09:02Z</time>
      </trkpt>
      <trkpt lat="45.37474" lon="6.562">
        <ele>1980.87</ele>
        <time>2014-01-30T09:09:08Z</time>
      </trkpt>
      <trkpt lat="45.37522" lon="6.56217">
        <ele>1972.55</ele>
        <time>2014-01-30T09:09:15Z</time>
      </trkpt>
      <trkpt lat="45.37559" lon="6.56223">
        <ele>1958.99</ele>
        <time>2014-01-30T09:09:19Z</time>
      </trkpt>
      <trkpt lat="45.37596" lon="6.56243">
        <ele>1947.14</ele>
        <time>2014-01-30T09:09:23Z</time>
      </trkpt>
      <trkpt lat="45.37644" lon="6.56249">
        <ele>1938.92</ele>
        <time>2014-01-30T09:09:29Z</time>
      </trkpt>
      <trkpt lat="45.37687" lon="6.56243">
        <ele>1936.91</ele>
        <time>2014-01-30T09:09:35Z</time>
      </trkpt>
      <trkpt lat="45.37714" lon="6.56282">
        <ele>1926.54</ele>
        <time>2014-01-30T09:09:44Z</time>
      </trkpt>
      <trkpt lat="45.37707" lon="6.56311">
        <ele>1922.41</ele>
        <time>2014-01-30T09:11:21Z</time>
      </trkpt>
      <trkpt lat="45.37664" lon="6.56308">
        <ele>1925.93</ele>
        <time>2014-01-30T09:13:18Z</time>
      </trkpt>
      <trkpt lat="45.37627" lon="6.5629">
        <ele>1933.76</ele>
        <time>2014-01-30T09:13:29Z</time>
      </trkpt>
      <trkpt lat="45.37591" lon="6.56273">
        <ele>1943.71</ele>
        <time>2014-01-30T09:13:41Z</time>
      </trkpt>
      <trkpt lat="45.3755" lon="6.56256">
        <ele>1960.41</ele>
        <time>2014-01-30T09:13:51Z</time>
      </trkpt>
      <trkpt lat="45.37512" lon="6.56242">
        <ele>1971.86</ele>
        <time>2014-01-30T09:14:02Z</time>
      </trkpt>
      <trkpt lat="45.37472" lon="6.56225">
        <ele>1981.18</ele>
        <time>2014-01-30T09:14:11Z</time>
      </trkpt>
      <trkpt lat="45.37435" lon="6.56209">
        <ele>1987.37</ele>
        <time>2014-01-30T09:14:21Z</time>
      </trkpt>
      <trkpt lat="45.37398" lon="6.56194">
        <ele>1997</ele>
        <time>2014-01-30T09:14:32Z</time>
      </trkpt>
      <trkpt lat="45.37359" lon="6.5618">
        <ele>2011.72</ele>
        <time>2014-01-30T09:14:42Z</time>
      </trkpt>
      <trkpt lat="45.37321" lon="6.56166">
        <ele>2020.4</ele>
        <time>2014-01-30T09:14:52Z</time>
      </trkpt>
      <trkpt lat="45.37281" lon="6.56149">
        <ele>2027.36</ele>
        <time>2014-01-30T09:15:03Z</time>
      </trkpt>
      <trkpt lat="45.37243" lon="6.56135">
        <ele>2043.82</ele>
        <time>2014-01-30T09:15:13Z</time>
      </trkpt>
      <trkpt lat="45.37205" lon="6.56121">
        <ele>2061.19</ele>
        <time>2014-01-30T09:15:23Z</time>
      </trkpt>
      <trkpt lat="45.3717" lon="6.56107">
        <ele>2084.2</ele>
        <time>2014-01-30T09:15:33Z</time>
      </trkpt>
      <trkpt lat="45.37134" lon="6.56091">
        <ele>2108.44</ele>
        <time>2014-01-30T09:15:45Z</time>
      </trkpt>
      <trkpt lat="45.37094" lon="6.5608">
        <ele>2132.3</ele>
        <time>2014-01-30T09:15:59Z</time>
      </trkpt>
      <trkpt lat="45.37058" lon="6.56066">
        <ele>2150.94</ele>
        <time>2014-01-30T09:16:11Z</time>
      </trkpt>
      <trkpt lat="45.37018" lon="6.56047">
        <ele>2169.49</ele>
        <time>2014-01-30T09:16:21Z</time>
      </trkpt>
      <trkpt lat="45.36984" lon="6.5603">
        <ele>2180.54</ele>
        <time>2014-01-30T09:16:28Z</time>
      </trkpt>
      <trkpt lat="45.36944" lon="6.56014">
        <ele>2190.83</ele>
        <time>2014-01-30T09:16:37Z</time>
      </trkpt>
      <trkpt lat="45.36905" lon="6.55998">
        <ele>2206.44</ele>
        <time>2014-01-30T09:16:47Z</time>
      </trkpt>
      <trkpt lat="45.36868" lon="6.55985">
        <ele>2218.19</ele>
        <time>2014-01-30T09:16:57Z</time>
      </trkpt>
      <trkpt lat="45.36832" lon="6.55973">
        <ele>2228.71</ele>
        <time>2014-01-30T09:17:07Z</time>
      </trkpt>
      <trkpt lat="45.36792" lon="6.55957">
        <ele>2250.18</ele>
        <time>2014-01-30T09:17:18Z</time>
      </trkpt>
      <trkpt lat="45.36758" lon="6.55941">
        <ele>2267.08</ele>
        <time>2014-01-30T09:17:28Z</time>
      </trkpt>
      <trkpt lat="45.36719" lon="6.55925">
        <ele>2287.14</ele>
        <time>2014-01-30T09:17:38Z</time>
      </trkpt>
      <trkpt lat="45.36677" lon="6.5591">
        <ele>2306.79</ele>
        <time>2014-01-30T09:17:50Z</time>
      </trkpt>
      <trkpt lat="45.36639" lon="6.55892">
        <ele>2326.23</ele>
        <time>2014-01-30T09:18:01Z</time>
      </trkpt>
      <trkpt lat="45.36601" lon="6.55875">
        <ele>2340.07</ele>
        <time>2014-01-30T09:18:11Z</time>
      </trkpt>
      <trkpt lat="45.3656" lon="6.5586">
        <ele>2350.12</ele>
        <time>2014-01-30T09:18:22Z</time>
      </trkpt>
      <trkpt lat="45.36523" lon="6.55843">
        <ele>2367.22</ele>
        <time>2014-01-30T09:18:32Z</time>
      </trkpt>
      <trkpt lat="45.36487" lon="6.55829">
        <ele>2388.1</ele>
        <time>2014-01-30T09:18:42Z</time>
      </trkpt>
      <trkpt lat="45.36445" lon="6.55813">
        <ele>2405.46</ele>
        <time>2014-01-30T09:18:54Z</time>
      </trkpt>
      <trkpt lat="45.36407" lon="6.55796">
        <ele>2408.64</ele>
        <time>2014-01-30T09:19:10Z</time>
      </trkpt>
      <trkpt lat="45.36406" lon="6.55752">
        <ele>2392.91</ele>
        <time>2014-01-30T09:19:51Z</time>
      </trkpt>
      <trkpt lat="45.36369" lon="6.55739">
        <ele>2388.88</ele>
        <time>2014-01-30T09:19:58Z</time>
      </trkpt>
      <trkpt lat="45.3633" lon="6.55713">
        <ele>2378.98</ele>
        <time>2014-01-30T09:20:05Z</time>
      </trkpt>
      <trkpt lat="45.36338" lon="6.5566">
        <ele>2365.37</ele>
        <time>2014-01-30T09:20:20Z</time>
      </trkpt>
      <trkpt lat="45.36368" lon="6.55608">
        <ele>2356.77</ele>
        <time>2014-01-30T09:20:26Z</time>
      </trkpt>
      <trkpt lat="45.364" lon="6.55568">
        <ele>2349.25</ele>
        <time>2014-01-30T09:20:32Z</time>
      </trkpt>
      <trkpt lat="45.36423" lon="6.55513">
        <ele>2328.01</ele>
        <time>2014-01-30T09:20:38Z</time>
      </trkpt>
      <trkpt lat="45.36452" lon="6.55452">
        <ele>2301.27</ele>
        <time>2014-01-30T09:20:43Z</time>
      </trkpt>
      <trkpt lat="45.36457" lon="6.55384">
        <ele>2286.09</ele>
        <time>2014-01-30T09:20:47Z</time>
      </trkpt>
      <trkpt lat="45.3646" lon="6.5533">
        <ele>2275.04</ele>
        <time>2014-01-30T09:20:51Z</time>
      </trkpt>
      <trkpt lat="45.36454" lon="6.55269">
        <ele>2262.06</ele>
        <time>2014-01-30T09:20:56Z</time>
      </trkpt>
      <trkpt lat="45.36458" lon="6.55199">
        <ele>2246.39</ele>
        <time>2014-01-30T09:21:00Z</time>
      </trkpt>
      <trkpt lat="45.36454" lon="6.55138">
        <ele>2233.38</ele>
        <time>2014-01-30T09:21:04Z</time>
      </trkpt>
      <trkpt lat="45.36478" lon="6.55088">
        <ele>2222.02</ele>
        <time>2014-01-30T09:21:10Z</time>
      </trkpt>
      <trkpt lat="45.36478" lon="6.55024">
        <ele>2202.33</ele>
        <time>2014-01-30T09:21:15Z</time>
      </trkpt>
      <trkpt lat="45.36481" lon="6.5496">
        <ele>2185.41</ele>
        <time>2014-01-30T09:21:19Z</time>
      </trkpt>
      <trkpt lat="45.36485" lon="6.54895">
        <ele>2175.21</ele>
        <time>2014-01-30T09:21:23Z</time>
      </trkpt>
      <trkpt lat="45.36507" lon="6.54832">
        <ele>2164.83</ele>
        <time>2014-01-30T09:21:27Z</time>
      </trkpt>
      <trkpt lat="45.3651" lon="6.5477">
        <ele>2155.52</ele>
        <time>2014-01-30T09:21:32Z</time>
      </trkpt>
      <trkpt lat="45.36495" lon="6.54715">
        <ele>2138.01</ele>
        <time>2014-01-30T09:21:37Z</time>
      </trkpt>
      <trkpt lat="45.36487" lon="6.54655">
        <ele>2133.16</ele>
        <time>2014-01-30T09:21:41Z</time>
      </trkpt>
      <trkpt lat="45.36472" lon="6.54604">
        <ele>2130.19</ele>
        <time>2014-01-30T09:21:45Z</time>
      </trkpt>
      <trkpt lat="45.36491" lon="6.54553">
        <ele>2117.18</ele>
        <time>2014-01-30T09:21:49Z</time>
      </trkpt>
      <trkpt lat="45.36509" lon="6.54484">
        <ele>2106.24</ele>
        <time>2014-01-30T09:21:53Z</time>
      </trkpt>
      <trkpt lat="45.36537" lon="6.54437">
        <ele>2097.16</ele>
        <time>2014-01-30T09:21:57Z</time>
      </trkpt>
      <trkpt lat="45.36559" lon="6.54383">
        <ele>2092.09</ele>
        <time>2014-01-30T09:22:02Z</time>
      </trkpt>
      <trkpt lat="45.36574" lon="6.54327">
        <ele>2083.55</ele>
        <time>2014-01-30T09:22:08Z</time>
      </trkpt>
      <trkpt lat="45.36597" lon="6.54269">
        <ele>2073.66</ele>
        <time>2014-01-30T09:22:13Z</time>
      </trkpt>
      <trkpt lat="45.36604" lon="6.54217">
        <ele>2066.4</ele>
        <time>2014-01-30T09:22:17Z</time>
      </trkpt>
      <trkpt lat="45.36644" lon="6.54196">
        <ele>2061.21</ele>
        <time>2014-01-30T09:22:21Z</time>
      </trkpt>
      <trkpt lat="45.36664" lon="6.54131">
        <ele>2046</ele>
        <time>2014-01-30T09:22:27Z</time>
      </trkpt>
      <trkpt lat="45.36691" lon="6.54066">
        <ele>2022.85</ele>
        <time>2014-01-30T09:22:31Z</time>
      </trkpt>
      <trkpt lat="45.36703" lon="6.53994">
        <ele>2016.27</ele>
        <time>2014-01-30T09:22:35Z</time>
      </trkpt>
      <trkpt lat="45.36712" lon="6.53927">
        <ele>2006.82</ele>
        <time>2014-01-30T09:22:39Z</time>
      </trkpt>
      <trkpt lat="45.3673" lon="6.53878">
        <ele>2000.75</ele>
        <time>2014-01-30T09:22:43Z</time>
      </trkpt>
      <trkpt lat="45.36774" lon="6.53859">
        <ele>1992.7</ele>
        <time>2014-01-30T09:22:49Z</time>
      </trkpt>
      <trkpt lat="45.36819" lon="6.53862">
        <ele>1989.3</ele>
        <time>2014-01-30T09:22:54Z</time>
      </trkpt>
      <trkpt lat="45.36865" lon="6.53856">
        <ele>1983.28</ele>
        <time>2014-01-30T09:23:00Z</time>
      </trkpt>
      <trkpt lat="45.369" lon="6.53821">
        <ele>1974.1</ele>
        <time>2014-01-30T09:23:05Z</time>
      </trkpt>
      <trkpt lat="45.36916" lon="6.53771">
        <ele>1960.76</ele>
        <time>2014-01-30T09:23:11Z</time>
      </trkpt>
      <trkpt lat="45.36937" lon="6.53708">
        <ele>1953.45</ele>
        <time>2014-01-30T09:23:17Z</time>
      </trkpt>
      <trkpt lat="45.36952" lon="6.53659">
        <ele>1944.06</ele>
        <time>2014-01-30T09:23:21Z</time>
      </trkpt>
      <trkpt lat="45.36966" lon="6.53602">
        <ele>1933.39</ele>
        <time>2014-01-30T09:23:25Z</time>
      </trkpt>
      <trkpt lat="45.36979" lon="6.53543">
        <ele>1921.77</ele>
        <time>2014-01-30T09:23:30Z</time>
      </trkpt>
      <trkpt lat="45.3699" lon="6.53491">
        <ele>1911.54</ele>
        <time>2014-01-30T09:23:34Z</time>
      </trkpt>
      <trkpt lat="45.37011" lon="6.53435">
        <ele>1907.26</ele>
        <time>2014-01-30T09:23:38Z</time>
      </trkpt>
      <trkpt lat="45.37032" lon="6.53377">
        <ele>1901.97</ele>
        <time>2014-01-30T09:23:44Z</time>
      </trkpt>
      <trkpt lat="45.37062" lon="6.5333">
        <ele>1891.6</ele>
        <time>2014-01-30T09:23:51Z</time>
      </trkpt>
      <trkpt lat="45.37087" lon="6.53277">
        <ele>1884.57</ele>
        <time>2014-01-30T09:23:57Z</time>
      </trkpt>
      <trkpt lat="45.37091" lon="6.53211">
        <ele>1872.21</ele>
        <time>2014-01-30T09:24:02Z</time>
      </trkpt>
      <trkpt lat="45.37066" lon="6.53154">
        <ele>1865.45</ele>
        <time>2014-01-30T09:24:06Z</time>
      </trkpt>
      <trkpt lat="45.37054" lon="6.53103">
        <ele>1855.23</ele>
        <time>2014-01-30T09:24:12Z</time>
      </trkpt>
      <trkpt lat="45.37105" lon="6.53108">
        <ele>1843.05</ele>
        <time>2014-01-30T09:24:17Z</time>
      </trkpt>
      <trkpt lat="45.37155" lon="6.53103">
        <ele>1828.86</ele>
        <time>2014-01-30T09:24:21Z</time>
      </trkpt>
      <trkpt lat="45.37196" lon="6.53076">
        <ele>1817.7</ele>
        <time>2014-01-30T09:24:25Z</time>
      </trkpt>
      <trkpt lat="45.37229" lon="6.53047">
        <ele>1813.91</ele>
        <time>2014-01-30T09:24:29Z</time>
      </trkpt>
      <trkpt lat="45.37251" lon="6.53">
        <ele>1808.93</ele>
        <time>2014-01-30T09:24:33Z</time>
      </trkpt>
      <trkpt lat="45.37275" lon="6.52955">
        <ele>1801.41</ele>
        <time>2014-01-30T09:24:37Z</time>
      </trkpt>
      <trkpt lat="45.37289" lon="6.52906">
        <ele>1797.54</ele>
        <time>2014-01-30T09:25:55Z</time>
      </trkpt>
      <trkpt lat="45.37297" lon="6.52853">
        <ele>1793.51</ele>
        <time>2014-01-30T09:26:02Z</time>
      </trkpt>
      <trkpt lat="45.37295" lon="6.52795">
        <ele>1790.59</ele>
        <time>2014-01-30T09:26:07Z</time>
      </trkpt>
      <trkpt lat="45.37291" lon="6.52743">
        <ele>1785.11</ele>
        <time>2014-01-30T09:26:11Z</time>
      </trkpt>
      <trkpt lat="45.37283" lon="6.52676">
        <ele>1776.3</ele>
        <time>2014-01-30T09:26:17Z</time>
      </trkpt>
      <trkpt lat="45.37273" lon="6.52617">
        <ele>1771.19</ele>
        <time>2014-01-30T09:26:21Z</time>
      </trkpt>
      <trkpt lat="45.37265" lon="6.52556">
        <ele>1767.09</ele>
        <time>2014-01-30T09:26:25Z</time>
      </trkpt>
      <trkpt lat="45.37267" lon="6.52503">
        <ele>1760.55</ele>
        <time>2014-01-30T09:26:30Z</time>
      </trkpt>
      <trkpt lat="45.37294" lon="6.52457">
        <ele>1753</ele>
        <time>2014-01-30T09:26:36Z</time>
      </trkpt>
      <trkpt lat="45.37324" lon="6.52417">
        <ele>1752.61</ele>
        <time>2014-01-30T09:26:42Z</time>
      </trkpt>
      <trkpt lat="45.37356" lon="6.52371">
        <ele>1749.2</ele>
        <time>2014-01-30T09:26:48Z</time>
      </trkpt>
      <trkpt lat="45.374" lon="6.5236">
        <ele>1754.62</ele>
        <time>2014-01-30T09:26:53Z</time>
      </trkpt>
      <trkpt lat="45.37438" lon="6.52346">
        <ele>1746.44</ele>
        <time>2014-01-30T09:26:57Z</time>
      </trkpt>
      <trkpt lat="45.37475" lon="6.52323">
        <ele>1737.86</ele>
        <time>2014-01-30T09:27:01Z</time>
      </trkpt>
      <trkpt lat="45.37512" lon="6.52289">
        <ele>1729.78</ele>
        <time>2014-01-30T09:27:05Z</time>
      </trkpt>
      <trkpt lat="45.37541" lon="6.52237">
        <ele>1720.67</ele>
        <time>2014-01-30T09:27:09Z</time>
      </trkpt>
      <trkpt lat="45.37558" lon="6.52185">
        <ele>1715.41</ele>
        <time>2014-01-30T09:27:13Z</time>
      </trkpt>
      <trkpt lat="45.37571" lon="6.52134">
        <ele>1714.72</ele>
        <time>2014-01-30T09:27:17Z</time>
      </trkpt>
      <trkpt lat="45.37618" lon="6.52136">
        <ele>1718.5</ele>
        <time>2014-01-30T09:27:22Z</time>
      </trkpt>
      <trkpt lat="45.37657" lon="6.5214">
        <ele>1710.74</ele>
        <time>2014-01-30T09:27:28Z</time>
      </trkpt>
      <trkpt lat="45.37649" lon="6.52081">
        <ele>1700.66</ele>
        <time>2014-01-30T09:27:33Z</time>
      </trkpt>
      <trkpt lat="45.37622" lon="6.52031">
        <ele>1694.14</ele>
        <time>2014-01-30T09:27:37Z</time>
      </trkpt>
      <trkpt lat="45.37603" lon="6.51985">
        <ele>1687.62</ele>
        <time>2014-01-30T09:27:41Z</time>
      </trkpt>
      <trkpt lat="45.37612" lon="6.51934">
        <ele>1677.06</ele>
        <time>2014-01-30T09:27:47Z</time>
      </trkpt>
      <trkpt lat="45.37655" lon="6.51929">
        <ele>1682.71</ele>
        <time>2014-01-30T09:27:52Z</time>
      </trkpt>
      <trkpt lat="45.37694" lon="6.51922">
        <ele>1675.27</ele>
        <time>2014-01-30T09:27:55Z</time>
      </trkpt>
      <trkpt lat="45.37732" lon="6.51889">
        <ele>1668.86</ele>
        <time>2014-01-30T09:28:00Z</time>
      </trkpt>
      <trkpt lat="45.3775" lon="6.51841">
        <ele>1653.52</ele>
        <time>2014-01-30T09:28:05Z</time>
      </trkpt>
      <trkpt lat="45.3775" lon="6.51772">
        <ele>1645.72</ele>
        <time>2014-01-30T09:28:09Z</time>
      </trkpt>
      <trkpt lat="45.37723" lon="6.5172">
        <ele>1640.12</ele>
        <time>2014-01-30T09:28:13Z</time>
      </trkpt>
      <trkpt lat="45.37684" lon="6.51689">
        <ele>1638.75</ele>
        <time>2014-01-30T09:28:17Z</time>
      </trkpt>
      <trkpt lat="45.37648" lon="6.51664">
        <ele>1636.27</ele>
        <time>2014-01-30T09:28:21Z</time>
      </trkpt>
      <trkpt lat="45.37608" lon="6.51632">
        <ele>1630.63</ele>
        <time>2014-01-30T09:28:27Z</time>
      </trkpt>
      <trkpt lat="45.37575" lon="6.516">
        <ele>1626.42</ele>
        <time>2014-01-30T09:28:33Z</time>
      </trkpt>
      <trkpt lat="45.37544" lon="6.51554">
        <ele>1619.26</ele>
        <time>2014-01-30T09:28:39Z</time>
      </trkpt>
      <trkpt lat="45.37527" lon="6.51496">
        <ele>1609</ele>
        <time>2014-01-30T09:28:45Z</time>
      </trkpt>
      <trkpt lat="45.3751" lon="6.51438">
        <ele>1597.02</ele>
        <time>2014-01-30T09:28:50Z</time>
      </trkpt>
      <trkpt lat="45.37499" lon="6.51374">
        <ele>1587.86</ele>
        <time>2014-01-30T09:28:54Z</time>
      </trkpt>
      <trkpt lat="45.37487" lon="6.51321">
        <ele>1581.8</ele>
        <time>2014-01-30T09:28:58Z</time>
      </trkpt>
      <trkpt lat="45.37479" lon="6.5127">
        <ele>1576.33</ele>
        <time>2014-01-30T09:29:02Z</time>
      </trkpt>
      <trkpt lat="45.37459" lon="6.51222">
        <ele>1568.61</ele>
        <time>2014-01-30T09:29:06Z</time>
      </trkpt>
      <trkpt lat="45.37437" lon="6.51175">
        <ele>1560.55</ele>
        <time>2014-01-30T09:29:10Z</time>
      </trkpt>
      <trkpt lat="45.37429" lon="6.51121">
        <ele>1555.46</ele>
        <time>2014-01-30T09:29:14Z</time>
      </trkpt>
      <trkpt lat="45.37443" lon="6.51066">
        <ele>1553.57</ele>
        <time>2014-01-30T09:29:19Z</time>
      </trkpt>
      <trkpt lat="45.37461" lon="6.51018">
        <ele>1549.7</ele>
        <time>2014-01-30T09:29:26Z</time>
      </trkpt>
      <trkpt lat="45.37485" lon="6.50972">
        <ele>1540.43</ele>
        <time>2014-01-30T09:29:35Z</time>
      </trkpt>
      <trkpt lat="45.37507" lon="6.5092">
        <ele>1524.57</ele>
        <time>2014-01-30T09:29:41Z</time>
      </trkpt>
      <trkpt lat="45.37529" lon="6.50859">
        <ele>1509.05</ele>
        <time>2014-01-30T09:29:47Z</time>
      </trkpt>
      <trkpt lat="45.3756" lon="6.50814">
        <ele>1503.44</ele>
        <time>2014-01-30T09:29:53Z</time>
      </trkpt>
      <trkpt lat="45.37586" lon="6.50769">
        <ele>1495.36</ele>
        <time>2014-01-30T09:30:00Z</time>
      </trkpt>
      <trkpt lat="45.3762" lon="6.50744">
        <ele>1488.43</ele>
        <time>2014-01-30T09:30:07Z</time>
      </trkpt>
      <trkpt lat="45.3766" lon="6.50733">
        <ele>1475.68</ele>
        <time>2014-01-30T09:30:13Z</time>
      </trkpt>
      <trkpt lat="45.3768" lon="6.50686">
        <ele>1462.17</ele>
        <time>2014-01-30T09:30:19Z</time>
      </trkpt>
      <trkpt lat="45.37686" lon="6.50626">
        <ele>1450.95</ele>
        <time>2014-01-30T09:30:25Z</time>
      </trkpt>
      <trkpt lat="45.37699" lon="6.50571">
        <ele>1440.19</ele>
        <time>2014-01-30T09:30:31Z</time>
      </trkpt>
      <trkpt lat="45.37708" lon="6.5052">
        <ele>1433.5</ele>
        <time>2014-01-30T09:30:40Z</time>
      </trkpt>
      <trkpt lat="45.37738" lon="6.50487">
        <ele>1427.63</ele>
        <time>2014-01-30T09:30:50Z</time>
      </trkpt>
      <trkpt lat="45.37754" lon="6.50449">
        <ele>1422.42</ele>
        <time>2014-01-30T09:31:09Z</time>
      </trkpt>
      <trkpt lat="45.37754" lon="6.50444">
        <ele>1421.76</ele>
        <time>2014-01-30T09:34:51Z</time>
      </trkpt>
      <trkpt lat="45.37723" lon="6.50422">
        <ele>1423.54</ele>
        <time>2014-01-30T09:35:31Z</time>
      </trkpt>
      <trkpt lat="45.37687" lon="6.50435">
        <ele>1424.66</ele>
        <time>2014-01-30T09:36:12Z</time>
      </trkpt>
      <trkpt lat="45.37674" lon="6.50456">
        <ele>1426.88</ele>
        <time>2014-01-30T09:37:59Z</time>
      </trkpt>
      <trkpt lat="45.37664" lon="6.50515">
        <ele>1434.63</ele>
        <time>2014-01-30T09:38:07Z</time>
      </trkpt>
      <trkpt lat="45.37654" lon="6.50567">
        <ele>1444.61</ele>
        <time>2014-01-30T09:38:16Z</time>
      </trkpt>
      <trkpt lat="45.37647" lon="6.50622">
        <ele>1455.3</ele>
        <time>2014-01-30T09:38:25Z</time>
      </trkpt>
      <trkpt lat="45.3764" lon="6.50678">
        <ele>1471.4</ele>
        <time>2014-01-30T09:38:35Z</time>
      </trkpt>
      <trkpt lat="45.37628" lon="6.50736">
        <ele>1485.51</ele>
        <time>2014-01-30T09:38:45Z</time>
      </trkpt>
      <trkpt lat="45.3762" lon="6.50796">
        <ele>1491.88</ele>
        <time>2014-01-30T09:38:55Z</time>
      </trkpt>
      <trkpt lat="45.37611" lon="6.50851">
        <ele>1500.29</ele>
        <time>2014-01-30T09:39:05Z</time>
      </trkpt>
      <trkpt lat="45.37598" lon="6.50909">
        <ele>1512.63</ele>
        <time>2014-01-30T09:39:15Z</time>
      </trkpt>
      <trkpt lat="45.37588" lon="6.50967">
        <ele>1525.25</ele>
        <time>2014-01-30T09:39:25Z</time>
      </trkpt>
      <trkpt lat="45.3758" lon="6.51025">
        <ele>1539.27</ele>
        <time>2014-01-30T09:39:35Z</time>
      </trkpt>
      <trkpt lat="45.37577" lon="6.51087">
        <ele>1547.61</ele>
        <time>2014-01-30T09:39:45Z</time>
      </trkpt>
      <trkpt lat="45.37571" lon="6.51147">
        <ele>1567.44</ele>
        <time>2014-01-30T09:39:55Z</time>
      </trkpt>
      <trkpt lat="45.37564" lon="6.51206">
        <ele>1579.3</ele>
        <time>2014-01-30T09:40:05Z</time>
      </trkpt>
      <trkpt lat="45.37555" lon="6.51265">
        <ele>1584.6</ele>
        <time>2014-01-30T09:40:15Z</time>
      </trkpt>
      <trkpt lat="45.37548" lon="6.51322">
        <ele>1590.53</ele>
        <time>2014-01-30T09:40:24Z</time>
      </trkpt>
      <trkpt lat="45.3754" lon="6.51374">
        <ele>1595.01</ele>
        <time>2014-01-30T09:40:32Z</time>
      </trkpt>
      <trkpt lat="45.37529" lon="6.51429">
        <ele>1598.08</ele>
        <time>2014-01-30T09:40:42Z</time>
      </trkpt>
      <trkpt lat="45.3752" lon="6.51486">
        <ele>1606.22</ele>
        <time>2014-01-30T09:40:52Z</time>
      </trkpt>
      <trkpt lat="45.37511" lon="6.51544">
        <ele>1615.21</ele>
        <time>2014-01-30T09:41:02Z</time>
      </trkpt>
      <trkpt lat="45.37504" lon="6.51599">
        <ele>1618.1</ele>
        <time>2014-01-30T09:41:11Z</time>
      </trkpt>
      <trkpt lat="45.37494" lon="6.51657">
        <ele>1618.52</ele>
        <time>2014-01-30T09:41:21Z</time>
      </trkpt>
      <trkpt lat="45.37486" lon="6.51719">
        <ele>1618.9</ele>
        <time>2014-01-30T09:41:31Z</time>
      </trkpt>
      <trkpt lat="45.37479" lon="6.51777">
        <ele>1618.36</ele>
        <time>2014-01-30T09:41:40Z</time>
      </trkpt>
      <trkpt lat="45.37471" lon="6.51838">
        <ele>1619.54</ele>
        <time>2014-01-30T09:41:50Z</time>
      </trkpt>
      <trkpt lat="45.37465" lon="6.51889">
        <ele>1626.2</ele>
        <time>2014-01-30T09:41:58Z</time>
      </trkpt>
      <trkpt lat="45.37456" lon="6.51949">
        <ele>1641.95</ele>
        <time>2014-01-30T09:42:09Z</time>
      </trkpt>
      <trkpt lat="45.37448" lon="6.52007">
        <ele>1658.49</ele>
        <time>2014-01-30T09:42:19Z</time>
      </trkpt>
      <trkpt lat="45.37441" lon="6.52068">
        <ele>1675.04</ele>
        <time>2014-01-30T09:42:29Z</time>
      </trkpt>
      <trkpt lat="45.37434" lon="6.52128">
        <ele>1697.09</ele>
        <time>2014-01-30T09:42:39Z</time>
      </trkpt>
      <trkpt lat="45.37424" lon="6.52181">
        <ele>1709.56</ele>
        <time>2014-01-30T09:42:49Z</time>
      </trkpt>
      <trkpt lat="45.37416" lon="6.5224">
        <ele>1720.92</ele>
        <time>2014-01-30T09:42:59Z</time>
      </trkpt>
      <trkpt lat="45.37406" lon="6.523">
        <ele>1738.63</ele>
        <time>2014-01-30T09:43:09Z</time>
      </trkpt>
      <trkpt lat="45.37396" lon="6.52359">
        <ele>1754.03</ele>
        <time>2014-01-30T09:43:19Z</time>
      </trkpt>
      <trkpt lat="45.37389" lon="6.52416">
        <ele>1763.94</ele>
        <time>2014-01-30T09:43:29Z</time>
      </trkpt>
      <trkpt lat="45.37381" lon="6.52471">
        <ele>1779.25</ele>
        <time>2014-01-30T09:43:39Z</time>
      </trkpt>
      <trkpt lat="45.37371" lon="6.52528">
        <ele>1785.92</ele>
        <time>2014-01-30T09:43:49Z</time>
      </trkpt>
      <trkpt lat="45.37362" lon="6.5259">
        <ele>1780.31</ele>
        <time>2014-01-30T09:43:59Z</time>
      </trkpt>
      <trkpt lat="45.3735" lon="6.52644">
        <ele>1779.25</ele>
        <time>2014-01-30T09:44:08Z</time>
      </trkpt>
      <trkpt lat="45.37344" lon="6.52698">
        <ele>1784.63</ele>
        <time>2014-01-30T09:44:17Z</time>
      </trkpt>
      <trkpt lat="45.37338" lon="6.52758">
        <ele>1789.61</ele>
        <time>2014-01-30T09:44:27Z</time>
      </trkpt>
      <trkpt lat="45.37331" lon="6.52808">
        <ele>1791.35</ele>
        <time>2014-01-30T09:44:35Z</time>
      </trkpt>
      <trkpt lat="45.37323" lon="6.52869">
        <ele>1797.8</ele>
        <time>2014-01-30T09:44:45Z</time>
      </trkpt>
      <trkpt lat="45.37285" lon="6.52862">
        <ele>1792.81</ele>
        <time>2014-01-30T09:46:06Z</time>
      </trkpt>
      <trkpt lat="45.37261" lon="6.52871">
        <ele>1788.61</ele>
        <time>2014-01-30T09:47:07Z</time>
      </trkpt>
      <trkpt lat="45.37248" lon="6.52926">
        <ele>1795.08</ele>
        <time>2014-01-30T09:48:23Z</time>
      </trkpt>
      <trkpt lat="45.37234" lon="6.5298">
        <ele>1804.67</ele>
        <time>2014-01-30T09:48:32Z</time>
      </trkpt>
      <trkpt lat="45.37219" lon="6.53035">
        <ele>1811.91</ele>
        <time>2014-01-30T09:48:42Z</time>
      </trkpt>
      <trkpt lat="45.37204" lon="6.53089">
        <ele>1819.75</ele>
        <time>2014-01-30T09:48:52Z</time>
      </trkpt>
      <trkpt lat="45.37187" lon="6.53139">
        <ele>1831.86</ele>
        <time>2014-01-30T09:49:00Z</time>
      </trkpt>
      <trkpt lat="45.37172" lon="6.53192">
        <ele>1853.65</ele>
        <time>2014-01-30T09:49:10Z</time>
      </trkpt>
      <trkpt lat="45.37159" lon="6.53245">
        <ele>1870.03</ele>
        <time>2014-01-30T09:49:20Z</time>
      </trkpt>
      <trkpt lat="45.37143" lon="6.53302">
        <ele>1878.46</ele>
        <time>2014-01-30T09:49:30Z</time>
      </trkpt>
      <trkpt lat="45.37128" lon="6.53358">
        <ele>1885.31</ele>
        <time>2014-01-30T09:49:40Z</time>
      </trkpt>
      <trkpt lat="45.37112" lon="6.53411">
        <ele>1893.04</ele>
        <time>2014-01-30T09:49:49Z</time>
      </trkpt>
      <trkpt lat="45.371" lon="6.53465">
        <ele>1902.48</ele>
        <time>2014-01-30T09:49:58Z</time>
      </trkpt>
      <trkpt lat="45.37083" lon="6.53519">
        <ele>1909.7</ele>
        <time>2014-01-30T09:50:08Z</time>
      </trkpt>
      <trkpt lat="45.37068" lon="6.53569">
        <ele>1919.92</ele>
        <time>2014-01-30T09:50:18Z</time>
      </trkpt>
      <trkpt lat="45.37055" lon="6.53619">
        <ele>1932.89</ele>
        <time>2014-01-30T09:50:28Z</time>
      </trkpt>
      <trkpt lat="45.37042" lon="6.53669">
        <ele>1942.2</ele>
        <time>2014-01-30T09:50:37Z</time>
      </trkpt>
      <trkpt lat="45.37028" lon="6.53717">
        <ele>1955.06</ele>
        <time>2014-01-30T09:50:45Z</time>
      </trkpt>
      <trkpt lat="45.37012" lon="6.53769">
        <ele>1968.6</ele>
        <time>2014-01-30T09:50:55Z</time>
      </trkpt>
      <trkpt lat="45.36997" lon="6.53825">
        <ele>1979.27</ele>
        <time>2014-01-30T09:51:05Z</time>
      </trkpt>
      <trkpt lat="45.36982" lon="6.53882">
        <ele>1992.66</ele>
        <time>2014-01-30T09:51:15Z</time>
      </trkpt>
      <trkpt lat="45.36967" lon="6.53933">
        <ele>1999.1</ele>
        <time>2014-01-30T09:51:24Z</time>
      </trkpt>
      <trkpt lat="45.36952" lon="6.53984">
        <ele>2004.8</ele>
        <time>2014-01-30T09:51:33Z</time>
      </trkpt>
      <trkpt lat="45.36938" lon="6.54036">
        <ele>2011.98</ele>
        <time>2014-01-30T09:51:43Z</time>
      </trkpt>
      <trkpt lat="45.36923" lon="6.5409">
        <ele>2025.76</ele>
        <time>2014-01-30T09:51:53Z</time>
      </trkpt>
      <trkpt lat="45.36911" lon="6.54142">
        <ele>2049.72</ele>
        <time>2014-01-30T09:52:03Z</time>
      </trkpt>
      <trkpt lat="45.36895" lon="6.54193">
        <ele>2070.33</ele>
        <time>2014-01-30T09:52:12Z</time>
      </trkpt>
      <trkpt lat="45.36879" lon="6.54245">
        <ele>2081.75</ele>
        <time>2014-01-30T09:52:20Z</time>
      </trkpt>
      <trkpt lat="45.36863" lon="6.543">
        <ele>2095.08</ele>
        <time>2014-01-30T09:52:30Z</time>
      </trkpt>
      <trkpt lat="45.3685" lon="6.54352">
        <ele>2095.04</ele>
        <time>2014-01-30T09:52:39Z</time>
      </trkpt>
      <trkpt lat="45.36833" lon="6.54409">
        <ele>2100.99</ele>
        <time>2014-01-30T09:52:49Z</time>
      </trkpt>
      <trkpt lat="45.36817" lon="6.54465">
        <ele>2110.44</ele>
        <time>2014-01-30T09:52:59Z</time>
      </trkpt>
      <trkpt lat="45.36804" lon="6.54518">
        <ele>2123.99</ele>
        <time>2014-01-30T09:53:09Z</time>
      </trkpt>
      <trkpt lat="45.36789" lon="6.54571">
        <ele>2129.53</ele>
        <time>2014-01-30T09:53:18Z</time>
      </trkpt>
      <trkpt lat="45.36773" lon="6.54627">
        <ele>2133.17</ele>
        <time>2014-01-30T09:53:28Z</time>
      </trkpt>
      <trkpt lat="45.36759" lon="6.54683">
        <ele>2145.33</ele>
        <time>2014-01-30T09:53:38Z</time>
      </trkpt>
      <trkpt lat="45.36747" lon="6.54738">
        <ele>2174.29</ele>
        <time>2014-01-30T09:53:48Z</time>
      </trkpt>
      <trkpt lat="45.36738" lon="6.5479">
        <ele>2193.42</ele>
        <time>2014-01-30T09:53:58Z</time>
      </trkpt>
      <trkpt lat="45.36721" lon="6.54848">
        <ele>2195.02</ele>
        <time>2014-01-30T09:54:08Z</time>
      </trkpt>
      <trkpt lat="45.36706" lon="6.54906">
        <ele>2200.7</ele>
        <time>2014-01-30T09:54:18Z</time>
      </trkpt>
      <trkpt lat="45.36691" lon="6.54963">
        <ele>2196.89</ele>
        <time>2014-01-30T09:54:28Z</time>
      </trkpt>
      <trkpt lat="45.36676" lon="6.55019">
        <ele>2204.93</ele>
        <time>2014-01-30T09:54:38Z</time>
      </trkpt>
      <trkpt lat="45.36662" lon="6.55075">
        <ele>2220.37</ele>
        <time>2014-01-30T09:54:48Z</time>
      </trkpt>
      <trkpt lat="45.36651" lon="6.55132">
        <ele>2235.64</ele>
        <time>2014-01-30T09:54:58Z</time>
      </trkpt>
      <trkpt lat="45.36636" lon="6.55188">
        <ele>2248.42</ele>
        <time>2014-01-30T09:55:08Z</time>
      </trkpt>
      <trkpt lat="45.3662" lon="6.55245">
        <ele>2257.11</ele>
        <time>2014-01-30T09:55:18Z</time>
      </trkpt>
      <trkpt lat="45.36606" lon="6.55301">
        <ele>2266.5</ele>
        <time>2014-01-30T09:55:28Z</time>
      </trkpt>
      <trkpt lat="45.36591" lon="6.55357">
        <ele>2275.94</ele>
        <time>2014-01-30T09:55:38Z</time>
      </trkpt>
      <trkpt lat="45.36573" lon="6.55412">
        <ele>2285.72</ele>
        <time>2014-01-30T09:55:48Z</time>
      </trkpt>
      <trkpt lat="45.36555" lon="6.55467">
        <ele>2296.17</ele>
        <time>2014-01-30T09:55:58Z</time>
      </trkpt>
      <trkpt lat="45.36541" lon="6.5552">
        <ele>2308.44</ele>
        <time>2014-01-30T09:56:08Z</time>
      </trkpt>
      <trkpt lat="45.36532" lon="6.55573">
        <ele>2323.62</ele>
        <time>2014-01-30T09:56:17Z</time>
      </trkpt>
      <trkpt lat="45.36521" lon="6.55626">
        <ele>2349.27</ele>
        <time>2014-01-30T09:56:28Z</time>
      </trkpt>
      <trkpt lat="45.36501" lon="6.55673">
        <ele>2377.91</ele>
        <time>2014-01-30T09:56:39Z</time>
      </trkpt>
      <trkpt lat="45.36488" lon="6.55724">
        <ele>2397.21</ele>
        <time>2014-01-30T09:56:47Z</time>
      </trkpt>
      <trkpt lat="45.36468" lon="6.55771">
        <ele>2403.38</ele>
        <time>2014-01-30T09:57:40Z</time>
      </trkpt>
      <trkpt lat="45.36479" lon="6.55795">
        <ele>2400.08</ele>
        <time>2014-01-30T09:57:49Z</time>
      </trkpt>
      <trkpt lat="45.36511" lon="6.55825">
        <ele>2379.51</ele>
        <time>2014-01-30T09:57:53Z</time>
      </trkpt>
      <trkpt lat="45.36545" lon="6.55827">
        <ele>2363.33</ele>
        <time>2014-01-30T09:58:01Z</time>
      </trkpt>
      <trkpt lat="45.36578" lon="6.55839">
        <ele>2349.52</ele>
        <time>2014-01-30T09:58:09Z</time>
      </trkpt>
      <trkpt lat="45.36612" lon="6.55848">
        <ele>2338.84</ele>
        <time>2014-01-30T09:58:16Z</time>
      </trkpt>
      <trkpt lat="45.36647" lon="6.55875">
        <ele>2320.78</ele>
        <time>2014-01-30T09:58:22Z</time>
      </trkpt>
      <trkpt lat="45.36689" lon="6.55875">
        <ele>2303.39</ele>
        <time>2014-01-30T09:58:28Z</time>
      </trkpt>
      <trkpt lat="45.36729" lon="6.55886">
        <ele>2282.7</ele>
        <time>2014-01-30T09:58:35Z</time>
      </trkpt>
      <trkpt lat="45.36754" lon="6.55931">
        <ele>2268.47</ele>
        <time>2014-01-30T09:58:41Z</time>
      </trkpt>
      <trkpt lat="45.36793" lon="6.5591">
        <ele>2253.38</ele>
        <time>2014-01-30T09:58:47Z</time>
      </trkpt>
      <trkpt lat="45.36826" lon="6.55947">
        <ele>2234.84</ele>
        <time>2014-01-30T09:58:53Z</time>
      </trkpt>
      <trkpt lat="45.36842" lon="6.56003">
        <ele>2222.59</ele>
        <time>2014-01-30T09:58:58Z</time>
      </trkpt>
      <trkpt lat="45.36863" lon="6.56051">
        <ele>2212.27</ele>
        <time>2014-01-30T09:59:06Z</time>
      </trkpt>
      <trkpt lat="45.36894" lon="6.56086">
        <ele>2194.8</ele>
        <time>2014-01-30T09:59:15Z</time>
      </trkpt>
      <trkpt lat="45.369" lon="6.56133">
        <ele>2180.01</ele>
        <time>2014-01-30T09:59:22Z</time>
      </trkpt>
      <trkpt lat="45.36899" lon="6.56192">
        <ele>2169.39</ele>
        <time>2014-01-30T09:59:30Z</time>
      </trkpt>
      <trkpt lat="45.36918" lon="6.56245">
        <ele>2147.9</ele>
        <time>2014-01-30T09:59:39Z</time>
      </trkpt>
      <trkpt lat="45.36963" lon="6.56231">
        <ele>2136.81</ele>
        <time>2014-01-30T09:59:47Z</time>
      </trkpt>
      <trkpt lat="45.37" lon="6.56241">
        <ele>2123.48</ele>
        <time>2014-01-30T09:59:55Z</time>
      </trkpt>
      <trkpt lat="45.37043" lon="6.56242">
        <ele>2105.75</ele>
        <time>2014-01-30T10:00:03Z</time>
      </trkpt>
      <trkpt lat="45.37076" lon="6.56218">
        <ele>2103.44</ele>
        <time>2014-01-30T10:00:09Z</time>
      </trkpt>
      <trkpt lat="45.3711" lon="6.56211">
        <ele>2090.89</ele>
        <time>2014-01-30T10:00:15Z</time>
      </trkpt>
      <trkpt lat="45.37149" lon="6.56203">
        <ele>2071.79</ele>
        <time>2014-01-30T10:00:22Z</time>
      </trkpt>
      <trkpt lat="45.37186" lon="6.56207">
        <ele>2058.55</ele>
        <time>2014-01-30T10:00:28Z</time>
      </trkpt>
      <trkpt lat="45.37226" lon="6.56205">
        <ele>2050.55</ele>
        <time>2014-01-30T10:00:38Z</time>
      </trkpt>
      <trkpt lat="45.37271" lon="6.56196">
        <ele>2035.8</ele>
        <time>2014-01-30T10:00:45Z</time>
      </trkpt>
      <trkpt lat="45.373" lon="6.56231">
        <ele>2022.22</ele>
        <time>2014-01-30T10:00:49Z</time>
      </trkpt>
      <trkpt lat="45.37343" lon="6.56219">
        <ele>2008.6</ele>
        <time>2014-01-30T10:00:54Z</time>
      </trkpt>
      <trkpt lat="45.3738" lon="6.56228">
        <ele>2000.53</ele>
        <time>2014-01-30T10:00:59Z</time>
      </trkpt>
      <trkpt lat="45.37422" lon="6.56228">
        <ele>1990.36</ele>
        <time>2014-01-30T10:01:04Z</time>
      </trkpt>
      <trkpt lat="45.37464" lon="6.56211">
        <ele>1982.31</ele>
        <time>2014-01-30T10:01:09Z</time>
      </trkpt>
      <trkpt lat="45.37511" lon="6.56199">
        <ele>1976.5</ele>
        <time>2014-01-30T10:01:15Z</time>
      </trkpt>
      <trkpt lat="45.3755" lon="6.56202">
        <ele>1964.88</ele>
        <time>2014-01-30T10:01:19Z</time>
      </trkpt>
      <trkpt lat="45.37587" lon="6.56228">
        <ele>1951.45</ele>
        <time>2014-01-30T10:01:23Z</time>
      </trkpt>
      <trkpt lat="45.37632" lon="6.5623">
        <ele>1944.95</ele>
        <time>2014-01-30T10:01:27Z</time>
      </trkpt>
      <trkpt lat="45.37673" lon="6.56241">
        <ele>1938.62</ele>
        <time>2014-01-30T10:01:32Z</time>
      </trkpt>
      <trkpt lat="45.37709" lon="6.56262">
        <ele>1931.15</ele>
        <time>2014-01-30T10:01:38Z</time>
      </trkpt>
      <trkpt lat="45.37746" lon="6.56275">
        <ele>1922.11</ele>
        <time>2014-01-30T10:01:46Z</time>
      </trkpt>
      <trkpt lat="45.37741" lon="6.56329">
        <ele>1914.65</ele>
        <time>2014-01-30T10:02:58Z</time>
      </trkpt>
      <trkpt lat="45.3772" lon="6.56383">
        <ele>1906.59</ele>
        <time>2014-01-30T10:03:07Z</time>
      </trkpt>
      <trkpt lat="45.37702" lon="6.56428">
        <ele>1895.21</ele>
        <time>2014-01-30T10:03:16Z</time>
      </trkpt>
      <trkpt lat="45.37741" lon="6.56456">
        <ele>1886.57</ele>
        <time>2014-01-30T10:03:24Z</time>
      </trkpt>
      <trkpt lat="45.37763" lon="6.56507">
        <ele>1873.24</ele>
        <time>2014-01-30T10:03:30Z</time>
      </trkpt>
      <trkpt lat="45.37771" lon="6.56569">
        <ele>1860.87</ele>
        <time>2014-01-30T10:03:36Z</time>
      </trkpt>
      <trkpt lat="45.37755" lon="6.56623">
        <ele>1855.77</ele>
        <time>2014-01-30T10:03:40Z</time>
      </trkpt>
      <trkpt lat="45.37714" lon="6.56659">
        <ele>1837.75</ele>
        <time>2014-01-30T10:03:46Z</time>
      </trkpt>
      <trkpt lat="45.37664" lon="6.56646">
        <ele>1828.45</ele>
        <time>2014-01-30T10:03:52Z</time>
      </trkpt>
      <trkpt lat="45.37621" lon="6.56631">
        <ele>1828.51</ele>
        <time>2014-01-30T10:03:57Z</time>
      </trkpt>
      <trkpt lat="45.37582" lon="6.56627">
        <ele>1831.03</ele>
        <time>2014-01-30T10:04:01Z</time>
      </trkpt>
      <trkpt lat="45.37547" lon="6.56644">
        <ele>1838.08</ele>
        <time>2014-01-30T10:04:05Z</time>
      </trkpt>
      <trkpt lat="45.37517" lon="6.56676">
        <ele>1827.15</ele>
        <time>2014-01-30T10:04:09Z</time>
      </trkpt>
      <trkpt lat="45.37486" lon="6.56704">
        <ele>1821.07</ele>
        <time>2014-01-30T10:04:13Z</time>
      </trkpt>
      <trkpt lat="45.37443" lon="6.56738">
        <ele>1824.19</ele>
        <time>2014-01-30T10:04:19Z</time>
      </trkpt>
      <trkpt lat="45.37411" lon="6.56778">
        <ele>1819.24</ele>
        <time>2014-01-30T10:04:25Z</time>
      </trkpt>
      <trkpt lat="45.37392" lon="6.5683">
        <ele>1811.54</ele>
        <time>2014-01-30T10:04:32Z</time>
      </trkpt>
      <trkpt lat="45.37382" lon="6.56889">
        <ele>1805.14</ele>
        <time>2014-01-30T10:04:41Z</time>
      </trkpt>
      <trkpt lat="45.37374" lon="6.56947">
        <ele>1802.74</ele>
        <time>2014-01-30T10:04:47Z</time>
      </trkpt>
      <trkpt lat="45.37369" lon="6.57">
        <ele>1802.06</ele>
        <time>2014-01-30T10:04:53Z</time>
      </trkpt>
      <trkpt lat="45.37365" lon="6.57054">
        <ele>1802.13</ele>
        <time>2014-01-30T10:05:00Z</time>
      </trkpt>
      <trkpt lat="45.37365" lon="6.57111">
        <ele>1797.6</ele>
        <time>2014-01-30T10:05:12Z</time>
      </trkpt>
      <trkpt lat="45.37357" lon="6.57165">
        <ele>1800.2</ele>
        <time>2014-01-30T10:05:23Z</time>
      </trkpt>
      <trkpt lat="45.3735" lon="6.57221">
        <ele>1795.29</ele>
        <time>2014-01-30T10:05:35Z</time>
      </trkpt>
      <trkpt lat="45.37329" lon="6.57264">
        <ele>1791.45</ele>
        <time>2014-01-30T10:05:47Z</time>
      </trkpt>
      <trkpt lat="45.37302" lon="6.57304">
        <ele>1790.07</ele>
        <time>2014-01-30T10:05:59Z</time>
      </trkpt>
      <trkpt lat="45.37264" lon="6.57329">
        <ele>1795.06</ele>
        <time>2014-01-30T10:08:27Z</time>
      </trkpt>
      <trkpt lat="45.37242" lon="6.57282">
        <ele>1809.03</ele>
        <time>2014-01-30T10:09:03Z</time>
      </trkpt>
      <trkpt lat="45.37221" lon="6.57235">
        <ele>1825.94</ele>
        <time>2014-01-30T10:09:26Z</time>
      </trkpt>
      <trkpt lat="45.37203" lon="6.57189">
        <ele>1841.74</ele>
        <time>2014-01-30T10:09:47Z</time>
      </trkpt>
      <trkpt lat="45.37181" lon="6.57145">
        <ele>1856.73</ele>
        <time>2014-01-30T10:10:08Z</time>
      </trkpt>
      <trkpt lat="45.37158" lon="6.57095">
        <ele>1872.61</ele>
        <time>2014-01-30T10:10:32Z</time>
      </trkpt>
      <trkpt lat="45.37139" lon="6.57049">
        <ele>1888.06</ele>
        <time>2014-01-30T10:10:52Z</time>
      </trkpt>
      <trkpt lat="45.37119" lon="6.57002">
        <ele>1899.27</ele>
        <time>2014-01-30T10:11:12Z</time>
      </trkpt>
      <trkpt lat="45.37099" lon="6.56957">
        <ele>1906.35</ele>
        <time>2014-01-30T10:11:32Z</time>
      </trkpt>
      <trkpt lat="45.37079" lon="6.56911">
        <ele>1921.95</ele>
        <time>2014-01-30T10:11:52Z</time>
      </trkpt>
      <trkpt lat="45.37059" lon="6.56864">
        <ele>1931.72</ele>
        <time>2014-01-30T10:12:13Z</time>
      </trkpt>
      <trkpt lat="45.37039" lon="6.56818">
        <ele>1939.11</ele>
        <time>2014-01-30T10:12:32Z</time>
      </trkpt>
      <trkpt lat="45.3702" lon="6.56773">
        <ele>1950.92</ele>
        <time>2014-01-30T10:12:54Z</time>
      </trkpt>
      <trkpt lat="45.37" lon="6.56729">
        <ele>1979.14</ele>
        <time>2014-01-30T10:13:16Z</time>
      </trkpt>
      <trkpt lat="45.36981" lon="6.56682">
        <ele>2011.74</ele>
        <time>2014-01-30T10:13:39Z</time>
      </trkpt>
      <trkpt lat="45.3696" lon="6.56637">
        <ele>2036.25</ele>
        <time>2014-01-30T10:14:01Z</time>
      </trkpt>
      <trkpt lat="45.3694" lon="6.56592">
        <ele>2048.97</ele>
        <time>2014-01-30T10:14:21Z</time>
      </trkpt>
      <trkpt lat="45.3692" lon="6.56546">
        <ele>2060.88</ele>
        <time>2014-01-30T10:14:41Z</time>
      </trkpt>
      <trkpt lat="45.36901" lon="6.56499">
        <ele>2079.78</ele>
        <time>2014-01-30T10:15:02Z</time>
      </trkpt>
      <trkpt lat="45.36881" lon="6.56451">
        <ele>2100.69</ele>
        <time>2014-01-30T10:15:31Z</time>
      </trkpt>
      <trkpt lat="45.36861" lon="6.56404">
        <ele>2121.69</ele>
        <time>2014-01-30T10:15:57Z</time>
      </trkpt>
      <trkpt lat="45.3684" lon="6.5636">
        <ele>2152.14</ele>
        <time>2014-01-30T10:16:21Z</time>
      </trkpt>
      <trkpt lat="45.3682" lon="6.56316">
        <ele>2181.1</ele>
        <time>2014-01-30T10:16:44Z</time>
      </trkpt>
      <trkpt lat="45.36801" lon="6.56271">
        <ele>2202.97</ele>
        <time>2014-01-30T10:17:05Z</time>
      </trkpt>
      <trkpt lat="45.36782" lon="6.56225">
        <ele>2216.22</ele>
        <time>2014-01-30T10:17:21Z</time>
      </trkpt>
      <trkpt lat="45.36762" lon="6.56179">
        <ele>2227.05</ele>
        <time>2014-01-30T10:17:40Z</time>
      </trkpt>
      <trkpt lat="45.36743" lon="6.56133">
        <ele>2240.37</ele>
        <time>2014-01-30T10:18:01Z</time>
      </trkpt>
      <trkpt lat="45.36724" lon="6.56089">
        <ele>2250.67</ele>
        <time>2014-01-30T10:18:19Z</time>
      </trkpt>
      <trkpt lat="45.36707" lon="6.56094">
        <ele>2246.68</ele>
        <time>2014-01-30T10:19:46Z</time>
      </trkpt>
      <trkpt lat="45.36678" lon="6.56139">
        <ele>2232.9</ele>
        <time>2014-01-30T10:19:57Z</time>
      </trkpt>
      <trkpt lat="45.36656" lon="6.56183">
        <ele>2228.71</ele>
        <time>2014-01-30T10:20:03Z</time>
      </trkpt>
      <trkpt lat="45.36641" lon="6.56222">
        <ele>2222.53</ele>
        <time>2014-01-30T10:20:09Z</time>
      </trkpt>
      <trkpt lat="45.36619" lon="6.56271">
        <ele>2207.73</ele>
        <time>2014-01-30T10:20:17Z</time>
      </trkpt>
      <trkpt lat="45.36607" lon="6.56327">
        <ele>2192.69</ele>
        <time>2014-01-30T10:20:27Z</time>
      </trkpt>
      <trkpt lat="45.36622" lon="6.56389">
        <ele>2178.31</ele>
        <time>2014-01-30T10:20:34Z</time>
      </trkpt>
      <trkpt lat="45.36633" lon="6.56441">
        <ele>2163.04</ele>
        <time>2014-01-30T10:20:38Z</time>
      </trkpt>
      <trkpt lat="45.36639" lon="6.56503">
        <ele>2166.21</ele>
        <time>2014-01-30T10:20:44Z</time>
      </trkpt>
      <trkpt lat="45.36654" lon="6.56565">
        <ele>2162.92</ele>
        <time>2014-01-30T10:20:52Z</time>
      </trkpt>
      <trkpt lat="45.36674" lon="6.5662">
        <ele>2152.98</ele>
        <time>2014-01-30T10:20:58Z</time>
      </trkpt>
      <trkpt lat="45.36684" lon="6.56676">
        <ele>2145.75</ele>
        <time>2014-01-30T10:21:05Z</time>
      </trkpt>
      <trkpt lat="45.36719" lon="6.56694">
        <ele>2131.72</ele>
        <time>2014-01-30T10:21:16Z</time>
      </trkpt>
      <trkpt lat="45.36757" lon="6.56688">
        <ele>2120.34</ele>
        <time>2014-01-30T10:21:27Z</time>
      </trkpt>
      <trkpt lat="45.36792" lon="6.56652">
        <ele>2102.02</ele>
        <time>2014-01-30T10:21:36Z</time>
      </trkpt>
      <trkpt lat="45.36826" lon="6.56615">
        <ele>2090.69</ele>
        <time>2014-01-30T10:21:42Z</time>
      </trkpt>
      <trkpt lat="45.36859" lon="6.56593">
        <ele>2082.33</ele>
        <time>2014-01-30T10:21:52Z</time>
      </trkpt>
      <trkpt lat="45.36883" lon="6.56555">
        <ele>2075.02</ele>
        <time>2014-01-30T10:22:37Z</time>
      </trkpt>
      <trkpt lat="45.36914" lon="6.5655">
        <ele>2062.82</ele>
        <time>2014-01-30T10:22:45Z</time>
      </trkpt>
      <trkpt lat="45.36949" lon="6.56582">
        <ele>2045.11</ele>
        <time>2014-01-30T10:22:54Z</time>
      </trkpt>
      <trkpt lat="45.36989" lon="6.56599">
        <ele>2029.46</ele>
        <time>2014-01-30T10:23:01Z</time>
      </trkpt>
      <trkpt lat="45.37028" lon="6.56616">
        <ele>2014.28</ele>
        <time>2014-01-30T10:23:11Z</time>
      </trkpt>
      <trkpt lat="45.37064" lon="6.56618">
        <ele>2003.14</ele>
        <time>2014-01-30T10:23:18Z</time>
      </trkpt>
      <trkpt lat="45.37102" lon="6.56624">
        <ele>1986.88</ele>
        <time>2014-01-30T10:23:26Z</time>
      </trkpt>
      <trkpt lat="45.3714" lon="6.56659">
        <ele>1963.5</ele>
        <time>2014-01-30T10:23:33Z</time>
      </trkpt>
      <trkpt lat="45.37138" lon="6.56692">
        <ele>1942.63</ele>
        <time>2014-01-30T10:23:43Z</time>
      </trkpt>
      <trkpt lat="45.37104" lon="6.56725">
        <ele>1940.56</ele>
        <time>2014-01-30T10:23:49Z</time>
      </trkpt>
      <trkpt lat="45.37072" lon="6.56771">
        <ele>1936.65</ele>
        <time>2014-01-30T10:23:54Z</time>
      </trkpt>
      <trkpt lat="45.37053" lon="6.56817">
        <ele>1936.16</ele>
        <time>2014-01-30T10:24:01Z</time>
      </trkpt>
      <trkpt lat="45.37084" lon="6.56852">
        <ele>1926.05</ele>
        <time>2014-01-30T10:24:25Z</time>
      </trkpt>
      <trkpt lat="45.37107" lon="6.56895">
        <ele>1910.49</ele>
        <time>2014-01-30T10:24:31Z</time>
      </trkpt>
      <trkpt lat="45.37123" lon="6.56951">
        <ele>1897.18</ele>
        <time>2014-01-30T10:24:39Z</time>
      </trkpt>
      <trkpt lat="45.37152" lon="6.56985">
        <ele>1887.59</ele>
        <time>2014-01-30T10:24:47Z</time>
      </trkpt>
      <trkpt lat="45.372" lon="6.56987">
        <ele>1872.43</ele>
        <time>2014-01-30T10:24:57Z</time>
      </trkpt>
      <trkpt lat="45.37233" lon="6.56966">
        <ele>1862.54</ele>
        <time>2014-01-30T10:25:03Z</time>
      </trkpt>
      <trkpt lat="45.3727" lon="6.56946">
        <ele>1849.31</ele>
        <time>2014-01-30T10:25:10Z</time>
      </trkpt>
      <trkpt lat="45.37298" lon="6.56901">
        <ele>1832.13</ele>
        <time>2014-01-30T10:25:17Z</time>
      </trkpt>
      <trkpt lat="45.37339" lon="6.56882">
        <ele>1815.81</ele>
        <time>2014-01-30T10:25:23Z</time>
      </trkpt>
      <trkpt lat="45.37371" lon="6.56924">
        <ele>1804.12</ele>
        <time>2014-01-30T10:25:29Z</time>
      </trkpt>
      <trkpt lat="45.37362" lon="6.56984">
        <ele>1804.87</ele>
        <time>2014-01-30T10:25:34Z</time>
      </trkpt>
      <trkpt lat="45.37365" lon="6.57047">
        <ele>1802.05</ele>
        <time>2014-01-30T10:25:40Z</time>
      </trkpt>
      <trkpt lat="45.37365" lon="6.57102">
        <ele>1798.41</ele>
        <time>2014-01-30T10:25:50Z</time>
      </trkpt>
      <trkpt lat="45.37358" lon="6.57159">
        <ele>1799.91</ele>
        <time>2014-01-30T10:26:01Z</time>
      </trkpt>
      <trkpt lat="45.3735" lon="6.57213">
        <ele>1797.36</ele>
        <time>2014-01-30T10:26:14Z</time>
      </trkpt>
      <trkpt lat="45.37326" lon="6.57255">
        <ele>1793.26</ele>
        <time>2014-01-30T10:26:31Z</time>
      </trkpt>
      <trkpt lat="45.37303" lon="6.57304">
        <ele>1789.7</ele>
        <time>2014-01-30T10:26:45Z</time>
      </trkpt>
      <trkpt lat="45.37282" lon="6.57353">
        <ele>1787.72</ele>
        <time>2014-01-30T10:26:55Z</time>
      </trkpt>
      <trkpt lat="45.37259" lon="6.57397">
        <ele>1786.22</ele>
        <time>2014-01-30T10:27:06Z</time>
      </trkpt>
      <trkpt lat="45.37239" lon="6.57451">
        <ele>1781.92</ele>
        <time>2014-01-30T10:27:15Z</time>
      </trkpt>
      <trkpt lat="45.37231" lon="6.57501">
        <ele>1775.51</ele>
        <time>2014-01-30T10:27:23Z</time>
      </trkpt>
      <trkpt lat="45.37219" lon="6.57551">
        <ele>1769.74</ele>
        <time>2014-01-30T10:27:29Z</time>
      </trkpt>
      <trkpt lat="45.37213" lon="6.57617">
        <ele>1755.5</ele>
        <time>2014-01-30T10:27:35Z</time>
      </trkpt>
      <trkpt lat="45.37221" lon="6.57672">
        <ele>1750.56</ele>
        <time>2014-01-30T10:27:41Z</time>
      </trkpt>
      <trkpt lat="45.3723" lon="6.5773">
        <ele>1744.15</ele>
        <time>2014-01-30T10:27:48Z</time>
      </trkpt>
      <trkpt lat="45.37229" lon="6.57796">
        <ele>1731.98</ele>
        <time>2014-01-30T10:27:54Z</time>
      </trkpt>
      <trkpt lat="45.37216" lon="6.57851">
        <ele>1723.9</ele>
        <time>2014-01-30T10:29:09Z</time>
      </trkpt>
      <trkpt lat="45.37196" lon="6.57902">
        <ele>1710.79</ele>
        <time>2014-01-30T10:29:18Z</time>
      </trkpt>
      <trkpt lat="45.37175" lon="6.57949">
        <ele>1703.53</ele>
        <time>2014-01-30T10:29:27Z</time>
      </trkpt>
      <trkpt lat="45.37181" lon="6.57998">
        <ele>1694.7</ele>
        <time>2014-01-30T10:29:35Z</time>
      </trkpt>
      <trkpt lat="45.37205" lon="6.57983">
        <ele>1692.62</ele>
        <time>2014-01-30T10:32:32Z</time>
      </trkpt>
      <trkpt lat="45.37233" lon="6.58031">
        <ele>1685.76</ele>
        <time>2014-01-30T10:34:02Z</time>
      </trkpt>
      <trkpt lat="45.37253" lon="6.58077">
        <ele>1681.73</ele>
        <time>2014-01-30T10:34:12Z</time>
      </trkpt>
      <trkpt lat="45.37275" lon="6.58127">
        <ele>1681.74</ele>
        <time>2014-01-30T10:34:24Z</time>
      </trkpt>
      <trkpt lat="45.37297" lon="6.58171">
        <ele>1692.94</ele>
        <time>2014-01-30T10:34:34Z</time>
      </trkpt>
      <trkpt lat="45.37323" lon="6.58215">
        <ele>1710.55</ele>
        <time>2014-01-30T10:34:46Z</time>
      </trkpt>
      <trkpt lat="45.37348" lon="6.58258">
        <ele>1727.34</ele>
        <time>2014-01-30T10:34:58Z</time>
      </trkpt>
      <trkpt lat="45.3737" lon="6.58306">
        <ele>1740.91</ele>
        <time>2014-01-30T10:35:10Z</time>
      </trkpt>
      <trkpt lat="45.37393" lon="6.58353">
        <ele>1752.96</ele>
        <time>2014-01-30T10:35:22Z</time>
      </trkpt>
      <trkpt lat="45.37417" lon="6.58402">
        <ele>1761.74</ele>
        <time>2014-01-30T10:35:34Z</time>
      </trkpt>
      <trkpt lat="45.3744" lon="6.58448">
        <ele>1770.82</ele>
        <time>2014-01-30T10:35:44Z</time>
      </trkpt>
      <trkpt lat="45.37468" lon="6.58495">
        <ele>1780.84</ele>
        <time>2014-01-30T10:35:54Z</time>
      </trkpt>
      <trkpt lat="45.37496" lon="6.58538">
        <ele>1793.07</ele>
        <time>2014-01-30T10:36:04Z</time>
      </trkpt>
      <trkpt lat="45.37509" lon="6.58586">
        <ele>1811.21</ele>
        <time>2014-01-30T10:36:17Z</time>
      </trkpt>
      <trkpt lat="45.37522" lon="6.58637">
        <ele>1823.6</ele>
        <time>2014-01-30T10:36:31Z</time>
      </trkpt>
      <trkpt lat="45.37545" lon="6.58679">
        <ele>1842.47</ele>
        <time>2014-01-30T10:36:44Z</time>
      </trkpt>
      <trkpt lat="45.37574" lon="6.58722">
        <ele>1861.87</ele>
        <time>2014-01-30T10:36:53Z</time>
      </trkpt>
      <trkpt lat="45.376" lon="6.58762">
        <ele>1877.77</ele>
        <time>2014-01-30T10:37:02Z</time>
      </trkpt>
      <trkpt lat="45.37602" lon="6.58811">
        <ele>1897.76</ele>
        <time>2014-01-30T10:37:15Z</time>
      </trkpt>
      <trkpt lat="45.37614" lon="6.58864">
        <ele>1918.42</ele>
        <time>2014-01-30T10:37:28Z</time>
      </trkpt>
      <trkpt lat="45.37632" lon="6.58912">
        <ele>1940.67</ele>
        <time>2014-01-30T10:37:40Z</time>
      </trkpt>
      <trkpt lat="45.37651" lon="6.58963">
        <ele>1959.33</ele>
        <time>2014-01-30T10:37:52Z</time>
      </trkpt>
      <trkpt lat="45.37678" lon="6.59006">
        <ele>1972.54</ele>
        <time>2014-01-30T10:38:04Z</time>
      </trkpt>
      <trkpt lat="45.37706" lon="6.59048">
        <ele>1983.26</ele>
        <time>2014-01-30T10:38:16Z</time>
      </trkpt>
      <trkpt lat="45.37738" lon="6.5908">
        <ele>1995.53</ele>
        <time>2014-01-30T10:38:27Z</time>
      </trkpt>
      <trkpt lat="45.37771" lon="6.59114">
        <ele>2017.17</ele>
        <time>2014-01-30T10:38:35Z</time>
      </trkpt>
      <trkpt lat="45.37803" lon="6.59143">
        <ele>2032.45</ele>
        <time>2014-01-30T10:38:44Z</time>
      </trkpt>
      <trkpt lat="45.37833" lon="6.59182">
        <ele>2042.3</ele>
        <time>2014-01-30T10:38:54Z</time>
      </trkpt>
      <trkpt lat="45.37823" lon="6.59237">
        <ele>2056.53</ele>
        <time>2014-01-30T10:39:09Z</time>
      </trkpt>
      <trkpt lat="45.37826" lon="6.59291">
        <ele>2072.58</ele>
        <time>2014-01-30T10:39:19Z</time>
      </trkpt>
      <trkpt lat="45.37843" lon="6.5934">
        <ele>2088.47</ele>
        <time>2014-01-30T10:39:31Z</time>
      </trkpt>
      <trkpt lat="45.37857" lon="6.59391">
        <ele>2109.63</ele>
        <time>2014-01-30T10:39:43Z</time>
      </trkpt>
      <trkpt lat="45.37882" lon="6.59431">
        <ele>2132.34</ele>
        <time>2014-01-30T10:39:54Z</time>
      </trkpt>
      <trkpt lat="45.37914" lon="6.59467">
        <ele>2148.72</ele>
        <time>2014-01-30T10:40:08Z</time>
      </trkpt>
      <trkpt lat="45.3794" lon="6.59505">
        <ele>2163.65</ele>
        <time>2014-01-30T10:40:19Z</time>
      </trkpt>
      <trkpt lat="45.37956" lon="6.59559">
        <ele>2176.27</ele>
        <time>2014-01-30T10:40:32Z</time>
      </trkpt>
      <trkpt lat="45.37975" lon="6.59609">
        <ele>2185.63</ele>
        <time>2014-01-30T10:40:42Z</time>
      </trkpt>
      <trkpt lat="45.37996" lon="6.59653">
        <ele>2200.64</ele>
        <time>2014-01-30T10:40:52Z</time>
      </trkpt>
      <trkpt lat="45.38006" lon="6.59703">
        <ele>2211.58</ele>
        <time>2014-01-30T10:42:56Z</time>
      </trkpt>
      <trkpt lat="45.37999" lon="6.59761">
        <ele>2220.41</ele>
        <time>2014-01-30T10:43:07Z</time>
      </trkpt>
      <trkpt lat="45.3801" lon="6.59815">
        <ele>2229.64</ele>
        <time>2014-01-30T10:43:18Z</time>
      </trkpt>
      <trkpt lat="45.38018" lon="6.59875">
        <ele>2243.98</ele>
        <time>2014-01-30T10:43:32Z</time>
      </trkpt>
      <trkpt lat="45.38022" lon="6.59929">
        <ele>2258.57</ele>
        <time>2014-01-30T10:43:44Z</time>
      </trkpt>
      <trkpt lat="45.3803" lon="6.59986">
        <ele>2270.45</ele>
        <time>2014-01-30T10:43:55Z</time>
      </trkpt>
      <trkpt lat="45.38041" lon="6.6004">
        <ele>2294.4</ele>
        <time>2014-01-30T10:44:08Z</time>
      </trkpt>
      <trkpt lat="45.38055" lon="6.6009">
        <ele>2319.88</ele>
        <time>2014-01-30T10:44:21Z</time>
      </trkpt>
      <trkpt lat="45.3806" lon="6.60148">
        <ele>2345.1</ele>
        <time>2014-01-30T10:44:33Z</time>
      </trkpt>
      <trkpt lat="45.38063" lon="6.60204">
        <ele>2359.69</ele>
        <time>2014-01-30T10:44:45Z</time>
      </trkpt>
      <trkpt lat="45.38067" lon="6.60261">
        <ele>2374.31</ele>
        <time>2014-01-30T10:44:57Z</time>
      </trkpt>
      <trkpt lat="45.38074" lon="6.60322">
        <ele>2400.73</ele>
        <time>2014-01-30T10:45:09Z</time>
      </trkpt>
      <trkpt lat="45.38081" lon="6.60376">
        <ele>2420.15</ele>
        <time>2014-01-30T10:45:21Z</time>
      </trkpt>
      <trkpt lat="45.38087" lon="6.60432">
        <ele>2437.2</ele>
        <time>2014-01-30T10:45:33Z</time>
      </trkpt>
      <trkpt lat="45.38098" lon="6.60485">
        <ele>2453.28</ele>
        <time>2014-01-30T10:45:43Z</time>
      </trkpt>
      <trkpt lat="45.38108" lon="6.60542">
        <ele>2472.18</ele>
        <time>2014-01-30T10:45:56Z</time>
      </trkpt>
      <trkpt lat="45.38115" lon="6.60596">
        <ele>2497.23</ele>
        <time>2014-01-30T10:46:10Z</time>
      </trkpt>
      <trkpt lat="45.38098" lon="6.60641">
        <ele>2518.24</ele>
        <time>2014-01-30T10:46:17Z</time>
      </trkpt>
      <trkpt lat="45.38097" lon="6.60694">
        <ele>2547.38</ele>
        <time>2014-01-30T10:46:29Z</time>
      </trkpt>
      <trkpt lat="45.38105" lon="6.60745">
        <ele>2576.09</ele>
        <time>2014-01-30T10:46:42Z</time>
      </trkpt>
      <trkpt lat="45.38115" lon="6.60797">
        <ele>2609.25</ele>
        <time>2014-01-30T10:46:54Z</time>
      </trkpt>
      <trkpt lat="45.38127" lon="6.60849">
        <ele>2636.02</ele>
        <time>2014-01-30T10:47:10Z</time>
      </trkpt>
      <trkpt lat="45.38143" lon="6.609">
        <ele>2665.09</ele>
        <time>2014-01-30T10:47:21Z</time>
      </trkpt>
      <trkpt lat="45.38148" lon="6.60952">
        <ele>2683.59</ele>
        <time>2014-01-30T10:47:34Z</time>
      </trkpt>
      <trkpt lat="45.38129" lon="6.60997">
        <ele>2677.68</ele>
        <time>2014-01-30T10:49:26Z</time>
      </trkpt>
      <trkpt lat="45.38148" lon="6.61046">
        <ele>2671.63</ele>
        <time>2014-01-30T10:50:25Z</time>
      </trkpt>
      <trkpt lat="45.38181" lon="6.61092">
        <ele>2666.77</ele>
        <time>2014-01-30T10:50:31Z</time>
      </trkpt>
      <trkpt lat="45.38197" lon="6.61152">
        <ele>2664.86</ele>
        <time>2014-01-30T10:50:38Z</time>
      </trkpt>
      <trkpt lat="45.38212" lon="6.6121">
        <ele>2661.2</ele>
        <time>2014-01-30T10:50:46Z</time>
      </trkpt>
      <trkpt lat="45.38207" lon="6.61267">
        <ele>2655.42</ele>
        <time>2014-01-30T10:50:56Z</time>
      </trkpt>
      <trkpt lat="45.38195" lon="6.61327">
        <ele>2651.54</ele>
        <time>2014-01-30T10:51:07Z</time>
      </trkpt>
      <trkpt lat="45.38196" lon="6.61386">
        <ele>2646.94</ele>
        <time>2014-01-30T10:51:16Z</time>
      </trkpt>
      <trkpt lat="45.38223" lon="6.61383">
        <ele>2630.03</ele>
        <time>2014-01-30T10:51:26Z</time>
      </trkpt>
      <trkpt lat="45.38249" lon="6.6137">
        <ele>2613.04</ele>
        <time>2014-01-30T10:51:35Z</time>
      </trkpt>
      <trkpt lat="45.3829" lon="6.61373">
        <ele>2596.58</ele>
        <time>2014-01-30T10:51:45Z</time>
      </trkpt>
      <trkpt lat="45.38322" lon="6.61361">
        <ele>2582.62</ele>
        <time>2014-01-30T10:51:54Z</time>
      </trkpt>
      <trkpt lat="45.38358" lon="6.61378">
        <ele>2576.05</ele>
        <time>2014-01-30T10:52:01Z</time>
      </trkpt>
      <trkpt lat="45.38379" lon="6.61345">
        <ele>2563.93</ele>
        <time>2014-01-30T10:52:11Z</time>
      </trkpt>
      <trkpt lat="45.38415" lon="6.61342">
        <ele>2551.7</ele>
        <time>2014-01-30T10:52:18Z</time>
      </trkpt>
      <trkpt lat="45.38455" lon="6.61327">
        <ele>2536</ele>
        <time>2014-01-30T10:52:24Z</time>
      </trkpt>
      <trkpt lat="45.3849" lon="6.61343">
        <ele>2522.79</ele>
        <time>2014-01-30T10:52:33Z</time>
      </trkpt>
      <trkpt lat="45.38534" lon="6.61345">
        <ele>2504.08</ele>
        <time>2014-01-30T10:52:47Z</time>
      </trkpt>
      <trkpt lat="45.38571" lon="6.61346">
        <ele>2489.17</ele>
        <time>2014-01-30T10:52:56Z</time>
      </trkpt>
      <trkpt lat="45.38609" lon="6.61343">
        <ele>2475.68</ele>
        <time>2014-01-30T10:53:06Z</time>
      </trkpt>
      <trkpt lat="45.38642" lon="6.6131">
        <ele>2460.86</ele>
        <time>2014-01-30T10:53:14Z</time>
      </trkpt>
      <trkpt lat="45.38678" lon="6.61292">
        <ele>2449.48</ele>
        <time>2014-01-30T10:53:20Z</time>
      </trkpt>
      <trkpt lat="45.38718" lon="6.61268">
        <ele>2436.94</ele>
        <time>2014-01-30T10:53:27Z</time>
      </trkpt>
      <trkpt lat="45.38766" lon="6.61258">
        <ele>2420.26</ele>
        <time>2014-01-30T10:53:33Z</time>
      </trkpt>
      <trkpt lat="45.38803" lon="6.61261">
        <ele>2410.46</ele>
        <time>2014-01-30T10:53:40Z</time>
      </trkpt>
      <trkpt lat="45.38838" lon="6.61241">
        <ele>2401.08</ele>
        <time>2014-01-30T10:53:49Z</time>
      </trkpt>
      <trkpt lat="45.38883" lon="6.61237">
        <ele>2384.57</ele>
        <time>2014-01-30T10:53:58Z</time>
      </trkpt>
      <trkpt lat="45.3892" lon="6.61252">
        <ele>2367.96</ele>
        <time>2014-01-30T10:54:05Z</time>
      </trkpt>
      <trkpt lat="45.3892" lon="6.61306">
        <ele>2361.19</ele>
        <time>2014-01-30T10:54:25Z</time>
      </trkpt>
      <trkpt lat="45.38944" lon="6.61348">
        <ele>2350.84</ele>
        <time>2014-01-30T10:54:36Z</time>
      </trkpt>
      <trkpt lat="45.38977" lon="6.61367">
        <ele>2335.82</ele>
        <time>2014-01-30T10:54:59Z</time>
      </trkpt>
      <trkpt lat="45.39" lon="6.61415">
        <ele>2319.74</ele>
        <time>2014-01-30T10:55:16Z</time>
      </trkpt>
      <trkpt lat="45.39032" lon="6.61433">
        <ele>2304.23</ele>
        <time>2014-01-30T10:55:30Z</time>
      </trkpt>
      <trkpt lat="45.39073" lon="6.61432">
        <ele>2281.99</ele>
        <time>2014-01-30T10:55:39Z</time>
      </trkpt>
      <trkpt lat="45.39111" lon="6.61432">
        <ele>2272.4</ele>
        <time>2014-01-30T10:55:46Z</time>
      </trkpt>
      <trkpt lat="45.39145" lon="6.61473">
        <ele>2266.28</ele>
        <time>2014-01-30T10:56:13Z</time>
      </trkpt>
      <trkpt lat="45.39181" lon="6.61514">
        <ele>2256.67</ele>
        <time>2014-01-30T10:56:18Z</time>
      </trkpt>
      <trkpt lat="45.39189" lon="6.61565">
        <ele>2252.34</ele>
        <time>2014-01-30T10:56:26Z</time>
      </trkpt>
      <trkpt lat="45.39222" lon="6.61599">
        <ele>2229.59</ele>
        <time>2014-01-30T10:56:39Z</time>
      </trkpt>
      <trkpt lat="45.39267" lon="6.61609">
        <ele>2213.08</ele>
        <time>2014-01-30T10:56:45Z</time>
      </trkpt>
      <trkpt lat="45.39301" lon="6.6163">
        <ele>2205.92</ele>
        <time>2014-01-30T10:56:51Z</time>
      </trkpt>
      <trkpt lat="45.39332" lon="6.61659">
        <ele>2194.16</ele>
        <time>2014-01-30T10:57:01Z</time>
      </trkpt>
      <trkpt lat="45.39366" lon="6.6169">
        <ele>2177.07</ele>
        <time>2014-01-30T10:57:07Z</time>
      </trkpt>
      <trkpt lat="45.39397" lon="6.61696">
        <ele>2167.07</ele>
        <time>2014-01-30T10:57:18Z</time>
      </trkpt>
      <trkpt lat="45.39433" lon="6.61706">
        <ele>2149.21</ele>
        <time>2014-01-30T10:57:24Z</time>
      </trkpt>
      <trkpt lat="45.39466" lon="6.61747">
        <ele>2132.76</ele>
        <time>2014-01-30T10:57:30Z</time>
      </trkpt>
      <trkpt lat="45.39506" lon="6.6174">
        <ele>2121.91</ele>
        <time>2014-01-30T10:57:36Z</time>
      </trkpt>
      <trkpt lat="45.39539" lon="6.61782">
        <ele>2108.61</ele>
        <time>2014-01-30T10:57:42Z</time>
      </trkpt>
      <trkpt lat="45.39569" lon="6.61811">
        <ele>2098.16</ele>
        <time>2014-01-30T10:57:48Z</time>
      </trkpt>
      <trkpt lat="45.39616" lon="6.61838">
        <ele>2086.53</ele>
        <time>2014-01-30T10:57:54Z</time>
      </trkpt>
      <trkpt lat="45.39648" lon="6.61874">
        <ele>2078.26</ele>
        <time>2014-01-30T10:58:00Z</time>
      </trkpt>
      <trkpt lat="45.39679" lon="6.61893">
        <ele>2071.66</ele>
        <time>2014-01-30T10:58:08Z</time>
      </trkpt>
      <trkpt lat="45.39718" lon="6.6191">
        <ele>2061.42</ele>
        <time>2014-01-30T10:58:17Z</time>
      </trkpt>
      <trkpt lat="45.3974" lon="6.6196">
        <ele>2052.65</ele>
        <time>2014-01-30T10:59:09Z</time>
      </trkpt>
      <trkpt lat="45.39764" lon="6.62009">
        <ele>2042.07</ele>
        <time>2014-01-30T10:59:16Z</time>
      </trkpt>
      <trkpt lat="45.39811" lon="6.62042">
        <ele>2026.07</ele>
        <time>2014-01-30T10:59:21Z</time>
      </trkpt>
      <trkpt lat="45.39856" lon="6.62068">
        <ele>2012.5</ele>
        <time>2014-01-30T10:59:25Z</time>
      </trkpt>
      <trkpt lat="45.399" lon="6.62099">
        <ele>2000.42</ele>
        <time>2014-01-30T10:59:29Z</time>
      </trkpt>
      <trkpt lat="45.39939" lon="6.6213">
        <ele>1990.58</ele>
        <time>2014-01-30T10:59:33Z</time>
      </trkpt>
      <trkpt lat="45.39976" lon="6.62165">
        <ele>1981.26</ele>
        <time>2014-01-30T10:59:37Z</time>
      </trkpt>
      <trkpt lat="45.40014" lon="6.62196">
        <ele>1971.55</ele>
        <time>2014-01-30T10:59:41Z</time>
      </trkpt>
      <trkpt lat="45.40055" lon="6.62229">
        <ele>1963.43</ele>
        <time>2014-01-30T10:59:46Z</time>
      </trkpt>
      <trkpt lat="45.40086" lon="6.62263">
        <ele>1958.16</ele>
        <time>2014-01-30T10:59:50Z</time>
      </trkpt>
      <trkpt lat="45.40129" lon="6.62294">
        <ele>1948.42</ele>
        <time>2014-01-30T10:59:54Z</time>
      </trkpt>
      <trkpt lat="45.40168" lon="6.62345">
        <ele>1939.23</ele>
        <time>2014-01-30T10:59:58Z</time>
      </trkpt>
      <trkpt lat="45.40198" lon="6.62391">
        <ele>1934.04</ele>
        <time>2014-01-30T11:00:02Z</time>
      </trkpt>
      <trkpt lat="45.40234" lon="6.62432">
        <ele>1926.59</ele>
        <time>2014-01-30T11:00:07Z</time>
      </trkpt>
      <trkpt lat="45.40267" lon="6.62481">
        <ele>1921.45</ele>
        <time>2014-01-30T11:00:12Z</time>
      </trkpt>
      <trkpt lat="45.403" lon="6.62524">
        <ele>1915.22</ele>
        <time>2014-01-30T11:00:16Z</time>
      </trkpt>
      <trkpt lat="45.40327" lon="6.62572">
        <ele>1911.67</ele>
        <time>2014-01-30T11:00:21Z</time>
      </trkpt>
      <trkpt lat="45.40359" lon="6.62605">
        <ele>1904.95</ele>
        <time>2014-01-30T11:00:25Z</time>
      </trkpt>
      <trkpt lat="45.40388" lon="6.62645">
        <ele>1899.93</ele>
        <time>2014-01-30T11:00:29Z</time>
      </trkpt>
      <trkpt lat="45.40423" lon="6.62677">
        <ele>1894.35</ele>
        <time>2014-01-30T11:00:33Z</time>
      </trkpt>
      <trkpt lat="45.40459" lon="6.62704">
        <ele>1888.98</ele>
        <time>2014-01-30T11:00:37Z</time>
      </trkpt>
      <trkpt lat="45.40501" lon="6.62721">
        <ele>1884.07</ele>
        <time>2014-01-30T11:00:42Z</time>
      </trkpt>
      <trkpt lat="45.40547" lon="6.62738">
        <ele>1879.44</ele>
        <time>2014-01-30T11:00:48Z</time>
      </trkpt>
      <trkpt lat="45.40585" lon="6.62769">
        <ele>1873.8</ele>
        <time>2014-01-30T11:00:53Z</time>
      </trkpt>
      <trkpt lat="45.40623" lon="6.62814">
        <ele>1868.45</ele>
        <time>2014-01-30T11:00:59Z</time>
      </trkpt>
      <trkpt lat="45.40659" lon="6.62849">
        <ele>1865.29</ele>
        <time>2014-01-30T11:01:04Z</time>
      </trkpt>
      <trkpt lat="45.407" lon="6.62879">
        <ele>1862.55</ele>
        <time>2014-01-30T11:01:10Z</time>
      </trkpt>
      <trkpt lat="45.40745" lon="6.62899">
        <ele>1858.11</ele>
        <time>2014-01-30T11:01:16Z</time>
      </trkpt>
      <trkpt lat="45.40788" lon="6.6292">
        <ele>1855.03</ele>
        <time>2014-01-30T11:01:22Z</time>
      </trkpt>
      <trkpt lat="45.40828" lon="6.62937">
        <ele>1851.34</ele>
        <time>2014-01-30T11:01:28Z</time>
      </trkpt>
      <trkpt lat="45.40866" lon="6.62961">
        <ele>1849.31</ele>
        <time>2014-01-30T11:01:37Z</time>
      </trkpt>
      <trkpt lat="45.40906" lon="6.62979">
        <ele>1848.36</ele>
        <time>2014-01-30T11:01:46Z</time>
      </trkpt>
      <trkpt lat="45.40946" lon="6.62993">
        <ele>1848</ele>
        <time>2014-01-30T11:01:55Z</time>
      </trkpt>
      <trkpt lat="45.40986" lon="6.63004">
        <ele>1844.2</ele>
        <time>2014-01-30T11:02:03Z</time>
      </trkpt>
      <trkpt lat="45.41031" lon="6.63012">
        <ele>1834.15</ele>
        <time>2014-01-30T11:02:09Z</time>
      </trkpt>
      <trkpt lat="45.41081" lon="6.63025">
        <ele>1826.55</ele>
        <time>2014-01-30T11:02:15Z</time>
      </trkpt>
      <trkpt lat="45.41129" lon="6.63044">
        <ele>1821.56</ele>
        <time>2014-01-30T11:02:21Z</time>
      </trkpt>
      <trkpt lat="45.41168" lon="6.63056">
        <ele>1819.04</ele>
        <time>2014-01-30T11:02:27Z</time>
      </trkpt>
      <trkpt lat="45.41211" lon="6.63064">
        <ele>1817.84</ele>
        <time>2014-01-30T11:02:33Z</time>
      </trkpt>
      <trkpt lat="45.41251" lon="6.63072">
        <ele>1809.15</ele>
        <time>2014-01-30T11:02:38Z</time>
      </trkpt>
      <trkpt lat="45.41292" lon="6.63088">
        <ele>1797.5</ele>
        <time>2014-01-30T11:02:42Z</time>
      </trkpt>
      <trkpt lat="45.41336" lon="6.63103">
        <ele>1788.22</ele>
        <time>2014-01-30T11:02:46Z</time>
      </trkpt>
      <trkpt lat="45.41368" lon="6.63146">
        <ele>1779.22</ele>
        <time>2014-01-30T11:02:51Z</time>
      </trkpt>
      <trkpt lat="45.41399" lon="6.63194">
        <ele>1772.55</ele>
        <time>2014-01-30T11:02:56Z</time>
      </trkpt>
      <trkpt lat="45.41441" lon="6.63218">
        <ele>1767.42</ele>
        <time>2014-01-30T11:03:01Z</time>
      </trkpt>
      <trkpt lat="45.41476" lon="6.63242">
        <ele>1762.53</ele>
        <time>2014-01-30T11:03:06Z</time>
      </trkpt>
      <trkpt lat="45.41517" lon="6.63257">
        <ele>1754.78</ele>
        <time>2014-01-30T11:03:12Z</time>
      </trkpt>
      <trkpt lat="45.41557" lon="6.63288">
        <ele>1748.74</ele>
        <time>2014-01-30T11:03:17Z</time>
      </trkpt>
      <trkpt lat="45.41583" lon="6.63333">
        <ele>1742.05</ele>
        <time>2014-01-30T11:03:23Z</time>
      </trkpt>
      <trkpt lat="45.4163" lon="6.63355">
        <ele>1733.93</ele>
        <time>2014-01-30T11:03:29Z</time>
      </trkpt>
      <trkpt lat="45.41673" lon="6.63376">
        <ele>1727.55</ele>
        <time>2014-01-30T11:03:33Z</time>
      </trkpt>
      <trkpt lat="45.41715" lon="6.63373">
        <ele>1719.7</ele>
        <time>2014-01-30T11:03:37Z</time>
      </trkpt>
      <trkpt lat="45.41759" lon="6.63347">
        <ele>1717.53</ele>
        <time>2014-01-30T11:03:43Z</time>
      </trkpt>
      <trkpt lat="45.41794" lon="6.63314">
        <ele>1720.23</ele>
        <time>2014-01-30T11:03:49Z</time>
      </trkpt>
      <trkpt lat="45.41826" lon="6.63275">
        <ele>1718.16</ele>
        <time>2014-01-30T11:03:55Z</time>
      </trkpt>
      <trkpt lat="45.4187" lon="6.63254">
        <ele>1711.95</ele>
        <time>2014-01-30T11:04:01Z</time>
      </trkpt>
      <trkpt lat="45.41918" lon="6.63244">
        <ele>1708.24</ele>
        <time>2014-01-30T11:04:07Z</time>
      </trkpt>
      <trkpt lat="45.41955" lon="6.63227">
        <ele>1707.27</ele>
        <time>2014-01-30T11:04:13Z</time>
      </trkpt>
      <trkpt lat="45.41988" lon="6.63205">
        <ele>1699.52</ele>
        <time>2014-01-30T11:04:19Z</time>
      </trkpt>
      <trkpt lat="45.42025" lon="6.63182">
        <ele>1691.59</ele>
        <time>2014-01-30T11:04:25Z</time>
      </trkpt>
      <trkpt lat="45.42061" lon="6.63161">
        <ele>1686.9</ele>
        <time>2014-01-30T11:04:31Z</time>
      </trkpt>
      <trkpt lat="45.42101" lon="6.63143">
        <ele>1683.85</ele>
        <time>2014-01-30T11:04:37Z</time>
      </trkpt>
      <trkpt lat="45.42139" lon="6.63177">
        <ele>1672.73</ele>
        <time>2014-01-30T11:06:54Z</time>
      </trkpt>
      <trkpt lat="45.42177" lon="6.63208">
        <ele>1657.85</ele>
        <time>2014-01-30T11:07:00Z</time>
      </trkpt>
      <trkpt lat="45.42207" lon="6.63245">
        <ele>1645.86</ele>
        <time>2014-01-30T11:07:06Z</time>
      </trkpt>
      <trkpt lat="45.4224" lon="6.63266">
        <ele>1633.86</ele>
        <time>2014-01-30T11:07:13Z</time>
      </trkpt>
      <trkpt lat="45.42273" lon="6.63299">
        <ele>1618.03</ele>
        <time>2014-01-30T11:07:21Z</time>
      </trkpt>
      <trkpt lat="45.42309" lon="6.63316">
        <ele>1601.97</ele>
        <time>2014-01-30T11:07:28Z</time>
      </trkpt>
      <trkpt lat="45.4235" lon="6.63322">
        <ele>1585.55</ele>
        <time>2014-01-30T11:07:35Z</time>
      </trkpt>
      <trkpt lat="45.42392" lon="6.63335">
        <ele>1570.13</ele>
        <time>2014-01-30T11:07:40Z</time>
      </trkpt>
      <trkpt lat="45.42423" lon="6.63372">
        <ele>1558.01</ele>
        <time>2014-01-30T11:07:46Z</time>
      </trkpt>
      <trkpt lat="45.42453" lon="6.63387">
        <ele>1547.73</ele>
        <time>2014-01-30T11:07:54Z</time>
      </trkpt>
      <trkpt lat="45.42483" lon="6.6336">
        <ele>1538.83</ele>
        <time>2014-01-30T11:08:02Z</time>
      </trkpt>
      <trkpt lat="45.42486" lon="6.63304">
        <ele>1535.21</ele>
        <time>2014-01-30T11:08:08Z</time>
      </trkpt>
      <trkpt lat="45.42517" lon="6.63256">
        <ele>1514.3</ele>
        <time>2014-01-30T11:08:15Z</time>
      </trkpt>
      <trkpt lat="45.42554" lon="6.63249">
        <ele>1497.69</ele>
        <time>2014-01-30T11:08:20Z</time>
      </trkpt>
      <trkpt lat="45.42595" lon="6.63229">
        <ele>1483.89</ele>
        <time>2014-01-30T11:08:28Z</time>
      </trkpt>
      <trkpt lat="45.42626" lon="6.63194">
        <ele>1475.53</ele>
        <time>2014-01-30T11:08:36Z</time>
      </trkpt>
      <trkpt lat="45.42665" lon="6.63188">
        <ele>1456.12</ele>
        <time>2014-01-30T11:08:44Z</time>
      </trkpt>
      <trkpt lat="45.42693" lon="6.63156">
        <ele>1441.9</ele>
        <time>2014-01-30T11:08:51Z</time>
      </trkpt>
      <trkpt lat="45.42706" lon="6.63093">
        <ele>1431.59</ele>
        <time>2014-01-30T11:08:57Z</time>
      </trkpt>
      <trkpt lat="45.42725" lon="6.63032">
        <ele>1422.82</ele>
        <time>2014-01-30T11:09:03Z</time>
      </trkpt>
      <trkpt lat="45.42742" lon="6.62983">
        <ele>1422.59</ele>
        <time>2014-01-30T11:09:10Z</time>
      </trkpt>
      <trkpt lat="45.42756" lon="6.62923">
        <ele>1412.35</ele>
        <time>2014-01-30T11:09:16Z</time>
      </trkpt>
      <trkpt lat="45.42768" lon="6.62855">
        <ele>1401</ele>
        <time>2014-01-30T11:09:22Z</time>
      </trkpt>
      <trkpt lat="45.42783" lon="6.62799">
        <ele>1395.88</ele>
        <time>2014-01-30T11:09:28Z</time>
      </trkpt>
      <trkpt lat="45.42805" lon="6.62747">
        <ele>1390.33</ele>
        <time>2014-01-30T11:09:34Z</time>
      </trkpt>
      <trkpt lat="45.42828" lon="6.62686">
        <ele>1382.19</ele>
        <time>2014-01-30T11:09:40Z</time>
      </trkpt>
      <trkpt lat="45.42859" lon="6.62645">
        <ele>1372.77</ele>
        <time>2014-01-30T11:09:45Z</time>
      </trkpt>
      <trkpt lat="45.42904" lon="6.62618">
        <ele>1351.41</ele>
        <time>2014-01-30T11:09:50Z</time>
      </trkpt>
      <trkpt lat="45.42938" lon="6.62577">
        <ele>1341.1</ele>
        <time>2014-01-30T11:09:54Z</time>
      </trkpt>
      <trkpt lat="45.42962" lon="6.62518">
        <ele>1337.35</ele>
        <time>2014-01-30T11:10:00Z</time>
      </trkpt>
      <trkpt lat="45.42987" lon="6.62466">
        <ele>1329.11</ele>
        <time>2014-01-30T11:10:05Z</time>
      </trkpt>
      <trkpt lat="45.42999" lon="6.6241">
        <ele>1319.77</ele>
        <time>2014-01-30T11:10:09Z</time>
      </trkpt>
      <trkpt lat="45.42998" lon="6.62358">
        <ele>1312.05</ele>
        <time>2014-01-30T11:10:13Z</time>
      </trkpt>
      <trkpt lat="45.42995" lon="6.62302">
        <ele>1307.05</ele>
        <time>2014-01-30T11:10:17Z</time>
      </trkpt>
      <trkpt lat="45.43" lon="6.62246">
        <ele>1300.75</ele>
        <time>2014-01-30T11:10:21Z</time>
      </trkpt>
      <trkpt lat="45.43023" lon="6.62197">
        <ele>1292.72</ele>
        <time>2014-01-30T11:10:25Z</time>
      </trkpt>
      <trkpt lat="45.43039" lon="6.62144">
        <ele>1284.55</ele>
        <time>2014-01-30T11:10:29Z</time>
      </trkpt>
      <trkpt lat="45.43048" lon="6.62094">
        <ele>1281.23</ele>
        <time>2014-01-30T11:10:33Z</time>
      </trkpt>
      <trkpt lat="45.43075" lon="6.62059">
        <ele>1270.39</ele>
        <time>2014-01-30T11:10:37Z</time>
      </trkpt>
      <trkpt lat="45.43105" lon="6.62018">
        <ele>1264.91</ele>
        <time>2014-01-30T11:10:43Z</time>
      </trkpt>
      <trkpt lat="45.43133" lon="6.61974">
        <ele>1260.49</ele>
        <time>2014-01-30T11:10:50Z</time>
      </trkpt>
      <trkpt lat="45.43172" lon="6.61979">
        <ele>1259.95</ele>
        <time>2014-01-30T11:11:01Z</time>
      </trkpt>
      <trkpt lat="45.4319" lon="6.62022">
        <ele>1259.16</ele>
        <time>2014-01-30T11:13:02Z</time>
      </trkpt>
      <trkpt lat="45.4315" lon="6.6199">
        <ele>1260</ele>
        <time>2014-01-30T11:21:27Z</time>
      </trkpt>
      <trkpt lat="45.43107" lon="6.61997">
        <ele>1265.25</ele>
        <time>2014-01-30T11:21:40Z</time>
      </trkpt>
      <trkpt lat="45.4307" lon="6.61997">
        <ele>1282.61</ele>
        <time>2014-01-30T11:21:44Z</time>
      </trkpt>
      <trkpt lat="45.4303" lon="6.61996">
        <ele>1317.89</ele>
        <time>2014-01-30T11:21:55Z</time>
      </trkpt>
      <trkpt lat="45.42994" lon="6.61995">
        <ele>1341.31</ele>
        <time>2014-01-30T11:22:06Z</time>
      </trkpt>
      <trkpt lat="45.42954" lon="6.61987">
        <ele>1358.63</ele>
        <time>2014-01-30T11:22:18Z</time>
      </trkpt>
      <trkpt lat="45.42917" lon="6.61982">
        <ele>1368.78</ele>
        <time>2014-01-30T11:22:30Z</time>
      </trkpt>
      <trkpt lat="45.42878" lon="6.61969">
        <ele>1374.33</ele>
        <time>2014-01-30T11:22:41Z</time>
      </trkpt>
      <trkpt lat="45.42838" lon="6.61964">
        <ele>1378.84</ele>
        <time>2014-01-30T11:22:52Z</time>
      </trkpt>
      <trkpt lat="45.42802" lon="6.61957">
        <ele>1391.1</ele>
        <time>2014-01-30T11:23:02Z</time>
      </trkpt>
      <trkpt lat="45.42763" lon="6.61953">
        <ele>1419.36</ele>
        <time>2014-01-30T11:23:13Z</time>
      </trkpt>
      <trkpt lat="45.42724" lon="6.61952">
        <ele>1449.77</ele>
        <time>2014-01-30T11:23:26Z</time>
      </trkpt>
      <trkpt lat="45.42683" lon="6.61945">
        <ele>1486.15</ele>
        <time>2014-01-30T11:23:41Z</time>
      </trkpt>
      <trkpt lat="45.42643" lon="6.61947">
        <ele>1525.08</ele>
        <time>2014-01-30T11:23:56Z</time>
      </trkpt>
      <trkpt lat="45.42605" lon="6.61964">
        <ele>1548.42</ele>
        <time>2014-01-30T11:24:10Z</time>
      </trkpt>
      <trkpt lat="45.42566" lon="6.61964">
        <ele>1573.38</ele>
        <time>2014-01-30T11:24:24Z</time>
      </trkpt>
      <trkpt lat="45.42536" lon="6.61927">
        <ele>1596.95</ele>
        <time>2014-01-30T11:24:32Z</time>
      </trkpt>
      <trkpt lat="45.42498" lon="6.61917">
        <ele>1613.48</ele>
        <time>2014-01-30T11:24:44Z</time>
      </trkpt>
      <trkpt lat="45.42458" lon="6.61904">
        <ele>1630.19</ele>
        <time>2014-01-30T11:24:58Z</time>
      </trkpt>
      <trkpt lat="45.42418" lon="6.61902">
        <ele>1654.51</ele>
        <time>2014-01-30T11:25:09Z</time>
      </trkpt>
      <trkpt lat="45.4238" lon="6.61899">
        <ele>1684.27</ele>
        <time>2014-01-30T11:25:22Z</time>
      </trkpt>
      <trkpt lat="45.42342" lon="6.61892">
        <ele>1703.94</ele>
        <time>2014-01-30T11:25:33Z</time>
      </trkpt>
      <trkpt lat="45.42304" lon="6.61891">
        <ele>1721.72</ele>
        <time>2014-01-30T11:25:44Z</time>
      </trkpt>
      <trkpt lat="45.42264" lon="6.61883">
        <ele>1735.21</ele>
        <time>2014-01-30T11:25:58Z</time>
      </trkpt>
      <trkpt lat="45.42224" lon="6.61878">
        <ele>1756.45</ele>
        <time>2014-01-30T11:26:09Z</time>
      </trkpt>
      <trkpt lat="45.42188" lon="6.61863">
        <ele>1777.74</ele>
        <time>2014-01-30T11:27:36Z</time>
      </trkpt>
      <trkpt lat="45.42148" lon="6.61858">
        <ele>1798.41</ele>
        <time>2014-01-30T11:27:49Z</time>
      </trkpt>
      <trkpt lat="45.42112" lon="6.61851">
        <ele>1812.41</ele>
        <time>2014-01-30T11:28:00Z</time>
      </trkpt>
      <trkpt lat="45.42073" lon="6.61844">
        <ele>1835.63</ele>
        <time>2014-01-30T11:28:12Z</time>
      </trkpt>
      <trkpt lat="45.42037" lon="6.61836">
        <ele>1856.35</ele>
        <time>2014-01-30T11:28:24Z</time>
      </trkpt>
      <trkpt lat="45.41996" lon="6.61829">
        <ele>1878.69</ele>
        <time>2014-01-30T11:28:36Z</time>
      </trkpt>
      <trkpt lat="45.41957" lon="6.61824">
        <ele>1900.83</ele>
        <time>2014-01-30T11:28:49Z</time>
      </trkpt>
      <trkpt lat="45.41918" lon="6.61833">
        <ele>1918.31</ele>
        <time>2014-01-30T11:29:00Z</time>
      </trkpt>
      <trkpt lat="45.41878" lon="6.61836">
        <ele>1942.27</ele>
        <time>2014-01-30T11:29:13Z</time>
      </trkpt>
      <trkpt lat="45.41839" lon="6.6184">
        <ele>1964.97</ele>
        <time>2014-01-30T11:29:26Z</time>
      </trkpt>
      <trkpt lat="45.41798" lon="6.6183">
        <ele>1994.5</ele>
        <time>2014-01-30T11:29:38Z</time>
      </trkpt>
      <trkpt lat="45.4177" lon="6.61803">
        <ele>2014.41</ele>
        <time>2014-01-30T11:29:47Z</time>
      </trkpt>
      <trkpt lat="45.41733" lon="6.61788">
        <ele>2028.52</ele>
        <time>2014-01-30T11:29:58Z</time>
      </trkpt>
      <trkpt lat="45.41696" lon="6.61777">
        <ele>2039.72</ele>
        <time>2014-01-30T11:30:10Z</time>
      </trkpt>
      <trkpt lat="45.41659" lon="6.61771">
        <ele>2051.67</ele>
        <time>2014-01-30T11:30:20Z</time>
      </trkpt>
      <trkpt lat="45.41621" lon="6.61767">
        <ele>2063.84</ele>
        <time>2014-01-30T11:30:31Z</time>
      </trkpt>
      <trkpt lat="45.41583" lon="6.61758">
        <ele>2068.45</ele>
        <time>2014-01-30T11:30:42Z</time>
      </trkpt>
      <trkpt lat="45.41562" lon="6.61781">
        <ele>2074.44</ele>
        <time>2014-01-30T11:33:00Z</time>
      </trkpt>
      <trkpt lat="45.41599" lon="6.61768">
        <ele>2067.55</ele>
        <time>2014-01-30T11:33:12Z</time>
      </trkpt>
      <trkpt lat="45.41615" lon="6.61726">
        <ele>2067.67</ele>
        <time>2014-01-30T11:33:23Z</time>
      </trkpt>
      <trkpt lat="45.41627" lon="6.6167">
        <ele>2051.5</ele>
        <time>2014-01-30T11:33:29Z</time>
      </trkpt>
      <trkpt lat="45.41626" lon="6.61609">
        <ele>2042.7</ele>
        <time>2014-01-30T11:33:35Z</time>
      </trkpt>
      <trkpt lat="45.41633" lon="6.61547">
        <ele>2031.13</ele>
        <time>2014-01-30T11:33:40Z</time>
      </trkpt>
      <trkpt lat="45.41638" lon="6.61491">
        <ele>2018.8</ele>
        <time>2014-01-30T11:33:44Z</time>
      </trkpt>
      <trkpt lat="45.41636" lon="6.61439">
        <ele>2010.5</ele>
        <time>2014-01-30T11:33:48Z</time>
      </trkpt>
      <trkpt lat="45.41624" lon="6.61383">
        <ele>2006.21</ele>
        <time>2014-01-30T11:33:53Z</time>
      </trkpt>
      <trkpt lat="45.41609" lon="6.61325">
        <ele>2000.56</ele>
        <time>2014-01-30T11:33:59Z</time>
      </trkpt>
      <trkpt lat="45.41591" lon="6.61258">
        <ele>1985.87</ele>
        <time>2014-01-30T11:34:06Z</time>
      </trkpt>
      <trkpt lat="45.41565" lon="6.61213">
        <ele>1978.94</ele>
        <time>2014-01-30T11:34:10Z</time>
      </trkpt>
      <trkpt lat="45.41536" lon="6.6118">
        <ele>1975.76</ele>
        <time>2014-01-30T11:34:14Z</time>
      </trkpt>
      <trkpt lat="45.41506" lon="6.61133">
        <ele>1973.87</ele>
        <time>2014-01-30T11:34:20Z</time>
      </trkpt>
      <trkpt lat="45.41494" lon="6.61079">
        <ele>1969.87</ele>
        <time>2014-01-30T11:35:53Z</time>
      </trkpt>
      <trkpt lat="45.41491" lon="6.61021">
        <ele>1962.83</ele>
        <time>2014-01-30T11:36:01Z</time>
      </trkpt>
      <trkpt lat="45.41536" lon="6.60983">
        <ele>1939.12</ele>
        <time>2014-01-30T11:36:08Z</time>
      </trkpt>
      <trkpt lat="45.41565" lon="6.60945">
        <ele>1922.39</ele>
        <time>2014-01-30T11:36:14Z</time>
      </trkpt>
      <trkpt lat="45.41607" lon="6.60956">
        <ele>1910.44</ele>
        <time>2014-01-30T11:36:19Z</time>
      </trkpt>
      <trkpt lat="45.41633" lon="6.60911">
        <ele>1893.42</ele>
        <time>2014-01-30T11:36:23Z</time>
      </trkpt>
      <trkpt lat="45.41673" lon="6.60891">
        <ele>1880.11</ele>
        <time>2014-01-30T11:36:27Z</time>
      </trkpt>
      <trkpt lat="45.4166" lon="6.60836">
        <ele>1875</ele>
        <time>2014-01-30T11:36:32Z</time>
      </trkpt>
      <trkpt lat="45.41669" lon="6.60782">
        <ele>1869.13</ele>
        <time>2014-01-30T11:36:38Z</time>
      </trkpt>
      <trkpt lat="45.41693" lon="6.60745">
        <ele>1862.71</ele>
        <time>2014-01-30T11:36:44Z</time>
      </trkpt>
      <trkpt lat="45.4173" lon="6.60721">
        <ele>1856.9</ele>
        <time>2014-01-30T11:36:53Z</time>
      </trkpt>
      <trkpt lat="45.41763" lon="6.60684">
        <ele>1850.14</ele>
        <time>2014-01-30T11:37:19Z</time>
      </trkpt>
      <trkpt lat="45.41803" lon="6.60671">
        <ele>1839.66</ele>
        <time>2014-01-30T11:37:24Z</time>
      </trkpt>
      <trkpt lat="45.4184" lon="6.60649">
        <ele>1825.16</ele>
        <time>2014-01-30T11:37:29Z</time>
      </trkpt>
      <trkpt lat="45.41877" lon="6.60649">
        <ele>1817.11</ele>
        <time>2014-01-30T11:37:35Z</time>
      </trkpt>
      <trkpt lat="45.41921" lon="6.6065">
        <ele>1805.49</ele>
        <time>2014-01-30T11:37:41Z</time>
      </trkpt>
      <trkpt lat="45.41958" lon="6.60619">
        <ele>1791.27</ele>
        <time>2014-01-30T11:37:48Z</time>
      </trkpt>
      <trkpt lat="45.41994" lon="6.60631">
        <ele>1780.25</ele>
        <time>2014-01-30T11:37:54Z</time>
      </trkpt>
      <trkpt lat="45.42034" lon="6.60616">
        <ele>1766.99</ele>
        <time>2014-01-30T11:38:00Z</time>
      </trkpt>
      <trkpt lat="45.42063" lon="6.60577">
        <ele>1752.39</ele>
        <time>2014-01-30T11:38:06Z</time>
      </trkpt>
      <trkpt lat="45.42084" lon="6.6052">
        <ele>1736.63</ele>
        <time>2014-01-30T11:38:13Z</time>
      </trkpt>
      <trkpt lat="45.4212" lon="6.60503">
        <ele>1724.54</ele>
        <time>2014-01-30T11:38:18Z</time>
      </trkpt>
      <trkpt lat="45.42157" lon="6.60472">
        <ele>1709.58</ele>
        <time>2014-01-30T11:38:24Z</time>
      </trkpt>
      <trkpt lat="45.42201" lon="6.6046">
        <ele>1689.14</ele>
        <time>2014-01-30T11:38:28Z</time>
      </trkpt>
      <trkpt lat="45.42249" lon="6.60439">
        <ele>1679.22</ele>
        <time>2014-01-30T11:38:33Z</time>
      </trkpt>
      <trkpt lat="45.42294" lon="6.60448">
        <ele>1677.03</ele>
        <time>2014-01-30T11:38:40Z</time>
      </trkpt>
      <trkpt lat="45.42337" lon="6.60443">
        <ele>1670.31</ele>
        <time>2014-01-30T11:38:50Z</time>
      </trkpt>
      <trkpt lat="45.42368" lon="6.60405">
        <ele>1660.43</ele>
        <time>2014-01-30T11:38:59Z</time>
      </trkpt>
      <trkpt lat="45.42406" lon="6.60423">
        <ele>1649.72</ele>
        <time>2014-01-30T11:39:05Z</time>
      </trkpt>
      <trkpt lat="45.4243" lon="6.60378">
        <ele>1632.48</ele>
        <time>2014-01-30T11:39:12Z</time>
      </trkpt>
      <trkpt lat="45.42452" lon="6.6035">
        <ele>1623.05</ele>
        <time>2014-01-30T11:39:20Z</time>
      </trkpt>
      <trkpt lat="45.42471" lon="6.60314">
        <ele>1612.28</ele>
        <time>2014-01-30T11:39:30Z</time>
      </trkpt>
      <trkpt lat="45.42497" lon="6.60276">
        <ele>1595.8</ele>
        <time>2014-01-30T11:39:41Z</time>
      </trkpt>
      <trkpt lat="45.42521" lon="6.60246">
        <ele>1581.92</ele>
        <time>2014-01-30T11:39:50Z</time>
      </trkpt>
      <trkpt lat="45.42554" lon="6.60214">
        <ele>1562.33</ele>
        <time>2014-01-30T11:40:02Z</time>
      </trkpt>
      <trkpt lat="45.42584" lon="6.60186">
        <ele>1545.61</ele>
        <time>2014-01-30T11:40:09Z</time>
      </trkpt>
      <trkpt lat="45.42621" lon="6.60176">
        <ele>1532.86</ele>
        <time>2014-01-30T11:40:17Z</time>
      </trkpt>
      <trkpt lat="45.42658" lon="6.60164">
        <ele>1519.59</ele>
        <time>2014-01-30T11:40:25Z</time>
      </trkpt>
      <trkpt lat="45.42699" lon="6.6018">
        <ele>1506.56</ele>
        <time>2014-01-30T11:40:33Z</time>
      </trkpt>
      <trkpt lat="45.42745" lon="6.6019">
        <ele>1492.02</ele>
        <time>2014-01-30T11:40:40Z</time>
      </trkpt>
      <trkpt lat="45.42782" lon="6.60181">
        <ele>1484.34</ele>
        <time>2014-01-30T11:40:45Z</time>
      </trkpt>
      <trkpt lat="45.42814" lon="6.60154">
        <ele>1472.29</ele>
        <time>2014-01-30T11:40:55Z</time>
      </trkpt>
      <trkpt lat="45.42853" lon="6.60145">
        <ele>1459.22</ele>
        <time>2014-01-30T11:41:01Z</time>
      </trkpt>
      <trkpt lat="45.42888" lon="6.60136">
        <ele>1447.16</ele>
        <time>2014-01-30T11:41:07Z</time>
      </trkpt>
      <trkpt lat="45.42914" lon="6.60099">
        <ele>1440.12</ele>
        <time>2014-01-30T11:41:15Z</time>
      </trkpt>
      <trkpt lat="45.42945" lon="6.60075">
        <ele>1423.44</ele>
        <time>2014-01-30T11:41:22Z</time>
      </trkpt>
      <trkpt lat="45.42983" lon="6.60092">
        <ele>1406.2</ele>
        <time>2014-01-30T11:41:30Z</time>
      </trkpt>
      <trkpt lat="45.43029" lon="6.60073">
        <ele>1391.86</ele>
        <time>2014-01-30T11:41:35Z</time>
      </trkpt>
      <trkpt lat="45.43059" lon="6.60025">
        <ele>1380.58</ele>
        <time>2014-01-30T11:41:39Z</time>
      </trkpt>
      <trkpt lat="45.43094" lon="6.59987">
        <ele>1366.9</ele>
        <time>2014-01-30T11:41:43Z</time>
      </trkpt>
      <trkpt lat="45.43123" lon="6.59952">
        <ele>1361.72</ele>
        <time>2014-01-30T11:41:47Z</time>
      </trkpt>
      <trkpt lat="45.43154" lon="6.59921">
        <ele>1357.16</ele>
        <time>2014-01-30T11:41:51Z</time>
      </trkpt>
      <trkpt lat="45.43174" lon="6.59876">
        <ele>1357.14</ele>
        <time>2014-01-30T11:41:55Z</time>
      </trkpt>
      <trkpt lat="45.43153" lon="6.59808">
        <ele>1354.73</ele>
        <time>2014-01-30T11:42:01Z</time>
      </trkpt>
      <trkpt lat="45.43157" lon="6.59766">
        <ele>1349.05</ele>
        <time>2014-01-30T11:43:40Z</time>
      </trkpt>
      <trkpt lat="45.43122" lon="6.59796">
        <ele>1362.59</ele>
        <time>2014-01-30T11:44:43Z</time>
      </trkpt>
      <trkpt lat="45.43092" lon="6.59831">
        <ele>1377.18</ele>
        <time>2014-01-30T11:44:51Z</time>
      </trkpt>
      <trkpt lat="45.43063" lon="6.59868">
        <ele>1383.45</ele>
        <time>2014-01-30T11:44:59Z</time>
      </trkpt>
      <trkpt lat="45.4303" lon="6.59904">
        <ele>1389.84</ele>
        <time>2014-01-30T11:45:08Z</time>
      </trkpt>
      <trkpt lat="45.43001" lon="6.59938">
        <ele>1399.7</ele>
        <time>2014-01-30T11:45:16Z</time>
      </trkpt>
      <trkpt lat="45.42966" lon="6.5997">
        <ele>1408.43</ele>
        <time>2014-01-30T11:45:26Z</time>
      </trkpt>
      <trkpt lat="45.42935" lon="6.59997">
        <ele>1422.95</ele>
        <time>2014-01-30T11:45:34Z</time>
      </trkpt>
      <trkpt lat="45.42897" lon="6.6002">
        <ele>1443.81</ele>
        <time>2014-01-30T11:45:45Z</time>
      </trkpt>
      <trkpt lat="45.42859" lon="6.60023">
        <ele>1459.51</ele>
        <time>2014-01-30T11:45:51Z</time>
      </trkpt>
      <trkpt lat="45.42816" lon="6.60035">
        <ele>1468.41</ele>
        <time>2014-01-30T11:46:01Z</time>
      </trkpt>
      <trkpt lat="45.42781" lon="6.6006">
        <ele>1474.33</ele>
        <time>2014-01-30T11:46:09Z</time>
      </trkpt>
      <trkpt lat="45.42746" lon="6.60095">
        <ele>1481.07</ele>
        <time>2014-01-30T11:46:19Z</time>
      </trkpt>
      <trkpt lat="45.42715" lon="6.60127">
        <ele>1492.5</ele>
        <time>2014-01-30T11:46:29Z</time>
      </trkpt>
      <trkpt lat="45.4268" lon="6.60165">
        <ele>1512.01</ele>
        <time>2014-01-30T11:46:39Z</time>
      </trkpt>
      <trkpt lat="45.42648" lon="6.60203">
        <ele>1527.51</ele>
        <time>2014-01-30T11:46:47Z</time>
      </trkpt>
      <trkpt lat="45.42615" lon="6.60244">
        <ele>1546.89</ele>
        <time>2014-01-30T11:46:57Z</time>
      </trkpt>
      <trkpt lat="45.42588" lon="6.60288">
        <ele>1567.03</ele>
        <time>2014-01-30T11:47:06Z</time>
      </trkpt>
      <trkpt lat="45.42553" lon="6.60326">
        <ele>1583.22</ele>
        <time>2014-01-30T11:47:16Z</time>
      </trkpt>
      <trkpt lat="45.42514" lon="6.60334">
        <ele>1598.17</ele>
        <time>2014-01-30T11:47:25Z</time>
      </trkpt>
      <trkpt lat="45.42477" lon="6.60333">
        <ele>1614.23</ele>
        <time>2014-01-30T11:47:33Z</time>
      </trkpt>
      <trkpt lat="45.42444" lon="6.60371">
        <ele>1627.67</ele>
        <time>2014-01-30T11:47:43Z</time>
      </trkpt>
      <trkpt lat="45.42411" lon="6.60397">
        <ele>1642.33</ele>
        <time>2014-01-30T11:47:51Z</time>
      </trkpt>
      <trkpt lat="45.42377" lon="6.60429">
        <ele>1661.08</ele>
        <time>2014-01-30T11:48:01Z</time>
      </trkpt>
      <trkpt lat="45.42341" lon="6.60458">
        <ele>1671.59</ele>
        <time>2014-01-30T11:48:10Z</time>
      </trkpt>
      <trkpt lat="45.42305" lon="6.60482">
        <ele>1678.73</ele>
        <time>2014-01-30T11:48:20Z</time>
      </trkpt>
      <trkpt lat="45.42272" lon="6.60514">
        <ele>1682.05</ele>
        <time>2014-01-30T11:48:29Z</time>
      </trkpt>
      <trkpt lat="45.42232" lon="6.60541">
        <ele>1690.56</ele>
        <time>2014-01-30T11:48:38Z</time>
      </trkpt>
      <trkpt lat="45.422" lon="6.60563">
        <ele>1703.53</ele>
        <time>2014-01-30T11:48:46Z</time>
      </trkpt>
      <trkpt lat="45.42169" lon="6.60593">
        <ele>1724.91</ele>
        <time>2014-01-30T11:48:54Z</time>
      </trkpt>
      <trkpt lat="45.42131" lon="6.60623">
        <ele>1745.24</ele>
        <time>2014-01-30T11:49:04Z</time>
      </trkpt>
      <trkpt lat="45.421" lon="6.60657">
        <ele>1758.32</ele>
        <time>2014-01-30T11:49:13Z</time>
      </trkpt>
      <trkpt lat="45.42066" lon="6.60696">
        <ele>1773.58</ele>
        <time>2014-01-30T11:49:23Z</time>
      </trkpt>
      <trkpt lat="45.42035" lon="6.60725">
        <ele>1785.17</ele>
        <time>2014-01-30T11:49:31Z</time>
      </trkpt>
      <trkpt lat="45.42001" lon="6.60765">
        <ele>1801.57</ele>
        <time>2014-01-30T11:49:41Z</time>
      </trkpt>
      <trkpt lat="45.41963" lon="6.60792">
        <ele>1817.39</ele>
        <time>2014-01-30T11:49:51Z</time>
      </trkpt>
      <trkpt lat="45.4192" lon="6.60801">
        <ele>1837.98</ele>
        <time>2014-01-30T11:50:01Z</time>
      </trkpt>
      <trkpt lat="45.41882" lon="6.60822">
        <ele>1857.18</ele>
        <time>2014-01-30T11:50:11Z</time>
      </trkpt>
      <trkpt lat="45.41848" lon="6.60858">
        <ele>1872.63</ele>
        <time>2014-01-30T11:50:21Z</time>
      </trkpt>
      <trkpt lat="45.41811" lon="6.60886">
        <ele>1880.8</ele>
        <time>2014-01-30T11:50:32Z</time>
      </trkpt>
      <trkpt lat="45.41777" lon="6.60905">
        <ele>1884.21</ele>
        <time>2014-01-30T11:50:40Z</time>
      </trkpt>
      <trkpt lat="45.4174" lon="6.60932">
        <ele>1887.25</ele>
        <time>2014-01-30T11:50:48Z</time>
      </trkpt>
      <trkpt lat="45.41706" lon="6.60934">
        <ele>1886.05</ele>
        <time>2014-01-30T11:52:41Z</time>
      </trkpt>
      <trkpt lat="45.41709" lon="6.60874">
        <ele>1878.62</ele>
        <time>2014-01-30T11:52:48Z</time>
      </trkpt>
      <trkpt lat="45.41685" lon="6.60825">
        <ele>1872.56</ele>
        <time>2014-01-30T11:52:55Z</time>
      </trkpt>
      <trkpt lat="45.41691" lon="6.60768">
        <ele>1865.28</ele>
        <time>2014-01-30T11:53:02Z</time>
      </trkpt>
      <trkpt lat="45.41727" lon="6.60726">
        <ele>1857.48</ele>
        <time>2014-01-30T11:53:08Z</time>
      </trkpt>
      <trkpt lat="45.41752" lon="6.60684">
        <ele>1851.26</ele>
        <time>2014-01-30T11:53:15Z</time>
      </trkpt>
      <trkpt lat="45.41785" lon="6.60684">
        <ele>1846.98</ele>
        <time>2014-01-30T11:53:21Z</time>
      </trkpt>
      <trkpt lat="45.41826" lon="6.60659">
        <ele>1829.73</ele>
        <time>2014-01-30T11:53:28Z</time>
      </trkpt>
      <trkpt lat="45.4186" lon="6.60634">
        <ele>1820.54</ele>
        <time>2014-01-30T11:53:35Z</time>
      </trkpt>
      <trkpt lat="45.41896" lon="6.60649">
        <ele>1811.59</ele>
        <time>2014-01-30T11:53:41Z</time>
      </trkpt>
      <trkpt lat="45.41931" lon="6.6062">
        <ele>1799.31</ele>
        <time>2014-01-30T11:53:48Z</time>
      </trkpt>
      <trkpt lat="45.41976" lon="6.60612">
        <ele>1784.83</ele>
        <time>2014-01-30T11:53:54Z</time>
      </trkpt>
      <trkpt lat="45.42016" lon="6.60617">
        <ele>1772.52</ele>
        <time>2014-01-30T11:54:01Z</time>
      </trkpt>
      <trkpt lat="45.42051" lon="6.60596">
        <ele>1758.37</ele>
        <time>2014-01-30T11:54:07Z</time>
      </trkpt>
      <trkpt lat="45.42055" lon="6.60535">
        <ele>1745.77</ele>
        <time>2014-01-30T11:54:14Z</time>
      </trkpt>
      <trkpt lat="45.42088" lon="6.60508">
        <ele>1733.97</ele>
        <time>2014-01-30T11:54:21Z</time>
      </trkpt>
      <trkpt lat="45.42113" lon="6.60477">
        <ele>1722.4</ele>
        <time>2014-01-30T11:54:27Z</time>
      </trkpt>
      <trkpt lat="45.42155" lon="6.60468">
        <ele>1709.7</ele>
        <time>2014-01-30T11:54:35Z</time>
      </trkpt>
      <trkpt lat="45.42194" lon="6.6045">
        <ele>1690.77</ele>
        <time>2014-01-30T11:54:40Z</time>
      </trkpt>
      <trkpt lat="45.42229" lon="6.60433">
        <ele>1682.6</ele>
        <time>2014-01-30T11:54:44Z</time>
      </trkpt>
      <trkpt lat="45.42268" lon="6.60418">
        <ele>1677.73</ele>
        <time>2014-01-30T11:54:52Z</time>
      </trkpt>
      <trkpt lat="45.42248" lon="6.60393">
        <ele>1681.02</ele>
        <time>2014-01-30T11:55:42Z</time>
      </trkpt>
      <trkpt lat="45.4221" lon="6.60413">
        <ele>1687.37</ele>
        <time>2014-01-30T11:55:53Z</time>
      </trkpt>
      <trkpt lat="45.42175" lon="6.60435">
        <ele>1698.92</ele>
        <time>2014-01-30T11:56:02Z</time>
      </trkpt>
      <trkpt lat="45.42137" lon="6.60463">
        <ele>1715.4</ele>
        <time>2014-01-30T11:56:14Z</time>
      </trkpt>
      <trkpt lat="45.42102" lon="6.60486">
        <ele>1726.99</ele>
        <time>2014-01-30T11:56:24Z</time>
      </trkpt>
      <trkpt lat="45.42066" lon="6.60511">
        <ele>1738.55</ele>
        <time>2014-01-30T11:56:36Z</time>
      </trkpt>
      <trkpt lat="45.4203" lon="6.60537">
        <ele>1753.55</ele>
        <time>2014-01-30T11:56:48Z</time>
      </trkpt>
      <trkpt lat="45.41993" lon="6.60565">
        <ele>1776.05</ele>
        <time>2014-01-30T11:57:00Z</time>
      </trkpt>
      <trkpt lat="45.4196" lon="6.60586">
        <ele>1787.94</ele>
        <time>2014-01-30T11:57:20Z</time>
      </trkpt>
      <trkpt lat="45.41926" lon="6.6061">
        <ele>1799.4</ele>
        <time>2014-01-30T11:57:38Z</time>
      </trkpt>
      <trkpt lat="45.41891" lon="6.60636">
        <ele>1810.89</ele>
        <time>2014-01-30T11:57:48Z</time>
      </trkpt>
      <trkpt lat="45.41858" lon="6.6066">
        <ele>1823.83</ele>
        <time>2014-01-30T11:57:58Z</time>
      </trkpt>
      <trkpt lat="45.41821" lon="6.60685">
        <ele>1836.76</ele>
        <time>2014-01-30T11:58:09Z</time>
      </trkpt>
      <trkpt lat="45.41781" lon="6.60709">
        <ele>1852.89</ele>
        <time>2014-01-30T11:58:26Z</time>
      </trkpt>
      <trkpt lat="45.41747" lon="6.60733">
        <ele>1858.93</ele>
        <time>2014-01-30T11:58:53Z</time>
      </trkpt>
      <trkpt lat="45.41711" lon="6.6076">
        <ele>1862.5</ele>
        <time>2014-01-30T11:59:03Z</time>
      </trkpt>
      <trkpt lat="45.41675" lon="6.60788">
        <ele>1869.27</ele>
        <time>2014-01-30T11:59:14Z</time>
      </trkpt>
      <trkpt lat="45.41638" lon="6.60813">
        <ele>1875.69</ele>
        <time>2014-01-30T11:59:24Z</time>
      </trkpt>
      <trkpt lat="45.41603" lon="6.60842">
        <ele>1891.03</ele>
        <time>2014-01-30T11:59:37Z</time>
      </trkpt>
      <trkpt lat="45.41567" lon="6.60866">
        <ele>1904.07</ele>
        <time>2014-01-30T11:59:46Z</time>
      </trkpt>
      <trkpt lat="45.4153" lon="6.60884">
        <ele>1921.1</ele>
        <time>2014-01-30T11:59:54Z</time>
      </trkpt>
      <trkpt lat="45.41492" lon="6.60905">
        <ele>1941.09</ele>
        <time>2014-01-30T12:00:04Z</time>
      </trkpt>
      <trkpt lat="45.41456" lon="6.60928">
        <ele>1966.62</ele>
        <time>2014-01-30T12:00:14Z</time>
      </trkpt>
      <trkpt lat="45.41419" lon="6.60951">
        <ele>1989.4</ele>
        <time>2014-01-30T12:00:25Z</time>
      </trkpt>
      <trkpt lat="45.41386" lon="6.60979">
        <ele>2002.01</ele>
        <time>2014-01-30T12:00:36Z</time>
      </trkpt>
      <trkpt lat="45.41347" lon="6.60997">
        <ele>2016.48</ele>
        <time>2014-01-30T12:00:47Z</time>
      </trkpt>
      <trkpt lat="45.41306" lon="6.6102">
        <ele>2032.17</ele>
        <time>2014-01-30T12:00:57Z</time>
      </trkpt>
      <trkpt lat="45.4127" lon="6.61044">
        <ele>2048.1</ele>
        <time>2014-01-30T12:01:06Z</time>
      </trkpt>
      <trkpt lat="45.41235" lon="6.61071">
        <ele>2067.36</ele>
        <time>2014-01-30T12:01:17Z</time>
      </trkpt>
      <trkpt lat="45.41205" lon="6.61108">
        <ele>2093.06</ele>
        <time>2014-01-30T12:01:31Z</time>
      </trkpt>
      <trkpt lat="45.41174" lon="6.6114">
        <ele>2108.38</ele>
        <time>2014-01-30T12:01:43Z</time>
      </trkpt>
      <trkpt lat="45.41136" lon="6.61166">
        <ele>2117.59</ele>
        <time>2014-01-30T12:01:52Z</time>
      </trkpt>
      <trkpt lat="45.41096" lon="6.61187">
        <ele>2128.53</ele>
        <time>2014-01-30T12:02:00Z</time>
      </trkpt>
      <trkpt lat="45.41056" lon="6.61212">
        <ele>2142.07</ele>
        <time>2014-01-30T12:02:08Z</time>
      </trkpt>
      <trkpt lat="45.4102" lon="6.61239">
        <ele>2150.08</ele>
        <time>2014-01-30T12:02:52Z</time>
      </trkpt>
      <trkpt lat="45.40995" lon="6.61283">
        <ele>2161.86</ele>
        <time>2014-01-30T12:03:11Z</time>
      </trkpt>
      <trkpt lat="45.40964" lon="6.61314">
        <ele>2182.68</ele>
        <time>2014-01-30T12:03:20Z</time>
      </trkpt>
      <trkpt lat="45.40926" lon="6.61346">
        <ele>2211.76</ele>
        <time>2014-01-30T12:03:30Z</time>
      </trkpt>
      <trkpt lat="45.40892" lon="6.61373">
        <ele>2227.67</ele>
        <time>2014-01-30T12:03:39Z</time>
      </trkpt>
      <trkpt lat="45.40856" lon="6.61404">
        <ele>2229.64</ele>
        <time>2014-01-30T12:03:53Z</time>
      </trkpt>
      <trkpt lat="45.40808" lon="6.61381">
        <ele>2223.8</ele>
        <time>2014-01-30T12:04:10Z</time>
      </trkpt>
      <trkpt lat="45.40775" lon="6.61355">
        <ele>2222.1</ele>
        <time>2014-01-30T12:04:24Z</time>
      </trkpt>
      <trkpt lat="45.40738" lon="6.61337">
        <ele>2223.78</ele>
        <time>2014-01-30T12:04:40Z</time>
      </trkpt>
      <trkpt lat="45.40703" lon="6.61322">
        <ele>2225.59</ele>
        <time>2014-01-30T12:04:53Z</time>
      </trkpt>
      <trkpt lat="45.40674" lon="6.61289">
        <ele>2227.14</ele>
        <time>2014-01-30T12:05:04Z</time>
      </trkpt>
      <trkpt lat="45.40713" lon="6.61265">
        <ele>2217.62</ele>
        <time>2014-01-30T12:05:11Z</time>
      </trkpt>
      <trkpt lat="45.40756" lon="6.61255">
        <ele>2202</ele>
        <time>2014-01-30T12:05:17Z</time>
      </trkpt>
      <trkpt lat="45.40796" lon="6.61251">
        <ele>2192.6</ele>
        <time>2014-01-30T12:05:22Z</time>
      </trkpt>
      <trkpt lat="45.40847" lon="6.61249">
        <ele>2172.64</ele>
        <time>2014-01-30T12:05:27Z</time>
      </trkpt>
      <trkpt lat="45.40892" lon="6.61242">
        <ele>2164.72</ele>
        <time>2014-01-30T12:05:31Z</time>
      </trkpt>
      <trkpt lat="45.40937" lon="6.61236">
        <ele>2156.53</ele>
        <time>2014-01-30T12:05:35Z</time>
      </trkpt>
      <trkpt lat="45.4098" lon="6.61231">
        <ele>2151.79</ele>
        <time>2014-01-30T12:05:39Z</time>
      </trkpt>
      <trkpt lat="45.41023" lon="6.61218">
        <ele>2145.58</ele>
        <time>2014-01-30T12:05:45Z</time>
      </trkpt>
      <trkpt lat="45.4106" lon="6.61194">
        <ele>2138.07</ele>
        <time>2014-01-30T12:05:52Z</time>
      </trkpt>
      <trkpt lat="45.41088" lon="6.61157">
        <ele>2126.59</ele>
        <time>2014-01-30T12:06:01Z</time>
      </trkpt>
      <trkpt lat="45.41112" lon="6.61114">
        <ele>2118.03</ele>
        <time>2014-01-30T12:06:08Z</time>
      </trkpt>
      <trkpt lat="45.41127" lon="6.61057">
        <ele>2110.96</ele>
        <time>2014-01-30T12:06:19Z</time>
      </trkpt>
      <trkpt lat="45.41135" lon="6.61007">
        <ele>2111.15</ele>
        <time>2014-01-30T12:07:01Z</time>
      </trkpt>
      <trkpt lat="45.41145" lon="6.60961">
        <ele>2102.23</ele>
        <time>2014-01-30T12:07:41Z</time>
      </trkpt>
      <trkpt lat="45.41177" lon="6.60992">
        <ele>2080.13</ele>
        <time>2014-01-30T12:08:14Z</time>
      </trkpt>
      <trkpt lat="45.41191" lon="6.60943">
        <ele>2058.86</ele>
        <time>2014-01-30T12:08:34Z</time>
      </trkpt>
      <trkpt lat="45.41214" lon="6.60927">
        <ele>2044.97</ele>
        <time>2014-01-30T12:08:45Z</time>
      </trkpt>
      <trkpt lat="45.41229" lon="6.6092">
        <ele>2038.51</ele>
        <time>2014-01-30T12:08:59Z</time>
      </trkpt>
      <trkpt lat="45.41245" lon="6.60875">
        <ele>2030.83</ele>
        <time>2014-01-30T12:09:19Z</time>
      </trkpt>
      <trkpt lat="45.41271" lon="6.60923">
        <ele>2024.95</ele>
        <time>2014-01-30T12:09:29Z</time>
      </trkpt>
      <trkpt lat="45.41311" lon="6.60913">
        <ele>2008.45</ele>
        <time>2014-01-30T12:09:40Z</time>
      </trkpt>
      <trkpt lat="45.4135" lon="6.60901">
        <ele>2000.11</ele>
        <time>2014-01-30T12:09:50Z</time>
      </trkpt>
      <trkpt lat="45.41327" lon="6.60857">
        <ele>1997.3</ele>
        <time>2014-01-30T12:09:58Z</time>
      </trkpt>
      <trkpt lat="45.41314" lon="6.60809">
        <ele>1996.26</ele>
        <time>2014-01-30T12:10:05Z</time>
      </trkpt>
      <trkpt lat="45.41345" lon="6.60766">
        <ele>1982.89</ele>
        <time>2014-01-30T12:10:14Z</time>
      </trkpt>
      <trkpt lat="45.41372" lon="6.60753">
        <ele>1974.58</ele>
        <time>2014-01-30T12:10:38Z</time>
      </trkpt>
      <trkpt lat="45.41405" lon="6.60738">
        <ele>1962.62</ele>
        <time>2014-01-30T12:10:58Z</time>
      </trkpt>
      <trkpt lat="45.41436" lon="6.60707">
        <ele>1948.08</ele>
        <time>2014-01-30T12:11:23Z</time>
      </trkpt>
      <trkpt lat="45.41464" lon="6.6069">
        <ele>1934</ele>
        <time>2014-01-30T12:11:45Z</time>
      </trkpt>
      <trkpt lat="45.415" lon="6.60685">
        <ele>1908.16</ele>
        <time>2014-01-30T12:11:58Z</time>
      </trkpt>
      <trkpt lat="45.41539" lon="6.60667">
        <ele>1882.76</ele>
        <time>2014-01-30T12:12:07Z</time>
      </trkpt>
      <trkpt lat="45.41576" lon="6.60673">
        <ele>1871.34</ele>
        <time>2014-01-30T12:12:11Z</time>
      </trkpt>
      <trkpt lat="45.41611" lon="6.60692">
        <ele>1867.89</ele>
        <time>2014-01-30T12:12:16Z</time>
      </trkpt>
      <trkpt lat="45.41605" lon="6.60713">
        <ele>1871.47</ele>
        <time>2014-01-30T12:12:46Z</time>
      </trkpt>
      <trkpt lat="45.41569" lon="6.60695">
        <ele>1875.76</ele>
        <time>2014-01-30T12:13:27Z</time>
      </trkpt>
      <trkpt lat="45.41534" lon="6.60679">
        <ele>1885.98</ele>
        <time>2014-01-30T12:13:38Z</time>
      </trkpt>
      <trkpt lat="45.41497" lon="6.60663">
        <ele>1909.33</ele>
        <time>2014-01-30T12:13:50Z</time>
      </trkpt>
      <trkpt lat="45.4146" lon="6.60645">
        <ele>1935.85</ele>
        <time>2014-01-30T12:14:04Z</time>
      </trkpt>
      <trkpt lat="45.41423" lon="6.60628">
        <ele>1954.68</ele>
        <time>2014-01-30T12:14:16Z</time>
      </trkpt>
      <trkpt lat="45.41387" lon="6.60606">
        <ele>1963.15</ele>
        <time>2014-01-30T12:14:28Z</time>
      </trkpt>
      <trkpt lat="45.41349" lon="6.60581">
        <ele>1971.73</ele>
        <time>2014-01-30T12:14:40Z</time>
      </trkpt>
      <trkpt lat="45.41312" lon="6.60564">
        <ele>1984.48</ele>
        <time>2014-01-30T12:14:52Z</time>
      </trkpt>
      <trkpt lat="45.41275" lon="6.60547">
        <ele>2005.74</ele>
        <time>2014-01-30T12:15:05Z</time>
      </trkpt>
      <trkpt lat="45.41236" lon="6.60547">
        <ele>2032.58</ele>
        <time>2014-01-30T12:15:17Z</time>
      </trkpt>
      <trkpt lat="45.41196" lon="6.60553">
        <ele>2063.76</ele>
        <time>2014-01-30T12:15:29Z</time>
      </trkpt>
      <trkpt lat="45.41159" lon="6.6056">
        <ele>2093.6</ele>
        <time>2014-01-30T12:15:43Z</time>
      </trkpt>
      <trkpt lat="45.41146" lon="6.60497">
        <ele>2116.94</ele>
        <time>2014-01-30T12:15:54Z</time>
      </trkpt>
      <trkpt lat="45.41114" lon="6.60467">
        <ele>2144.03</ele>
        <time>2014-01-30T12:16:06Z</time>
      </trkpt>
      <trkpt lat="45.41074" lon="6.60458">
        <ele>2162.3</ele>
        <time>2014-01-30T12:16:17Z</time>
      </trkpt>
      <trkpt lat="45.41036" lon="6.60447">
        <ele>2179.2</ele>
        <time>2014-01-30T12:16:32Z</time>
      </trkpt>
      <trkpt lat="45.40999" lon="6.60444">
        <ele>2193.45</ele>
        <time>2014-01-30T12:16:44Z</time>
      </trkpt>
      <trkpt lat="45.40959" lon="6.60429">
        <ele>2210.25</ele>
        <time>2014-01-30T12:16:56Z</time>
      </trkpt>
      <trkpt lat="45.40947" lon="6.60379">
        <ele>2238.29</ele>
        <time>2014-01-30T12:17:08Z</time>
      </trkpt>
      <trkpt lat="45.4091" lon="6.60359">
        <ele>2254.74</ele>
        <time>2014-01-30T12:17:20Z</time>
      </trkpt>
      <trkpt lat="45.40875" lon="6.60341">
        <ele>2270.11</ele>
        <time>2014-01-30T12:17:32Z</time>
      </trkpt>
      <trkpt lat="45.40835" lon="6.60327">
        <ele>2288.1</ele>
        <time>2014-01-30T12:17:45Z</time>
      </trkpt>
      <trkpt lat="45.40796" lon="6.60308">
        <ele>2299.63</ele>
        <time>2014-01-30T12:17:59Z</time>
      </trkpt>
      <trkpt lat="45.40763" lon="6.60279">
        <ele>2300</ele>
        <time>2014-01-30T12:18:11Z</time>
      </trkpt>
      <trkpt lat="45.408" lon="6.6027">
        <ele>2300</ele>
        <time>2014-01-30T12:18:49Z</time>
      </trkpt>
      <trkpt lat="45.40836" lon="6.60253">
        <ele>2299.98</ele>
        <time>2014-01-30T12:19:20Z</time>
      </trkpt>
      <trkpt lat="45.40875" lon="6.60244">
        <ele>2299.8</ele>
        <time>2014-01-30T12:19:33Z</time>
      </trkpt>
      <trkpt lat="45.40915" lon="6.60243">
        <ele>2293.53</ele>
        <time>2014-01-30T12:19:46Z</time>
      </trkpt>
      <trkpt lat="45.40909" lon="6.60298">
        <ele>2278.2</ele>
        <time>2014-01-30T12:20:09Z</time>
      </trkpt>
      <trkpt lat="45.40876" lon="6.60327">
        <ele>2276.11</ele>
        <time>2014-01-30T12:20:24Z</time>
      </trkpt>
      <trkpt lat="45.40848" lon="6.60363">
        <ele>2270.01</ele>
        <time>2014-01-30T12:20:42Z</time>
      </trkpt>
      <trkpt lat="45.40822" lon="6.60402">
        <ele>2256.19</ele>
        <time>2014-01-30T12:21:00Z</time>
      </trkpt>
      <trkpt lat="45.40792" lon="6.60435">
        <ele>2251.42</ele>
        <time>2014-01-30T12:21:14Z</time>
      </trkpt>
      <trkpt lat="45.40799" lon="6.6047">
        <ele>2230.45</ele>
        <time>2014-01-30T12:21:30Z</time>
      </trkpt>
      <trkpt lat="45.40832" lon="6.60501">
        <ele>2208.27</ele>
        <time>2014-01-30T12:21:42Z</time>
      </trkpt>
      <trkpt lat="45.40865" lon="6.60522">
        <ele>2198.83</ele>
        <time>2014-01-30T12:22:00Z</time>
      </trkpt>
      <trkpt lat="45.40901" lon="6.60501">
        <ele>2192.37</ele>
        <time>2014-01-30T12:22:17Z</time>
      </trkpt>
      <trkpt lat="45.4094" lon="6.60509">
        <ele>2181.2</ele>
        <time>2014-01-30T12:22:26Z</time>
      </trkpt>
      <trkpt lat="45.40978" lon="6.60504">
        <ele>2175.6</ele>
        <time>2014-01-30T12:22:34Z</time>
      </trkpt>
      <trkpt lat="45.41016" lon="6.60496">
        <ele>2168.52</ele>
        <time>2014-01-30T12:22:42Z</time>
      </trkpt>
      <trkpt lat="45.41053" lon="6.60507">
        <ele>2161.39</ele>
        <time>2014-01-30T12:22:54Z</time>
      </trkpt>
      <trkpt lat="45.41049" lon="6.60561">
        <ele>2160.22</ele>
        <time>2014-01-30T12:23:33Z</time>
      </trkpt>
      <trkpt lat="45.41062" lon="6.60586">
        <ele>2150.19</ele>
        <time>2014-01-30T12:24:03Z</time>
      </trkpt>
      <trkpt lat="45.41077" lon="6.60632">
        <ele>2131.92</ele>
        <time>2014-01-30T12:24:25Z</time>
      </trkpt>
      <trkpt lat="45.41104" lon="6.60609">
        <ele>2120.44</ele>
        <time>2014-01-30T12:24:50Z</time>
      </trkpt>
      <trkpt lat="45.41118" lon="6.60614">
        <ele>2110.76</ele>
        <time>2014-01-30T12:25:15Z</time>
      </trkpt>
      <trkpt lat="45.4115" lon="6.60609">
        <ele>2088.62</ele>
        <time>2014-01-30T12:25:53Z</time>
      </trkpt>
      <trkpt lat="45.41165" lon="6.6061">
        <ele>2078.32</ele>
        <time>2014-01-30T12:27:15Z</time>
      </trkpt>
      <trkpt lat="45.41183" lon="6.60561">
        <ele>2074.45</ele>
        <time>2014-01-30T12:28:01Z</time>
      </trkpt>
      <trkpt lat="45.41205" lon="6.6052">
        <ele>2060.63</ele>
        <time>2014-01-30T12:28:15Z</time>
      </trkpt>
      <trkpt lat="45.41228" lon="6.60479">
        <ele>2045.58</ele>
        <time>2014-01-30T12:28:29Z</time>
      </trkpt>
      <trkpt lat="45.41253" lon="6.60447">
        <ele>2036.37</ele>
        <time>2014-01-30T12:28:49Z</time>
      </trkpt>
      <trkpt lat="45.41276" lon="6.60397">
        <ele>2021.38</ele>
        <time>2014-01-30T12:28:58Z</time>
      </trkpt>
      <trkpt lat="45.41304" lon="6.60361">
        <ele>2001.64</ele>
        <time>2014-01-30T12:29:09Z</time>
      </trkpt>
      <trkpt lat="45.41337" lon="6.60343">
        <ele>1986.59</ele>
        <time>2014-01-30T12:29:20Z</time>
      </trkpt>
      <trkpt lat="45.4134" lon="6.60283">
        <ele>1981.6</ele>
        <time>2014-01-30T12:29:39Z</time>
      </trkpt>
      <trkpt lat="45.41368" lon="6.60246">
        <ele>1959.65</ele>
        <time>2014-01-30T12:30:00Z</time>
      </trkpt>
      <trkpt lat="45.4139" lon="6.60251">
        <ele>1948.49</ele>
        <time>2014-01-30T12:30:13Z</time>
      </trkpt>
      <trkpt lat="45.41407" lon="6.60252">
        <ele>1939.17</ele>
        <time>2014-01-30T12:30:25Z</time>
      </trkpt>
      <trkpt lat="45.41439" lon="6.60223">
        <ele>1919.56</ele>
        <time>2014-01-30T12:31:04Z</time>
      </trkpt>
      <trkpt lat="45.41477" lon="6.60222">
        <ele>1895.16</ele>
        <time>2014-01-30T12:31:30Z</time>
      </trkpt>
      <trkpt lat="45.41496" lon="6.60239">
        <ele>1882.35</ele>
        <time>2014-01-30T12:31:44Z</time>
      </trkpt>
      <trkpt lat="45.41526" lon="6.60263">
        <ele>1864.56</ele>
        <time>2014-01-30T12:31:58Z</time>
      </trkpt>
      <trkpt lat="45.41553" lon="6.60302">
        <ele>1847.96</ele>
        <time>2014-01-30T12:32:21Z</time>
      </trkpt>
      <trkpt lat="45.41584" lon="6.60318">
        <ele>1839.17</ele>
        <time>2014-01-30T12:32:35Z</time>
      </trkpt>
      <trkpt lat="45.41615" lon="6.60347">
        <ele>1826.69</ele>
        <time>2014-01-30T12:32:53Z</time>
      </trkpt>
      <trkpt lat="45.41648" lon="6.60368">
        <ele>1814.14</ele>
        <time>2014-01-30T12:33:14Z</time>
      </trkpt>
      <trkpt lat="45.41694" lon="6.60377">
        <ele>1805.22</ele>
        <time>2014-01-30T12:33:24Z</time>
      </trkpt>
      <trkpt lat="45.41733" lon="6.60371">
        <ele>1798.53</ele>
        <time>2014-01-30T12:33:33Z</time>
      </trkpt>
      <trkpt lat="45.41767" lon="6.60372">
        <ele>1796.53</ele>
        <time>2014-01-30T12:33:44Z</time>
      </trkpt>
      <trkpt lat="45.41795" lon="6.60375">
        <ele>1793.18</ele>
        <time>2014-01-30T12:33:52Z</time>
      </trkpt>
      <trkpt lat="45.41834" lon="6.60353">
        <ele>1782.34</ele>
        <time>2014-01-30T12:33:58Z</time>
      </trkpt>
      <trkpt lat="45.41869" lon="6.6033">
        <ele>1770.44</ele>
        <time>2014-01-30T12:34:03Z</time>
      </trkpt>
      <trkpt lat="45.41915" lon="6.60326">
        <ele>1759.3</ele>
        <time>2014-01-30T12:34:09Z</time>
      </trkpt>
      <trkpt lat="45.41961" lon="6.60338">
        <ele>1751.55</ele>
        <time>2014-01-30T12:34:15Z</time>
      </trkpt>
      <trkpt lat="45.42003" lon="6.60354">
        <ele>1741.58</ele>
        <time>2014-01-30T12:34:21Z</time>
      </trkpt>
      <trkpt lat="45.42044" lon="6.60344">
        <ele>1731.24</ele>
        <time>2014-01-30T12:34:27Z</time>
      </trkpt>
      <trkpt lat="45.42086" lon="6.60332">
        <ele>1718.18</ele>
        <time>2014-01-30T12:34:32Z</time>
      </trkpt>
      <trkpt lat="45.42116" lon="6.60298">
        <ele>1707.21</ele>
        <time>2014-01-30T12:34:38Z</time>
      </trkpt>
      <trkpt lat="45.42134" lon="6.60238">
        <ele>1697.33</ele>
        <time>2014-01-30T12:34:44Z</time>
      </trkpt>
      <trkpt lat="45.4216" lon="6.60185">
        <ele>1680.78</ele>
        <time>2014-01-30T12:34:49Z</time>
      </trkpt>
      <trkpt lat="45.4218" lon="6.60135">
        <ele>1671.44</ele>
        <time>2014-01-30T12:34:53Z</time>
      </trkpt>
      <trkpt lat="45.42184" lon="6.60073">
        <ele>1666.34</ele>
        <time>2014-01-30T12:34:57Z</time>
      </trkpt>
      <trkpt lat="45.42191" lon="6.60005">
        <ele>1657.34</ele>
        <time>2014-01-30T12:35:03Z</time>
      </trkpt>
      <trkpt lat="45.42197" lon="6.59957">
        <ele>1652.69</ele>
        <time>2014-01-30T12:36:51Z</time>
      </trkpt>
      <trkpt lat="45.42235" lon="6.59918">
        <ele>1644.27</ele>
        <time>2014-01-30T12:36:58Z</time>
      </trkpt>
      <trkpt lat="45.42269" lon="6.59878">
        <ele>1636.36</ele>
        <time>2014-01-30T12:37:04Z</time>
      </trkpt>
      <trkpt lat="45.42301" lon="6.59833">
        <ele>1622.61</ele>
        <time>2014-01-30T12:37:09Z</time>
      </trkpt>
      <trkpt lat="45.42322" lon="6.59779">
        <ele>1610.36</ele>
        <time>2014-01-30T12:37:13Z</time>
      </trkpt>
      <trkpt lat="45.42349" lon="6.59741">
        <ele>1599.29</ele>
        <time>2014-01-30T12:37:17Z</time>
      </trkpt>
      <trkpt lat="45.42396" lon="6.59713">
        <ele>1586.81</ele>
        <time>2014-01-30T12:37:21Z</time>
      </trkpt>
      <trkpt lat="45.4244" lon="6.59686">
        <ele>1575.12</ele>
        <time>2014-01-30T12:37:25Z</time>
      </trkpt>
      <trkpt lat="45.42474" lon="6.59666">
        <ele>1567.75</ele>
        <time>2014-01-30T12:37:29Z</time>
      </trkpt>
      <trkpt lat="45.42509" lon="6.59642">
        <ele>1559.58</ele>
        <time>2014-01-30T12:37:34Z</time>
      </trkpt>
      <trkpt lat="45.42548" lon="6.5961">
        <ele>1549.7</ele>
        <time>2014-01-30T12:37:39Z</time>
      </trkpt>
      <trkpt lat="45.42578" lon="6.59568">
        <ele>1532.17</ele>
        <time>2014-01-30T12:37:43Z</time>
      </trkpt>
      <trkpt lat="45.42613" lon="6.59542">
        <ele>1519.7</ele>
        <time>2014-01-30T12:37:48Z</time>
      </trkpt>
      <trkpt lat="45.42644" lon="6.59506">
        <ele>1511.31</ele>
        <time>2014-01-30T12:37:54Z</time>
      </trkpt>
      <trkpt lat="45.42682" lon="6.59488">
        <ele>1500.57</ele>
        <time>2014-01-30T12:37:58Z</time>
      </trkpt>
      <trkpt lat="45.42715" lon="6.59461">
        <ele>1490.17</ele>
        <time>2014-01-30T12:38:03Z</time>
      </trkpt>
      <trkpt lat="45.42758" lon="6.59476">
        <ele>1475.31</ele>
        <time>2014-01-30T12:38:09Z</time>
      </trkpt>
      <trkpt lat="45.42804" lon="6.59494">
        <ele>1452.16</ele>
        <time>2014-01-30T12:38:14Z</time>
      </trkpt>
      <trkpt lat="45.42849" lon="6.59492">
        <ele>1437.84</ele>
        <time>2014-01-30T12:38:18Z</time>
      </trkpt>
      <trkpt lat="45.42886" lon="6.59485">
        <ele>1427.97</ele>
        <time>2014-01-30T12:38:22Z</time>
      </trkpt>
      <trkpt lat="45.42924" lon="6.5945">
        <ele>1417.46</ele>
        <time>2014-01-30T12:38:27Z</time>
      </trkpt>
      <trkpt lat="45.42969" lon="6.59437">
        <ele>1398.86</ele>
        <time>2014-01-30T12:38:32Z</time>
      </trkpt>
      <trkpt lat="45.43002" lon="6.59405">
        <ele>1389.43</ele>
        <time>2014-01-30T12:38:37Z</time>
      </trkpt>
      <trkpt lat="45.43042" lon="6.5944">
        <ele>1381.08</ele>
        <time>2014-01-30T12:38:43Z</time>
      </trkpt>
      <trkpt lat="45.43083" lon="6.59468">
        <ele>1372.74</ele>
        <time>2014-01-30T12:38:48Z</time>
      </trkpt>
      <trkpt lat="45.43118" lon="6.59509">
        <ele>1366</ele>
        <time>2014-01-30T12:38:52Z</time>
      </trkpt>
      <trkpt lat="45.43147" lon="6.59556">
        <ele>1364.06</ele>
        <time>2014-01-30T12:38:57Z</time>
      </trkpt>
      <trkpt lat="45.43162" lon="6.59612">
        <ele>1362.61</ele>
        <time>2014-01-30T12:39:01Z</time>
      </trkpt>
      <trkpt lat="45.43166" lon="6.59679">
        <ele>1360.74</ele>
        <time>2014-01-30T12:39:06Z</time>
      </trkpt>
      <trkpt lat="45.43155" lon="6.5973">
        <ele>1353.03</ele>
        <time>2014-01-30T12:39:15Z</time>
      </trkpt>
      <trkpt lat="45.43166" lon="6.59752">
        <ele>1348.02</ele>
        <time>2014-01-30T12:46:30Z</time>
      </trkpt>
      <trkpt lat="45.43136" lon="6.59798">
        <ele>1359.15</ele>
        <time>2014-01-30T12:47:51Z</time>
      </trkpt>
      <trkpt lat="45.43101" lon="6.59821">
        <ele>1373.25</ele>
        <time>2014-01-30T12:47:57Z</time>
      </trkpt>
      <trkpt lat="45.43062" lon="6.59845">
        <ele>1384.76</ele>
        <time>2014-01-30T12:48:06Z</time>
      </trkpt>
      <trkpt lat="45.43025" lon="6.59874">
        <ele>1391.41</ele>
        <time>2014-01-30T12:48:15Z</time>
      </trkpt>
      <trkpt lat="45.42988" lon="6.59902">
        <ele>1402.59</ele>
        <time>2014-01-30T12:48:24Z</time>
      </trkpt>
      <trkpt lat="45.42953" lon="6.59934">
        <ele>1412.44</ele>
        <time>2014-01-30T12:48:34Z</time>
      </trkpt>
      <trkpt lat="45.42922" lon="6.59961">
        <ele>1426.56</ele>
        <time>2014-01-30T12:48:43Z</time>
      </trkpt>
      <trkpt lat="45.42886" lon="6.59988">
        <ele>1447.98</ele>
        <time>2014-01-30T12:48:52Z</time>
      </trkpt>
      <trkpt lat="45.42852" lon="6.60013">
        <ele>1461.24</ele>
        <time>2014-01-30T12:49:01Z</time>
      </trkpt>
      <trkpt lat="45.42812" lon="6.60035">
        <ele>1469.42</ele>
        <time>2014-01-30T12:49:09Z</time>
      </trkpt>
      <trkpt lat="45.42778" lon="6.60064">
        <ele>1474.61</ele>
        <time>2014-01-30T12:49:19Z</time>
      </trkpt>
      <trkpt lat="45.42747" lon="6.601">
        <ele>1481.01</ele>
        <time>2014-01-30T12:49:29Z</time>
      </trkpt>
      <trkpt lat="45.42709" lon="6.60131">
        <ele>1495.28</ele>
        <time>2014-01-30T12:49:39Z</time>
      </trkpt>
      <trkpt lat="45.42669" lon="6.60157">
        <ele>1514.96</ele>
        <time>2014-01-30T12:49:47Z</time>
      </trkpt>
      <trkpt lat="45.42632" lon="6.60184">
        <ele>1530.09</ele>
        <time>2014-01-30T12:49:54Z</time>
      </trkpt>
      <trkpt lat="45.42596" lon="6.60205">
        <ele>1545.01</ele>
        <time>2014-01-30T12:50:01Z</time>
      </trkpt>
      <trkpt lat="45.42564" lon="6.60234">
        <ele>1562.72</ele>
        <time>2014-01-30T12:50:10Z</time>
      </trkpt>
      <trkpt lat="45.42532" lon="6.60266">
        <ele>1580.54</ele>
        <time>2014-01-30T12:50:20Z</time>
      </trkpt>
      <trkpt lat="45.42501" lon="6.60299">
        <ele>1598.46</ele>
        <time>2014-01-30T12:50:31Z</time>
      </trkpt>
      <trkpt lat="45.42467" lon="6.60327">
        <ele>1616.1</ele>
        <time>2014-01-30T12:50:41Z</time>
      </trkpt>
      <trkpt lat="45.42433" lon="6.60351">
        <ele>1628.17</ele>
        <time>2014-01-30T12:50:49Z</time>
      </trkpt>
      <trkpt lat="45.42396" lon="6.60375">
        <ele>1645.43</ele>
        <time>2014-01-30T12:50:58Z</time>
      </trkpt>
      <trkpt lat="45.42358" lon="6.60399">
        <ele>1662.96</ele>
        <time>2014-01-30T12:51:06Z</time>
      </trkpt>
      <trkpt lat="45.42324" lon="6.60425">
        <ele>1671.24</ele>
        <time>2014-01-30T12:51:14Z</time>
      </trkpt>
      <trkpt lat="45.4229" lon="6.60457">
        <ele>1677.79</ele>
        <time>2014-01-30T12:51:24Z</time>
      </trkpt>
      <trkpt lat="45.42257" lon="6.60487">
        <ele>1679.55</ele>
        <time>2014-01-30T12:51:34Z</time>
      </trkpt>
      <trkpt lat="45.42221" lon="6.60512">
        <ele>1687.8</ele>
        <time>2014-01-30T12:51:45Z</time>
      </trkpt>
      <trkpt lat="45.4219" lon="6.60546">
        <ele>1703.25</ele>
        <time>2014-01-30T12:51:56Z</time>
      </trkpt>
      <trkpt lat="45.42156" lon="6.60573">
        <ele>1724.25</ele>
        <time>2014-01-30T12:52:04Z</time>
      </trkpt>
      <trkpt lat="45.42122" lon="6.60596">
        <ele>1741.72</ele>
        <time>2014-01-30T12:52:12Z</time>
      </trkpt>
      <trkpt lat="45.42086" lon="6.60615">
        <ele>1755.17</ele>
        <time>2014-01-30T12:52:20Z</time>
      </trkpt>
      <trkpt lat="45.42051" lon="6.60645">
        <ele>1767.18</ele>
        <time>2014-01-30T12:52:28Z</time>
      </trkpt>
      <trkpt lat="45.42015" lon="6.60671">
        <ele>1779.03</ele>
        <time>2014-01-30T12:52:36Z</time>
      </trkpt>
      <trkpt lat="45.4198" lon="6.60696">
        <ele>1796.12</ele>
        <time>2014-01-30T12:52:45Z</time>
      </trkpt>
      <trkpt lat="45.41944" lon="6.60719">
        <ele>1812.39</ele>
        <time>2014-01-30T12:52:53Z</time>
      </trkpt>
      <trkpt lat="45.41911" lon="6.60746">
        <ele>1827.79</ele>
        <time>2014-01-30T12:53:02Z</time>
      </trkpt>
      <trkpt lat="45.41883" lon="6.60787">
        <ele>1845.67</ele>
        <time>2014-01-30T12:53:14Z</time>
      </trkpt>
      <trkpt lat="45.41847" lon="6.60818">
        <ele>1867.34</ele>
        <time>2014-01-30T12:53:24Z</time>
      </trkpt>
      <trkpt lat="45.41811" lon="6.60841">
        <ele>1876.13</ele>
        <time>2014-01-30T12:53:32Z</time>
      </trkpt>
      <trkpt lat="45.41774" lon="6.60861">
        <ele>1880.98</ele>
        <time>2014-01-30T12:53:40Z</time>
      </trkpt>
      <trkpt lat="45.41742" lon="6.60884">
        <ele>1882.76</ele>
        <time>2014-01-30T12:53:48Z</time>
      </trkpt>
      <trkpt lat="45.41706" lon="6.60916">
        <ele>1883.69</ele>
        <time>2014-01-30T12:53:58Z</time>
      </trkpt>
      <trkpt lat="45.41701" lon="6.6091">
        <ele>1882.64</ele>
        <time>2014-01-30T12:56:17Z</time>
      </trkpt>
      <trkpt lat="45.41691" lon="6.60852">
        <ele>1875.08</ele>
        <time>2014-01-30T12:56:24Z</time>
      </trkpt>
      <trkpt lat="45.41682" lon="6.60787">
        <ele>1868.48</ele>
        <time>2014-01-30T12:56:33Z</time>
      </trkpt>
      <trkpt lat="45.41712" lon="6.60737">
        <ele>1859.73</ele>
        <time>2014-01-30T12:56:39Z</time>
      </trkpt>
      <trkpt lat="45.41745" lon="6.60694">
        <ele>1853.12</ele>
        <time>2014-01-30T12:56:46Z</time>
      </trkpt>
      <trkpt lat="45.41789" lon="6.60687">
        <ele>1846.82</ele>
        <time>2014-01-30T12:56:53Z</time>
      </trkpt>
      <trkpt lat="45.4182" lon="6.60651">
        <ele>1830.7</ele>
        <time>2014-01-30T12:56:59Z</time>
      </trkpt>
      <trkpt lat="45.41848" lon="6.60626">
        <ele>1821.04</ele>
        <time>2014-01-30T12:57:07Z</time>
      </trkpt>
      <trkpt lat="45.41885" lon="6.60647">
        <ele>1814.47</ele>
        <time>2014-01-30T12:57:13Z</time>
      </trkpt>
      <trkpt lat="45.41924" lon="6.6063">
        <ele>1802.25</ele>
        <time>2014-01-30T12:57:21Z</time>
      </trkpt>
      <trkpt lat="45.41958" lon="6.60633">
        <ele>1792.69</ele>
        <time>2014-01-30T12:57:27Z</time>
      </trkpt>
      <trkpt lat="45.41995" lon="6.60637">
        <ele>1780.58</ele>
        <time>2014-01-30T12:57:33Z</time>
      </trkpt>
      <trkpt lat="45.42032" lon="6.60622">
        <ele>1768.47</ele>
        <time>2014-01-30T12:57:41Z</time>
      </trkpt>
      <trkpt lat="45.42046" lon="6.60573">
        <ele>1755.9</ele>
        <time>2014-01-30T12:57:47Z</time>
      </trkpt>
      <trkpt lat="45.4207" lon="6.60522">
        <ele>1739.93</ele>
        <time>2014-01-30T12:57:56Z</time>
      </trkpt>
      <trkpt lat="45.42113" lon="6.6051">
        <ele>1727.85</ele>
        <time>2014-01-30T12:58:02Z</time>
      </trkpt>
      <trkpt lat="45.42144" lon="6.60478">
        <ele>1714.59</ele>
        <time>2014-01-30T12:58:10Z</time>
      </trkpt>
      <trkpt lat="45.42178" lon="6.6048">
        <ele>1700.77</ele>
        <time>2014-01-30T12:58:14Z</time>
      </trkpt>
      <trkpt lat="45.42221" lon="6.60447">
        <ele>1683.25</ele>
        <time>2014-01-30T12:58:20Z</time>
      </trkpt>
      <trkpt lat="45.42261" lon="6.60429">
        <ele>1678.38</ele>
        <time>2014-01-30T12:58:26Z</time>
      </trkpt>
      <trkpt lat="45.4227" lon="6.6039">
        <ele>1678.8</ele>
        <time>2014-01-30T12:58:40Z</time>
      </trkpt>
      <trkpt lat="45.42231" lon="6.60386">
        <ele>1684.46</ele>
        <time>2014-01-30T12:59:28Z</time>
      </trkpt>
      <trkpt lat="45.42198" lon="6.60413">
        <ele>1689.47</ele>
        <time>2014-01-30T12:59:38Z</time>
      </trkpt>
      <trkpt lat="45.42163" lon="6.60438">
        <ele>1704.14</ele>
        <time>2014-01-30T12:59:48Z</time>
      </trkpt>
      <trkpt lat="45.42128" lon="6.60463">
        <ele>1717.4</ele>
        <time>2014-01-30T12:59:58Z</time>
      </trkpt>
      <trkpt lat="45.42093" lon="6.60487">
        <ele>1729.59</ele>
        <time>2014-01-30T13:00:08Z</time>
      </trkpt>
      <trkpt lat="45.4206" lon="6.60514">
        <ele>1740.2</ele>
        <time>2014-01-30T13:00:18Z</time>
      </trkpt>
      <trkpt lat="45.42029" lon="6.60545">
        <ele>1755.8</ele>
        <time>2014-01-30T13:00:28Z</time>
      </trkpt>
      <trkpt lat="45.41994" lon="6.60567">
        <ele>1776.34</ele>
        <time>2014-01-30T13:00:38Z</time>
      </trkpt>
      <trkpt lat="45.41958" lon="6.60586">
        <ele>1788.34</ele>
        <time>2014-01-30T13:00:48Z</time>
      </trkpt>
      <trkpt lat="45.41922" lon="6.60609">
        <ele>1800.23</ele>
        <time>2014-01-30T13:00:58Z</time>
      </trkpt>
      <trkpt lat="45.4189" lon="6.60638">
        <ele>1811.6</ele>
        <time>2014-01-30T13:01:08Z</time>
      </trkpt>
      <trkpt lat="45.41856" lon="6.60664">
        <ele>1824.48</ele>
        <time>2014-01-30T13:01:18Z</time>
      </trkpt>
      <trkpt lat="45.41821" lon="6.60686">
        <ele>1836.93</ele>
        <time>2014-01-30T13:01:28Z</time>
      </trkpt>
      <trkpt lat="45.41784" lon="6.60707">
        <ele>1851.97</ele>
        <time>2014-01-30T13:01:38Z</time>
      </trkpt>
      <trkpt lat="45.41748" lon="6.60727">
        <ele>1857.81</ele>
        <time>2014-01-30T13:01:48Z</time>
      </trkpt>
      <trkpt lat="45.41713" lon="6.60751">
        <ele>1861.12</ele>
        <time>2014-01-30T13:01:58Z</time>
      </trkpt>
      <trkpt lat="45.41677" lon="6.60779">
        <ele>1868.03</ele>
        <time>2014-01-30T13:02:08Z</time>
      </trkpt>
      <trkpt lat="45.41641" lon="6.60805">
        <ele>1874.66</ele>
        <time>2014-01-30T13:02:18Z</time>
      </trkpt>
      <trkpt lat="45.41607" lon="6.60831">
        <ele>1888.54</ele>
        <time>2014-01-30T13:02:28Z</time>
      </trkpt>
      <trkpt lat="45.41571" lon="6.60856">
        <ele>1900.54</ele>
        <time>2014-01-30T13:02:38Z</time>
      </trkpt>
      <trkpt lat="45.41536" lon="6.60878">
        <ele>1917.96</ele>
        <time>2014-01-30T13:02:48Z</time>
      </trkpt>
      <trkpt lat="45.41502" lon="6.60903">
        <ele>1935.5</ele>
        <time>2014-01-30T13:02:58Z</time>
      </trkpt>
      <trkpt lat="45.41467" lon="6.60931">
        <ele>1960.93</ele>
        <time>2014-01-30T13:03:08Z</time>
      </trkpt>
      <trkpt lat="45.41436" lon="6.60963">
        <ele>1982.85</ele>
        <time>2014-01-30T13:03:18Z</time>
      </trkpt>
      <trkpt lat="45.41408" lon="6.60999">
        <ele>1998.67</ele>
        <time>2014-01-30T13:03:28Z</time>
      </trkpt>
      <trkpt lat="45.41371" lon="6.61024">
        <ele>2014.47</ele>
        <time>2014-01-30T13:03:40Z</time>
      </trkpt>
      <trkpt lat="45.41332" lon="6.61032">
        <ele>2027.95</ele>
        <time>2014-01-30T13:03:50Z</time>
      </trkpt>
      <trkpt lat="45.41295" lon="6.61049">
        <ele>2041.65</ele>
        <time>2014-01-30T13:04:00Z</time>
      </trkpt>
      <trkpt lat="45.4126" lon="6.61072">
        <ele>2056.73</ele>
        <time>2014-01-30T13:04:10Z</time>
      </trkpt>
      <trkpt lat="45.41225" lon="6.61096">
        <ele>2079.64</ele>
        <time>2014-01-30T13:04:20Z</time>
      </trkpt>
      <trkpt lat="45.41193" lon="6.61125">
        <ele>2101.15</ele>
        <time>2014-01-30T13:04:30Z</time>
      </trkpt>
      <trkpt lat="45.41161" lon="6.61154">
        <ele>2112.87</ele>
        <time>2014-01-30T13:04:40Z</time>
      </trkpt>
      <trkpt lat="45.41123" lon="6.61175">
        <ele>2121.02</ele>
        <time>2014-01-30T13:04:51Z</time>
      </trkpt>
      <trkpt lat="45.41087" lon="6.61196">
        <ele>2132.05</ele>
        <time>2014-01-30T13:05:01Z</time>
      </trkpt>
      <trkpt lat="45.41053" lon="6.61221">
        <ele>2144.05</ele>
        <time>2014-01-30T13:05:11Z</time>
      </trkpt>
      <trkpt lat="45.4102" lon="6.61246">
        <ele>2151.54</ele>
        <time>2014-01-30T13:05:21Z</time>
      </trkpt>
      <trkpt lat="45.40986" lon="6.61279">
        <ele>2161.48</ele>
        <time>2014-01-30T13:05:32Z</time>
      </trkpt>
      <trkpt lat="45.40952" lon="6.61303">
        <ele>2178.2</ele>
        <time>2014-01-30T13:05:42Z</time>
      </trkpt>
      <trkpt lat="45.40918" lon="6.61328">
        <ele>2201.13</ele>
        <time>2014-01-30T13:05:52Z</time>
      </trkpt>
      <trkpt lat="45.40889" lon="6.61359">
        <ele>2224.35</ele>
        <time>2014-01-30T13:06:02Z</time>
      </trkpt>
      <trkpt lat="45.40856" lon="6.61393">
        <ele>2229.54</ele>
        <time>2014-01-30T13:06:13Z</time>
      </trkpt>
      <trkpt lat="45.40818" lon="6.61393">
        <ele>2225.61</ele>
        <time>2014-01-30T13:06:28Z</time>
      </trkpt>
      <trkpt lat="45.4079" lon="6.61423">
        <ele>2224.96</ele>
        <time>2014-01-30T13:06:59Z</time>
      </trkpt>
      <trkpt lat="45.40757" lon="6.61447">
        <ele>2224.9</ele>
        <time>2014-01-30T13:07:43Z</time>
      </trkpt>
      <trkpt lat="45.40724" lon="6.61474">
        <ele>2218.59</ele>
        <time>2014-01-30T13:09:08Z</time>
      </trkpt>
      <trkpt lat="45.40686" lon="6.615">
        <ele>2217.6</ele>
        <time>2014-01-30T13:09:16Z</time>
      </trkpt>
      <trkpt lat="45.40671" lon="6.61549">
        <ele>2203.21</ele>
        <time>2014-01-30T13:09:21Z</time>
      </trkpt>
      <trkpt lat="45.40674" lon="6.61602">
        <ele>2186.09</ele>
        <time>2014-01-30T13:09:27Z</time>
      </trkpt>
      <trkpt lat="45.40684" lon="6.61649">
        <ele>2167.7</ele>
        <time>2014-01-30T13:09:33Z</time>
      </trkpt>
      <trkpt lat="45.40695" lon="6.61701">
        <ele>2150.77</ele>
        <time>2014-01-30T13:09:38Z</time>
      </trkpt>
      <trkpt lat="45.40717" lon="6.6176">
        <ele>2140.9</ele>
        <time>2014-01-30T13:09:42Z</time>
      </trkpt>
      <trkpt lat="45.40702" lon="6.61816">
        <ele>2134.82</ele>
        <time>2014-01-30T13:09:47Z</time>
      </trkpt>
      <trkpt lat="45.40656" lon="6.61817">
        <ele>2126.85</ele>
        <time>2014-01-30T13:09:52Z</time>
      </trkpt>
      <trkpt lat="45.40613" lon="6.61796">
        <ele>2120.8</ele>
        <time>2014-01-30T13:09:58Z</time>
      </trkpt>
      <trkpt lat="45.4057" lon="6.61787">
        <ele>2120.86</ele>
        <time>2014-01-30T13:10:05Z</time>
      </trkpt>
      <trkpt lat="45.40538" lon="6.61826">
        <ele>2114.4</ele>
        <time>2014-01-30T13:10:11Z</time>
      </trkpt>
      <trkpt lat="45.40519" lon="6.61884">
        <ele>2103.57</ele>
        <time>2014-01-30T13:10:18Z</time>
      </trkpt>
      <trkpt lat="45.40528" lon="6.61935">
        <ele>2095.74</ele>
        <time>2014-01-30T13:10:24Z</time>
      </trkpt>
      <trkpt lat="45.4052" lon="6.61974">
        <ele>2087.89</ele>
        <time>2014-01-30T13:10:31Z</time>
      </trkpt>
      <trkpt lat="45.40543" lon="6.6202">
        <ele>2079.77</ele>
        <time>2014-01-30T13:10:38Z</time>
      </trkpt>
      <trkpt lat="45.40509" lon="6.62056">
        <ele>2069.11</ele>
        <time>2014-01-30T13:10:46Z</time>
      </trkpt>
      <trkpt lat="45.40487" lon="6.62088">
        <ele>2055.98</ele>
        <time>2014-01-30T13:10:55Z</time>
      </trkpt>
      <trkpt lat="45.40445" lon="6.62083">
        <ele>2046.34</ele>
        <time>2014-01-30T13:11:06Z</time>
      </trkpt>
      <trkpt lat="45.40406" lon="6.62068">
        <ele>2039.64</ele>
        <time>2014-01-30T13:11:20Z</time>
      </trkpt>
      <trkpt lat="45.40366" lon="6.62061">
        <ele>2035.9</ele>
        <time>2014-01-30T13:11:34Z</time>
      </trkpt>
      <trkpt lat="45.40342" lon="6.62092">
        <ele>2023.66</ele>
        <time>2014-01-30T13:11:43Z</time>
      </trkpt>
      <trkpt lat="45.40373" lon="6.62143">
        <ele>2009.99</ele>
        <time>2014-01-30T13:11:47Z</time>
      </trkpt>
      <trkpt lat="45.40404" lon="6.62195">
        <ele>2001.71</ele>
        <time>2014-01-30T13:11:51Z</time>
      </trkpt>
      <trkpt lat="45.4043" lon="6.62242">
        <ele>1992.84</ele>
        <time>2014-01-30T13:11:55Z</time>
      </trkpt>
      <trkpt lat="45.40455" lon="6.62294">
        <ele>1986.56</ele>
        <time>2014-01-30T13:11:59Z</time>
      </trkpt>
      <trkpt lat="45.4048" lon="6.62343">
        <ele>1979.31</ele>
        <time>2014-01-30T13:12:03Z</time>
      </trkpt>
      <trkpt lat="45.40513" lon="6.62377">
        <ele>1977.82</ele>
        <time>2014-01-30T13:12:07Z</time>
      </trkpt>
      <trkpt lat="45.40544" lon="6.62424">
        <ele>1969.33</ele>
        <time>2014-01-30T13:12:11Z</time>
      </trkpt>
      <trkpt lat="45.40572" lon="6.62462">
        <ele>1962.35</ele>
        <time>2014-01-30T13:12:15Z</time>
      </trkpt>
      <trkpt lat="45.40605" lon="6.62496">
        <ele>1954.57</ele>
        <time>2014-01-30T13:12:19Z</time>
      </trkpt>
      <trkpt lat="45.40636" lon="6.62533">
        <ele>1945.09</ele>
        <time>2014-01-30T13:12:23Z</time>
      </trkpt>
      <trkpt lat="45.40665" lon="6.62573">
        <ele>1938.96</ele>
        <time>2014-01-30T13:12:27Z</time>
      </trkpt>
      <trkpt lat="45.40706" lon="6.6261">
        <ele>1928.51</ele>
        <time>2014-01-30T13:12:32Z</time>
      </trkpt>
      <trkpt lat="45.40742" lon="6.62634">
        <ele>1925.32</ele>
        <time>2014-01-30T13:12:36Z</time>
      </trkpt>
      <trkpt lat="45.40773" lon="6.62665">
        <ele>1920.37</ele>
        <time>2014-01-30T13:12:41Z</time>
      </trkpt>
      <trkpt lat="45.40733" lon="6.62657">
        <ele>1914.13</ele>
        <time>2014-01-30T13:12:49Z</time>
      </trkpt>
      <trkpt lat="45.40689" lon="6.62652">
        <ele>1910.14</ele>
        <time>2014-01-30T13:12:55Z</time>
      </trkpt>
      <trkpt lat="45.40646" lon="6.62645">
        <ele>1905.05</ele>
        <time>2014-01-30T13:13:01Z</time>
      </trkpt>
      <trkpt lat="45.40603" lon="6.62634">
        <ele>1897.15</ele>
        <time>2014-01-30T13:13:08Z</time>
      </trkpt>
      <trkpt lat="45.40567" lon="6.62614">
        <ele>1895.69</ele>
        <time>2014-01-30T13:13:15Z</time>
      </trkpt>
      <trkpt lat="45.40531" lon="6.62595">
        <ele>1894.98</ele>
        <time>2014-01-30T13:13:21Z</time>
      </trkpt>
      <trkpt lat="45.40484" lon="6.62595">
        <ele>1894.61</ele>
        <time>2014-01-30T13:13:27Z</time>
      </trkpt>
      <trkpt lat="45.40463" lon="6.62648">
        <ele>1890.31</ele>
        <time>2014-01-30T13:13:31Z</time>
      </trkpt>
      <trkpt lat="45.40473" lon="6.62702">
        <ele>1887.68</ele>
        <time>2014-01-30T13:13:35Z</time>
      </trkpt>
      <trkpt lat="45.4049" lon="6.6276">
        <ele>1885.33</ele>
        <time>2014-01-30T13:13:40Z</time>
      </trkpt>
      <trkpt lat="45.40517" lon="6.62814">
        <ele>1881.99</ele>
        <time>2014-01-30T13:13:46Z</time>
      </trkpt>
      <trkpt lat="45.4055" lon="6.6286">
        <ele>1878.03</ele>
        <time>2014-01-30T13:13:52Z</time>
      </trkpt>
      <trkpt lat="45.40585" lon="6.629">
        <ele>1870.44</ele>
        <time>2014-01-30T13:13:58Z</time>
      </trkpt>
      <trkpt lat="45.40626" lon="6.62927">
        <ele>1865.67</ele>
        <time>2014-01-30T13:14:04Z</time>
      </trkpt>
      <trkpt lat="45.40662" lon="6.62952">
        <ele>1864.31</ele>
        <time>2014-01-30T13:14:29Z</time>
      </trkpt>
      <trkpt lat="45.40621" lon="6.62953">
        <ele>1868.37</ele>
        <time>2014-01-30T13:15:58Z</time>
      </trkpt>
      <trkpt lat="45.40582" lon="6.62942">
        <ele>1871.44</ele>
        <time>2014-01-30T13:16:07Z</time>
      </trkpt>
      <trkpt lat="45.40546" lon="6.62924">
        <ele>1879.54</ele>
        <time>2014-01-30T13:16:17Z</time>
      </trkpt>
      <trkpt lat="45.40508" lon="6.62908">
        <ele>1888.66</ele>
        <time>2014-01-30T13:16:27Z</time>
      </trkpt>
      <trkpt lat="45.40468" lon="6.62891">
        <ele>1900.9</ele>
        <time>2014-01-30T13:16:37Z</time>
      </trkpt>
      <trkpt lat="45.40431" lon="6.62874">
        <ele>1908.05</ele>
        <time>2014-01-30T13:16:47Z</time>
      </trkpt>
      <trkpt lat="45.40394" lon="6.62859">
        <ele>1916.07</ele>
        <time>2014-01-30T13:16:57Z</time>
      </trkpt>
      <trkpt lat="45.40357" lon="6.6284">
        <ele>1921.99</ele>
        <time>2014-01-30T13:17:06Z</time>
      </trkpt>
      <trkpt lat="45.40321" lon="6.62826">
        <ele>1928.75</ele>
        <time>2014-01-30T13:17:16Z</time>
      </trkpt>
      <trkpt lat="45.40284" lon="6.62811">
        <ele>1931.2</ele>
        <time>2014-01-30T13:17:26Z</time>
      </trkpt>
      <trkpt lat="45.40246" lon="6.62791">
        <ele>1938.13</ele>
        <time>2014-01-30T13:17:35Z</time>
      </trkpt>
      <trkpt lat="45.40209" lon="6.62778">
        <ele>1943.2</ele>
        <time>2014-01-30T13:17:45Z</time>
      </trkpt>
      <trkpt lat="45.40171" lon="6.62761">
        <ele>1958.07</ele>
        <time>2014-01-30T13:17:55Z</time>
      </trkpt>
      <trkpt lat="45.40132" lon="6.62743">
        <ele>1969.81</ele>
        <time>2014-01-30T13:18:05Z</time>
      </trkpt>
      <trkpt lat="45.40095" lon="6.62728">
        <ele>1976.79</ele>
        <time>2014-01-30T13:18:15Z</time>
      </trkpt>
      <trkpt lat="45.40058" lon="6.62715">
        <ele>1986.76</ele>
        <time>2014-01-30T13:18:25Z</time>
      </trkpt>
      <trkpt lat="45.40018" lon="6.62698">
        <ele>2003.8</ele>
        <time>2014-01-30T13:18:36Z</time>
      </trkpt>
      <trkpt lat="45.39982" lon="6.62682">
        <ele>2019.07</ele>
        <time>2014-01-30T13:18:46Z</time>
      </trkpt>
      <trkpt lat="45.39944" lon="6.62665">
        <ele>2033.94</ele>
        <time>2014-01-30T13:18:56Z</time>
      </trkpt>
      <trkpt lat="45.39903" lon="6.62652">
        <ele>2048.64</ele>
        <time>2014-01-30T13:19:08Z</time>
      </trkpt>
      <trkpt lat="45.39867" lon="6.62633">
        <ele>2057.51</ele>
        <time>2014-01-30T13:19:17Z</time>
      </trkpt>
      <trkpt lat="45.3983" lon="6.62617">
        <ele>2070.02</ele>
        <time>2014-01-30T13:19:27Z</time>
      </trkpt>
      <trkpt lat="45.3979" lon="6.62601">
        <ele>2082.19</ele>
        <time>2014-01-30T13:19:38Z</time>
      </trkpt>
      <trkpt lat="45.39752" lon="6.62581">
        <ele>2093.07</ele>
        <time>2014-01-30T13:19:48Z</time>
      </trkpt>
      <trkpt lat="45.39714" lon="6.62564">
        <ele>2102.41</ele>
        <time>2014-01-30T13:19:58Z</time>
      </trkpt>
      <trkpt lat="45.39676" lon="6.62548">
        <ele>2112.19</ele>
        <time>2014-01-30T13:20:08Z</time>
      </trkpt>
      <trkpt lat="45.39636" lon="6.62532">
        <ele>2121.03</ele>
        <time>2014-01-30T13:20:19Z</time>
      </trkpt>
      <trkpt lat="45.39596" lon="6.62512">
        <ele>2129.04</ele>
        <time>2014-01-30T13:20:29Z</time>
      </trkpt>
      <trkpt lat="45.39558" lon="6.62497">
        <ele>2137.07</ele>
        <time>2014-01-30T13:20:39Z</time>
      </trkpt>
      <trkpt lat="45.3952" lon="6.62482">
        <ele>2148.86</ele>
        <time>2014-01-30T13:20:49Z</time>
      </trkpt>
      <trkpt lat="45.3948" lon="6.62463">
        <ele>2158.48</ele>
        <time>2014-01-30T13:21:00Z</time>
      </trkpt>
      <trkpt lat="45.39441" lon="6.62445">
        <ele>2169.09</ele>
        <time>2014-01-30T13:21:10Z</time>
      </trkpt>
      <trkpt lat="45.39403" lon="6.62431">
        <ele>2176.1</ele>
        <time>2014-01-30T13:21:20Z</time>
      </trkpt>
      <trkpt lat="45.39366" lon="6.62416">
        <ele>2189.46</ele>
        <time>2014-01-30T13:21:30Z</time>
      </trkpt>
      <trkpt lat="45.39326" lon="6.624">
        <ele>2204.86</ele>
        <time>2014-01-30T13:21:41Z</time>
      </trkpt>
      <trkpt lat="45.39287" lon="6.62388">
        <ele>2217.36</ele>
        <time>2014-01-30T13:21:52Z</time>
      </trkpt>
      <trkpt lat="45.39249" lon="6.62377">
        <ele>2229.55</ele>
        <time>2014-01-30T13:22:02Z</time>
      </trkpt>
      <trkpt lat="45.39241" lon="6.62395">
        <ele>2229.11</ele>
        <time>2014-01-30T13:22:41Z</time>
      </trkpt>
      <trkpt lat="45.3927" lon="6.62434">
        <ele>2224.85</ele>
        <time>2014-01-30T13:22:51Z</time>
      </trkpt>
      <trkpt lat="45.39304" lon="6.62468">
        <ele>2217.98</ele>
        <time>2014-01-30T13:22:59Z</time>
      </trkpt>
      <trkpt lat="45.39328" lon="6.62509">
        <ele>2211.29</ele>
        <time>2014-01-30T13:23:06Z</time>
      </trkpt>
      <trkpt lat="45.39371" lon="6.62506">
        <ele>2200.5</ele>
        <time>2014-01-30T13:23:12Z</time>
      </trkpt>
      <trkpt lat="45.39349" lon="6.62451">
        <ele>2203.33</ele>
        <time>2014-01-30T13:23:20Z</time>
      </trkpt>
      <trkpt lat="45.39333" lon="6.62392">
        <ele>2201.09</ele>
        <time>2014-01-30T13:23:26Z</time>
      </trkpt>
      <trkpt lat="45.39328" lon="6.62328">
        <ele>2188.21</ele>
        <time>2014-01-30T13:23:31Z</time>
      </trkpt>
      <trkpt lat="45.39306" lon="6.6228">
        <ele>2182.58</ele>
        <time>2014-01-30T13:23:35Z</time>
      </trkpt>
      <trkpt lat="45.39286" lon="6.62228">
        <ele>2182.58</ele>
        <time>2014-01-30T13:23:39Z</time>
      </trkpt>
      <trkpt lat="45.39275" lon="6.62162">
        <ele>2174.82</ele>
        <time>2014-01-30T13:23:44Z</time>
      </trkpt>
      <trkpt lat="45.39279" lon="6.62104">
        <ele>2167.69</ele>
        <time>2014-01-30T13:23:49Z</time>
      </trkpt>
      <trkpt lat="45.39294" lon="6.62047">
        <ele>2158.97</ele>
        <time>2014-01-30T13:23:55Z</time>
      </trkpt>
      <trkpt lat="45.39343" lon="6.62052">
        <ele>2140.02</ele>
        <time>2014-01-30T13:24:01Z</time>
      </trkpt>
      <trkpt lat="45.3938" lon="6.62028">
        <ele>2127.06</ele>
        <time>2014-01-30T13:24:05Z</time>
      </trkpt>
      <trkpt lat="45.39416" lon="6.62052">
        <ele>2115.39</ele>
        <time>2014-01-30T13:24:09Z</time>
      </trkpt>
      <trkpt lat="45.39455" lon="6.62025">
        <ele>2108.13</ele>
        <time>2014-01-30T13:24:13Z</time>
      </trkpt>
      <trkpt lat="45.39497" lon="6.61983">
        <ele>2103.08</ele>
        <time>2014-01-30T13:24:19Z</time>
      </trkpt>
      <trkpt lat="45.39536" lon="6.61956">
        <ele>2095.74</ele>
        <time>2014-01-30T13:24:25Z</time>
      </trkpt>
      <trkpt lat="45.3958" lon="6.61975">
        <ele>2085.88</ele>
        <time>2014-01-30T13:24:31Z</time>
      </trkpt>
      <trkpt lat="45.3959" lon="6.62018">
        <ele>2086.81</ele>
        <time>2014-01-30T13:26:00Z</time>
      </trkpt>
      <trkpt lat="45.3955" lon="6.62004">
        <ele>2095.34</ele>
        <time>2014-01-30T13:27:09Z</time>
      </trkpt>
      <trkpt lat="45.3951" lon="6.61988">
        <ele>2101.09</ele>
        <time>2014-01-30T13:27:18Z</time>
      </trkpt>
      <trkpt lat="45.39471" lon="6.61976">
        <ele>2107.02</ele>
        <time>2014-01-30T13:27:26Z</time>
      </trkpt>
      <trkpt lat="45.39431" lon="6.61961">
        <ele>2113.15</ele>
        <time>2014-01-30T13:27:35Z</time>
      </trkpt>
      <trkpt lat="45.39391" lon="6.61944">
        <ele>2124.26</ele>
        <time>2014-01-30T13:27:45Z</time>
      </trkpt>
      <trkpt lat="45.39352" lon="6.6193">
        <ele>2140.03</ele>
        <time>2014-01-30T13:27:55Z</time>
      </trkpt>
      <trkpt lat="45.39309" lon="6.61917">
        <ele>2160.28</ele>
        <time>2014-01-30T13:28:05Z</time>
      </trkpt>
      <trkpt lat="45.39269" lon="6.61902">
        <ele>2177.02</ele>
        <time>2014-01-30T13:28:15Z</time>
      </trkpt>
      <trkpt lat="45.39226" lon="6.61887">
        <ele>2198.9</ele>
        <time>2014-01-30T13:28:27Z</time>
      </trkpt>
      <trkpt lat="45.39187" lon="6.61883">
        <ele>2222.56</ele>
        <time>2014-01-30T13:28:38Z</time>
      </trkpt>
      <trkpt lat="45.39149" lon="6.61875">
        <ele>2243.78</ele>
        <time>2014-01-30T13:28:47Z</time>
      </trkpt>
      <trkpt lat="45.39113" lon="6.6186">
        <ele>2270.44</ele>
        <time>2014-01-30T13:28:57Z</time>
      </trkpt>
      <trkpt lat="45.39074" lon="6.61853">
        <ele>2298.41</ele>
        <time>2014-01-30T13:29:07Z</time>
      </trkpt>
      <trkpt lat="45.39037" lon="6.61841">
        <ele>2326.64</ele>
        <time>2014-01-30T13:29:18Z</time>
      </trkpt>
      <trkpt lat="45.38998" lon="6.61825">
        <ele>2357.65</ele>
        <time>2014-01-30T13:29:29Z</time>
      </trkpt>
      <trkpt lat="45.38955" lon="6.61811">
        <ele>2382.19</ele>
        <time>2014-01-30T13:29:38Z</time>
      </trkpt>
      <trkpt lat="45.38917" lon="6.61793">
        <ele>2404.01</ele>
        <time>2014-01-30T13:29:49Z</time>
      </trkpt>
      <trkpt lat="45.38881" lon="6.61766">
        <ele>2429.25</ele>
        <time>2014-01-30T13:30:03Z</time>
      </trkpt>
      <trkpt lat="45.38843" lon="6.61754">
        <ele>2460.26</ele>
        <time>2014-01-30T13:30:13Z</time>
      </trkpt>
      <trkpt lat="45.38803" lon="6.61742">
        <ele>2477.23</ele>
        <time>2014-01-30T13:30:23Z</time>
      </trkpt>
      <trkpt lat="45.38767" lon="6.6173">
        <ele>2494.79</ele>
        <time>2014-01-30T13:30:33Z</time>
      </trkpt>
      <trkpt lat="45.38733" lon="6.61704">
        <ele>2511.7</ele>
        <time>2014-01-30T13:30:44Z</time>
      </trkpt>
      <trkpt lat="45.38693" lon="6.61688">
        <ele>2530.17</ele>
        <time>2014-01-30T13:30:54Z</time>
      </trkpt>
      <trkpt lat="45.38654" lon="6.61673">
        <ele>2553.46</ele>
        <time>2014-01-30T13:31:04Z</time>
      </trkpt>
      <trkpt lat="45.38614" lon="6.6166">
        <ele>2567.15</ele>
        <time>2014-01-30T13:31:14Z</time>
      </trkpt>
      <trkpt lat="45.38574" lon="6.61641">
        <ele>2588.02</ele>
        <time>2014-01-30T13:31:25Z</time>
      </trkpt>
      <trkpt lat="45.38535" lon="6.61627">
        <ele>2594.63</ele>
        <time>2014-01-30T13:31:35Z</time>
      </trkpt>
      <trkpt lat="45.38494" lon="6.61611">
        <ele>2600.04</ele>
        <time>2014-01-30T13:31:45Z</time>
      </trkpt>
      <trkpt lat="45.38452" lon="6.61596">
        <ele>2612.11</ele>
        <time>2014-01-30T13:31:55Z</time>
      </trkpt>
      <trkpt lat="45.38409" lon="6.61581">
        <ele>2622.45</ele>
        <time>2014-01-30T13:32:05Z</time>
      </trkpt>
      <trkpt lat="45.3837" lon="6.61567">
        <ele>2626.83</ele>
        <time>2014-01-30T13:32:14Z</time>
      </trkpt>
      <trkpt lat="45.38333" lon="6.61548">
        <ele>2636.63</ele>
        <time>2014-01-30T13:32:24Z</time>
      </trkpt>
      <trkpt lat="45.38295" lon="6.61532">
        <ele>2649.65</ele>
        <time>2014-01-30T13:32:34Z</time>
      </trkpt>
      <trkpt lat="45.38257" lon="6.61519">
        <ele>2650</ele>
        <time>2014-01-30T13:32:43Z</time>
      </trkpt>
      <trkpt lat="45.38249" lon="6.61538">
        <ele>2650</ele>
        <time>2014-01-30T13:35:08Z</time>
      </trkpt>
      <trkpt lat="45.38292" lon="6.6154">
        <ele>2649.1</ele>
        <time>2014-01-30T13:35:14Z</time>
      </trkpt>
      <trkpt lat="45.38331" lon="6.61542">
        <ele>2638.4</ele>
        <time>2014-01-30T13:35:18Z</time>
      </trkpt>
      <trkpt lat="45.38377" lon="6.61546">
        <ele>2630.75</ele>
        <time>2014-01-30T13:35:23Z</time>
      </trkpt>
      <trkpt lat="45.38421" lon="6.61558">
        <ele>2627.61</ele>
        <time>2014-01-30T13:35:29Z</time>
      </trkpt>
      <trkpt lat="45.38457" lon="6.61584">
        <ele>2613.41</ele>
        <time>2014-01-30T13:35:37Z</time>
      </trkpt>
      <trkpt lat="45.38485" lon="6.61639">
        <ele>2600.27</ele>
        <time>2014-01-30T13:35:43Z</time>
      </trkpt>
      <trkpt lat="45.38515" lon="6.61679">
        <ele>2587.78</ele>
        <time>2014-01-30T13:35:49Z</time>
      </trkpt>
      <trkpt lat="45.38552" lon="6.61705">
        <ele>2576.47</ele>
        <time>2014-01-30T13:35:55Z</time>
      </trkpt>
      <trkpt lat="45.38587" lon="6.61744">
        <ele>2560.1</ele>
        <time>2014-01-30T13:36:03Z</time>
      </trkpt>
      <trkpt lat="45.38588" lon="6.61796">
        <ele>2542.28</ele>
        <time>2014-01-30T13:36:28Z</time>
      </trkpt>
      <trkpt lat="45.38598" lon="6.61831">
        <ele>2527.94</ele>
        <time>2014-01-30T13:36:49Z</time>
      </trkpt>
      <trkpt lat="45.3862" lon="6.61873">
        <ele>2508.28</ele>
        <time>2014-01-30T13:37:11Z</time>
      </trkpt>
      <trkpt lat="45.38657" lon="6.61883">
        <ele>2499.74</ele>
        <time>2014-01-30T13:37:26Z</time>
      </trkpt>
      <trkpt lat="45.38648" lon="6.61933">
        <ele>2478.18</ele>
        <time>2014-01-30T13:37:40Z</time>
      </trkpt>
      <trkpt lat="45.3866" lon="6.61984">
        <ele>2463.36</ele>
        <time>2014-01-30T13:37:52Z</time>
      </trkpt>
      <trkpt lat="45.38701" lon="6.61982">
        <ele>2460.17</ele>
        <time>2014-01-30T13:38:09Z</time>
      </trkpt>
      <trkpt lat="45.38726" lon="6.61982">
        <ele>2443.16</ele>
        <time>2014-01-30T13:38:23Z</time>
      </trkpt>
      <trkpt lat="45.38766" lon="6.6198">
        <ele>2425.19</ele>
        <time>2014-01-30T13:39:01Z</time>
      </trkpt>
      <trkpt lat="45.38807" lon="6.61986">
        <ele>2407.56</ele>
        <time>2014-01-30T13:39:14Z</time>
      </trkpt>
      <trkpt lat="45.38845" lon="6.61976">
        <ele>2387.73</ele>
        <time>2014-01-30T13:39:30Z</time>
      </trkpt>
      <trkpt lat="45.38883" lon="6.61982">
        <ele>2371.93</ele>
        <time>2014-01-30T13:39:41Z</time>
      </trkpt>
      <trkpt lat="45.38924" lon="6.61986">
        <ele>2360.71</ele>
        <time>2014-01-30T13:39:51Z</time>
      </trkpt>
      <trkpt lat="45.38962" lon="6.61964">
        <ele>2344.56</ele>
        <time>2014-01-30T13:40:18Z</time>
      </trkpt>
      <trkpt lat="45.38998" lon="6.61953">
        <ele>2320.91</ele>
        <time>2014-01-30T13:40:40Z</time>
      </trkpt>
      <trkpt lat="45.39017" lon="6.61967">
        <ele>2309.46</ele>
        <time>2014-01-30T13:40:55Z</time>
      </trkpt>
      <trkpt lat="45.39054" lon="6.61964">
        <ele>2285.85</ele>
        <time>2014-01-30T13:41:16Z</time>
      </trkpt>
      <trkpt lat="45.3908" lon="6.61994">
        <ele>2269.75</ele>
        <time>2014-01-30T13:42:01Z</time>
      </trkpt>
      <trkpt lat="45.3908" lon="6.62049">
        <ele>2265.31</ele>
        <time>2014-01-30T13:42:14Z</time>
      </trkpt>
      <trkpt lat="45.39096" lon="6.62057">
        <ele>2254.41</ele>
        <time>2014-01-30T13:42:31Z</time>
      </trkpt>
      <trkpt lat="45.39114" lon="6.62103">
        <ele>2244.37</ele>
        <time>2014-01-30T13:42:41Z</time>
      </trkpt>
      <trkpt lat="45.3914" lon="6.62085">
        <ele>2223.79</ele>
        <time>2014-01-30T13:43:03Z</time>
      </trkpt>
      <trkpt lat="45.39159" lon="6.6208">
        <ele>2212.69</ele>
        <time>2014-01-30T13:43:13Z</time>
      </trkpt>
      <trkpt lat="45.39196" lon="6.62061">
        <ele>2195.85</ele>
        <time>2014-01-30T13:43:25Z</time>
      </trkpt>
      <trkpt lat="45.39231" lon="6.62048">
        <ele>2181.69</ele>
        <time>2014-01-30T13:43:36Z</time>
      </trkpt>
      <trkpt lat="45.39262" lon="6.62042">
        <ele>2170.54</ele>
        <time>2014-01-30T13:43:45Z</time>
      </trkpt>
      <trkpt lat="45.39292" lon="6.62046">
        <ele>2159.65</ele>
        <time>2014-01-30T13:43:54Z</time>
      </trkpt>
      <trkpt lat="45.39333" lon="6.62048">
        <ele>2143.59</ele>
        <time>2014-01-30T13:44:03Z</time>
      </trkpt>
      <trkpt lat="45.39361" lon="6.62058">
        <ele>2134.32</ele>
        <time>2014-01-30T13:44:09Z</time>
      </trkpt>
      <trkpt lat="45.39407" lon="6.62051">
        <ele>2118.54</ele>
        <time>2014-01-30T13:44:15Z</time>
      </trkpt>
      <trkpt lat="45.39447" lon="6.62017">
        <ele>2109.63</ele>
        <time>2014-01-30T13:44:21Z</time>
      </trkpt>
      <trkpt lat="45.39477" lon="6.61988">
        <ele>2105.72</ele>
        <time>2014-01-30T13:44:27Z</time>
      </trkpt>
      <trkpt lat="45.39516" lon="6.61956">
        <ele>2099.34</ele>
        <time>2014-01-30T13:44:33Z</time>
      </trkpt>
      <trkpt lat="45.39548" lon="6.6193">
        <ele>2093.64</ele>
        <time>2014-01-30T13:44:39Z</time>
      </trkpt>
      <trkpt lat="45.39586" lon="6.61904">
        <ele>2088.85</ele>
        <time>2014-01-30T13:44:45Z</time>
      </trkpt>
      <trkpt lat="45.3962" lon="6.61927">
        <ele>2079.83</ele>
        <time>2014-01-30T13:44:52Z</time>
      </trkpt>
      <trkpt lat="45.39608" lon="6.61945">
        <ele>2080.64</ele>
        <time>2014-01-30T13:50:41Z</time>
      </trkpt>
      <trkpt lat="45.39571" lon="6.61918">
        <ele>2090.69</ele>
        <time>2014-01-30T13:50:50Z</time>
      </trkpt>
      <trkpt lat="45.39534" lon="6.61888">
        <ele>2095.65</ele>
        <time>2014-01-30T13:50:56Z</time>
      </trkpt>
      <trkpt lat="45.39486" lon="6.61858">
        <ele>2103.57</ele>
        <time>2014-01-30T13:51:02Z</time>
      </trkpt>
      <trkpt lat="45.39451" lon="6.61836">
        <ele>2116.86</ele>
        <time>2014-01-30T13:51:06Z</time>
      </trkpt>
      <trkpt lat="45.39417" lon="6.61812">
        <ele>2130.07</ele>
        <time>2014-01-30T13:51:10Z</time>
      </trkpt>
      <trkpt lat="45.39382" lon="6.61788">
        <ele>2145.81</ele>
        <time>2014-01-30T13:51:14Z</time>
      </trkpt>
      <trkpt lat="45.39336" lon="6.61759">
        <ele>2170.09</ele>
        <time>2014-01-30T13:51:20Z</time>
      </trkpt>
      <trkpt lat="45.39301" lon="6.61735">
        <ele>2186.34</ele>
        <time>2014-01-30T13:51:24Z</time>
      </trkpt>
      <trkpt lat="45.39266" lon="6.6171">
        <ele>2201.9</ele>
        <time>2014-01-30T13:51:28Z</time>
      </trkpt>
      <trkpt lat="45.39229" lon="6.61683">
        <ele>2219.31</ele>
        <time>2014-01-30T13:51:32Z</time>
      </trkpt>
      <trkpt lat="45.39193" lon="6.61657">
        <ele>2235.2</ele>
        <time>2014-01-30T13:51:36Z</time>
      </trkpt>
      <trkpt lat="45.39148" lon="6.6163">
        <ele>2268.62</ele>
        <time>2014-01-30T13:51:42Z</time>
      </trkpt>
      <trkpt lat="45.39107" lon="6.61599">
        <ele>2298.29</ele>
        <time>2014-01-30T13:51:47Z</time>
      </trkpt>
      <trkpt lat="45.3907" lon="6.61574">
        <ele>2317.83</ele>
        <time>2014-01-30T13:51:51Z</time>
      </trkpt>
      <trkpt lat="45.39036" lon="6.61549">
        <ele>2328.1</ele>
        <time>2014-01-30T13:51:55Z</time>
      </trkpt>
      <trkpt lat="45.39002" lon="6.61525">
        <ele>2341.12</ele>
        <time>2014-01-30T13:51:59Z</time>
      </trkpt>
      <trkpt lat="45.38961" lon="6.61494">
        <ele>2355.62</ele>
        <time>2014-01-30T13:52:04Z</time>
      </trkpt>
      <trkpt lat="45.3892" lon="6.61467">
        <ele>2371.85</ele>
        <time>2014-01-30T13:52:09Z</time>
      </trkpt>
      <trkpt lat="45.38887" lon="6.61441">
        <ele>2381.98</ele>
        <time>2014-01-30T13:52:13Z</time>
      </trkpt>
      <trkpt lat="45.3884" lon="6.61405">
        <ele>2396.9</ele>
        <time>2014-01-30T13:52:19Z</time>
      </trkpt>
      <trkpt lat="45.38803" lon="6.61377">
        <ele>2408.21</ele>
        <time>2014-01-30T13:52:23Z</time>
      </trkpt>
      <trkpt lat="45.3877" lon="6.61353">
        <ele>2420.69</ele>
        <time>2014-01-30T13:52:27Z</time>
      </trkpt>
      <trkpt lat="45.38722" lon="6.61321">
        <ele>2435.62</ele>
        <time>2014-01-30T13:52:33Z</time>
      </trkpt>
      <trkpt lat="45.38688" lon="6.613">
        <ele>2445.77</ele>
        <time>2014-01-30T13:52:37Z</time>
      </trkpt>
      <trkpt lat="45.38655" lon="6.61275">
        <ele>2456.12</ele>
        <time>2014-01-30T13:52:41Z</time>
      </trkpt>
      <trkpt lat="45.38619" lon="6.61251">
        <ele>2474.86</ele>
        <time>2014-01-30T13:52:45Z</time>
      </trkpt>
      <trkpt lat="45.38573" lon="6.61219">
        <ele>2505.95</ele>
        <time>2014-01-30T13:52:51Z</time>
      </trkpt>
      <trkpt lat="45.38525" lon="6.61198">
        <ele>2538.13</ele>
        <time>2014-01-30T13:52:57Z</time>
      </trkpt>
      <trkpt lat="45.38482" lon="6.61172">
        <ele>2571.51</ele>
        <time>2014-01-30T13:53:03Z</time>
      </trkpt>
      <trkpt lat="45.38442" lon="6.61144">
        <ele>2607.64</ele>
        <time>2014-01-30T13:53:09Z</time>
      </trkpt>
      <trkpt lat="45.38409" lon="6.61119">
        <ele>2639.12</ele>
        <time>2014-01-30T13:53:15Z</time>
      </trkpt>
      <trkpt lat="45.38374" lon="6.61092">
        <ele>2679.31</ele>
        <time>2014-01-30T13:53:23Z</time>
      </trkpt>
      <trkpt lat="45.38339" lon="6.61078">
        <ele>2695.24</ele>
        <time>2014-01-30T13:55:26Z</time>
      </trkpt>
      <trkpt lat="45.38313" lon="6.61057">
        <ele>2695.09</ele>
        <time>2014-01-30T13:57:22Z</time>
      </trkpt>
      <trkpt lat="45.38276" lon="6.61056">
        <ele>2680</ele>
        <time>2014-01-30T13:57:31Z</time>
      </trkpt>
      <trkpt lat="45.38236" lon="6.61033">
        <ele>2676.44</ele>
        <time>2014-01-30T13:57:39Z</time>
      </trkpt>
      <trkpt lat="45.38199" lon="6.61019">
        <ele>2679.15</ele>
        <time>2014-01-30T13:57:45Z</time>
      </trkpt>
      <trkpt lat="45.38162" lon="6.61021">
        <ele>2679.71</ele>
        <time>2014-01-30T13:57:51Z</time>
      </trkpt>
      <trkpt lat="45.3812" lon="6.61021">
        <ele>2669.49</ele>
        <time>2014-01-30T13:57:58Z</time>
      </trkpt>
      <trkpt lat="45.38082" lon="6.60988">
        <ele>2662.8</ele>
        <time>2014-01-30T13:58:06Z</time>
      </trkpt>
      <trkpt lat="45.38043" lon="6.60955">
        <ele>2646.77</ele>
        <time>2014-01-30T13:58:15Z</time>
      </trkpt>
      <trkpt lat="45.38006" lon="6.60942">
        <ele>2632.61</ele>
        <time>2014-01-30T13:58:26Z</time>
      </trkpt>
      <trkpt lat="45.37962" lon="6.60942">
        <ele>2619.96</ele>
        <time>2014-01-30T13:58:34Z</time>
      </trkpt>
      <trkpt lat="45.37926" lon="6.60918">
        <ele>2602.64</ele>
        <time>2014-01-30T13:58:42Z</time>
      </trkpt>
      <trkpt lat="45.37887" lon="6.60921">
        <ele>2589.97</ele>
        <time>2014-01-30T13:58:51Z</time>
      </trkpt>
      <trkpt lat="45.37847" lon="6.60942">
        <ele>2589.35</ele>
        <time>2014-01-30T13:59:00Z</time>
      </trkpt>
      <trkpt lat="45.37833" lon="6.60888">
        <ele>2575.92</ele>
        <time>2014-01-30T13:59:46Z</time>
      </trkpt>
      <trkpt lat="45.37826" lon="6.60836">
        <ele>2567.11</ele>
        <time>2014-01-30T13:59:57Z</time>
      </trkpt>
      <trkpt lat="45.37852" lon="6.60796">
        <ele>2556.46</ele>
        <time>2014-01-30T14:00:07Z</time>
      </trkpt>
      <trkpt lat="45.37888" lon="6.60757">
        <ele>2543.11</ele>
        <time>2014-01-30T14:00:16Z</time>
      </trkpt>
      <trkpt lat="45.37926" lon="6.60734">
        <ele>2532.08</ele>
        <time>2014-01-30T14:00:22Z</time>
      </trkpt>
      <trkpt lat="45.37966" lon="6.60707">
        <ele>2520.39</ele>
        <time>2014-01-30T14:00:28Z</time>
      </trkpt>
      <trkpt lat="45.38" lon="6.60675">
        <ele>2512.57</ele>
        <time>2014-01-30T14:00:34Z</time>
      </trkpt>
      <trkpt lat="45.38032" lon="6.60647">
        <ele>2506.79</ele>
        <time>2014-01-30T14:00:40Z</time>
      </trkpt>
      <trkpt lat="45.38077" lon="6.60616">
        <ele>2499.88</ele>
        <time>2014-01-30T14:00:46Z</time>
      </trkpt>
      <trkpt lat="45.38123" lon="6.60583">
        <ele>2493.41</ele>
        <time>2014-01-30T14:00:52Z</time>
      </trkpt>
      <trkpt lat="45.38159" lon="6.60544">
        <ele>2485.47</ele>
        <time>2014-01-30T14:00:58Z</time>
      </trkpt>
      <trkpt lat="45.38191" lon="6.6051">
        <ele>2484.44</ele>
        <time>2014-01-30T14:01:05Z</time>
      </trkpt>
      <trkpt lat="45.3822" lon="6.60472">
        <ele>2479.9</ele>
        <time>2014-01-30T14:03:48Z</time>
      </trkpt>
      <trkpt lat="45.38254" lon="6.60456">
        <ele>2468.4</ele>
        <time>2014-01-30T14:03:55Z</time>
      </trkpt>
      <trkpt lat="45.38277" lon="6.60425">
        <ele>2452.52</ele>
        <time>2014-01-30T14:04:01Z</time>
      </trkpt>
      <trkpt lat="45.38304" lon="6.60407">
        <ele>2441.53</ele>
        <time>2014-01-30T14:04:08Z</time>
      </trkpt>
      <trkpt lat="45.3834" lon="6.60385">
        <ele>2425.35</ele>
        <time>2014-01-30T14:04:15Z</time>
      </trkpt>
      <trkpt lat="45.38368" lon="6.60347">
        <ele>2410.45</ele>
        <time>2014-01-30T14:04:21Z</time>
      </trkpt>
      <trkpt lat="45.38405" lon="6.60348">
        <ele>2397.93</ele>
        <time>2014-01-30T14:04:27Z</time>
      </trkpt>
      <trkpt lat="45.38443" lon="6.60325">
        <ele>2388.22</ele>
        <time>2014-01-30T14:04:33Z</time>
      </trkpt>
      <trkpt lat="45.38474" lon="6.60287">
        <ele>2381.66</ele>
        <time>2014-01-30T14:04:39Z</time>
      </trkpt>
      <trkpt lat="45.38481" lon="6.60234">
        <ele>2365.71</ele>
        <time>2014-01-30T14:04:45Z</time>
      </trkpt>
      <trkpt lat="45.38492" lon="6.60179">
        <ele>2343.64</ele>
        <time>2014-01-30T14:04:52Z</time>
      </trkpt>
      <trkpt lat="45.38501" lon="6.6012">
        <ele>2321.66</ele>
        <time>2014-01-30T14:04:58Z</time>
      </trkpt>
      <trkpt lat="45.38512" lon="6.60063">
        <ele>2313.2</ele>
        <time>2014-01-30T14:05:03Z</time>
      </trkpt>
      <trkpt lat="45.38522" lon="6.60011">
        <ele>2304.97</ele>
        <time>2014-01-30T14:05:07Z</time>
      </trkpt>
      <trkpt lat="45.38529" lon="6.59947">
        <ele>2292.67</ele>
        <time>2014-01-30T14:05:12Z</time>
      </trkpt>
      <trkpt lat="45.38542" lon="6.59894">
        <ele>2283.53</ele>
        <time>2014-01-30T14:05:17Z</time>
      </trkpt>
      <trkpt lat="45.38558" lon="6.59829">
        <ele>2269.79</ele>
        <time>2014-01-30T14:05:22Z</time>
      </trkpt>
      <trkpt lat="45.3858" lon="6.59767">
        <ele>2257.59</ele>
        <time>2014-01-30T14:05:26Z</time>
      </trkpt>
      <trkpt lat="45.38616" lon="6.5972">
        <ele>2248.19</ele>
        <time>2014-01-30T14:05:32Z</time>
      </trkpt>
      <trkpt lat="45.38643" lon="6.59668">
        <ele>2242.59</ele>
        <time>2014-01-30T14:05:37Z</time>
      </trkpt>
      <trkpt lat="45.38671" lon="6.59618">
        <ele>2238.47</ele>
        <time>2014-01-30T14:05:44Z</time>
      </trkpt>
      <trkpt lat="45.38672" lon="6.59553">
        <ele>2229.44</ele>
        <time>2014-01-30T14:05:51Z</time>
      </trkpt>
      <trkpt lat="45.38668" lon="6.59495">
        <ele>2207.83</ele>
        <time>2014-01-30T14:05:55Z</time>
      </trkpt>
      <trkpt lat="45.38677" lon="6.59439">
        <ele>2197.32</ele>
        <time>2014-01-30T14:05:59Z</time>
      </trkpt>
      <trkpt lat="45.38684" lon="6.59368">
        <ele>2182.51</ele>
        <time>2014-01-30T14:06:05Z</time>
      </trkpt>
      <trkpt lat="45.38687" lon="6.59315">
        <ele>2171.91</ele>
        <time>2014-01-30T14:06:09Z</time>
      </trkpt>
      <trkpt lat="45.38707" lon="6.59267">
        <ele>2165.89</ele>
        <time>2014-01-30T14:06:14Z</time>
      </trkpt>
      <trkpt lat="45.38727" lon="6.59215">
        <ele>2158.7</ele>
        <time>2014-01-30T14:06:20Z</time>
      </trkpt>
      <trkpt lat="45.38741" lon="6.5916">
        <ele>2150.73</ele>
        <time>2014-01-30T14:06:27Z</time>
      </trkpt>
      <trkpt lat="45.3876" lon="6.59104">
        <ele>2137.88</ele>
        <time>2014-01-30T14:06:34Z</time>
      </trkpt>
      <trkpt lat="45.3877" lon="6.59028">
        <ele>2118.83</ele>
        <time>2014-01-30T14:06:39Z</time>
      </trkpt>
      <trkpt lat="45.38789" lon="6.58971">
        <ele>2113.4</ele>
        <time>2014-01-30T14:06:44Z</time>
      </trkpt>
      <trkpt lat="45.38797" lon="6.58916">
        <ele>2106.59</ele>
        <time>2014-01-30T14:06:53Z</time>
      </trkpt>
      <trkpt lat="45.38818" lon="6.58867">
        <ele>2097.11</ele>
        <time>2014-01-30T14:07:02Z</time>
      </trkpt>
      <trkpt lat="45.38828" lon="6.58822">
        <ele>2086.41</ele>
        <time>2014-01-30T14:07:09Z</time>
      </trkpt>
      <trkpt lat="45.38858" lon="6.58786">
        <ele>2075.65</ele>
        <time>2014-01-30T14:07:18Z</time>
      </trkpt>
      <trkpt lat="45.38863" lon="6.58736">
        <ele>2054.31</ele>
        <time>2014-01-30T14:07:26Z</time>
      </trkpt>
      <trkpt lat="45.38851" lon="6.58676">
        <ele>2027.88</ele>
        <time>2014-01-30T14:07:34Z</time>
      </trkpt>
      <trkpt lat="45.38831" lon="6.58654">
        <ele>2020.47</ele>
        <time>2014-01-30T14:07:42Z</time>
      </trkpt>
      <trkpt lat="45.38797" lon="6.5862">
        <ele>2004.01</ele>
        <time>2014-01-30T14:07:54Z</time>
      </trkpt>
      <trkpt lat="45.38777" lon="6.58576">
        <ele>1992.04</ele>
        <time>2014-01-30T14:08:02Z</time>
      </trkpt>
      <trkpt lat="45.38752" lon="6.58531">
        <ele>1976.99</ele>
        <time>2014-01-30T14:08:10Z</time>
      </trkpt>
      <trkpt lat="45.3875" lon="6.58476">
        <ele>1961.49</ele>
        <time>2014-01-30T14:08:17Z</time>
      </trkpt>
      <trkpt lat="45.38739" lon="6.58418">
        <ele>1940.35</ele>
        <time>2014-01-30T14:08:25Z</time>
      </trkpt>
      <trkpt lat="45.38764" lon="6.58366">
        <ele>1934.23</ele>
        <time>2014-01-30T14:08:29Z</time>
      </trkpt>
      <trkpt lat="45.38803" lon="6.58339">
        <ele>1932.86</ele>
        <time>2014-01-30T14:08:35Z</time>
      </trkpt>
      <trkpt lat="45.38843" lon="6.58315">
        <ele>1924.13</ele>
        <time>2014-01-30T14:08:41Z</time>
      </trkpt>
      <trkpt lat="45.38854" lon="6.58264">
        <ele>1908.45</ele>
        <time>2014-01-30T14:08:48Z</time>
      </trkpt>
      <trkpt lat="45.3889" lon="6.58231">
        <ele>1898.19</ele>
        <time>2014-01-30T14:08:54Z</time>
      </trkpt>
      <trkpt lat="45.3888" lon="6.58174">
        <ele>1886.27</ele>
        <time>2014-01-30T14:09:02Z</time>
      </trkpt>
      <trkpt lat="45.38896" lon="6.58123">
        <ele>1871.94</ele>
        <time>2014-01-30T14:09:07Z</time>
      </trkpt>
      <trkpt lat="45.38891" lon="6.58073">
        <ele>1850.83</ele>
        <time>2014-01-30T14:09:15Z</time>
      </trkpt>
      <trkpt lat="45.38857" lon="6.58043">
        <ele>1840.37</ele>
        <time>2014-01-30T14:09:25Z</time>
      </trkpt>
      <trkpt lat="45.38864" lon="6.57987">
        <ele>1820.33</ele>
        <time>2014-01-30T14:09:33Z</time>
      </trkpt>
      <trkpt lat="45.3888" lon="6.57939">
        <ele>1805.06</ele>
        <time>2014-01-30T14:09:41Z</time>
      </trkpt>
      <trkpt lat="45.38913" lon="6.57908">
        <ele>1793.52</ele>
        <time>2014-01-30T14:09:49Z</time>
      </trkpt>
      <trkpt lat="45.38952" lon="6.57898">
        <ele>1786.55</ele>
        <time>2014-01-30T14:09:56Z</time>
      </trkpt>
      <trkpt lat="45.38976" lon="6.5785">
        <ele>1768.33</ele>
        <time>2014-01-30T14:10:03Z</time>
      </trkpt>
      <trkpt lat="45.38981" lon="6.57792">
        <ele>1748.97</ele>
        <time>2014-01-30T14:10:09Z</time>
      </trkpt>
      <trkpt lat="45.39004" lon="6.57749">
        <ele>1731.51</ele>
        <time>2014-01-30T14:10:16Z</time>
      </trkpt>
      <trkpt lat="45.38975" lon="6.5771">
        <ele>1720.51</ele>
        <time>2014-01-30T14:10:22Z</time>
      </trkpt>
      <trkpt lat="45.38939" lon="6.57681">
        <ele>1713.01</ele>
        <time>2014-01-30T14:10:27Z</time>
      </trkpt>
      <trkpt lat="45.389" lon="6.57654">
        <ele>1702.18</ele>
        <time>2014-01-30T14:10:34Z</time>
      </trkpt>
      <trkpt lat="45.3886" lon="6.5764">
        <ele>1695.36</ele>
        <time>2014-01-30T14:10:42Z</time>
      </trkpt>
      <trkpt lat="45.38832" lon="6.57601">
        <ele>1678.43</ele>
        <time>2014-01-30T14:10:48Z</time>
      </trkpt>
      <trkpt lat="45.3882" lon="6.57539">
        <ele>1656.27</ele>
        <time>2014-01-30T14:10:58Z</time>
      </trkpt>
      <trkpt lat="45.38839" lon="6.57493">
        <ele>1641.34</ele>
        <time>2014-01-30T14:11:03Z</time>
      </trkpt>
      <trkpt lat="45.38864" lon="6.57434">
        <ele>1629.41</ele>
        <time>2014-01-30T14:11:09Z</time>
      </trkpt>
      <trkpt lat="45.38887" lon="6.57382">
        <ele>1624.69</ele>
        <time>2014-01-30T14:11:15Z</time>
      </trkpt>
      <trkpt lat="45.38905" lon="6.57331">
        <ele>1613.81</ele>
        <time>2014-01-30T14:11:22Z</time>
      </trkpt>
      <trkpt lat="45.38943" lon="6.57307">
        <ele>1605.47</ele>
        <time>2014-01-30T14:11:29Z</time>
      </trkpt>
      <trkpt lat="45.38975" lon="6.57286">
        <ele>1591.84</ele>
        <time>2014-01-30T14:11:35Z</time>
      </trkpt>
      <trkpt lat="45.38987" lon="6.57233">
        <ele>1575.67</ele>
        <time>2014-01-30T14:11:45Z</time>
      </trkpt>
      <trkpt lat="45.39018" lon="6.57198">
        <ele>1554.17</ele>
        <time>2014-01-30T14:11:53Z</time>
      </trkpt>
      <trkpt lat="45.39027" lon="6.57146">
        <ele>1532.46</ele>
        <time>2014-01-30T14:12:03Z</time>
      </trkpt>
      <trkpt lat="45.39057" lon="6.57113">
        <ele>1524.55</ele>
        <time>2014-01-30T14:12:13Z</time>
      </trkpt>
      <trkpt lat="45.39032" lon="6.57069">
        <ele>1507.98</ele>
        <time>2014-01-30T14:12:22Z</time>
      </trkpt>
      <trkpt lat="45.39023" lon="6.57021">
        <ele>1492.81</ele>
        <time>2014-01-30T14:12:57Z</time>
      </trkpt>
      <trkpt lat="45.39025" lon="6.56971">
        <ele>1477.96</ele>
        <time>2014-01-30T14:13:04Z</time>
      </trkpt>
      <trkpt lat="45.39061" lon="6.56923">
        <ele>1460.96</ele>
        <time>2014-01-30T14:13:10Z</time>
      </trkpt>
      <trkpt lat="45.39086" lon="6.56879">
        <ele>1447.11</ele>
        <time>2014-01-30T14:13:14Z</time>
      </trkpt>
      <trkpt lat="45.39125" lon="6.56859">
        <ele>1442.72</ele>
        <time>2014-01-30T14:13:19Z</time>
      </trkpt>
      <trkpt lat="45.39122" lon="6.56804">
        <ele>1439</ele>
        <time>2014-01-30T14:13:28Z</time>
      </trkpt>
      <trkpt lat="45.39121" lon="6.56747">
        <ele>1439</ele>
        <time>2014-01-30T14:13:43Z</time>
      </trkpt>
      <trkpt lat="45.39121" lon="6.56693">
        <ele>1439</ele>
        <time>2014-01-30T14:15:12Z</time>
      </trkpt>
      <trkpt lat="45.39116" lon="6.56639">
        <ele>1448.56</ele>
        <time>2014-01-30T14:15:34Z</time>
      </trkpt>
      <trkpt lat="45.39111" lon="6.56581">
        <ele>1459.53</ele>
        <time>2014-01-30T14:15:55Z</time>
      </trkpt>
      <trkpt lat="45.39109" lon="6.56528">
        <ele>1472.76</ele>
        <time>2014-01-30T14:16:12Z</time>
      </trkpt>
      <trkpt lat="45.39105" lon="6.56477">
        <ele>1488.75</ele>
        <time>2014-01-30T14:16:30Z</time>
      </trkpt>
      <trkpt lat="45.39101" lon="6.56425">
        <ele>1508.68</ele>
        <time>2014-01-30T14:16:49Z</time>
      </trkpt>
      <trkpt lat="45.39099" lon="6.56371">
        <ele>1531.2</ele>
        <time>2014-01-30T14:17:09Z</time>
      </trkpt>
      <trkpt lat="45.39095" lon="6.56316">
        <ele>1555.26</ele>
        <time>2014-01-30T14:17:37Z</time>
      </trkpt>
      <trkpt lat="45.39091" lon="6.56265">
        <ele>1571.61</ele>
        <time>2014-01-30T14:17:58Z</time>
      </trkpt>
      <trkpt lat="45.39087" lon="6.56211">
        <ele>1583.69</ele>
        <time>2014-01-30T14:18:17Z</time>
      </trkpt>
      <trkpt lat="45.39085" lon="6.56157">
        <ele>1594.53</ele>
        <time>2014-01-30T14:18:38Z</time>
      </trkpt>
      <trkpt lat="45.3908" lon="6.56102">
        <ele>1614.05</ele>
        <time>2014-01-30T14:19:00Z</time>
      </trkpt>
      <trkpt lat="45.39078" lon="6.5605">
        <ele>1633.07</ele>
        <time>2014-01-30T14:19:15Z</time>
      </trkpt>
      <trkpt lat="45.39075" lon="6.55997">
        <ele>1641.82</ele>
        <time>2014-01-30T14:19:38Z</time>
      </trkpt>
      <trkpt lat="45.39072" lon="6.55944">
        <ele>1649.56</ele>
        <time>2014-01-30T14:19:57Z</time>
      </trkpt>
      <trkpt lat="45.39068" lon="6.5589">
        <ele>1662.99</ele>
        <time>2014-01-30T14:20:16Z</time>
      </trkpt>
      <trkpt lat="45.39063" lon="6.55837">
        <ele>1682.89</ele>
        <time>2014-01-30T14:20:33Z</time>
      </trkpt>
      <trkpt lat="45.39063" lon="6.55783">
        <ele>1700.27</ele>
        <time>2014-01-30T14:20:55Z</time>
      </trkpt>
      <trkpt lat="45.3906" lon="6.55732">
        <ele>1714.94</ele>
        <time>2014-01-30T14:21:18Z</time>
      </trkpt>
      <trkpt lat="45.39053" lon="6.55676">
        <ele>1725.97</ele>
        <time>2014-01-30T14:21:39Z</time>
      </trkpt>
      <trkpt lat="45.39051" lon="6.55622">
        <ele>1734.47</ele>
        <time>2014-01-30T14:21:57Z</time>
      </trkpt>
      <trkpt lat="45.39047" lon="6.55566">
        <ele>1739.69</ele>
        <time>2014-01-30T14:22:16Z</time>
      </trkpt>
      <trkpt lat="45.39045" lon="6.55513">
        <ele>1742.14</ele>
        <time>2014-01-30T14:22:36Z</time>
      </trkpt>
      <trkpt lat="45.39042" lon="6.55458">
        <ele>1746.79</ele>
        <time>2014-01-30T14:22:53Z</time>
      </trkpt>
      <trkpt lat="45.39038" lon="6.55403">
        <ele>1752.96</ele>
        <time>2014-01-30T14:23:17Z</time>
      </trkpt>
      <trkpt lat="45.39034" lon="6.55348">
        <ele>1768.02</ele>
        <time>2014-01-30T14:23:38Z</time>
      </trkpt>
      <trkpt lat="45.3903" lon="6.55293">
        <ele>1792.48</ele>
        <time>2014-01-30T14:23:58Z</time>
      </trkpt>
      <trkpt lat="45.39026" lon="6.55239">
        <ele>1806.77</ele>
        <time>2014-01-30T14:24:15Z</time>
      </trkpt>
      <trkpt lat="45.39033" lon="6.55189">
        <ele>1811.99</ele>
        <time>2014-01-30T14:24:32Z</time>
      </trkpt>
      <trkpt lat="45.39055" lon="6.55245">
        <ele>1798.17</ele>
        <time>2014-01-30T14:24:39Z</time>
      </trkpt>
      <trkpt lat="45.39068" lon="6.5525">
        <ele>1795.7</ele>
        <time>2014-01-30T14:25:35Z</time>
      </trkpt>
      <trkpt lat="45.39078" lon="6.55194">
        <ele>1801.87</ele>
        <time>2014-01-30T14:25:44Z</time>
      </trkpt>
      <trkpt lat="45.39083" lon="6.55138">
        <ele>1809.11</ele>
        <time>2014-01-30T14:25:54Z</time>
      </trkpt>
      <trkpt lat="45.39091" lon="6.55085">
        <ele>1817.67</ele>
        <time>2014-01-30T14:26:04Z</time>
      </trkpt>
      <trkpt lat="45.39099" lon="6.55029">
        <ele>1833.3</ele>
        <time>2014-01-30T14:26:15Z</time>
      </trkpt>
      <trkpt lat="45.39106" lon="6.54974">
        <ele>1845.65</ele>
        <time>2014-01-30T14:26:25Z</time>
      </trkpt>
      <trkpt lat="45.39111" lon="6.5492">
        <ele>1861.74</ele>
        <time>2014-01-30T14:26:35Z</time>
      </trkpt>
      <trkpt lat="45.39119" lon="6.54863">
        <ele>1883.58</ele>
        <time>2014-01-30T14:26:46Z</time>
      </trkpt>
      <trkpt lat="45.39126" lon="6.54806">
        <ele>1893.54</ele>
        <time>2014-01-30T14:26:57Z</time>
      </trkpt>
      <trkpt lat="45.39133" lon="6.54751">
        <ele>1902.94</ele>
        <time>2014-01-30T14:27:07Z</time>
      </trkpt>
      <trkpt lat="45.39138" lon="6.54696">
        <ele>1917.69</ele>
        <time>2014-01-30T14:27:17Z</time>
      </trkpt>
      <trkpt lat="45.39146" lon="6.54643">
        <ele>1931.48</ele>
        <time>2014-01-30T14:27:27Z</time>
      </trkpt>
      <trkpt lat="45.39153" lon="6.54592">
        <ele>1948.29</ele>
        <time>2014-01-30T14:27:37Z</time>
      </trkpt>
      <trkpt lat="45.39153" lon="6.54535">
        <ele>1964.36</ele>
        <time>2014-01-30T14:27:47Z</time>
      </trkpt>
      <trkpt lat="45.39163" lon="6.54482">
        <ele>1976.52</ele>
        <time>2014-01-30T14:27:57Z</time>
      </trkpt>
      <trkpt lat="45.3917" lon="6.54429">
        <ele>1987.28</ele>
        <time>2014-01-30T14:28:07Z</time>
      </trkpt>
      <trkpt lat="45.39175" lon="6.54372">
        <ele>1993.31</ele>
        <time>2014-01-30T14:28:17Z</time>
      </trkpt>
      <trkpt lat="45.3918" lon="6.54315">
        <ele>2000.96</ele>
        <time>2014-01-30T14:28:28Z</time>
      </trkpt>
      <trkpt lat="45.39186" lon="6.5426">
        <ele>2021.17</ele>
        <time>2014-01-30T14:28:39Z</time>
      </trkpt>
      <trkpt lat="45.39194" lon="6.54203">
        <ele>2054.34</ele>
        <time>2014-01-30T14:28:51Z</time>
      </trkpt>
      <trkpt lat="45.39199" lon="6.54146">
        <ele>2086.78</ele>
        <time>2014-01-30T14:29:03Z</time>
      </trkpt>
      <trkpt lat="45.39204" lon="6.54088">
        <ele>2116.88</ele>
        <time>2014-01-30T14:29:15Z</time>
      </trkpt>
      <trkpt lat="45.39207" lon="6.54036">
        <ele>2144.9</ele>
        <time>2014-01-30T14:29:25Z</time>
      </trkpt>
      <trkpt lat="45.39203" lon="6.53977">
        <ele>2182.37</ele>
        <time>2014-01-30T14:29:36Z</time>
      </trkpt>
      <trkpt lat="45.39199" lon="6.53924">
        <ele>2213.93</ele>
        <time>2014-01-30T14:29:47Z</time>
      </trkpt>
      <trkpt lat="45.39207" lon="6.53869">
        <ele>2215.68</ele>
        <time>2014-01-30T14:29:58Z</time>
      </trkpt>
      <trkpt lat="45.39214" lon="6.53817">
        <ele>2223.59</ele>
        <time>2014-01-30T14:30:08Z</time>
      </trkpt>
      <trkpt lat="45.39224" lon="6.53764">
        <ele>2236.28</ele>
        <time>2014-01-30T14:30:19Z</time>
      </trkpt>
      <trkpt lat="45.39248" lon="6.5372">
        <ele>2252.59</ele>
        <time>2014-01-30T14:30:29Z</time>
      </trkpt>
      <trkpt lat="45.39257" lon="6.53663">
        <ele>2275.86</ele>
        <time>2014-01-30T14:30:40Z</time>
      </trkpt>
      <trkpt lat="45.39264" lon="6.53609">
        <ele>2288.53</ele>
        <time>2014-01-30T14:30:53Z</time>
      </trkpt>
      <trkpt lat="45.3924" lon="6.5358">
        <ele>2283.11</ele>
        <time>2014-01-30T14:32:00Z</time>
      </trkpt>
      <trkpt lat="45.39203" lon="6.53576">
        <ele>2282.06</ele>
        <time>2014-01-30T14:32:14Z</time>
      </trkpt>
      <trkpt lat="45.39167" lon="6.53579">
        <ele>2268.43</ele>
        <time>2014-01-30T14:32:25Z</time>
      </trkpt>
      <trkpt lat="45.39127" lon="6.53606">
        <ele>2267.73</ele>
        <time>2014-01-30T14:32:32Z</time>
      </trkpt>
      <trkpt lat="45.39107" lon="6.53652">
        <ele>2270.45</ele>
        <time>2014-01-30T14:32:40Z</time>
      </trkpt>
      <trkpt lat="45.39092" lon="6.53704">
        <ele>2270.27</ele>
        <time>2014-01-30T14:33:17Z</time>
      </trkpt>
      <trkpt lat="45.39066" lon="6.53747">
        <ele>2267.55</ele>
        <time>2014-01-30T14:33:24Z</time>
      </trkpt>
      <trkpt lat="45.39039" lon="6.53791">
        <ele>2265.89</ele>
        <time>2014-01-30T14:33:32Z</time>
      </trkpt>
      <trkpt lat="45.39011" lon="6.53828">
        <ele>2258.47</ele>
        <time>2014-01-30T14:33:41Z</time>
      </trkpt>
      <trkpt lat="45.38974" lon="6.53861">
        <ele>2244.96</ele>
        <time>2014-01-30T14:33:48Z</time>
      </trkpt>
      <trkpt lat="45.3896" lon="6.53904">
        <ele>2221.84</ele>
        <time>2014-01-30T14:34:01Z</time>
      </trkpt>
      <trkpt lat="45.38929" lon="6.53925">
        <ele>2217.91</ele>
        <time>2014-01-30T14:34:16Z</time>
      </trkpt>
      <trkpt lat="45.38943" lon="6.53972">
        <ele>2192.57</ele>
        <time>2014-01-30T14:34:29Z</time>
      </trkpt>
      <trkpt lat="45.38919" lon="6.54015">
        <ele>2175.33</ele>
        <time>2014-01-30T14:34:41Z</time>
      </trkpt>
      <trkpt lat="45.38898" lon="6.54053">
        <ele>2157.34</ele>
        <time>2014-01-30T14:34:53Z</time>
      </trkpt>
      <trkpt lat="45.38881" lon="6.54102">
        <ele>2132.45</ele>
        <time>2014-01-30T14:35:08Z</time>
      </trkpt>
      <trkpt lat="45.38869" lon="6.54148">
        <ele>2116.13</ele>
        <time>2014-01-30T14:35:23Z</time>
      </trkpt>
      <trkpt lat="45.38856" lon="6.54193">
        <ele>2099.46</ele>
        <time>2014-01-30T14:35:35Z</time>
      </trkpt>
      <trkpt lat="45.38848" lon="6.54246">
        <ele>2087.06</ele>
        <time>2014-01-30T14:35:46Z</time>
      </trkpt>
      <trkpt lat="45.38845" lon="6.54295">
        <ele>2073.24</ele>
        <time>2014-01-30T14:35:56Z</time>
      </trkpt>
      <trkpt lat="45.38849" lon="6.54348">
        <ele>2059.78</ele>
        <time>2014-01-30T14:36:05Z</time>
      </trkpt>
      <trkpt lat="45.38883" lon="6.54374">
        <ele>2051.68</ele>
        <time>2014-01-30T14:36:15Z</time>
      </trkpt>
      <trkpt lat="45.38903" lon="6.54406">
        <ele>2037.73</ele>
        <time>2014-01-30T14:36:24Z</time>
      </trkpt>
      <trkpt lat="45.38932" lon="6.54444">
        <ele>2018.83</ele>
        <time>2014-01-30T14:36:36Z</time>
      </trkpt>
      <trkpt lat="45.38955" lon="6.54469">
        <ele>2001.5</ele>
        <time>2014-01-30T14:36:45Z</time>
      </trkpt>
      <trkpt lat="45.38981" lon="6.54508">
        <ele>1983.54</ele>
        <time>2014-01-30T14:36:54Z</time>
      </trkpt>
      <trkpt lat="45.38996" lon="6.54566">
        <ele>1964.44</ele>
        <time>2014-01-30T14:37:03Z</time>
      </trkpt>
      <trkpt lat="45.38994" lon="6.54636">
        <ele>1947.09</ele>
        <time>2014-01-30T14:37:09Z</time>
      </trkpt>
      <trkpt lat="45.38983" lon="6.54705">
        <ele>1933.98</ele>
        <time>2014-01-30T14:37:14Z</time>
      </trkpt>
      <trkpt lat="45.38974" lon="6.54768">
        <ele>1923.54</ele>
        <time>2014-01-30T14:37:22Z</time>
      </trkpt>
      <trkpt lat="45.38989" lon="6.548">
        <ele>1918.54</ele>
        <time>2014-01-30T14:37:30Z</time>
      </trkpt>
      <trkpt lat="45.38992" lon="6.54849">
        <ele>1907.23</ele>
        <time>2014-01-30T14:37:41Z</time>
      </trkpt>
      <trkpt lat="45.38998" lon="6.54895">
        <ele>1890.11</ele>
        <time>2014-01-30T14:37:52Z</time>
      </trkpt>
      <trkpt lat="45.39034" lon="6.54919">
        <ele>1878.07</ele>
        <time>2014-01-30T14:38:02Z</time>
      </trkpt>
      <trkpt lat="45.39037" lon="6.54974">
        <ele>1849.08</ele>
        <time>2014-01-30T14:38:18Z</time>
      </trkpt>
      <trkpt lat="45.39055" lon="6.55025">
        <ele>1831.27</ele>
        <time>2014-01-30T14:38:26Z</time>
      </trkpt>
      <trkpt lat="45.39065" lon="6.55077">
        <ele>1820.71</ele>
        <time>2014-01-30T14:38:33Z</time>
      </trkpt>
      <trkpt lat="45.39071" lon="6.5514">
        <ele>1809.79</ele>
        <time>2014-01-30T14:38:53Z</time>
      </trkpt>
      <trkpt lat="45.39083" lon="6.55189">
        <ele>1801.95</ele>
        <time>2014-01-30T14:38:59Z</time>
      </trkpt>
      <trkpt lat="45.39098" lon="6.55245">
        <ele>1793.15</ele>
        <time>2014-01-30T14:39:06Z</time>
      </trkpt>
      <trkpt lat="45.39096" lon="6.55304">
        <ele>1787.26</ele>
        <time>2014-01-30T14:39:14Z</time>
      </trkpt>
      <trkpt lat="45.39101" lon="6.55364">
        <ele>1776.41</ele>
        <time>2014-01-30T14:39:21Z</time>
      </trkpt>
      <trkpt lat="45.39101" lon="6.55423">
        <ele>1762.73</ele>
        <time>2014-01-30T14:39:27Z</time>
      </trkpt>
      <trkpt lat="45.39091" lon="6.55486">
        <ele>1748.38</ele>
        <time>2014-01-30T14:39:32Z</time>
      </trkpt>
      <trkpt lat="45.3906" lon="6.55529">
        <ele>1740.31</ele>
        <time>2014-01-30T14:39:39Z</time>
      </trkpt>
      <trkpt lat="45.3904" lon="6.5558">
        <ele>1739.24</ele>
        <time>2014-01-30T14:39:46Z</time>
      </trkpt>
      <trkpt lat="45.39074" lon="6.55611">
        <ele>1732.43</ele>
        <time>2014-01-30T14:39:52Z</time>
      </trkpt>
      <trkpt lat="45.39105" lon="6.55615">
        <ele>1723.31</ele>
        <time>2014-01-30T14:39:59Z</time>
      </trkpt>
      <trkpt lat="45.39143" lon="6.55616">
        <ele>1713.37</ele>
        <time>2014-01-30T14:40:07Z</time>
      </trkpt>
      <trkpt lat="45.39185" lon="6.55623">
        <ele>1698.09</ele>
        <time>2014-01-30T14:40:16Z</time>
      </trkpt>
      <trkpt lat="45.39226" lon="6.55618">
        <ele>1685.9</ele>
        <time>2014-01-30T14:40:23Z</time>
      </trkpt>
      <trkpt lat="45.39266" lon="6.55632">
        <ele>1668</ele>
        <time>2014-01-30T14:40:30Z</time>
      </trkpt>
      <trkpt lat="45.39295" lon="6.55677">
        <ele>1653.36</ele>
        <time>2014-01-30T14:40:37Z</time>
      </trkpt>
      <trkpt lat="45.39278" lon="6.55731">
        <ele>1634.51</ele>
        <time>2014-01-30T14:40:46Z</time>
      </trkpt>
      <trkpt lat="45.39259" lon="6.55794">
        <ele>1631.17</ele>
        <time>2014-01-30T14:40:50Z</time>
      </trkpt>
      <trkpt lat="45.39244" lon="6.55855">
        <ele>1623.23</ele>
        <time>2014-01-30T14:40:56Z</time>
      </trkpt>
      <trkpt lat="45.39242" lon="6.55921">
        <ele>1611.76</ele>
        <time>2014-01-30T14:41:03Z</time>
      </trkpt>
      <trkpt lat="45.39247" lon="6.55982">
        <ele>1609.59</ele>
        <time>2014-01-30T14:41:09Z</time>
      </trkpt>
      <trkpt lat="45.39253" lon="6.56037">
        <ele>1600.39</ele>
        <time>2014-01-30T14:41:17Z</time>
      </trkpt>
      <trkpt lat="45.39288" lon="6.5606">
        <ele>1587.7</ele>
        <time>2014-01-30T14:41:25Z</time>
      </trkpt>
      <trkpt lat="45.39303" lon="6.56103">
        <ele>1574.57</ele>
        <time>2014-01-30T14:41:34Z</time>
      </trkpt>
      <trkpt lat="45.39318" lon="6.56145">
        <ele>1557.52</ele>
        <time>2014-01-30T14:41:42Z</time>
      </trkpt>
      <trkpt lat="45.39334" lon="6.56193">
        <ele>1539.43</ele>
        <time>2014-01-30T14:41:51Z</time>
      </trkpt>
      <trkpt lat="45.39334" lon="6.56253">
        <ele>1522.57</ele>
        <time>2014-01-30T14:41:59Z</time>
      </trkpt>
      <trkpt lat="45.39314" lon="6.56302">
        <ele>1510.55</ele>
        <time>2014-01-30T14:42:06Z</time>
      </trkpt>
      <trkpt lat="45.39286" lon="6.56348">
        <ele>1503.8</ele>
        <time>2014-01-30T14:42:13Z</time>
      </trkpt>
      <trkpt lat="45.39268" lon="6.56397">
        <ele>1497.43</ele>
        <time>2014-01-30T14:42:21Z</time>
      </trkpt>
      <trkpt lat="45.3928" lon="6.5645">
        <ele>1489.71</ele>
        <time>2014-01-30T14:42:29Z</time>
      </trkpt>
      <trkpt lat="45.3929" lon="6.56499">
        <ele>1477.43</ele>
        <time>2014-01-30T14:42:40Z</time>
      </trkpt>
      <trkpt lat="45.39279" lon="6.56551">
        <ele>1463.57</ele>
        <time>2014-01-30T14:42:48Z</time>
      </trkpt>
      <trkpt lat="45.39251" lon="6.56596">
        <ele>1446.51</ele>
        <time>2014-01-30T14:42:56Z</time>
      </trkpt>
      <trkpt lat="45.39223" lon="6.5664">
        <ele>1435.19</ele>
        <time>2014-01-30T14:43:02Z</time>
      </trkpt>
      <trkpt lat="45.39207" lon="6.56695">
        <ele>1438.55</ele>
        <time>2014-01-30T14:43:06Z</time>
      </trkpt>
      <trkpt lat="45.39183" lon="6.56751">
        <ele>1439</ele>
        <time>2014-01-30T14:43:15Z</time>
      </trkpt>
      <trkpt lat="45.39146" lon="6.56762">
        <ele>1439</ele>
        <time>2014-01-30T14:43:37Z</time>
      </trkpt>
      <trkpt lat="45.39122" lon="6.56722">
        <ele>1439</ele>
        <time>2014-01-30T14:44:31Z</time>
      </trkpt>
      <trkpt lat="45.3912" lon="6.56669">
        <ele>1439</ele>
        <time>2014-01-30T14:44:48Z</time>
      </trkpt>
      <trkpt lat="45.39113" lon="6.56615">
        <ele>1453.87</ele>
        <time>2014-01-30T14:45:09Z</time>
      </trkpt>
      <trkpt lat="45.39111" lon="6.56563">
        <ele>1464.46</ele>
        <time>2014-01-30T14:45:27Z</time>
      </trkpt>
      <trkpt lat="45.39107" lon="6.56508">
        <ele>1478.86</ele>
        <time>2014-01-30T14:45:48Z</time>
      </trkpt>
      <trkpt lat="45.39103" lon="6.56453">
        <ele>1496.21</ele>
        <time>2014-01-30T14:46:10Z</time>
      </trkpt>
      <trkpt lat="45.391" lon="6.564">
        <ele>1519.55</ele>
        <time>2014-01-30T14:46:30Z</time>
      </trkpt>
      <trkpt lat="45.39097" lon="6.56344">
        <ele>1543.54</ele>
        <time>2014-01-30T14:46:56Z</time>
      </trkpt>
      <trkpt lat="45.39095" lon="6.56291">
        <ele>1562.76</ele>
        <time>2014-01-30T14:47:16Z</time>
      </trkpt>
      <trkpt lat="45.3909" lon="6.56239">
        <ele>1578.16</ele>
        <time>2014-01-30T14:47:36Z</time>
      </trkpt>
      <trkpt lat="45.39087" lon="6.56176">
        <ele>1589.4</ele>
        <time>2014-01-30T14:47:59Z</time>
      </trkpt>
      <trkpt lat="45.39084" lon="6.56122">
        <ele>1605.43</ele>
        <time>2014-01-30T14:48:20Z</time>
      </trkpt>
      <trkpt lat="45.39081" lon="6.5607">
        <ele>1626.42</ele>
        <time>2014-01-30T14:48:39Z</time>
      </trkpt>
      <trkpt lat="45.39076" lon="6.56017">
        <ele>1639.57</ele>
        <time>2014-01-30T14:48:55Z</time>
      </trkpt>
      <trkpt lat="45.39072" lon="6.55964">
        <ele>1645.97</ele>
        <time>2014-01-30T14:49:16Z</time>
      </trkpt>
      <trkpt lat="45.3907" lon="6.55909">
        <ele>1657.73</ele>
        <time>2014-01-30T14:49:38Z</time>
      </trkpt>
      <trkpt lat="45.39064" lon="6.55854">
        <ele>1677.44</ele>
        <time>2014-01-30T14:49:57Z</time>
      </trkpt>
      <trkpt lat="45.39062" lon="6.55801">
        <ele>1694</ele>
        <time>2014-01-30T14:50:18Z</time>
      </trkpt>
      <trkpt lat="45.39058" lon="6.55749">
        <ele>1712.04</ele>
        <time>2014-01-30T14:50:37Z</time>
      </trkpt>
      <trkpt lat="45.39057" lon="6.55694">
        <ele>1722.66</ele>
        <time>2014-01-30T14:50:56Z</time>
      </trkpt>
      <trkpt lat="45.39052" lon="6.55642">
        <ele>1730.08</ele>
        <time>2014-01-30T14:51:16Z</time>
      </trkpt>
      <trkpt lat="45.39051" lon="6.5559">
        <ele>1738.05</ele>
        <time>2014-01-30T14:51:34Z</time>
      </trkpt>
      <trkpt lat="45.39045" lon="6.55535">
        <ele>1740.68</ele>
        <time>2014-01-30T14:51:54Z</time>
      </trkpt>
      <trkpt lat="45.39042" lon="6.55479">
        <ele>1745.37</ele>
        <time>2014-01-30T14:52:15Z</time>
      </trkpt>
      <trkpt lat="45.3904" lon="6.55423">
        <ele>1749.96</ele>
        <time>2014-01-30T14:52:35Z</time>
      </trkpt>
      <trkpt lat="45.39034" lon="6.55369">
        <ele>1759.69</ele>
        <time>2014-01-30T14:52:55Z</time>
      </trkpt>
      <trkpt lat="45.39031" lon="6.55312">
        <ele>1785.34</ele>
        <time>2014-01-30T14:53:17Z</time>
      </trkpt>
      <trkpt lat="45.39028" lon="6.55259">
        <ele>1802.02</ele>
        <time>2014-01-30T14:53:35Z</time>
      </trkpt>
      <trkpt lat="45.39025" lon="6.55202">
        <ele>1812.59</ele>
        <time>2014-01-30T14:53:54Z</time>
      </trkpt>
      <trkpt lat="45.39044" lon="6.55251">
        <ele>1799.72</ele>
        <time>2014-01-30T14:54:06Z</time>
      </trkpt>
      <trkpt lat="45.39068" lon="6.55261">
        <ele>1793.68</ele>
        <time>2014-01-30T14:55:03Z</time>
      </trkpt>
      <trkpt lat="45.39077" lon="6.55201">
        <ele>1801.1</ele>
        <time>2014-01-30T14:55:13Z</time>
      </trkpt>
      <trkpt lat="45.39086" lon="6.55145">
        <ele>1807.73</ele>
        <time>2014-01-30T14:55:23Z</time>
      </trkpt>
      <trkpt lat="45.39093" lon="6.5509">
        <ele>1816.52</ele>
        <time>2014-01-30T14:55:34Z</time>
      </trkpt>
      <trkpt lat="45.39102" lon="6.55034">
        <ele>1831.73</ele>
        <time>2014-01-30T14:55:45Z</time>
      </trkpt>
      <trkpt lat="45.3911" lon="6.54976">
        <ele>1845.24</ele>
        <time>2014-01-30T14:55:57Z</time>
      </trkpt>
      <trkpt lat="45.39118" lon="6.5492">
        <ele>1862.32</ele>
        <time>2014-01-30T14:56:09Z</time>
      </trkpt>
      <trkpt lat="45.39124" lon="6.54865">
        <ele>1882.88</ele>
        <time>2014-01-30T14:56:20Z</time>
      </trkpt>
      <trkpt lat="45.3913" lon="6.54814">
        <ele>1892.54</ele>
        <time>2014-01-30T14:56:30Z</time>
      </trkpt>
      <trkpt lat="45.39135" lon="6.54759">
        <ele>1900.88</ele>
        <time>2014-01-30T14:56:41Z</time>
      </trkpt>
      <trkpt lat="45.39142" lon="6.54703">
        <ele>1915.64</ele>
        <time>2014-01-30T14:56:52Z</time>
      </trkpt>
      <trkpt lat="45.3915" lon="6.54648">
        <ele>1929.99</ele>
        <time>2014-01-30T14:57:00Z</time>
      </trkpt>
      <trkpt lat="45.39157" lon="6.54595">
        <ele>1947.04</ele>
        <time>2014-01-30T14:57:12Z</time>
      </trkpt>
      <trkpt lat="45.39162" lon="6.54529">
        <ele>1964.97</ele>
        <time>2014-01-30T14:57:19Z</time>
      </trkpt>
      <trkpt lat="45.3917" lon="6.54471">
        <ele>1978.84</ele>
        <time>2014-01-30T14:57:29Z</time>
      </trkpt>
      <trkpt lat="45.39175" lon="6.54416">
        <ele>1988.35</ele>
        <time>2014-01-30T14:57:39Z</time>
      </trkpt>
      <trkpt lat="45.39181" lon="6.54359">
        <ele>1993.69</ele>
        <time>2014-01-30T14:57:49Z</time>
      </trkpt>
      <trkpt lat="45.39177" lon="6.54306">
        <ele>2003.71</ele>
        <time>2014-01-30T14:57:59Z</time>
      </trkpt>
      <trkpt lat="45.39166" lon="6.54251">
        <ele>2032.59</ele>
        <time>2014-01-30T14:58:10Z</time>
      </trkpt>
      <trkpt lat="45.3915" lon="6.54199">
        <ele>2059.86</ele>
        <time>2014-01-30T14:58:21Z</time>
      </trkpt>
      <trkpt lat="45.39137" lon="6.54146">
        <ele>2087.02</ele>
        <time>2014-01-30T14:58:32Z</time>
      </trkpt>
      <trkpt lat="45.39168" lon="6.54113">
        <ele>2101.26</ele>
        <time>2014-01-30T14:58:37Z</time>
      </trkpt>
      <trkpt lat="45.3918" lon="6.54091">
        <ele>2120.7</ele>
        <time>2014-01-30T14:58:40Z</time>
      </trkpt>
      <trkpt lat="45.39187" lon="6.54066">
        <ele>2138.22</ele>
        <time>2014-01-30T14:58:45Z</time>
      </trkpt>
      <trkpt lat="45.39191" lon="6.5404">
        <ele>2152.5</ele>
        <time>2014-01-30T14:58:50Z</time>
      </trkpt>
      <trkpt lat="45.39194" lon="6.54011">
        <ele>2165.03</ele>
        <time>2014-01-30T14:58:56Z</time>
      </trkpt>
      <trkpt lat="45.39197" lon="6.53983">
        <ele>2181.42</ele>
        <time>2014-01-30T14:59:02Z</time>
      </trkpt>
      <trkpt lat="45.39208" lon="6.53961">
        <ele>2191.85</ele>
        <time>2014-01-30T14:59:08Z</time>
      </trkpt>
      <trkpt lat="45.39216" lon="6.53938">
        <ele>2200.45</ele>
        <time>2014-01-30T14:59:13Z</time>
      </trkpt>
      <trkpt lat="45.39227" lon="6.53912">
        <ele>2203.24</ele>
        <time>2014-01-30T14:59:20Z</time>
      </trkpt>
      <trkpt lat="45.39232" lon="6.53885">
        <ele>2203.84</ele>
        <time>2014-01-30T14:59:25Z</time>
      </trkpt>
      <trkpt lat="45.39236" lon="6.53859">
        <ele>2204.91</ele>
        <time>2014-01-30T14:59:30Z</time>
      </trkpt>
      <trkpt lat="45.39239" lon="6.53833">
        <ele>2206.59</ele>
        <time>2014-01-30T14:59:36Z</time>
      </trkpt>
      <trkpt lat="45.39242" lon="6.53804">
        <ele>2215.22</ele>
        <time>2014-01-30T14:59:42Z</time>
      </trkpt>
      <trkpt lat="45.39244" lon="6.53775">
        <ele>2226.86</ele>
        <time>2014-01-30T14:59:47Z</time>
      </trkpt>
      <trkpt lat="45.39245" lon="6.53746">
        <ele>2240.71</ele>
        <time>2014-01-30T14:59:53Z</time>
      </trkpt>
      <trkpt lat="45.39246" lon="6.53716">
        <ele>2255.02</ele>
        <time>2014-01-30T14:59:59Z</time>
      </trkpt>
      <trkpt lat="45.39249" lon="6.53687">
        <ele>2267.48</ele>
        <time>2014-01-30T15:00:05Z</time>
      </trkpt>
      <trkpt lat="45.3925" lon="6.53658">
        <ele>2277.63</ele>
        <time>2014-01-30T15:00:11Z</time>
      </trkpt>
      <trkpt lat="45.39252" lon="6.53633">
        <ele>2286.51</ele>
        <time>2014-01-30T15:00:18Z</time>
      </trkpt>
      <trkpt lat="45.39243" lon="6.53609">
        <ele>2287.97</ele>
        <time>2014-01-30T15:00:31Z</time>
      </trkpt>
      <trkpt lat="45.39225" lon="6.53596">
        <ele>2286.74</ele>
        <time>2014-01-30T15:00:37Z</time>
      </trkpt>
      <trkpt lat="45.39206" lon="6.53587">
        <ele>2283.69</ele>
        <time>2014-01-30T15:00:46Z</time>
      </trkpt>
      <trkpt lat="45.39188" lon="6.53584">
        <ele>2278.93</ele>
        <time>2014-01-30T15:00:54Z</time>
      </trkpt>
      <trkpt lat="45.39166" lon="6.53586">
        <ele>2269.33</ele>
        <time>2014-01-30T15:01:00Z</time>
      </trkpt>
      <trkpt lat="45.39143" lon="6.53597">
        <ele>2269.22</ele>
        <time>2014-01-30T15:01:04Z</time>
      </trkpt>
      <trkpt lat="45.39125" lon="6.53602">
        <ele>2266.96</ele>
        <time>2014-01-30T15:01:06Z</time>
      </trkpt>
      <trkpt lat="45.39105" lon="6.53604">
        <ele>2264.41</ele>
        <time>2014-01-30T15:01:08Z</time>
      </trkpt>
      <trkpt lat="45.39081" lon="6.5361">
        <ele>2262.6</ele>
        <time>2014-01-30T15:01:11Z</time>
      </trkpt>
      <trkpt lat="45.39054" lon="6.53604">
        <ele>2258.56</ele>
        <time>2014-01-30T15:01:14Z</time>
      </trkpt>
      <trkpt lat="45.39034" lon="6.53603">
        <ele>2254.35</ele>
        <time>2014-01-30T15:01:16Z</time>
      </trkpt>
      <trkpt lat="45.39013" lon="6.536">
        <ele>2248.35</ele>
        <time>2014-01-30T15:01:19Z</time>
      </trkpt>
      <trkpt lat="45.38993" lon="6.536">
        <ele>2243.96</ele>
        <time>2014-01-30T15:01:22Z</time>
      </trkpt>
      <trkpt lat="45.38969" lon="6.53603">
        <ele>2242.2</ele>
        <time>2014-01-30T15:01:25Z</time>
      </trkpt>
      <trkpt lat="45.38949" lon="6.53597">
        <ele>2240.46</ele>
        <time>2014-01-30T15:01:27Z</time>
      </trkpt>
      <trkpt lat="45.38929" lon="6.53591">
        <ele>2236.03</ele>
        <time>2014-01-30T15:01:29Z</time>
      </trkpt>
      <trkpt lat="45.38906" lon="6.53592">
        <ele>2230.44</ele>
        <time>2014-01-30T15:01:32Z</time>
      </trkpt>
      <trkpt lat="45.38885" lon="6.53601">
        <ele>2225.23</ele>
        <time>2014-01-30T15:01:35Z</time>
      </trkpt>
      <trkpt lat="45.3887" lon="6.53619">
        <ele>2222.36</ele>
        <time>2014-01-30T15:01:55Z</time>
      </trkpt>
      <trkpt lat="45.38863" lon="6.53644">
        <ele>2220.71</ele>
        <time>2014-01-30T15:02:00Z</time>
      </trkpt>
      <trkpt lat="45.38853" lon="6.53676">
        <ele>2217.7</ele>
        <time>2014-01-30T15:02:04Z</time>
      </trkpt>
      <trkpt lat="45.38843" lon="6.53707">
        <ele>2217.54</ele>
        <time>2014-01-30T15:02:07Z</time>
      </trkpt>
      <trkpt lat="45.38833" lon="6.53738">
        <ele>2219.59</ele>
        <time>2014-01-30T15:02:10Z</time>
      </trkpt>
      <trkpt lat="45.38821" lon="6.5376">
        <ele>2216.67</ele>
        <time>2014-01-30T15:02:13Z</time>
      </trkpt>
      <trkpt lat="45.38802" lon="6.5378">
        <ele>2207.23</ele>
        <time>2014-01-30T15:02:19Z</time>
      </trkpt>
      <trkpt lat="45.38778" lon="6.53785">
        <ele>2197.58</ele>
        <time>2014-01-30T15:02:23Z</time>
      </trkpt>
      <trkpt lat="45.38766" lon="6.53815">
        <ele>2186.29</ele>
        <time>2014-01-30T15:02:27Z</time>
      </trkpt>
      <trkpt lat="45.38767" lon="6.53854">
        <ele>2182.61</ele>
        <time>2014-01-30T15:02:30Z</time>
      </trkpt>
      <trkpt lat="45.38776" lon="6.53888">
        <ele>2180.24</ele>
        <time>2014-01-30T15:02:33Z</time>
      </trkpt>
      <trkpt lat="45.38765" lon="6.53913">
        <ele>2169.88</ele>
        <time>2014-01-30T15:02:38Z</time>
      </trkpt>
      <trkpt lat="45.38753" lon="6.53935">
        <ele>2164</ele>
        <time>2014-01-30T15:02:41Z</time>
      </trkpt>
      <trkpt lat="45.38735" lon="6.53947">
        <ele>2155.89</ele>
        <time>2014-01-30T15:02:44Z</time>
      </trkpt>
      <trkpt lat="45.38722" lon="6.53974">
        <ele>2154.27</ele>
        <time>2014-01-30T15:02:48Z</time>
      </trkpt>
      <trkpt lat="45.38706" lon="6.53987">
        <ele>2147.71</ele>
        <time>2014-01-30T15:02:53Z</time>
      </trkpt>
      <trkpt lat="45.38692" lon="6.53966">
        <ele>2138.35</ele>
        <time>2014-01-30T15:02:59Z</time>
      </trkpt>
      <trkpt lat="45.38693" lon="6.53939">
        <ele>2136.66</ele>
        <time>2014-01-30T15:03:02Z</time>
      </trkpt>
      <trkpt lat="45.38684" lon="6.53914">
        <ele>2133.12</ele>
        <time>2014-01-30T15:03:07Z</time>
      </trkpt>
      <trkpt lat="45.38667" lon="6.53927">
        <ele>2126.81</ele>
        <time>2014-01-30T15:03:13Z</time>
      </trkpt>
      <trkpt lat="45.38647" lon="6.53924">
        <ele>2120.53</ele>
        <time>2014-01-30T15:03:21Z</time>
      </trkpt>
      <trkpt lat="45.38629" lon="6.53914">
        <ele>2113.04</ele>
        <time>2014-01-30T15:03:25Z</time>
      </trkpt>
      <trkpt lat="45.38611" lon="6.53899">
        <ele>2103.04</ele>
        <time>2014-01-30T15:03:30Z</time>
      </trkpt>
      <trkpt lat="45.38589" lon="6.53879">
        <ele>2095.71</ele>
        <time>2014-01-30T15:03:35Z</time>
      </trkpt>
      <trkpt lat="45.38565" lon="6.53858">
        <ele>2099.05</ele>
        <time>2014-01-30T15:03:38Z</time>
      </trkpt>
      <trkpt lat="45.38545" lon="6.53844">
        <ele>2099.7</ele>
        <time>2014-01-30T15:03:40Z</time>
      </trkpt>
      <trkpt lat="45.38527" lon="6.53835">
        <ele>2099.82</ele>
        <time>2014-01-30T15:03:42Z</time>
      </trkpt>
      <trkpt lat="45.38508" lon="6.53831">
        <ele>2098.71</ele>
        <time>2014-01-30T15:03:45Z</time>
      </trkpt>
      <trkpt lat="45.38488" lon="6.5383">
        <ele>2097.4</ele>
        <time>2014-01-30T15:03:49Z</time>
      </trkpt>
      <trkpt lat="45.38469" lon="6.53831">
        <ele>2095.86</ele>
        <time>2014-01-30T15:03:53Z</time>
      </trkpt>
      <trkpt lat="45.38451" lon="6.5383">
        <ele>2093.15</ele>
        <time>2014-01-30T15:03:59Z</time>
      </trkpt>
      <trkpt lat="45.38432" lon="6.53821">
        <ele>2091.56</ele>
        <time>2014-01-30T15:04:08Z</time>
      </trkpt>
      <trkpt lat="45.38415" lon="6.53811">
        <ele>2090.67</ele>
        <time>2014-01-30T15:04:14Z</time>
      </trkpt>
      <trkpt lat="45.38398" lon="6.53799">
        <ele>2089.88</ele>
        <time>2014-01-30T15:04:18Z</time>
      </trkpt>
      <trkpt lat="45.38382" lon="6.53784">
        <ele>2086.53</ele>
        <time>2014-01-30T15:04:22Z</time>
      </trkpt>
      <trkpt lat="45.38364" lon="6.53765">
        <ele>2080.57</ele>
        <time>2014-01-30T15:04:26Z</time>
      </trkpt>
      <trkpt lat="45.38344" lon="6.53736">
        <ele>2072.32</ele>
        <time>2014-01-30T15:04:29Z</time>
      </trkpt>
      <trkpt lat="45.38323" lon="6.53723">
        <ele>2070</ele>
        <time>2014-01-30T15:04:31Z</time>
      </trkpt>
      <trkpt lat="45.38304" lon="6.53715">
        <ele>2070</ele>
        <time>2014-01-30T15:04:33Z</time>
      </trkpt>
      <trkpt lat="45.38283" lon="6.53699">
        <ele>2070</ele>
        <time>2014-01-30T15:04:36Z</time>
      </trkpt>
      <trkpt lat="45.38262" lon="6.5368">
        <ele>2066.64</ele>
        <time>2014-01-30T15:04:39Z</time>
      </trkpt>
      <trkpt lat="45.3825" lon="6.53649">
        <ele>2063.72</ele>
        <time>2014-01-30T15:04:42Z</time>
      </trkpt>
      <trkpt lat="45.38252" lon="6.53614">
        <ele>2059.93</ele>
        <time>2014-01-30T15:04:45Z</time>
      </trkpt>
      <trkpt lat="45.38256" lon="6.53578">
        <ele>2053.32</ele>
        <time>2014-01-30T15:04:48Z</time>
      </trkpt>
      <trkpt lat="45.38268" lon="6.53551">
        <ele>2047.34</ele>
        <time>2014-01-30T15:04:51Z</time>
      </trkpt>
      <trkpt lat="45.38281" lon="6.53531">
        <ele>2042.43</ele>
        <time>2014-01-30T15:04:54Z</time>
      </trkpt>
      <trkpt lat="45.38297" lon="6.53515">
        <ele>2035.27</ele>
        <time>2014-01-30T15:04:57Z</time>
      </trkpt>
      <trkpt lat="45.38314" lon="6.53494">
        <ele>2025.4</ele>
        <time>2014-01-30T15:05:01Z</time>
      </trkpt>
      <trkpt lat="45.38328" lon="6.53463">
        <ele>2017.46</ele>
        <time>2014-01-30T15:05:04Z</time>
      </trkpt>
      <trkpt lat="45.38328" lon="6.53437">
        <ele>2012.53</ele>
        <time>2014-01-30T15:05:06Z</time>
      </trkpt>
      <trkpt lat="45.38336" lon="6.53408">
        <ele>2008.24</ele>
        <time>2014-01-30T15:05:09Z</time>
      </trkpt>
      <trkpt lat="45.38348" lon="6.53379">
        <ele>2000.43</ele>
        <time>2014-01-30T15:05:11Z</time>
      </trkpt>
      <trkpt lat="45.38354" lon="6.53355">
        <ele>1993.4</ele>
        <time>2014-01-30T15:05:13Z</time>
      </trkpt>
      <trkpt lat="45.38344" lon="6.53328">
        <ele>1986.44</ele>
        <time>2014-01-30T15:05:16Z</time>
      </trkpt>
      <trkpt lat="45.38328" lon="6.53314">
        <ele>1981.61</ele>
        <time>2014-01-30T15:06:06Z</time>
      </trkpt>
      <trkpt lat="45.38306" lon="6.53304">
        <ele>1974.11</ele>
        <time>2014-01-30T15:06:11Z</time>
      </trkpt>
      <trkpt lat="45.38286" lon="6.53308">
        <ele>1969.68</ele>
        <time>2014-01-30T15:06:15Z</time>
      </trkpt>
      <trkpt lat="45.38269" lon="6.53298">
        <ele>1963.93</ele>
        <time>2014-01-30T15:06:19Z</time>
      </trkpt>
      <trkpt lat="45.38247" lon="6.5329">
        <ele>1957.87</ele>
        <time>2014-01-30T15:06:24Z</time>
      </trkpt>
      <trkpt lat="45.38226" lon="6.53279">
        <ele>1949.76</ele>
        <time>2014-01-30T15:06:28Z</time>
      </trkpt>
      <trkpt lat="45.38208" lon="6.53278">
        <ele>1947.47</ele>
        <time>2014-01-30T15:06:32Z</time>
      </trkpt>
      <trkpt lat="45.38191" lon="6.53271">
        <ele>1944.4</ele>
        <time>2014-01-30T15:06:37Z</time>
      </trkpt>
      <trkpt lat="45.38173" lon="6.53263">
        <ele>1942.09</ele>
        <time>2014-01-30T15:06:41Z</time>
      </trkpt>
      <trkpt lat="45.38166" lon="6.53233">
        <ele>1934.35</ele>
        <time>2014-01-30T15:06:45Z</time>
      </trkpt>
      <trkpt lat="45.38158" lon="6.53207">
        <ele>1925.79</ele>
        <time>2014-01-30T15:06:49Z</time>
      </trkpt>
      <trkpt lat="45.3815" lon="6.53182">
        <ele>1919.28</ele>
        <time>2014-01-30T15:06:53Z</time>
      </trkpt>
      <trkpt lat="45.38137" lon="6.5316">
        <ele>1911.97</ele>
        <time>2014-01-30T15:06:58Z</time>
      </trkpt>
      <trkpt lat="45.38121" lon="6.53145">
        <ele>1901.53</ele>
        <time>2014-01-30T15:07:02Z</time>
      </trkpt>
      <trkpt lat="45.38104" lon="6.53132">
        <ele>1893.45</ele>
        <time>2014-01-30T15:07:06Z</time>
      </trkpt>
      <trkpt lat="45.38086" lon="6.53123">
        <ele>1887.79</ele>
        <time>2014-01-30T15:07:12Z</time>
      </trkpt>
      <trkpt lat="45.38071" lon="6.53098">
        <ele>1880.45</ele>
        <time>2014-01-30T15:07:16Z</time>
      </trkpt>
      <trkpt lat="45.38059" lon="6.53078">
        <ele>1873.69</ele>
        <time>2014-01-30T15:07:19Z</time>
      </trkpt>
      <trkpt lat="45.38048" lon="6.5305">
        <ele>1869.3</ele>
        <time>2014-01-30T15:07:22Z</time>
      </trkpt>
      <trkpt lat="45.38037" lon="6.53027">
        <ele>1867.67</ele>
        <time>2014-01-30T15:07:24Z</time>
      </trkpt>
      <trkpt lat="45.38025" lon="6.53002">
        <ele>1866.77</ele>
        <time>2014-01-30T15:07:26Z</time>
      </trkpt>
      <trkpt lat="45.38015" lon="6.52981">
        <ele>1868.45</ele>
        <time>2014-01-30T15:07:28Z</time>
      </trkpt>
      <trkpt lat="45.37995" lon="6.52956">
        <ele>1870.76</ele>
        <time>2014-01-30T15:07:31Z</time>
      </trkpt>
      <trkpt lat="45.37981" lon="6.5294">
        <ele>1869.47</ele>
        <time>2014-01-30T15:07:33Z</time>
      </trkpt>
      <trkpt lat="45.37962" lon="6.52927">
        <ele>1866.08</ele>
        <time>2014-01-30T15:07:36Z</time>
      </trkpt>
      <trkpt lat="45.37942" lon="6.52912">
        <ele>1861.8</ele>
        <time>2014-01-30T15:07:39Z</time>
      </trkpt>
      <trkpt lat="45.37925" lon="6.52901">
        <ele>1861.95</ele>
        <time>2014-01-30T15:07:42Z</time>
      </trkpt>
      <trkpt lat="45.37909" lon="6.52887">
        <ele>1864</ele>
        <time>2014-01-30T15:07:45Z</time>
      </trkpt>
      <trkpt lat="45.37895" lon="6.5287">
        <ele>1868.07</ele>
        <time>2014-01-30T15:07:48Z</time>
      </trkpt>
      <trkpt lat="45.37881" lon="6.52851">
        <ele>1868.47</ele>
        <time>2014-01-30T15:07:51Z</time>
      </trkpt>
      <trkpt lat="45.37868" lon="6.52831">
        <ele>1866.6</ele>
        <time>2014-01-30T15:07:54Z</time>
      </trkpt>
      <trkpt lat="45.37855" lon="6.52804">
        <ele>1863.53</ele>
        <time>2014-01-30T15:07:58Z</time>
      </trkpt>
      <trkpt lat="45.37845" lon="6.52782">
        <ele>1860.85</ele>
        <time>2014-01-30T15:08:01Z</time>
      </trkpt>
      <trkpt lat="45.37835" lon="6.52755">
        <ele>1857.61</ele>
        <time>2014-01-30T15:08:05Z</time>
      </trkpt>
      <trkpt lat="45.37822" lon="6.5273">
        <ele>1853.26</ele>
        <time>2014-01-30T15:08:09Z</time>
      </trkpt>
      <trkpt lat="45.37801" lon="6.52712">
        <ele>1848.89</ele>
        <time>2014-01-30T15:08:13Z</time>
      </trkpt>
      <trkpt lat="45.37781" lon="6.52702">
        <ele>1845.89</ele>
        <time>2014-01-30T15:08:16Z</time>
      </trkpt>
      <trkpt lat="45.37759" lon="6.52697">
        <ele>1841.69</ele>
        <time>2014-01-30T15:08:19Z</time>
      </trkpt>
      <trkpt lat="45.37737" lon="6.52694">
        <ele>1840.88</ele>
        <time>2014-01-30T15:08:22Z</time>
      </trkpt>
      <trkpt lat="45.37716" lon="6.52694">
        <ele>1841.23</ele>
        <time>2014-01-30T15:08:25Z</time>
      </trkpt>
      <trkpt lat="45.37696" lon="6.52693">
        <ele>1838.96</ele>
        <time>2014-01-30T15:08:28Z</time>
      </trkpt>
      <trkpt lat="45.37678" lon="6.5269">
        <ele>1837.12</ele>
        <time>2014-01-30T15:08:31Z</time>
      </trkpt>
      <trkpt lat="45.37658" lon="6.52688">
        <ele>1834.83</ele>
        <time>2014-01-30T15:08:34Z</time>
      </trkpt>
      <trkpt lat="45.37637" lon="6.52687">
        <ele>1832.24</ele>
        <time>2014-01-30T15:08:37Z</time>
      </trkpt>
      <trkpt lat="45.37616" lon="6.52688">
        <ele>1832.94</ele>
        <time>2014-01-30T15:08:40Z</time>
      </trkpt>
      <trkpt lat="45.37594" lon="6.52688">
        <ele>1834.1</ele>
        <time>2014-01-30T15:08:43Z</time>
      </trkpt>
      <trkpt lat="45.37577" lon="6.52681">
        <ele>1831.28</ele>
        <time>2014-01-30T15:08:46Z</time>
      </trkpt>
      <trkpt lat="45.37557" lon="6.52675">
        <ele>1824.2</ele>
        <time>2014-01-30T15:08:50Z</time>
      </trkpt>
      <trkpt lat="45.37539" lon="6.52679">
        <ele>1822.02</ele>
        <time>2014-01-30T15:08:54Z</time>
      </trkpt>
      <trkpt lat="45.37519" lon="6.52689">
        <ele>1821.69</ele>
        <time>2014-01-30T15:08:58Z</time>
      </trkpt>
      <trkpt lat="45.37499" lon="6.52699">
        <ele>1821.8</ele>
        <time>2014-01-30T15:09:02Z</time>
      </trkpt>
      <trkpt lat="45.37478" lon="6.52711">
        <ele>1821.77</ele>
        <time>2014-01-30T15:09:06Z</time>
      </trkpt>
      <trkpt lat="45.3746" lon="6.5272">
        <ele>1820.88</ele>
        <time>2014-01-30T15:09:10Z</time>
      </trkpt>
      <trkpt lat="45.37442" lon="6.52732">
        <ele>1817</ele>
        <time>2014-01-30T15:09:19Z</time>
      </trkpt>
      <trkpt lat="45.37427" lon="6.52755">
        <ele>1807.33</ele>
        <time>2014-01-30T15:09:25Z</time>
      </trkpt>
      <trkpt lat="45.37416" lon="6.52782">
        <ele>1802.18</ele>
        <time>2014-01-30T15:09:30Z</time>
      </trkpt>
      <trkpt lat="45.37407" lon="6.52811">
        <ele>1802.57</ele>
        <time>2014-01-30T15:09:34Z</time>
      </trkpt>
      <trkpt lat="45.37397" lon="6.52841">
        <ele>1801.76</ele>
        <time>2014-01-30T15:09:38Z</time>
      </trkpt>
      <trkpt lat="45.37387" lon="6.52864">
        <ele>1799.79</ele>
        <time>2014-01-30T15:09:41Z</time>
      </trkpt>
      <trkpt lat="45.37376" lon="6.52886">
        <ele>1803.5</ele>
        <time>2014-01-30T15:09:44Z</time>
      </trkpt>
      <trkpt lat="45.37365" lon="6.52911">
        <ele>1804.46</ele>
        <time>2014-01-30T15:09:47Z</time>
      </trkpt>
      <trkpt lat="45.37347" lon="6.52926">
        <ele>1804.33</ele>
        <time>2014-01-30T15:09:50Z</time>
      </trkpt>
      <trkpt lat="45.37326" lon="6.52928">
        <ele>1803.28</ele>
        <time>2014-01-30T15:09:53Z</time>
      </trkpt>
      <trkpt lat="45.37301" lon="6.52932">
        <ele>1801.52</ele>
        <time>2014-01-30T15:09:56Z</time>
      </trkpt>
      <trkpt lat="45.37289" lon="6.52911">
        <ele>1797.92</ele>
        <time>2014-01-30T15:10:22Z</time>
      </trkpt>
      <trkpt lat="45.37278" lon="6.52886">
        <ele>1793.8</ele>
        <time>2014-01-30T15:10:27Z</time>
      </trkpt>
      <trkpt lat="45.37261" lon="6.52877">
        <ele>1789.29</ele>
        <time>2014-01-30T15:10:44Z</time>
      </trkpt>
      <trkpt lat="45.37253" lon="6.529">
        <ele>1790.53</ele>
        <time>2014-01-30T15:11:08Z</time>
      </trkpt>
      <trkpt lat="45.37246" lon="6.52927">
        <ele>1795.54</ele>
        <time>2014-01-30T15:11:12Z</time>
      </trkpt>
      <trkpt lat="45.37239" lon="6.52955">
        <ele>1801.06</ele>
        <time>2014-01-30T15:11:17Z</time>
      </trkpt>
      <trkpt lat="45.3723" lon="6.52985">
        <ele>1805.28</ele>
        <time>2014-01-30T15:11:22Z</time>
      </trkpt>
      <trkpt lat="45.37223" lon="6.53013">
        <ele>1808.85</ele>
        <time>2014-01-30T15:11:27Z</time>
      </trkpt>
      <trkpt lat="45.37216" lon="6.5304">
        <ele>1812.47</ele>
        <time>2014-01-30T15:11:32Z</time>
      </trkpt>
      <trkpt lat="45.3721" lon="6.53065">
        <ele>1815.81</ele>
        <time>2014-01-30T15:11:36Z</time>
      </trkpt>
      <trkpt lat="45.37202" lon="6.53091">
        <ele>1820.17</ele>
        <time>2014-01-30T15:11:41Z</time>
      </trkpt>
      <trkpt lat="45.37194" lon="6.53119">
        <ele>1825.92</ele>
        <time>2014-01-30T15:11:46Z</time>
      </trkpt>
      <trkpt lat="45.37186" lon="6.53148">
        <ele>1834.98</ele>
        <time>2014-01-30T15:11:51Z</time>
      </trkpt>
      <trkpt lat="45.37177" lon="6.53176">
        <ele>1847.56</ele>
        <time>2014-01-30T15:11:56Z</time>
      </trkpt>
      <trkpt lat="45.37171" lon="6.53204">
        <ele>1857.13</ele>
        <time>2014-01-30T15:12:01Z</time>
      </trkpt>
      <trkpt lat="45.37164" lon="6.53232">
        <ele>1866.15</ele>
        <time>2014-01-30T15:12:06Z</time>
      </trkpt>
      <trkpt lat="45.37156" lon="6.53258">
        <ele>1872.52</ele>
        <time>2014-01-30T15:12:11Z</time>
      </trkpt>
      <trkpt lat="45.37148" lon="6.53284">
        <ele>1876.1</ele>
        <time>2014-01-30T15:12:15Z</time>
      </trkpt>
      <trkpt lat="45.37139" lon="6.53312">
        <ele>1879.72</ele>
        <time>2014-01-30T15:12:20Z</time>
      </trkpt>
      <trkpt lat="45.37131" lon="6.53341">
        <ele>1883.61</ele>
        <time>2014-01-30T15:12:25Z</time>
      </trkpt>
      <trkpt lat="45.37123" lon="6.53368">
        <ele>1886.91</ele>
        <time>2014-01-30T15:12:30Z</time>
      </trkpt>
      <trkpt lat="45.37115" lon="6.53397">
        <ele>1890.69</ele>
        <time>2014-01-30T15:12:35Z</time>
      </trkpt>
      <trkpt lat="45.37108" lon="6.53425">
        <ele>1895.95</ele>
        <time>2014-01-30T15:12:40Z</time>
      </trkpt>
      <trkpt lat="45.37101" lon="6.53452">
        <ele>1900.75</ele>
        <time>2014-01-30T15:12:45Z</time>
      </trkpt>
      <trkpt lat="45.37094" lon="6.53482">
        <ele>1904.84</ele>
        <time>2014-01-30T15:12:50Z</time>
      </trkpt>
      <trkpt lat="45.37086" lon="6.5351">
        <ele>1908.55</ele>
        <time>2014-01-30T15:12:55Z</time>
      </trkpt>
      <trkpt lat="45.37078" lon="6.53539">
        <ele>1913.34</ele>
        <time>2014-01-30T15:13:00Z</time>
      </trkpt>
      <trkpt lat="45.37071" lon="6.53567">
        <ele>1919.47</ele>
        <time>2014-01-30T15:13:05Z</time>
      </trkpt>
      <trkpt lat="45.37063" lon="6.53595">
        <ele>1925.83</ele>
        <time>2014-01-30T15:13:10Z</time>
      </trkpt>
      <trkpt lat="45.37055" lon="6.53619">
        <ele>1932.77</ele>
        <time>2014-01-30T15:13:15Z</time>
      </trkpt>
      <trkpt lat="45.37046" lon="6.53647">
        <ele>1939.47</ele>
        <time>2014-01-30T15:13:20Z</time>
      </trkpt>
      <trkpt lat="45.37038" lon="6.53676">
        <ele>1942.78</ele>
        <time>2014-01-30T15:13:25Z</time>
      </trkpt>
      <trkpt lat="45.3703" lon="6.53704">
        <ele>1949.98</ele>
        <time>2014-01-30T15:13:30Z</time>
      </trkpt>
      <trkpt lat="45.37024" lon="6.53732">
        <ele>1959.94</ele>
        <time>2014-01-30T15:13:35Z</time>
      </trkpt>
      <trkpt lat="45.37016" lon="6.5376">
        <ele>1966.94</ele>
        <time>2014-01-30T15:13:40Z</time>
      </trkpt>
      <trkpt lat="45.37008" lon="6.53789">
        <ele>1972.44</ele>
        <time>2014-01-30T15:13:45Z</time>
      </trkpt>
      <trkpt lat="45.36999" lon="6.53817">
        <ele>1977.5</ele>
        <time>2014-01-30T15:13:50Z</time>
      </trkpt>
      <trkpt lat="45.36992" lon="6.53845">
        <ele>1985.1</ele>
        <time>2014-01-30T15:13:55Z</time>
      </trkpt>
      <trkpt lat="45.36986" lon="6.53873">
        <ele>1991.9</ele>
        <time>2014-01-30T15:14:00Z</time>
      </trkpt>
      <trkpt lat="45.36977" lon="6.539">
        <ele>1995.06</ele>
        <time>2014-01-30T15:14:05Z</time>
      </trkpt>
      <trkpt lat="45.3697" lon="6.53924">
        <ele>1998.46</ele>
        <time>2014-01-30T15:14:09Z</time>
      </trkpt>
      <trkpt lat="45.36961" lon="6.53952">
        <ele>2000.84</ele>
        <time>2014-01-30T15:14:14Z</time>
      </trkpt>
      <trkpt lat="45.36954" lon="6.5398">
        <ele>2004.29</ele>
        <time>2014-01-30T15:14:19Z</time>
      </trkpt>
      <trkpt lat="45.36946" lon="6.54006">
        <ele>2008.18</ele>
        <time>2014-01-30T15:14:24Z</time>
      </trkpt>
      <trkpt lat="45.36938" lon="6.54032">
        <ele>2011.49</ele>
        <time>2014-01-30T15:14:29Z</time>
      </trkpt>
      <trkpt lat="45.36932" lon="6.54058">
        <ele>2014.52</ele>
        <time>2014-01-30T15:14:34Z</time>
      </trkpt>
      <trkpt lat="45.36924" lon="6.54083">
        <ele>2022.71</ele>
        <time>2014-01-30T15:14:39Z</time>
      </trkpt>
      <trkpt lat="45.36916" lon="6.54109">
        <ele>2033.15</ele>
        <time>2014-01-30T15:14:44Z</time>
      </trkpt>
      <trkpt lat="45.36909" lon="6.54134">
        <ele>2044.7</ele>
        <time>2014-01-30T15:14:49Z</time>
      </trkpt>
      <trkpt lat="45.36902" lon="6.54158">
        <ele>2055.06</ele>
        <time>2014-01-30T15:14:55Z</time>
      </trkpt>
      <trkpt lat="45.36895" lon="6.54182">
        <ele>2065.47</ele>
        <time>2014-01-30T15:15:00Z</time>
      </trkpt>
      <trkpt lat="45.36888" lon="6.54209">
        <ele>2074.82</ele>
        <time>2014-01-30T15:15:06Z</time>
      </trkpt>
      <trkpt lat="45.36881" lon="6.54234">
        <ele>2079.49</ele>
        <time>2014-01-30T15:15:12Z</time>
      </trkpt>
      <trkpt lat="45.36873" lon="6.54261">
        <ele>2085.24</ele>
        <time>2014-01-30T15:15:18Z</time>
      </trkpt>
      <trkpt lat="45.36865" lon="6.54288">
        <ele>2091.87</ele>
        <time>2014-01-30T15:15:23Z</time>
      </trkpt>
      <trkpt lat="45.36858" lon="6.54313">
        <ele>2096.09</ele>
        <time>2014-01-30T15:15:27Z</time>
      </trkpt>
      <trkpt lat="45.36852" lon="6.54339">
        <ele>2096.14</ele>
        <time>2014-01-30T15:15:31Z</time>
      </trkpt>
      <trkpt lat="45.36843" lon="6.54368">
        <ele>2094.02</ele>
        <time>2014-01-30T15:15:36Z</time>
      </trkpt>
      <trkpt lat="45.36835" lon="6.54396">
        <ele>2098.65</ele>
        <time>2014-01-30T15:15:41Z</time>
      </trkpt>
      <trkpt lat="45.36827" lon="6.54424">
        <ele>2101.88</ele>
        <time>2014-01-30T15:15:46Z</time>
      </trkpt>
      <trkpt lat="45.36819" lon="6.54451">
        <ele>2105.58</ele>
        <time>2014-01-30T15:15:51Z</time>
      </trkpt>
      <trkpt lat="45.36811" lon="6.54486">
        <ele>2116.46</ele>
        <time>2014-01-30T15:15:54Z</time>
      </trkpt>
      <trkpt lat="45.36802" lon="6.54516">
        <ele>2122.7</ele>
        <time>2014-01-30T15:15:58Z</time>
      </trkpt>
      <trkpt lat="45.36794" lon="6.54544">
        <ele>2126.44</ele>
        <time>2014-01-30T15:16:02Z</time>
      </trkpt>
      <trkpt lat="45.36787" lon="6.5457">
        <ele>2128.36</ele>
        <time>2014-01-30T15:16:06Z</time>
      </trkpt>
      <trkpt lat="45.3678" lon="6.54595">
        <ele>2129.41</ele>
        <time>2014-01-30T15:16:10Z</time>
      </trkpt>
      <trkpt lat="45.36774" lon="6.5462">
        <ele>2131.93</ele>
        <time>2014-01-30T15:16:14Z</time>
      </trkpt>
      <trkpt lat="45.36767" lon="6.5465">
        <ele>2137.93</ele>
        <time>2014-01-30T15:16:19Z</time>
      </trkpt>
      <trkpt lat="45.36762" lon="6.54678">
        <ele>2144.96</ele>
        <time>2014-01-30T15:16:24Z</time>
      </trkpt>
      <trkpt lat="45.36754" lon="6.54706">
        <ele>2152.84</ele>
        <time>2014-01-30T15:16:30Z</time>
      </trkpt>
      <trkpt lat="45.36747" lon="6.54729">
        <ele>2166.57</ele>
        <time>2014-01-30T15:16:35Z</time>
      </trkpt>
      <trkpt lat="45.36737" lon="6.54755">
        <ele>2181.8</ele>
        <time>2014-01-30T15:16:42Z</time>
      </trkpt>
      <trkpt lat="45.36728" lon="6.54782">
        <ele>2186.65</ele>
        <time>2014-01-30T15:16:47Z</time>
      </trkpt>
      <trkpt lat="45.36722" lon="6.54806">
        <ele>2186.97</ele>
        <time>2014-01-30T15:16:51Z</time>
      </trkpt>
      <trkpt lat="45.36714" lon="6.54834">
        <ele>2190.33</ele>
        <time>2014-01-30T15:16:55Z</time>
      </trkpt>
      <trkpt lat="45.36706" lon="6.54862">
        <ele>2195.2</ele>
        <time>2014-01-30T15:16:59Z</time>
      </trkpt>
      <trkpt lat="45.36698" lon="6.54889">
        <ele>2197.32</ele>
        <time>2014-01-30T15:17:03Z</time>
      </trkpt>
      <trkpt lat="45.36692" lon="6.54913">
        <ele>2199.55</ele>
        <time>2014-01-30T15:17:07Z</time>
      </trkpt>
      <trkpt lat="45.36685" lon="6.54937">
        <ele>2195.47</ele>
        <time>2014-01-30T15:17:11Z</time>
      </trkpt>
      <trkpt lat="45.36678" lon="6.54962">
        <ele>2194.3</ele>
        <time>2014-01-30T15:17:15Z</time>
      </trkpt>
      <trkpt lat="45.36671" lon="6.5499">
        <ele>2197.82</ele>
        <time>2014-01-30T15:17:20Z</time>
      </trkpt>
      <trkpt lat="45.36663" lon="6.55019">
        <ele>2202.71</ele>
        <time>2014-01-30T15:17:25Z</time>
      </trkpt>
      <trkpt lat="45.36656" lon="6.55044">
        <ele>2207.95</ele>
        <time>2014-01-30T15:17:30Z</time>
      </trkpt>
      <trkpt lat="45.36648" lon="6.5507">
        <ele>2214.5</ele>
        <time>2014-01-30T15:17:35Z</time>
      </trkpt>
      <trkpt lat="45.36641" lon="6.55096">
        <ele>2221.99</ele>
        <time>2014-01-30T15:17:40Z</time>
      </trkpt>
      <trkpt lat="45.36633" lon="6.55122">
        <ele>2229.7</ele>
        <time>2014-01-30T15:17:45Z</time>
      </trkpt>
      <trkpt lat="45.36626" lon="6.55149">
        <ele>2237.25</ele>
        <time>2014-01-30T15:17:49Z</time>
      </trkpt>
      <trkpt lat="45.36619" lon="6.55176">
        <ele>2244.16</ele>
        <time>2014-01-30T15:17:54Z</time>
      </trkpt>
      <trkpt lat="45.36611" lon="6.55204">
        <ele>2249.44</ele>
        <time>2014-01-30T15:17:59Z</time>
      </trkpt>
      <trkpt lat="45.36602" lon="6.55232">
        <ele>2254.38</ele>
        <time>2014-01-30T15:18:04Z</time>
      </trkpt>
      <trkpt lat="45.36595" lon="6.5526">
        <ele>2259.37</ele>
        <time>2014-01-30T15:18:09Z</time>
      </trkpt>
      <trkpt lat="45.36586" lon="6.55286">
        <ele>2262.93</ele>
        <time>2014-01-30T15:18:15Z</time>
      </trkpt>
      <trkpt lat="45.36578" lon="6.55315">
        <ele>2264.56</ele>
        <time>2014-01-30T15:18:21Z</time>
      </trkpt>
      <trkpt lat="45.36573" lon="6.55343">
        <ele>2267.69</ele>
        <time>2014-01-30T15:18:26Z</time>
      </trkpt>
      <trkpt lat="45.36566" lon="6.5537">
        <ele>2275.16</ele>
        <time>2014-01-30T15:18:31Z</time>
      </trkpt>
      <trkpt lat="45.36559" lon="6.55396">
        <ele>2282.85</ele>
        <time>2014-01-30T15:18:36Z</time>
      </trkpt>
      <trkpt lat="45.36551" lon="6.55423">
        <ele>2288.43</ele>
        <time>2014-01-30T15:18:41Z</time>
      </trkpt>
      <trkpt lat="45.36543" lon="6.55451">
        <ele>2292.61</ele>
        <time>2014-01-30T15:18:46Z</time>
      </trkpt>
      <trkpt lat="45.36538" lon="6.55475">
        <ele>2295.71</ele>
        <time>2014-01-30T15:18:50Z</time>
      </trkpt>
      <trkpt lat="45.3653" lon="6.55503">
        <ele>2300.66</ele>
        <time>2014-01-30T15:18:56Z</time>
      </trkpt>
      <trkpt lat="45.36524" lon="6.55527">
        <ele>2309.5</ele>
        <time>2014-01-30T15:19:01Z</time>
      </trkpt>
      <trkpt lat="45.36517" lon="6.55552">
        <ele>2315.6</ele>
        <time>2014-01-30T15:19:06Z</time>
      </trkpt>
      <trkpt lat="45.36509" lon="6.55581">
        <ele>2323.85</ele>
        <time>2014-01-30T15:19:13Z</time>
      </trkpt>
      <trkpt lat="45.36501" lon="6.55608">
        <ele>2334.88</ele>
        <time>2014-01-30T15:19:16Z</time>
      </trkpt>
      <trkpt lat="45.36493" lon="6.55635">
        <ele>2354.59</ele>
        <time>2014-01-30T15:19:20Z</time>
      </trkpt>
      <trkpt lat="45.36485" lon="6.55659">
        <ele>2364.76</ele>
        <time>2014-01-30T15:19:25Z</time>
      </trkpt>
      <trkpt lat="45.36476" lon="6.55684">
        <ele>2375.17</ele>
        <time>2014-01-30T15:19:30Z</time>
      </trkpt>
      <trkpt lat="45.3647" lon="6.5571">
        <ele>2385.35</ele>
        <time>2014-01-30T15:19:33Z</time>
      </trkpt>
      <trkpt lat="45.36472" lon="6.55736">
        <ele>2395.4</ele>
        <time>2014-01-30T15:19:42Z</time>
      </trkpt>
      <trkpt lat="45.36491" lon="6.55725">
        <ele>2398.25</ele>
        <time>2014-01-30T15:19:51Z</time>
      </trkpt>
      <trkpt lat="45.36508" lon="6.55717">
        <ele>2399.76</ele>
        <time>2014-01-30T15:19:56Z</time>
      </trkpt>
      <trkpt lat="45.36527" lon="6.55709">
        <ele>2399.15</ele>
        <time>2014-01-30T15:20:02Z</time>
      </trkpt>
      <trkpt lat="45.36546" lon="6.55702">
        <ele>2403.73</ele>
        <time>2014-01-30T15:20:07Z</time>
      </trkpt>
      <trkpt lat="45.36566" lon="6.55693">
        <ele>2407.41</ele>
        <time>2014-01-30T15:20:12Z</time>
      </trkpt>
      <trkpt lat="45.36578" lon="6.55673">
        <ele>2393.27</ele>
        <time>2014-01-30T15:20:19Z</time>
      </trkpt>
      <trkpt lat="45.36597" lon="6.55662">
        <ele>2386.91</ele>
        <time>2014-01-30T15:20:25Z</time>
      </trkpt>
      <trkpt lat="45.36622" lon="6.5566">
        <ele>2384.74</ele>
        <time>2014-01-30T15:20:28Z</time>
      </trkpt>
      <trkpt lat="45.36647" lon="6.55651">
        <ele>2378.32</ele>
        <time>2014-01-30T15:20:31Z</time>
      </trkpt>
      <trkpt lat="45.3667" lon="6.5563">
        <ele>2366.56</ele>
        <time>2014-01-30T15:20:34Z</time>
      </trkpt>
      <trkpt lat="45.36686" lon="6.55612">
        <ele>2360.43</ele>
        <time>2014-01-30T15:20:36Z</time>
      </trkpt>
      <trkpt lat="45.36699" lon="6.55582">
        <ele>2354.38</ele>
        <time>2014-01-30T15:20:39Z</time>
      </trkpt>
      <trkpt lat="45.36711" lon="6.55553">
        <ele>2348.24</ele>
        <time>2014-01-30T15:20:42Z</time>
      </trkpt>
      <trkpt lat="45.36723" lon="6.55532">
        <ele>2345.09</ele>
        <time>2014-01-30T15:20:44Z</time>
      </trkpt>
      <trkpt lat="45.36736" lon="6.55508">
        <ele>2342.14</ele>
        <time>2014-01-30T15:20:46Z</time>
      </trkpt>
      <trkpt lat="45.36746" lon="6.55483">
        <ele>2341.71</ele>
        <time>2014-01-30T15:20:48Z</time>
      </trkpt>
      <trkpt lat="45.36752" lon="6.55456">
        <ele>2340.75</ele>
        <time>2014-01-30T15:20:50Z</time>
      </trkpt>
      <trkpt lat="45.36764" lon="6.55426">
        <ele>2338</ele>
        <time>2014-01-30T15:20:53Z</time>
      </trkpt>
      <trkpt lat="45.36773" lon="6.55399">
        <ele>2335.27</ele>
        <time>2014-01-30T15:20:56Z</time>
      </trkpt>
      <trkpt lat="45.36782" lon="6.55375">
        <ele>2331.41</ele>
        <time>2014-01-30T15:20:59Z</time>
      </trkpt>
      <trkpt lat="45.368" lon="6.5535">
        <ele>2325.14</ele>
        <time>2014-01-30T15:21:02Z</time>
      </trkpt>
      <trkpt lat="45.36814" lon="6.55331">
        <ele>2316.03</ele>
        <time>2014-01-30T15:21:04Z</time>
      </trkpt>
      <trkpt lat="45.36827" lon="6.55312">
        <ele>2308.9</ele>
        <time>2014-01-30T15:21:06Z</time>
      </trkpt>
      <trkpt lat="45.36842" lon="6.55285">
        <ele>2305.32</ele>
        <time>2014-01-30T15:21:09Z</time>
      </trkpt>
      <trkpt lat="45.36851" lon="6.55257">
        <ele>2306.02</ele>
        <time>2014-01-30T15:21:12Z</time>
      </trkpt>
      <trkpt lat="45.36859" lon="6.55224">
        <ele>2307.41</ele>
        <time>2014-01-30T15:21:16Z</time>
      </trkpt>
      <trkpt lat="45.36873" lon="6.55202">
        <ele>2307.24</ele>
        <time>2014-01-30T15:21:20Z</time>
      </trkpt>
      <trkpt lat="45.36891" lon="6.55188">
        <ele>2308.06</ele>
        <time>2014-01-30T15:21:23Z</time>
      </trkpt>
      <trkpt lat="45.36912" lon="6.55172">
        <ele>2304.12</ele>
        <time>2014-01-30T15:21:26Z</time>
      </trkpt>
      <trkpt lat="45.36931" lon="6.55155">
        <ele>2302.32</ele>
        <time>2014-01-30T15:21:29Z</time>
      </trkpt>
      <trkpt lat="45.36949" lon="6.55137">
        <ele>2301.96</ele>
        <time>2014-01-30T15:21:32Z</time>
      </trkpt>
      <trkpt lat="45.36965" lon="6.55117">
        <ele>2299.52</ele>
        <time>2014-01-30T15:21:35Z</time>
      </trkpt>
      <trkpt lat="45.3698" lon="6.55097">
        <ele>2298.12</ele>
        <time>2014-01-30T15:21:38Z</time>
      </trkpt>
      <trkpt lat="45.36994" lon="6.55078">
        <ele>2297.87</ele>
        <time>2014-01-30T15:21:41Z</time>
      </trkpt>
      <trkpt lat="45.37008" lon="6.5506">
        <ele>2296.7</ele>
        <time>2014-01-30T15:21:44Z</time>
      </trkpt>
      <trkpt lat="45.37022" lon="6.55042">
        <ele>2295.31</ele>
        <time>2014-01-30T15:21:47Z</time>
      </trkpt>
      <trkpt lat="45.37037" lon="6.55025">
        <ele>2293.38</ele>
        <time>2014-01-30T15:21:50Z</time>
      </trkpt>
      <trkpt lat="45.37056" lon="6.55018">
        <ele>2293.45</ele>
        <time>2014-01-30T15:21:53Z</time>
      </trkpt>
      <trkpt lat="45.37075" lon="6.55014">
        <ele>2291.93</ele>
        <time>2014-01-30T15:21:56Z</time>
      </trkpt>
      <trkpt lat="45.37098" lon="6.55011">
        <ele>2290.36</ele>
        <time>2014-01-30T15:21:59Z</time>
      </trkpt>
      <trkpt lat="45.37123" lon="6.55008">
        <ele>2288.47</ele>
        <time>2014-01-30T15:22:02Z</time>
      </trkpt>
      <trkpt lat="45.37144" lon="6.55001">
        <ele>2286.04</ele>
        <time>2014-01-30T15:22:05Z</time>
      </trkpt>
      <trkpt lat="45.37163" lon="6.54993">
        <ele>2283.92</ele>
        <time>2014-01-30T15:22:08Z</time>
      </trkpt>
      <trkpt lat="45.37182" lon="6.5499">
        <ele>2283.82</ele>
        <time>2014-01-30T15:22:11Z</time>
      </trkpt>
      <trkpt lat="45.37202" lon="6.54994">
        <ele>2283.81</ele>
        <time>2014-01-30T15:22:14Z</time>
      </trkpt>
      <trkpt lat="45.37222" lon="6.55001">
        <ele>2282.15</ele>
        <time>2014-01-30T15:22:17Z</time>
      </trkpt>
      <trkpt lat="45.3724" lon="6.5501">
        <ele>2279.67</ele>
        <time>2014-01-30T15:22:20Z</time>
      </trkpt>
      <trkpt lat="45.37261" lon="6.55022">
        <ele>2277.65</ele>
        <time>2014-01-30T15:22:23Z</time>
      </trkpt>
      <trkpt lat="45.37281" lon="6.55035">
        <ele>2275.75</ele>
        <time>2014-01-30T15:22:26Z</time>
      </trkpt>
      <trkpt lat="45.37299" lon="6.55037">
        <ele>2273</ele>
        <time>2014-01-30T15:22:29Z</time>
      </trkpt>
      <trkpt lat="45.37317" lon="6.55024">
        <ele>2268.02</ele>
        <time>2014-01-30T15:22:32Z</time>
      </trkpt>
      <trkpt lat="45.3734" lon="6.55023">
        <ele>2263.38</ele>
        <time>2014-01-30T15:22:35Z</time>
      </trkpt>
      <trkpt lat="45.37349" lon="6.54999">
        <ele>2259.07</ele>
        <time>2014-01-30T15:22:38Z</time>
      </trkpt>
      <trkpt lat="45.37371" lon="6.54993">
        <ele>2254.74</ele>
        <time>2014-01-30T15:22:43Z</time>
      </trkpt>
      <trkpt lat="45.3739" lon="6.54978">
        <ele>2250.39</ele>
        <time>2014-01-30T15:22:47Z</time>
      </trkpt>
      <trkpt lat="45.37403" lon="6.54951">
        <ele>2240.25</ele>
        <time>2014-01-30T15:22:51Z</time>
      </trkpt>
      <trkpt lat="45.37418" lon="6.54925">
        <ele>2231.91</ele>
        <time>2014-01-30T15:22:55Z</time>
      </trkpt>
      <trkpt lat="45.37417" lon="6.54897">
        <ele>2224.97</ele>
        <time>2014-01-30T15:22:58Z</time>
      </trkpt>
      <trkpt lat="45.37436" lon="6.54887">
        <ele>2219.16</ele>
        <time>2014-01-30T15:23:02Z</time>
      </trkpt>
      <trkpt lat="45.37453" lon="6.5487">
        <ele>2213.16</ele>
        <time>2014-01-30T15:23:06Z</time>
      </trkpt>
      <trkpt lat="45.37453" lon="6.54843">
        <ele>2206.22</ele>
        <time>2014-01-30T15:23:10Z</time>
      </trkpt>
      <trkpt lat="45.37469" lon="6.54824">
        <ele>2195.71</ele>
        <time>2014-01-30T15:23:18Z</time>
      </trkpt>
      <trkpt lat="45.37464" lon="6.54798">
        <ele>2186.39</ele>
        <time>2014-01-30T15:23:22Z</time>
      </trkpt>
      <trkpt lat="45.37482" lon="6.54792">
        <ele>2180.84</ele>
        <time>2014-01-30T15:23:26Z</time>
      </trkpt>
      <trkpt lat="45.37497" lon="6.54769">
        <ele>2169.52</ele>
        <time>2014-01-30T15:23:31Z</time>
      </trkpt>
      <trkpt lat="45.37506" lon="6.54742">
        <ele>2160.13</ele>
        <time>2014-01-30T15:23:35Z</time>
      </trkpt>
      <trkpt lat="45.37517" lon="6.54715">
        <ele>2154.82</ele>
        <time>2014-01-30T15:23:39Z</time>
      </trkpt>
      <trkpt lat="45.37504" lon="6.5469">
        <ele>2147.94</ele>
        <time>2014-01-30T15:23:44Z</time>
      </trkpt>
      <trkpt lat="45.37517" lon="6.54668">
        <ele>2145.26</ele>
        <time>2014-01-30T15:23:49Z</time>
      </trkpt>
      <trkpt lat="45.37506" lon="6.54646">
        <ele>2141.51</ele>
        <time>2014-01-30T15:23:53Z</time>
      </trkpt>
      <trkpt lat="45.37495" lon="6.54622">
        <ele>2138.7</ele>
        <time>2014-01-30T15:23:58Z</time>
      </trkpt>
      <trkpt lat="45.37501" lon="6.54595">
        <ele>2130.6</ele>
        <time>2014-01-30T15:24:05Z</time>
      </trkpt>
      <trkpt lat="45.37511" lon="6.54573">
        <ele>2122.24</ele>
        <time>2014-01-30T15:24:11Z</time>
      </trkpt>
      <trkpt lat="45.37524" lon="6.54548">
        <ele>2114.24</ele>
        <time>2014-01-30T15:24:15Z</time>
      </trkpt>
      <trkpt lat="45.37529" lon="6.54523">
        <ele>2108.93</ele>
        <time>2014-01-30T15:24:21Z</time>
      </trkpt>
      <trkpt lat="45.37543" lon="6.54494">
        <ele>2100.9</ele>
        <time>2014-01-30T15:24:27Z</time>
      </trkpt>
      <trkpt lat="45.3754" lon="6.54466">
        <ele>2094.04</ele>
        <time>2014-01-30T15:24:31Z</time>
      </trkpt>
      <trkpt lat="45.37555" lon="6.5445">
        <ele>2084.09</ele>
        <time>2014-01-30T15:24:35Z</time>
      </trkpt>
      <trkpt lat="45.37549" lon="6.5442">
        <ele>2080.18</ele>
        <time>2014-01-30T15:24:39Z</time>
      </trkpt>
      <trkpt lat="45.37557" lon="6.54394">
        <ele>2075.2</ele>
        <time>2014-01-30T15:24:42Z</time>
      </trkpt>
      <trkpt lat="45.37569" lon="6.54362">
        <ele>2069.2</ele>
        <time>2014-01-30T15:24:45Z</time>
      </trkpt>
      <trkpt lat="45.37579" lon="6.54327">
        <ele>2063.73</ele>
        <time>2014-01-30T15:24:48Z</time>
      </trkpt>
      <trkpt lat="45.37585" lon="6.54299">
        <ele>2061.46</ele>
        <time>2014-01-30T15:24:50Z</time>
      </trkpt>
      <trkpt lat="45.37593" lon="6.54266">
        <ele>2060</ele>
        <time>2014-01-30T15:24:53Z</time>
      </trkpt>
      <trkpt lat="45.37598" lon="6.5424">
        <ele>2059.28</ele>
        <time>2014-01-30T15:24:57Z</time>
      </trkpt>
      <trkpt lat="45.37599" lon="6.54213">
        <ele>2056.95</ele>
        <time>2014-01-30T15:25:01Z</time>
      </trkpt>
      <trkpt lat="45.37603" lon="6.54187">
        <ele>2054.1</ele>
        <time>2014-01-30T15:25:06Z</time>
      </trkpt>
      <trkpt lat="45.37599" lon="6.54162">
        <ele>2049.99</ele>
        <time>2014-01-30T15:25:11Z</time>
      </trkpt>
      <trkpt lat="45.37605" lon="6.54136">
        <ele>2045.48</ele>
        <time>2014-01-30T15:25:15Z</time>
      </trkpt>
      <trkpt lat="45.37604" lon="6.54109">
        <ele>2037.04</ele>
        <time>2014-01-30T15:25:18Z</time>
      </trkpt>
      <trkpt lat="45.3761" lon="6.54075">
        <ele>2031.07</ele>
        <time>2014-01-30T15:25:22Z</time>
      </trkpt>
      <trkpt lat="45.37614" lon="6.54043">
        <ele>2026.97</ele>
        <time>2014-01-30T15:25:25Z</time>
      </trkpt>
      <trkpt lat="45.37621" lon="6.54011">
        <ele>2024.24</ele>
        <time>2014-01-30T15:25:28Z</time>
      </trkpt>
      <trkpt lat="45.37618" lon="6.5398">
        <ele>2021.15</ele>
        <time>2014-01-30T15:25:31Z</time>
      </trkpt>
      <trkpt lat="45.37614" lon="6.53954">
        <ele>2017.75</ele>
        <time>2014-01-30T15:25:34Z</time>
      </trkpt>
      <trkpt lat="45.37601" lon="6.53929">
        <ele>2012.88</ele>
        <time>2014-01-30T15:25:38Z</time>
      </trkpt>
      <trkpt lat="45.37596" lon="6.539">
        <ele>2008.77</ele>
        <time>2014-01-30T15:25:42Z</time>
      </trkpt>
      <trkpt lat="45.37583" lon="6.53881">
        <ele>2005.51</ele>
        <time>2014-01-30T15:25:46Z</time>
      </trkpt>
      <trkpt lat="45.37582" lon="6.53846">
        <ele>1999.51</ele>
        <time>2014-01-30T15:25:50Z</time>
      </trkpt>
      <trkpt lat="45.37581" lon="6.53809">
        <ele>1994.08</ele>
        <time>2014-01-30T15:25:53Z</time>
      </trkpt>
      <trkpt lat="45.37582" lon="6.53773">
        <ele>1987.67</ele>
        <time>2014-01-30T15:25:56Z</time>
      </trkpt>
      <trkpt lat="45.37584" lon="6.53747">
        <ele>1984.42</ele>
        <time>2014-01-30T15:25:58Z</time>
      </trkpt>
      <trkpt lat="45.37585" lon="6.53721">
        <ele>1979.84</ele>
        <time>2014-01-30T15:26:00Z</time>
      </trkpt>
      <trkpt lat="45.37589" lon="6.53692">
        <ele>1976.75</ele>
        <time>2014-01-30T15:26:02Z</time>
      </trkpt>
      <trkpt lat="45.3759" lon="6.53665">
        <ele>1974.1</ele>
        <time>2014-01-30T15:26:04Z</time>
      </trkpt>
      <trkpt lat="45.37591" lon="6.53636">
        <ele>1971.95</ele>
        <time>2014-01-30T15:26:07Z</time>
      </trkpt>
      <trkpt lat="45.37595" lon="6.53604">
        <ele>1968.9</ele>
        <time>2014-01-30T15:26:12Z</time>
      </trkpt>
      <trkpt lat="45.37599" lon="6.53575">
        <ele>1965.86</ele>
        <time>2014-01-30T15:26:15Z</time>
      </trkpt>
      <trkpt lat="45.37603" lon="6.53544">
        <ele>1962.66</ele>
        <time>2014-01-30T15:26:18Z</time>
      </trkpt>
      <trkpt lat="45.37611" lon="6.53516">
        <ele>1959.3</ele>
        <time>2014-01-30T15:26:21Z</time>
      </trkpt>
      <trkpt lat="45.37616" lon="6.53491">
        <ele>1956.02</ele>
        <time>2014-01-30T15:26:23Z</time>
      </trkpt>
      <trkpt lat="45.37625" lon="6.53459">
        <ele>1951.78</ele>
        <time>2014-01-30T15:26:26Z</time>
      </trkpt>
      <trkpt lat="45.37635" lon="6.53429">
        <ele>1946.81</ele>
        <time>2014-01-30T15:26:29Z</time>
      </trkpt>
      <trkpt lat="45.37639" lon="6.53399">
        <ele>1941.74</ele>
        <time>2014-01-30T15:26:31Z</time>
      </trkpt>
      <trkpt lat="45.37644" lon="6.53373">
        <ele>1939.32</ele>
        <time>2014-01-30T15:26:33Z</time>
      </trkpt>
      <trkpt lat="45.37648" lon="6.53345">
        <ele>1938.1</ele>
        <time>2014-01-30T15:26:36Z</time>
      </trkpt>
      <trkpt lat="45.3765" lon="6.53319">
        <ele>1936.88</ele>
        <time>2014-01-30T15:26:39Z</time>
      </trkpt>
      <trkpt lat="45.37652" lon="6.53283">
        <ele>1935.23</ele>
        <time>2014-01-30T15:26:42Z</time>
      </trkpt>
      <trkpt lat="45.37657" lon="6.53257">
        <ele>1933.48</ele>
        <time>2014-01-30T15:26:44Z</time>
      </trkpt>
      <trkpt lat="45.3766" lon="6.53226">
        <ele>1931.87</ele>
        <time>2014-01-30T15:26:47Z</time>
      </trkpt>
      <trkpt lat="45.37659" lon="6.53196">
        <ele>1930.24</ele>
        <time>2014-01-30T15:26:50Z</time>
      </trkpt>
      <trkpt lat="45.37654" lon="6.53172">
        <ele>1927.81</ele>
        <time>2014-01-30T15:26:53Z</time>
      </trkpt>
      <trkpt lat="45.37645" lon="6.53148">
        <ele>1928.19</ele>
        <time>2014-01-30T15:26:58Z</time>
      </trkpt>
      <trkpt lat="45.37639" lon="6.53119">
        <ele>1919.15</ele>
        <time>2014-01-30T15:27:02Z</time>
      </trkpt>
      <trkpt lat="45.37627" lon="6.53087">
        <ele>1911.97</ele>
        <time>2014-01-30T15:27:06Z</time>
      </trkpt>
      <trkpt lat="45.37615" lon="6.53068">
        <ele>1911.29</ele>
        <time>2014-01-30T15:27:09Z</time>
      </trkpt>
      <trkpt lat="45.37601" lon="6.53041">
        <ele>1905.17</ele>
        <time>2014-01-30T15:27:13Z</time>
      </trkpt>
      <trkpt lat="45.37594" lon="6.53009">
        <ele>1895.59</ele>
        <time>2014-01-30T15:27:16Z</time>
      </trkpt>
      <trkpt lat="45.37593" lon="6.52982">
        <ele>1889.33</ele>
        <time>2014-01-30T15:27:19Z</time>
      </trkpt>
      <trkpt lat="45.37597" lon="6.52955">
        <ele>1885.27</ele>
        <time>2014-01-30T15:27:23Z</time>
      </trkpt>
      <trkpt lat="45.37599" lon="6.52927">
        <ele>1881.18</ele>
        <time>2014-01-30T15:27:27Z</time>
      </trkpt>
      <trkpt lat="45.37604" lon="6.52903">
        <ele>1876.08</ele>
        <time>2014-01-30T15:27:32Z</time>
      </trkpt>
      <trkpt lat="45.3761" lon="6.52876">
        <ele>1869.79</ele>
        <time>2014-01-30T15:27:36Z</time>
      </trkpt>
      <trkpt lat="45.37608" lon="6.5285">
        <ele>1863.15</ele>
        <time>2014-01-30T15:27:40Z</time>
      </trkpt>
      <trkpt lat="45.37601" lon="6.52826">
        <ele>1857.11</ele>
        <time>2014-01-30T15:27:43Z</time>
      </trkpt>
      <trkpt lat="45.37605" lon="6.52796">
        <ele>1850.04</ele>
        <time>2014-01-30T15:27:46Z</time>
      </trkpt>
      <trkpt lat="45.37598" lon="6.52768">
        <ele>1846.54</ele>
        <time>2014-01-30T15:27:49Z</time>
      </trkpt>
      <trkpt lat="45.37599" lon="6.52741">
        <ele>1842.05</ele>
        <time>2014-01-30T15:27:52Z</time>
      </trkpt>
      <trkpt lat="45.37591" lon="6.52714">
        <ele>1838.66</ele>
        <time>2014-01-30T15:27:55Z</time>
      </trkpt>
      <trkpt lat="45.37582" lon="6.5269">
        <ele>1834.78</ele>
        <time>2014-01-30T15:27:58Z</time>
      </trkpt>
      <trkpt lat="45.37566" lon="6.52679">
        <ele>1827.79</ele>
        <time>2014-01-30T15:28:01Z</time>
      </trkpt>
      <trkpt lat="45.37545" lon="6.52683">
        <ele>1824.29</ele>
        <time>2014-01-30T15:28:04Z</time>
      </trkpt>
      <trkpt lat="45.37526" lon="6.5269">
        <ele>1822.84</ele>
        <time>2014-01-30T15:28:07Z</time>
      </trkpt>
      <trkpt lat="45.37509" lon="6.52699">
        <ele>1822.82</ele>
        <time>2014-01-30T15:28:10Z</time>
      </trkpt>
      <trkpt lat="45.37491" lon="6.52709">
        <ele>1822.81</ele>
        <time>2014-01-30T15:28:13Z</time>
      </trkpt>
      <trkpt lat="45.3747" lon="6.5272">
        <ele>1821.71</ele>
        <time>2014-01-30T15:28:17Z</time>
      </trkpt>
      <trkpt lat="45.37451" lon="6.52729">
        <ele>1819.9</ele>
        <time>2014-01-30T15:28:24Z</time>
      </trkpt>
      <trkpt lat="45.37437" lon="6.52747">
        <ele>1812.67</ele>
        <time>2014-01-30T15:28:30Z</time>
      </trkpt>
      <trkpt lat="45.37427" lon="6.52769">
        <ele>1807.35</ele>
        <time>2014-01-30T15:28:35Z</time>
      </trkpt>
      <trkpt lat="45.37415" lon="6.52797">
        <ele>1803.73</ele>
        <time>2014-01-30T15:28:40Z</time>
      </trkpt>
      <trkpt lat="45.37405" lon="6.52826">
        <ele>1803.55</ele>
        <time>2014-01-30T15:28:44Z</time>
      </trkpt>
      <trkpt lat="45.37396" lon="6.52848">
        <ele>1801.9</ele>
        <time>2014-01-30T15:28:47Z</time>
      </trkpt>
      <trkpt lat="45.37381" lon="6.52875">
        <ele>1801.88</ele>
        <time>2014-01-30T15:28:51Z</time>
      </trkpt>
      <trkpt lat="45.3737" lon="6.52898">
        <ele>1804.16</ele>
        <time>2014-01-30T15:28:54Z</time>
      </trkpt>
      <trkpt lat="45.37357" lon="6.52921">
        <ele>1804.28</ele>
        <time>2014-01-30T15:28:57Z</time>
      </trkpt>
      <trkpt lat="45.37335" lon="6.52926">
        <ele>1803.73</ele>
        <time>2014-01-30T15:29:00Z</time>
      </trkpt>
      <trkpt lat="45.37311" lon="6.52929">
        <ele>1802.25</ele>
        <time>2014-01-30T15:29:03Z</time>
      </trkpt>
      <trkpt lat="45.37293" lon="6.52911">
        <ele>1798.58</ele>
        <time>2014-01-30T15:29:07Z</time>
      </trkpt>
      <trkpt lat="45.37292" lon="6.52879">
        <ele>1795.18</ele>
        <time>2014-01-30T15:29:10Z</time>
      </trkpt>
      <trkpt lat="45.37292" lon="6.52846">
        <ele>1792.43</ele>
        <time>2014-01-30T15:29:13Z</time>
      </trkpt>
      <trkpt lat="45.37292" lon="6.52811">
        <ele>1791.11</ele>
        <time>2014-01-30T15:29:16Z</time>
      </trkpt>
      <trkpt lat="45.37293" lon="6.52779">
        <ele>1789.22</ele>
        <time>2014-01-30T15:29:19Z</time>
      </trkpt>
      <trkpt lat="45.37291" lon="6.52747">
        <ele>1785.88</ele>
        <time>2014-01-30T15:29:22Z</time>
      </trkpt>
      <trkpt lat="45.3729" lon="6.52717">
        <ele>1780.71</ele>
        <time>2014-01-30T15:29:25Z</time>
      </trkpt>
      <trkpt lat="45.37287" lon="6.52685">
        <ele>1777.27</ele>
        <time>2014-01-30T15:29:28Z</time>
      </trkpt>
      <trkpt lat="45.37283" lon="6.52659">
        <ele>1775</ele>
        <time>2014-01-30T15:29:30Z</time>
      </trkpt>
      <trkpt lat="45.37278" lon="6.52631">
        <ele>1772.5</ele>
        <time>2014-01-30T15:29:32Z</time>
      </trkpt>
      <trkpt lat="45.37273" lon="6.52605">
        <ele>1770.44</ele>
        <time>2014-01-30T15:29:34Z</time>
      </trkpt>
      <trkpt lat="45.3727" lon="6.52578">
        <ele>1768.96</ele>
        <time>2014-01-30T15:29:36Z</time>
      </trkpt>
      <trkpt lat="45.37268" lon="6.52552">
        <ele>1766.97</ele>
        <time>2014-01-30T15:29:38Z</time>
      </trkpt>
      <trkpt lat="45.37273" lon="6.52523">
        <ele>1764.51</ele>
        <time>2014-01-30T15:29:41Z</time>
      </trkpt>
      <trkpt lat="45.37282" lon="6.52497">
        <ele>1762.38</ele>
        <time>2014-01-30T15:29:44Z</time>
      </trkpt>
      <trkpt lat="45.37295" lon="6.52473">
        <ele>1758.49</ele>
        <time>2014-01-30T15:29:47Z</time>
      </trkpt>
      <trkpt lat="45.37309" lon="6.52451">
        <ele>1755.24</ele>
        <time>2014-01-30T15:29:50Z</time>
      </trkpt>
      <trkpt lat="45.37323" lon="6.52434">
        <ele>1756.53</ele>
        <time>2014-01-30T15:29:53Z</time>
      </trkpt>
      <trkpt lat="45.37338" lon="6.52415">
        <ele>1757.82</ele>
        <time>2014-01-30T15:29:56Z</time>
      </trkpt>
      <trkpt lat="45.37353" lon="6.52388">
        <ele>1754.27</ele>
        <time>2014-01-30T15:29:59Z</time>
      </trkpt>
      <trkpt lat="45.37374" lon="6.5237">
        <ele>1753.23</ele>
        <time>2014-01-30T15:30:02Z</time>
      </trkpt>
      <trkpt lat="45.37398" lon="6.52369">
        <ele>1756.21</ele>
        <time>2014-01-30T15:30:05Z</time>
      </trkpt>
      <trkpt lat="45.37425" lon="6.52361">
        <ele>1753.37</ele>
        <time>2014-01-30T15:30:08Z</time>
      </trkpt>
      <trkpt lat="45.37442" lon="6.52351">
        <ele>1746.08</ele>
        <time>2014-01-30T15:30:10Z</time>
      </trkpt>
      <trkpt lat="45.37459" lon="6.5234">
        <ele>1743.76</ele>
        <time>2014-01-30T15:30:12Z</time>
      </trkpt>
      <trkpt lat="45.37475" lon="6.52328">
        <ele>1739.23</ele>
        <time>2014-01-30T15:30:14Z</time>
      </trkpt>
      <trkpt lat="45.37492" lon="6.52314">
        <ele>1735.41</ele>
        <time>2014-01-30T15:30:16Z</time>
      </trkpt>
      <trkpt lat="45.37508" lon="6.523">
        <ele>1732.4</ele>
        <time>2014-01-30T15:30:18Z</time>
      </trkpt>
      <trkpt lat="45.37525" lon="6.52283">
        <ele>1727.56</ele>
        <time>2014-01-30T15:30:20Z</time>
      </trkpt>
      <trkpt lat="45.37539" lon="6.52261">
        <ele>1724.5</ele>
        <time>2014-01-30T15:30:22Z</time>
      </trkpt>
      <trkpt lat="45.37549" lon="6.52235">
        <ele>1721.37</ele>
        <time>2014-01-30T15:30:24Z</time>
      </trkpt>
      <trkpt lat="45.37553" lon="6.5221">
        <ele>1717.96</ele>
        <time>2014-01-30T15:30:26Z</time>
      </trkpt>
      <trkpt lat="45.37557" lon="6.52177">
        <ele>1714.01</ele>
        <time>2014-01-30T15:30:29Z</time>
      </trkpt>
      <trkpt lat="45.37565" lon="6.52144">
        <ele>1713.77</ele>
        <time>2014-01-30T15:30:32Z</time>
      </trkpt>
      <trkpt lat="45.37583" lon="6.52127">
        <ele>1717.89</ele>
        <time>2014-01-30T15:30:35Z</time>
      </trkpt>
      <trkpt lat="45.37611" lon="6.5213">
        <ele>1718.24</ele>
        <time>2014-01-30T15:30:38Z</time>
      </trkpt>
      <trkpt lat="45.37635" lon="6.52144">
        <ele>1717.52</ele>
        <time>2014-01-30T15:30:41Z</time>
      </trkpt>
      <trkpt lat="45.37655" lon="6.52154">
        <ele>1715.15</ele>
        <time>2014-01-30T15:30:45Z</time>
      </trkpt>
      <trkpt lat="45.37661" lon="6.52124">
        <ele>1706.61</ele>
        <time>2014-01-30T15:30:50Z</time>
      </trkpt>
      <trkpt lat="45.37653" lon="6.52089">
        <ele>1701.58</ele>
        <time>2014-01-30T15:30:53Z</time>
      </trkpt>
      <trkpt lat="45.3764" lon="6.52062">
        <ele>1697.66</ele>
        <time>2014-01-30T15:30:55Z</time>
      </trkpt>
      <trkpt lat="45.37627" lon="6.52039">
        <ele>1694.49</ele>
        <time>2014-01-30T15:30:57Z</time>
      </trkpt>
      <trkpt lat="45.37616" lon="6.52018">
        <ele>1693.11</ele>
        <time>2014-01-30T15:30:59Z</time>
      </trkpt>
      <trkpt lat="45.37609" lon="6.51987">
        <ele>1687.45</ele>
        <time>2014-01-30T15:31:02Z</time>
      </trkpt>
      <trkpt lat="45.37608" lon="6.51958">
        <ele>1681.06</ele>
        <time>2014-01-30T15:31:05Z</time>
      </trkpt>
      <trkpt lat="45.37618" lon="6.51934">
        <ele>1678.75</ele>
        <time>2014-01-30T15:31:08Z</time>
      </trkpt>
      <trkpt lat="45.37639" lon="6.51925">
        <ele>1682.5</ele>
        <time>2014-01-30T15:31:11Z</time>
      </trkpt>
      <trkpt lat="45.37657" lon="6.51924">
        <ele>1681.43</ele>
        <time>2014-01-30T15:31:13Z</time>
      </trkpt>
      <trkpt lat="45.37681" lon="6.51923">
        <ele>1678.03</ele>
        <time>2014-01-30T15:31:16Z</time>
      </trkpt>
      <trkpt lat="45.37701" lon="6.51914">
        <ele>1673.04</ele>
        <time>2014-01-30T15:31:19Z</time>
      </trkpt>
      <trkpt lat="45.37721" lon="6.51898">
        <ele>1670.92</ele>
        <time>2014-01-30T15:31:22Z</time>
      </trkpt>
      <trkpt lat="45.37741" lon="6.51883">
        <ele>1665.79</ele>
        <time>2014-01-30T15:31:25Z</time>
      </trkpt>
      <trkpt lat="45.37757" lon="6.51858">
        <ele>1658.88</ele>
        <time>2014-01-30T15:31:28Z</time>
      </trkpt>
      <trkpt lat="45.37765" lon="6.5183">
        <ele>1655.26</ele>
        <time>2014-01-30T15:31:31Z</time>
      </trkpt>
      <trkpt lat="45.37764" lon="6.51798">
        <ele>1650.05</ele>
        <time>2014-01-30T15:31:34Z</time>
      </trkpt>
      <trkpt lat="45.37757" lon="6.51766">
        <ele>1646.15</ele>
        <time>2014-01-30T15:31:36Z</time>
      </trkpt>
      <trkpt lat="45.37743" lon="6.5174">
        <ele>1643.23</ele>
        <time>2014-01-30T15:31:38Z</time>
      </trkpt>
      <trkpt lat="45.37728" lon="6.51718">
        <ele>1640.53</ele>
        <time>2014-01-30T15:31:40Z</time>
      </trkpt>
      <trkpt lat="45.37709" lon="6.51705">
        <ele>1639.72</ele>
        <time>2014-01-30T15:31:42Z</time>
      </trkpt>
      <trkpt lat="45.37692" lon="6.51695">
        <ele>1639.01</ele>
        <time>2014-01-30T15:31:44Z</time>
      </trkpt>
      <trkpt lat="45.37675" lon="6.51686">
        <ele>1638.82</ele>
        <time>2014-01-30T15:31:46Z</time>
      </trkpt>
      <trkpt lat="45.37651" lon="6.51674">
        <ele>1636.95</ele>
        <time>2014-01-30T15:31:49Z</time>
      </trkpt>
      <trkpt lat="45.37633" lon="6.5166">
        <ele>1634.33</ele>
        <time>2014-01-30T15:31:52Z</time>
      </trkpt>
      <trkpt lat="45.37613" lon="6.51644">
        <ele>1631.58</ele>
        <time>2014-01-30T15:31:56Z</time>
      </trkpt>
      <trkpt lat="45.37594" lon="6.5163">
        <ele>1630.98</ele>
        <time>2014-01-30T15:32:00Z</time>
      </trkpt>
      <trkpt lat="45.37576" lon="6.5161">
        <ele>1627.85</ele>
        <time>2014-01-30T15:32:04Z</time>
      </trkpt>
      <trkpt lat="45.37564" lon="6.51589">
        <ele>1622.76</ele>
        <time>2014-01-30T15:32:07Z</time>
      </trkpt>
      <trkpt lat="45.3755" lon="6.51567">
        <ele>1619.95</ele>
        <time>2014-01-30T15:32:10Z</time>
      </trkpt>
      <trkpt lat="45.37538" lon="6.51544">
        <ele>1617.8</ele>
        <time>2014-01-30T15:32:13Z</time>
      </trkpt>
      <trkpt lat="45.37533" lon="6.51513">
        <ele>1612.66</ele>
        <time>2014-01-30T15:32:16Z</time>
      </trkpt>
      <trkpt lat="45.37523" lon="6.51485">
        <ele>1606.21</ele>
        <time>2014-01-30T15:32:19Z</time>
      </trkpt>
      <trkpt lat="45.37518" lon="6.51453">
        <ele>1599.67</ele>
        <time>2014-01-30T15:32:22Z</time>
      </trkpt>
      <trkpt lat="45.37515" lon="6.51427">
        <ele>1596.18</ele>
        <time>2014-01-30T15:32:24Z</time>
      </trkpt>
      <trkpt lat="45.37508" lon="6.51403">
        <ele>1592.52</ele>
        <time>2014-01-30T15:32:26Z</time>
      </trkpt>
      <trkpt lat="45.37503" lon="6.51374">
        <ele>1588.61</ele>
        <time>2014-01-30T15:32:29Z</time>
      </trkpt>
      <trkpt lat="45.37494" lon="6.5135">
        <ele>1585.34</ele>
        <time>2014-01-30T15:32:32Z</time>
      </trkpt>
      <trkpt lat="45.37486" lon="6.51323">
        <ele>1581.89</ele>
        <time>2014-01-30T15:32:35Z</time>
      </trkpt>
      <trkpt lat="45.37482" lon="6.51296">
        <ele>1578.74</ele>
        <time>2014-01-30T15:32:39Z</time>
      </trkpt>
      <trkpt lat="45.37474" lon="6.5127">
        <ele>1575.68</ele>
        <time>2014-01-30T15:32:42Z</time>
      </trkpt>
      <trkpt lat="45.37465" lon="6.51242">
        <ele>1571.57</ele>
        <time>2014-01-30T15:32:45Z</time>
      </trkpt>
      <trkpt lat="45.37454" lon="6.5122">
        <ele>1567.38</ele>
        <time>2014-01-30T15:32:48Z</time>
      </trkpt>
      <trkpt lat="45.37443" lon="6.51197">
        <ele>1563.06</ele>
        <time>2014-01-30T15:32:51Z</time>
      </trkpt>
      <trkpt lat="45.37435" lon="6.51169">
        <ele>1559.83</ele>
        <time>2014-01-30T15:32:55Z</time>
      </trkpt>
      <trkpt lat="45.37431" lon="6.51136">
        <ele>1556.95</ele>
        <time>2014-01-30T15:32:58Z</time>
      </trkpt>
      <trkpt lat="45.37439" lon="6.51107">
        <ele>1555.86</ele>
        <time>2014-01-30T15:33:01Z</time>
      </trkpt>
      <trkpt lat="45.37443" lon="6.51082">
        <ele>1554.75</ele>
        <time>2014-01-30T15:33:04Z</time>
      </trkpt>
      <trkpt lat="45.3745" lon="6.5105">
        <ele>1552.77</ele>
        <time>2014-01-30T15:33:06Z</time>
      </trkpt>
      <trkpt lat="45.37451" lon="6.51018">
        <ele>1549.84</ele>
        <time>2014-01-30T15:33:10Z</time>
      </trkpt>
      <trkpt lat="45.37437" lon="6.50995">
        <ele>1546.77</ele>
        <time>2014-01-30T15:33:14Z</time>
      </trkpt>
      <trkpt lat="45.37428" lon="6.50965">
        <ele>1542.36</ele>
        <time>2014-01-30T15:33:17Z</time>
      </trkpt>
      <trkpt lat="45.37425" lon="6.50937">
        <ele>1538.56</ele>
        <time>2014-01-30T15:33:20Z</time>
      </trkpt>
      <trkpt lat="45.37416" lon="6.5091">
        <ele>1533.2</ele>
        <time>2014-01-30T15:33:23Z</time>
      </trkpt>
      <trkpt lat="45.37399" lon="6.50893">
        <ele>1528.54</ele>
        <time>2014-01-30T15:33:26Z</time>
      </trkpt>
      <trkpt lat="45.37379" lon="6.50891">
        <ele>1524.64</ele>
        <time>2014-01-30T15:33:29Z</time>
      </trkpt>
      <trkpt lat="45.37368" lon="6.50864">
        <ele>1518.11</ele>
        <time>2014-01-30T15:33:36Z</time>
      </trkpt>
      <trkpt lat="45.37389" lon="6.50849">
        <ele>1519.8</ele>
        <time>2014-01-30T15:33:38Z</time>
      </trkpt>
      <trkpt lat="45.37407" lon="6.50844">
        <ele>1522.28</ele>
        <time>2014-01-30T15:33:40Z</time>
      </trkpt>
      <trkpt lat="45.3743" lon="6.5085">
        <ele>1525.99</ele>
        <time>2014-01-30T15:33:43Z</time>
      </trkpt>
      <trkpt lat="45.3745" lon="6.50856">
        <ele>1526.27</ele>
        <time>2014-01-30T15:33:46Z</time>
      </trkpt>
      <trkpt lat="45.37469" lon="6.50864">
        <ele>1520.67</ele>
        <time>2014-01-30T15:33:49Z</time>
      </trkpt>
      <trkpt lat="45.37486" lon="6.50876">
        <ele>1519.37</ele>
        <time>2014-01-30T15:33:52Z</time>
      </trkpt>
      <trkpt lat="45.3751" lon="6.5087">
        <ele>1513.9</ele>
        <time>2014-01-30T15:33:56Z</time>
      </trkpt>
      <trkpt lat="45.37527" lon="6.50859">
        <ele>1509.3</ele>
        <time>2014-01-30T15:33:59Z</time>
      </trkpt>
      <trkpt lat="45.37541" lon="6.50844">
        <ele>1508.4</ele>
        <time>2014-01-30T15:34:02Z</time>
      </trkpt>
      <trkpt lat="45.37558" lon="6.50827">
        <ele>1505.14</ele>
        <time>2014-01-30T15:34:05Z</time>
      </trkpt>
      <trkpt lat="45.3757" lon="6.50808">
        <ele>1501.74</ele>
        <time>2014-01-30T15:34:08Z</time>
      </trkpt>
      <trkpt lat="45.3758" lon="6.50783">
        <ele>1497.98</ele>
        <time>2014-01-30T15:34:12Z</time>
      </trkpt>
      <trkpt lat="45.37597" lon="6.50769">
        <ele>1493.63</ele>
        <time>2014-01-30T15:34:17Z</time>
      </trkpt>
      <trkpt lat="45.37615" lon="6.50755">
        <ele>1490.61</ele>
        <time>2014-01-30T15:34:21Z</time>
      </trkpt>
      <trkpt lat="45.37635" lon="6.50742">
        <ele>1485.72</ele>
        <time>2014-01-30T15:34:26Z</time>
      </trkpt>
      <trkpt lat="45.37658" lon="6.5074">
        <ele>1478.08</ele>
        <time>2014-01-30T15:34:30Z</time>
      </trkpt>
      <trkpt lat="45.37679" lon="6.50735">
        <ele>1470.96</ele>
        <time>2014-01-30T15:34:34Z</time>
      </trkpt>
      <trkpt lat="45.37684" lon="6.50705">
        <ele>1464.76</ele>
        <time>2014-01-30T15:34:38Z</time>
      </trkpt>
      <trkpt lat="45.37679" lon="6.50677">
        <ele>1460.66</ele>
        <time>2014-01-30T15:34:41Z</time>
      </trkpt>
      <trkpt lat="45.37687" lon="6.50648">
        <ele>1454.44</ele>
        <time>2014-01-30T15:34:45Z</time>
      </trkpt>
      <trkpt lat="45.37681" lon="6.5062">
        <ele>1450.88</ele>
        <time>2014-01-30T15:34:49Z</time>
      </trkpt>
      <trkpt lat="45.37689" lon="6.50597">
        <ele>1445.58</ele>
        <time>2014-01-30T15:34:53Z</time>
      </trkpt>
      <trkpt lat="45.37696" lon="6.50565">
        <ele>1439.36</ele>
        <time>2014-01-30T15:34:57Z</time>
      </trkpt>
      <trkpt lat="45.37708" lon="6.50545">
        <ele>1436.67</ele>
        <time>2014-01-30T15:35:00Z</time>
      </trkpt>
      <trkpt lat="45.37711" lon="6.50516">
        <ele>1432.9</ele>
        <time>2014-01-30T15:35:04Z</time>
      </trkpt>
      <trkpt lat="45.37723" lon="6.50494">
        <ele>1429.53</ele>
        <time>2014-01-30T15:35:09Z</time>
      </trkpt>
      <trkpt lat="45.37741" lon="6.50483">
        <ele>1427.04</ele>
        <time>2014-01-30T15:35:13Z</time>
      </trkpt>
      <trkpt lat="45.37759" lon="6.50476">
        <ele>1425.38</ele>
        <time>2014-01-30T15:35:19Z</time>
      </trkpt>
      <trkpt lat="45.3775" lon="6.50451">
        <ele>1422.73</ele>
        <time>2014-01-30T15:35:31Z</time>
      </trkpt>
      <trkpt lat="45.37742" lon="6.50426">
        <ele>1421.17</ele>
        <time>2014-01-30T15:39:57Z</time>
      </trkpt>
      <trkpt lat="45.37758" lon="6.50437">
        <ele>1420.85</ele>
        <time>2014-01-30T15:40:41Z</time>
      </trkpt>
      <trkpt lat="45.37774" lon="6.50426">
        <ele>1418.54</ele>
        <time>2014-01-30T15:41:07Z</time>
      </trkpt>
      <trkpt lat="45.37792" lon="6.50419">
        <ele>1416.31</ele>
        <time>2014-01-30T15:41:36Z</time>
      </trkpt>
      <trkpt lat="45.37803" lon="6.50399">
        <ele>1413.35</ele>
        <time>2014-01-30T15:42:01Z</time>
      </trkpt>
      <trkpt lat="45.37813" lon="6.50376">
        <ele>1409.64</ele>
        <time>2014-01-30T15:42:25Z</time>
      </trkpt>
      <trkpt lat="45.37831" lon="6.50375">
        <ele>1406.79</ele>
        <time>2014-01-30T15:43:01Z</time>
      </trkpt>
      <trkpt lat="45.37837" lon="6.504">
        <ele>1408.29</ele>
        <time>2014-01-30T15:43:34Z</time>
      </trkpt>
      <trkpt lat="45.37853" lon="6.50417">
        <ele>1406.86</ele>
        <time>2014-01-30T15:43:51Z</time>
      </trkpt>
      <trkpt lat="45.3787" lon="6.50429">
        <ele>1404.76</ele>
        <time>2014-01-30T15:44:00Z</time>
      </trkpt>
      <trkpt lat="45.37886" lon="6.50443">
        <ele>1403.42</ele>
        <time>2014-01-30T15:44:18Z</time>
      </trkpt>
      <trkpt lat="45.37902" lon="6.50455">
        <ele>1401.3</ele>
        <time>2014-01-30T15:44:54Z</time>
      </trkpt>
      <trkpt lat="45.37886" lon="6.5044">
        <ele>1403.1</ele>
        <time>2014-01-30T15:47:26Z</time>
      </trkpt>
      <trkpt lat="45.37871" lon="6.50426">
        <ele>1404.26</ele>
        <time>2014-01-30T15:47:42Z</time>
      </trkpt>
      <trkpt lat="45.37857" lon="6.50409">
        <ele>1405.1</ele>
        <time>2014-01-30T15:47:58Z</time>
      </trkpt>
      <trkpt lat="45.37842" lon="6.50394">
        <ele>1406.6</ele>
        <time>2014-01-30T15:48:28Z</time>
      </trkpt>
      <trkpt lat="45.37829" lon="6.50374">
        <ele>1407</ele>
        <time>2014-01-30T15:48:47Z</time>
      </trkpt>
      <trkpt lat="45.37814" lon="6.50359">
        <ele>1407.46</ele>
        <time>2014-01-30T15:49:06Z</time>
      </trkpt>
      <trkpt lat="45.37815" lon="6.50385">
        <ele>1410.27</ele>
        <time>2014-01-30T15:50:25Z</time>
      </trkpt>
      <trkpt lat="45.37799" lon="6.50408">
        <ele>1414.66</ele>
        <time>2014-01-30T15:50:45Z</time>
      </trkpt>
      <trkpt lat="45.37788" lon="6.50431">
        <ele>1418.1</ele>
        <time>2014-01-30T15:50:47Z</time>
      </trkpt>
      <trkpt lat="45.37769" lon="6.50426">
        <ele>1418.81</ele>
        <time>2014-01-30T15:51:17Z</time>
      </trkpt>
      <trkpt lat="45.37754" lon="6.5044">
        <ele>1421.37</ele>
        <time>2014-01-30T15:51:40Z</time>
      </trkpt>
      <trkpt lat="45.37769" lon="6.50455">
        <ele>1422.67</ele>
        <time>2014-01-30T15:53:36Z</time>
      </trkpt>
    </trkseg>
  </trk>
</gpx>